<?xml version="1.0" encoding="UTF-8" standalone="no" ?><gpx xmlns="http://www.topografix.com/GPX/1/1" xmlns:gpxx="http://www.garmin.com/xmlschemas/WaypointExtension/v1" xmlns:gpxtrx="http://www.garmin.com/xmlschemas/GpxExtensions/v3" xmlns:gpxtpx="http://www.garmin.com/xmlschemas/TrackPointExtension/v1" creator="Oregon 450" version="1.1" xmlns:xsi="http://www.w3.org/2001/XMLSchema-instance" xsi:schemaLocation="http://www.topografix.com/GPX/1/1 http://www.topografix.com/GPX/1/1/gpx.xsd http://www.garmin.com/xmlschemas/WaypointExtension/v1 http://www8.garmin.com/xmlschemas/WaypointExtensionv1.xsd http://www.garmin.com/xmlschemas/TrackPointExtension/v1 http://www.garmin.com/xmlschemas/TrackPointExtensionv1.xsd"><metadata><link href="http://www.garmin.com"><text>Garmin International</text></link><time>2011-05-25T16:24:36Z</time></metadata><trk><name>Auto 22-MAY-11 10:44:26</name><extensions><gpxtrx:TrackExtension><gpxtrx:DisplayColor>Blue</gpxtrx:DisplayColor></gpxtrx:TrackExtension></extensions><trkseg><trkpt lat="50.038857" lon="14.401833"><ele>150.58</ele><time>2011-05-22T08:44:26Z</time></trkpt><trkpt lat="50.038803" lon="14.401729"><ele>152.99</ele><time>2011-05-22T08:44:28Z</time></trkpt><trkpt lat="50.038754" lon="14.401618"><ele>153.95</ele><time>2011-05-22T08:44:30Z</time></trkpt><trkpt lat="50.038368" lon="14.400936"><ele>152.03</ele><time>2011-05-22T08:44:44Z</time></trkpt><trkpt lat="50.037983" lon="14.400053"><ele>153.47</ele><time>2011-05-22T08:45:00Z</time></trkpt><trkpt lat="50.037888" lon="14.399634"><ele>153.47</ele><time>2011-05-22T08:45:05Z</time></trkpt><trkpt lat="50.037838" lon="14.399239"><ele>153.95</ele><time>2011-05-22T08:45:10Z</time></trkpt><trkpt lat="50.037849" lon="14.398769"><ele>156.35</ele><time>2011-05-22T08:45:17Z</time></trkpt><trkpt lat="50.038036" lon="14.397702"><ele>158.27</ele><time>2011-05-22T08:45:35Z</time></trkpt><trkpt lat="50.038105" lon="14.397479"><ele>154.91</ele><time>2011-05-22T08:45:39Z</time></trkpt><trkpt lat="50.038120" lon="14.397425"><ele>158.75</ele><time>2011-05-22T08:45:40Z</time></trkpt><trkpt lat="50.038303" lon="14.397070"><ele>162.12</ele><time>2011-05-22T08:45:48Z</time></trkpt><trkpt lat="50.038330" lon="14.397037"><ele>158.75</ele><time>2011-05-22T08:45:49Z</time></trkpt><trkpt lat="50.038486" lon="14.396910"><ele>160.20</ele><time>2011-05-22T08:45:54Z</time></trkpt><trkpt lat="50.038780" lon="14.396908"><ele>160.68</ele><time>2011-05-22T08:46:01Z</time></trkpt><trkpt lat="50.039085" lon="14.396940"><ele>159.24</ele><time>2011-05-22T08:46:08Z</time></trkpt><trkpt lat="50.039703" lon="14.397281"><ele>160.68</ele><time>2011-05-22T08:46:21Z</time></trkpt><trkpt lat="50.039780" lon="14.397376"><ele>161.16</ele><time>2011-05-22T08:46:23Z</time></trkpt><trkpt lat="50.039986" lon="14.397673"><ele>159.24</ele><time>2011-05-22T08:46:29Z</time></trkpt><trkpt lat="50.040020" lon="14.397711"><ele>162.12</ele><time>2011-05-22T08:46:30Z</time></trkpt><trkpt lat="50.040058" lon="14.397744"><ele>161.16</ele><time>2011-05-22T08:46:31Z</time></trkpt><trkpt lat="50.040215" lon="14.397857"><ele>161.64</ele><time>2011-05-22T08:46:35Z</time></trkpt><trkpt lat="50.040257" lon="14.397869"><ele>161.64</ele><time>2011-05-22T08:46:36Z</time></trkpt><trkpt lat="50.040295" lon="14.397876"><ele>161.64</ele><time>2011-05-22T08:46:37Z</time></trkpt><trkpt lat="50.040340" lon="14.397876"><ele>161.16</ele><time>2011-05-22T08:46:38Z</time></trkpt><trkpt lat="50.040390" lon="14.397868"><ele>161.16</ele><time>2011-05-22T08:46:39Z</time></trkpt><trkpt lat="50.040432" lon="14.397854"><ele>160.68</ele><time>2011-05-22T08:46:40Z</time></trkpt><trkpt lat="50.040470" lon="14.397833"><ele>162.60</ele><time>2011-05-22T08:46:41Z</time></trkpt><trkpt lat="50.040508" lon="14.397802"><ele>163.08</ele><time>2011-05-22T08:46:42Z</time></trkpt><trkpt lat="50.040539" lon="14.397774"><ele>162.60</ele><time>2011-05-22T08:46:43Z</time></trkpt><trkpt lat="50.040825" lon="14.397148"><ele>164.04</ele><time>2011-05-22T08:46:56Z</time></trkpt><trkpt lat="50.041172" lon="14.396461"><ele>164.52</ele><time>2011-05-22T08:47:09Z</time></trkpt><trkpt lat="50.041382" lon="14.395947"><ele>164.52</ele><time>2011-05-22T08:47:17Z</time></trkpt><trkpt lat="50.041634" lon="14.395018"><ele>165.96</ele><time>2011-05-22T08:47:32Z</time></trkpt><trkpt lat="50.041584" lon="14.394403"><ele>167.89</ele><time>2011-05-22T08:47:44Z</time></trkpt><trkpt lat="50.041283" lon="14.393813"><ele>170.77</ele><time>2011-05-22T08:47:57Z</time></trkpt><trkpt lat="50.041210" lon="14.393436"><ele>172.21</ele><time>2011-05-22T08:48:04Z</time></trkpt><trkpt lat="50.041218" lon="14.393293"><ele>172.69</ele><time>2011-05-22T08:48:06Z</time></trkpt><trkpt lat="50.041298" lon="14.392244"><ele>171.25</ele><time>2011-05-22T08:48:20Z</time></trkpt><trkpt lat="50.041306" lon="14.392176"><ele>171.25</ele><time>2011-05-22T08:48:21Z</time></trkpt><trkpt lat="50.041317" lon="14.392106"><ele>171.25</ele><time>2011-05-22T08:48:22Z</time></trkpt><trkpt lat="50.041374" lon="14.391081"><ele>171.73</ele><time>2011-05-22T08:48:36Z</time></trkpt><trkpt lat="50.041370" lon="14.390679"><ele>171.73</ele><time>2011-05-22T08:48:42Z</time></trkpt><trkpt lat="50.041435" lon="14.390346"><ele>172.69</ele><time>2011-05-22T08:48:48Z</time></trkpt><trkpt lat="50.041466" lon="14.390333"><ele>172.69</ele><time>2011-05-22T08:48:49Z</time></trkpt><trkpt lat="50.041492" lon="14.390323"><ele>173.17</ele><time>2011-05-22T08:48:50Z</time></trkpt><trkpt lat="50.041523" lon="14.390301"><ele>173.17</ele><time>2011-05-22T08:48:51Z</time></trkpt><trkpt lat="50.041546" lon="14.390278"><ele>174.14</ele><time>2011-05-22T08:48:52Z</time></trkpt><trkpt lat="50.041573" lon="14.390255"><ele>173.66</ele><time>2011-05-22T08:48:53Z</time></trkpt><trkpt lat="50.041592" lon="14.390239"><ele>174.14</ele><time>2011-05-22T08:48:54Z</time></trkpt><trkpt lat="50.041618" lon="14.390212"><ele>173.66</ele><time>2011-05-22T08:48:55Z</time></trkpt><trkpt lat="50.041637" lon="14.390188"><ele>176.54</ele><time>2011-05-22T08:48:56Z</time></trkpt><trkpt lat="50.041725" lon="14.390110"><ele>171.73</ele><time>2011-05-22T08:49:00Z</time></trkpt><trkpt lat="50.041748" lon="14.390096"><ele>174.62</ele><time>2011-05-22T08:49:01Z</time></trkpt><trkpt lat="50.041904" lon="14.389857"><ele>176.06</ele><time>2011-05-22T08:49:11Z</time></trkpt><trkpt lat="50.041897" lon="14.389744"><ele>176.54</ele><time>2011-05-22T08:49:15Z</time></trkpt><trkpt lat="50.041935" lon="14.389707"><ele>176.06</ele><time>2011-05-22T08:49:27Z</time></trkpt><trkpt lat="50.041943" lon="14.389709"><ele>176.54</ele><time>2011-05-22T08:49:31Z</time></trkpt><trkpt lat="50.041962" lon="14.389746"><ele>177.50</ele><time>2011-05-22T08:49:43Z</time></trkpt><trkpt lat="50.042000" lon="14.389757"><ele>179.42</ele><time>2011-05-22T08:49:56Z</time></trkpt><trkpt lat="50.042027" lon="14.389774"><ele>179.90</ele><time>2011-05-22T08:50:18Z</time></trkpt><trkpt lat="50.042027" lon="14.389774"><ele>180.38</ele><time>2011-05-22T08:50:43Z</time></trkpt><trkpt lat="50.042000" lon="14.389755"><ele>180.38</ele><time>2011-05-22T08:50:57Z</time></trkpt><trkpt lat="50.042000" lon="14.389764"><ele>179.90</ele><time>2011-05-22T08:51:16Z</time></trkpt><trkpt lat="50.042004" lon="14.389762"><ele>180.38</ele><time>2011-05-22T08:51:53Z</time></trkpt><trkpt lat="50.042004" lon="14.389757"><ele>181.35</ele><time>2011-05-22T08:52:34Z</time></trkpt><trkpt lat="50.042004" lon="14.389751"><ele>181.83</ele><time>2011-05-22T08:53:13Z</time></trkpt><trkpt lat="50.042004" lon="14.389752"><ele>182.79</ele><time>2011-05-22T08:54:02Z</time></trkpt><trkpt lat="50.042000" lon="14.389757"><ele>182.79</ele><time>2011-05-22T08:54:42Z</time></trkpt><trkpt lat="50.042000" lon="14.389759"><ele>183.75</ele><time>2011-05-22T08:55:20Z</time></trkpt><trkpt lat="50.041996" lon="14.389753"><ele>184.71</ele><time>2011-05-22T08:55:59Z</time></trkpt><trkpt lat="50.041996" lon="14.389755"><ele>185.19</ele><time>2011-05-22T08:56:33Z</time></trkpt><trkpt lat="50.041996" lon="14.389755"><ele>185.19</ele><time>2011-05-22T08:57:06Z</time></trkpt><trkpt lat="50.042000" lon="14.389759"><ele>186.63</ele><time>2011-05-22T08:57:35Z</time></trkpt><trkpt lat="50.042000" lon="14.389755"><ele>187.11</ele><time>2011-05-22T08:58:07Z</time></trkpt><trkpt lat="50.042004" lon="14.389756"><ele>187.11</ele><time>2011-05-22T08:58:43Z</time></trkpt><trkpt lat="50.042007" lon="14.389757"><ele>188.08</ele><time>2011-05-22T08:59:17Z</time></trkpt><trkpt lat="50.042011" lon="14.389748"><ele>188.56</ele><time>2011-05-22T08:59:52Z</time></trkpt><trkpt lat="50.042007" lon="14.389760"><ele>188.56</ele><time>2011-05-22T09:00:11Z</time></trkpt><trkpt lat="50.042000" lon="14.389759"><ele>188.56</ele><time>2011-05-22T09:00:44Z</time></trkpt><trkpt lat="50.042000" lon="14.389759"><ele>189.04</ele><time>2011-05-22T09:01:15Z</time></trkpt><trkpt lat="50.041992" lon="14.389756"><ele>189.52</ele><time>2011-05-22T09:01:45Z</time></trkpt><trkpt lat="50.041992" lon="14.389755"><ele>190.00</ele><time>2011-05-22T09:02:06Z</time></trkpt><trkpt lat="50.041992" lon="14.389755"><ele>190.48</ele><time>2011-05-22T09:02:26Z</time></trkpt><trkpt lat="50.041992" lon="14.389755"><ele>185.67</ele><time>2011-05-22T09:02:36Z</time></trkpt><trkpt lat="50.041992" lon="14.389750"><ele>190.48</ele><time>2011-05-22T09:02:37Z</time></trkpt><trkpt lat="50.041992" lon="14.389750"><ele>185.67</ele><time>2011-05-22T09:02:46Z</time></trkpt><trkpt lat="50.041992" lon="14.389750"><ele>191.92</ele><time>2011-05-22T09:02:47Z</time></trkpt><trkpt lat="50.041992" lon="14.389750"><ele>190.96</ele><time>2011-05-22T09:02:48Z</time></trkpt><trkpt lat="50.041992" lon="14.389750"><ele>191.92</ele><time>2011-05-22T09:03:07Z</time></trkpt><trkpt lat="50.041992" lon="14.389750"><ele>191.44</ele><time>2011-05-22T09:03:24Z</time></trkpt><trkpt lat="50.041992" lon="14.389750"><ele>191.92</ele><time>2011-05-22T09:03:42Z</time></trkpt><trkpt lat="50.041992" lon="14.389746"><ele>191.92</ele><time>2011-05-22T09:03:59Z</time></trkpt><trkpt lat="50.042007" lon="14.389740"><ele>191.92</ele><time>2011-05-22T09:04:17Z</time></trkpt><trkpt lat="50.041943" lon="14.389731"><ele>191.44</ele><time>2011-05-22T09:04:31Z</time></trkpt><trkpt lat="50.041912" lon="14.389698"><ele>191.44</ele><time>2011-05-22T09:04:42Z</time></trkpt><trkpt lat="50.041893" lon="14.389675"><ele>190.96</ele><time>2011-05-22T09:04:49Z</time></trkpt><trkpt lat="50.041748" lon="14.389182"><ele>192.40</ele><time>2011-05-22T09:05:04Z</time></trkpt><trkpt lat="50.041637" lon="14.388400"><ele>192.88</ele><time>2011-05-22T09:05:20Z</time></trkpt><trkpt lat="50.041519" lon="14.387451"><ele>192.40</ele><time>2011-05-22T09:05:37Z</time></trkpt><trkpt lat="50.041416" lon="14.386545"><ele>192.40</ele><time>2011-05-22T09:05:51Z</time></trkpt><trkpt lat="50.041233" lon="14.385644"><ele>192.40</ele><time>2011-05-22T09:06:05Z</time></trkpt><trkpt lat="50.041191" lon="14.385187"><ele>193.84</ele><time>2011-05-22T09:06:18Z</time></trkpt><trkpt lat="50.041233" lon="14.385429"><ele>193.36</ele><time>2011-05-22T09:06:31Z</time></trkpt><trkpt lat="50.041409" lon="14.385410"><ele>193.84</ele><time>2011-05-22T09:06:49Z</time></trkpt><trkpt lat="50.041424" lon="14.385386"><ele>193.36</ele><time>2011-05-22T09:06:50Z</time></trkpt><trkpt lat="50.041447" lon="14.385381"><ele>194.32</ele><time>2011-05-22T09:07:10Z</time></trkpt><trkpt lat="50.041485" lon="14.385377"><ele>194.32</ele><time>2011-05-22T09:07:36Z</time></trkpt><trkpt lat="50.041485" lon="14.385381"><ele>194.80</ele><time>2011-05-22T09:07:56Z</time></trkpt><trkpt lat="50.041485" lon="14.385381"><ele>194.80</ele><time>2011-05-22T09:08:17Z</time></trkpt><trkpt lat="50.041504" lon="14.385386"><ele>192.88</ele><time>2011-05-22T09:08:27Z</time></trkpt><trkpt lat="50.041531" lon="14.385384"><ele>194.80</ele><time>2011-05-22T09:08:35Z</time></trkpt><trkpt lat="50.041645" lon="14.385426"><ele>195.28</ele><time>2011-05-22T09:08:51Z</time></trkpt><trkpt lat="50.041649" lon="14.385431"><ele>195.28</ele><time>2011-05-22T09:08:55Z</time></trkpt><trkpt lat="50.041595" lon="14.385454"><ele>195.77</ele><time>2011-05-22T09:09:04Z</time></trkpt><trkpt lat="50.041508" lon="14.385440"><ele>195.77</ele><time>2011-05-22T09:09:09Z</time></trkpt><trkpt lat="50.041199" lon="14.385469"><ele>196.25</ele><time>2011-05-22T09:09:25Z</time></trkpt><trkpt lat="50.041176" lon="14.384745"><ele>197.21</ele><time>2011-05-22T09:09:37Z</time></trkpt><trkpt lat="50.041027" lon="14.383797"><ele>197.21</ele><time>2011-05-22T09:09:52Z</time></trkpt><trkpt lat="50.040825" lon="14.382665"><ele>196.73</ele><time>2011-05-22T09:10:07Z</time></trkpt><trkpt lat="50.040981" lon="14.381807"><ele>198.17</ele><time>2011-05-22T09:10:20Z</time></trkpt><trkpt lat="50.041080" lon="14.381514"><ele>198.17</ele><time>2011-05-22T09:10:25Z</time></trkpt><trkpt lat="50.041084" lon="14.381442"><ele>198.65</ele><time>2011-05-22T09:10:26Z</time></trkpt><trkpt lat="50.041088" lon="14.381368"><ele>198.17</ele><time>2011-05-22T09:10:27Z</time></trkpt><trkpt lat="50.041092" lon="14.381292"><ele>198.17</ele><time>2011-05-22T09:10:28Z</time></trkpt><trkpt lat="50.041092" lon="14.381219"><ele>198.65</ele><time>2011-05-22T09:10:29Z</time></trkpt><trkpt lat="50.040962" lon="14.380057"><ele>198.65</ele><time>2011-05-22T09:10:46Z</time></trkpt><trkpt lat="50.040771" lon="14.378726"><ele>199.61</ele><time>2011-05-22T09:11:05Z</time></trkpt><trkpt lat="50.040630" lon="14.377754"><ele>200.09</ele><time>2011-05-22T09:11:21Z</time></trkpt><trkpt lat="50.040607" lon="14.376819"><ele>201.05</ele><time>2011-05-22T09:11:35Z</time></trkpt><trkpt lat="50.040806" lon="14.375833"><ele>202.98</ele><time>2011-05-22T09:11:49Z</time></trkpt><trkpt lat="50.041100" lon="14.374990"><ele>203.94</ele><time>2011-05-22T09:12:04Z</time></trkpt><trkpt lat="50.041500" lon="14.374087"><ele>205.38</ele><time>2011-05-22T09:12:21Z</time></trkpt><trkpt lat="50.041775" lon="14.373095"><ele>205.38</ele><time>2011-05-22T09:12:37Z</time></trkpt><trkpt lat="50.041801" lon="14.372678"><ele>205.86</ele><time>2011-05-22T09:12:42Z</time></trkpt><trkpt lat="50.041798" lon="14.372600"><ele>205.86</ele><time>2011-05-22T09:12:43Z</time></trkpt><trkpt lat="50.041737" lon="14.372061"><ele>206.82</ele><time>2011-05-22T09:12:50Z</time></trkpt><trkpt lat="50.041718" lon="14.371994"><ele>206.82</ele><time>2011-05-22T09:12:51Z</time></trkpt><trkpt lat="50.041389" lon="14.371184"><ele>207.30</ele><time>2011-05-22T09:13:05Z</time></trkpt><trkpt lat="50.041325" lon="14.371053"><ele>205.86</ele><time>2011-05-22T09:13:07Z</time></trkpt><trkpt lat="50.041286" lon="14.370993"><ele>206.34</ele><time>2011-05-22T09:13:08Z</time></trkpt><trkpt lat="50.041245" lon="14.370934"><ele>206.34</ele><time>2011-05-22T09:13:09Z</time></trkpt><trkpt lat="50.041203" lon="14.370880"><ele>205.86</ele><time>2011-05-22T09:13:10Z</time></trkpt><trkpt lat="50.041168" lon="14.370835"><ele>205.86</ele><time>2011-05-22T09:13:11Z</time></trkpt><trkpt lat="50.040916" lon="14.370333"><ele>208.26</ele><time>2011-05-22T09:13:23Z</time></trkpt><trkpt lat="50.040752" lon="14.369607"><ele>208.74</ele><time>2011-05-22T09:13:35Z</time></trkpt><trkpt lat="50.040630" lon="14.369106"><ele>208.74</ele><time>2011-05-22T09:13:43Z</time></trkpt><trkpt lat="50.040615" lon="14.369040"><ele>209.22</ele><time>2011-05-22T09:13:44Z</time></trkpt><trkpt lat="50.040600" lon="14.368974"><ele>208.74</ele><time>2011-05-22T09:13:45Z</time></trkpt><trkpt lat="50.040440" lon="14.367868"><ele>210.19</ele><time>2011-05-22T09:14:03Z</time></trkpt><trkpt lat="50.040230" lon="14.367395"><ele>212.11</ele><time>2011-05-22T09:14:17Z</time></trkpt><trkpt lat="50.040089" lon="14.366977"><ele>213.07</ele><time>2011-05-22T09:14:31Z</time></trkpt><trkpt lat="50.040020" lon="14.366662"><ele>213.55</ele><time>2011-05-22T09:14:37Z</time></trkpt><trkpt lat="50.040009" lon="14.366615"><ele>210.19</ele><time>2011-05-22T09:14:38Z</time></trkpt><trkpt lat="50.040005" lon="14.366557"><ele>214.03</ele><time>2011-05-22T09:14:39Z</time></trkpt><trkpt lat="50.039955" lon="14.366267"><ele>210.19</ele><time>2011-05-22T09:14:45Z</time></trkpt><trkpt lat="50.039948" lon="14.366218"><ele>214.03</ele><time>2011-05-22T09:14:46Z</time></trkpt><trkpt lat="50.039906" lon="14.366052"><ele>211.15</ele><time>2011-05-22T09:14:49Z</time></trkpt><trkpt lat="50.039581" lon="14.365442"><ele>214.03</ele><time>2011-05-22T09:15:04Z</time></trkpt><trkpt lat="50.039177" lon="14.364660"><ele>214.03</ele><time>2011-05-22T09:15:21Z</time></trkpt><trkpt lat="50.038963" lon="14.363653"><ele>215.47</ele><time>2011-05-22T09:15:36Z</time></trkpt><trkpt lat="50.038952" lon="14.362875"><ele>216.43</ele><time>2011-05-22T09:15:52Z</time></trkpt><trkpt lat="50.039078" lon="14.362135"><ele>216.91</ele><time>2011-05-22T09:16:08Z</time></trkpt><trkpt lat="50.039291" lon="14.361450"><ele>217.88</ele><time>2011-05-22T09:16:23Z</time></trkpt><trkpt lat="50.039246" lon="14.360952"><ele>219.32</ele><time>2011-05-22T09:16:36Z</time></trkpt><trkpt lat="50.039131" lon="14.360666"><ele>219.80</ele><time>2011-05-22T09:16:49Z</time></trkpt><trkpt lat="50.039124" lon="14.360634"><ele>219.32</ele><time>2011-05-22T09:16:50Z</time></trkpt><trkpt lat="50.039116" lon="14.360598"><ele>219.32</ele><time>2011-05-22T09:16:51Z</time></trkpt><trkpt lat="50.039101" lon="14.360563"><ele>219.80</ele><time>2011-05-22T09:16:52Z</time></trkpt><trkpt lat="50.039085" lon="14.360529"><ele>220.28</ele><time>2011-05-22T09:16:53Z</time></trkpt><trkpt lat="50.039062" lon="14.360489"><ele>220.28</ele><time>2011-05-22T09:17:07Z</time></trkpt><trkpt lat="50.039005" lon="14.360390"><ele>220.76</ele><time>2011-05-22T09:17:25Z</time></trkpt><trkpt lat="50.039005" lon="14.360380"><ele>220.76</ele><time>2011-05-22T09:17:34Z</time></trkpt><trkpt lat="50.038990" lon="14.360361"><ele>221.24</ele><time>2011-05-22T09:17:40Z</time></trkpt><trkpt lat="50.038975" lon="14.360339"><ele>220.28</ele><time>2011-05-22T09:17:41Z</time></trkpt><trkpt lat="50.038960" lon="14.360313"><ele>220.76</ele><time>2011-05-22T09:17:42Z</time></trkpt><trkpt lat="50.038719" lon="14.360010"><ele>221.24</ele><time>2011-05-22T09:17:57Z</time></trkpt><trkpt lat="50.038391" lon="14.359534"><ele>222.68</ele><time>2011-05-22T09:18:12Z</time></trkpt><trkpt lat="50.038067" lon="14.359123"><ele>223.64</ele><time>2011-05-22T09:18:27Z</time></trkpt><trkpt lat="50.038097" lon="14.359211"><ele>223.64</ele><time>2011-05-22T09:18:33Z</time></trkpt><trkpt lat="50.038246" lon="14.359352"><ele>223.16</ele><time>2011-05-22T09:18:47Z</time></trkpt><trkpt lat="50.038250" lon="14.359349"><ele>223.64</ele><time>2011-05-22T09:19:05Z</time></trkpt><trkpt lat="50.037975" lon="14.358996"><ele>224.12</ele><time>2011-05-22T09:19:17Z</time></trkpt><trkpt lat="50.037933" lon="14.358879"><ele>224.12</ele><time>2011-05-22T09:19:19Z</time></trkpt><trkpt lat="50.037914" lon="14.358813"><ele>224.61</ele><time>2011-05-22T09:19:20Z</time></trkpt><trkpt lat="50.037899" lon="14.358745"><ele>224.12</ele><time>2011-05-22T09:19:21Z</time></trkpt><trkpt lat="50.037888" lon="14.358680"><ele>224.61</ele><time>2011-05-22T09:19:22Z</time></trkpt><trkpt lat="50.037880" lon="14.358610"><ele>225.09</ele><time>2011-05-22T09:19:23Z</time></trkpt><trkpt lat="50.037659" lon="14.357774"><ele>226.05</ele><time>2011-05-22T09:19:38Z</time></trkpt><trkpt lat="50.037655" lon="14.357618"><ele>227.01</ele><time>2011-05-22T09:19:49Z</time></trkpt><trkpt lat="50.037647" lon="14.357666"><ele>226.53</ele><time>2011-05-22T09:20:00Z</time></trkpt><trkpt lat="50.037647" lon="14.358262"><ele>228.45</ele><time>2011-05-22T09:20:14Z</time></trkpt><trkpt lat="50.037548" lon="14.358715"><ele>230.37</ele><time>2011-05-22T09:20:29Z</time></trkpt><trkpt lat="50.037273" lon="14.358673"><ele>233.26</ele><time>2011-05-22T09:20:42Z</time></trkpt><trkpt lat="50.036987" lon="14.358457"><ele>231.81</ele><time>2011-05-22T09:20:56Z</time></trkpt><trkpt lat="50.036987" lon="14.358457"><ele>235.66</ele><time>2011-05-22T09:21:03Z</time></trkpt><trkpt lat="50.036987" lon="14.358457"><ele>232.30</ele><time>2011-05-22T09:21:23Z</time></trkpt><trkpt lat="50.036987" lon="14.358457"><ele>233.74</ele><time>2011-05-22T09:21:29Z</time></trkpt><trkpt lat="50.036800" lon="14.358110"><ele>234.22</ele><time>2011-05-22T09:21:40Z</time></trkpt><trkpt lat="50.036739" lon="14.357169"><ele>232.78</ele><time>2011-05-22T09:21:54Z</time></trkpt><trkpt lat="50.036713" lon="14.357040"><ele>233.26</ele><time>2011-05-22T09:21:56Z</time></trkpt><trkpt lat="50.036316" lon="14.356301"><ele>234.22</ele><time>2011-05-22T09:22:10Z</time></trkpt><trkpt lat="50.036224" lon="14.355929"><ele>234.70</ele><time>2011-05-22T09:22:16Z</time></trkpt><trkpt lat="50.036255" lon="14.355892"><ele>232.30</ele><time>2011-05-22T09:22:28Z</time></trkpt><trkpt lat="50.036255" lon="14.355892"><ele>236.14</ele><time>2011-05-22T09:22:29Z</time></trkpt><trkpt lat="50.036255" lon="14.355892"><ele>232.30</ele><time>2011-05-22T09:22:38Z</time></trkpt><trkpt lat="50.036255" lon="14.355892"><ele>235.66</ele><time>2011-05-22T09:22:39Z</time></trkpt><trkpt lat="50.036263" lon="14.355873"><ele>235.18</ele><time>2011-05-22T09:22:45Z</time></trkpt><trkpt lat="50.036217" lon="14.355268"><ele>236.14</ele><time>2011-05-22T09:22:58Z</time></trkpt><trkpt lat="50.036129" lon="14.355081"><ele>237.10</ele><time>2011-05-22T09:23:02Z</time></trkpt><trkpt lat="50.036190" lon="14.355133"><ele>237.10</ele><time>2011-05-22T09:23:11Z</time></trkpt><trkpt lat="50.036259" lon="14.355121"><ele>237.58</ele><time>2011-05-22T09:23:24Z</time></trkpt><trkpt lat="50.036251" lon="14.355139"><ele>237.10</ele><time>2011-05-22T09:23:33Z</time></trkpt><trkpt lat="50.036205" lon="14.355184"><ele>237.10</ele><time>2011-05-22T09:23:39Z</time></trkpt><trkpt lat="50.036068" lon="14.354845"><ele>237.10</ele><time>2011-05-22T09:23:51Z</time></trkpt><trkpt lat="50.036053" lon="14.354795"><ele>237.58</ele><time>2011-05-22T09:24:03Z</time></trkpt><trkpt lat="50.036053" lon="14.354795"><ele>238.54</ele><time>2011-05-22T09:24:14Z</time></trkpt><trkpt lat="50.036034" lon="14.354782"><ele>237.58</ele><time>2011-05-22T09:24:18Z</time></trkpt><trkpt lat="50.035992" lon="14.354649"><ele>237.10</ele><time>2011-05-22T09:24:22Z</time></trkpt><trkpt lat="50.035854" lon="14.354260"><ele>236.62</ele><time>2011-05-22T09:24:29Z</time></trkpt><trkpt lat="50.035667" lon="14.353446"><ele>237.58</ele><time>2011-05-22T09:24:44Z</time></trkpt><trkpt lat="50.035671" lon="14.353032"><ele>240.47</ele><time>2011-05-22T09:24:52Z</time></trkpt><trkpt lat="50.035702" lon="14.352953"><ele>241.43</ele><time>2011-05-22T09:24:56Z</time></trkpt><trkpt lat="50.035728" lon="14.352990"><ele>239.99</ele><time>2011-05-22T09:25:08Z</time></trkpt><trkpt lat="50.035751" lon="14.353020"><ele>239.99</ele><time>2011-05-22T09:25:10Z</time></trkpt><trkpt lat="50.035763" lon="14.353029"><ele>238.06</ele><time>2011-05-22T09:25:13Z</time></trkpt><trkpt lat="50.035763" lon="14.353029"><ele>242.39</ele><time>2011-05-22T09:25:14Z</time></trkpt><trkpt lat="50.035736" lon="14.353005"><ele>241.91</ele><time>2011-05-22T09:25:35Z</time></trkpt><trkpt lat="50.035767" lon="14.352821"><ele>243.35</ele><time>2011-05-22T09:25:51Z</time></trkpt><trkpt lat="50.035767" lon="14.352821"><ele>239.51</ele><time>2011-05-22T09:25:57Z</time></trkpt><trkpt lat="50.035767" lon="14.352821"><ele>243.35</ele><time>2011-05-22T09:25:58Z</time></trkpt><trkpt lat="50.035759" lon="14.352613"><ele>242.87</ele><time>2011-05-22T09:26:11Z</time></trkpt><trkpt lat="50.035683" lon="14.352205"><ele>242.87</ele><time>2011-05-22T09:26:23Z</time></trkpt><trkpt lat="50.035675" lon="14.352197"><ele>242.39</ele><time>2011-05-22T09:26:54Z</time></trkpt><trkpt lat="50.035637" lon="14.352068"><ele>240.95</ele><time>2011-05-22T09:26:59Z</time></trkpt><trkpt lat="50.035580" lon="14.351879"><ele>235.66</ele><time>2011-05-22T09:27:06Z</time></trkpt><trkpt lat="50.035576" lon="14.351872"><ele>240.95</ele><time>2011-05-22T09:27:07Z</time></trkpt><trkpt lat="50.035564" lon="14.351850"><ele>239.02</ele><time>2011-05-22T09:27:32Z</time></trkpt><trkpt lat="50.035561" lon="14.351844"><ele>233.74</ele><time>2011-05-22T09:27:43Z</time></trkpt><trkpt lat="50.035561" lon="14.351844"><ele>239.51</ele><time>2011-05-22T09:27:44Z</time></trkpt><trkpt lat="50.035572" lon="14.351725"><ele>239.99</ele><time>2011-05-22T09:27:58Z</time></trkpt><trkpt lat="50.035633" lon="14.351497"><ele>240.95</ele><time>2011-05-22T09:28:10Z</time></trkpt><trkpt lat="50.035538" lon="14.351128"><ele>241.91</ele><time>2011-05-22T09:28:22Z</time></trkpt><trkpt lat="50.035210" lon="14.350353"><ele>242.87</ele><time>2011-05-22T09:28:37Z</time></trkpt><trkpt lat="50.034954" lon="14.349998"><ele>245.75</ele><time>2011-05-22T09:28:45Z</time></trkpt><trkpt lat="50.034763" lon="14.349783"><ele>249.12</ele><time>2011-05-22T09:28:54Z</time></trkpt><trkpt lat="50.034618" lon="14.349827"><ele>252.48</ele><time>2011-05-22T09:29:05Z</time></trkpt><trkpt lat="50.034542" lon="14.349893"><ele>254.89</ele><time>2011-05-22T09:29:16Z</time></trkpt><trkpt lat="50.034504" lon="14.349892"><ele>256.33</ele><time>2011-05-22T09:29:19Z</time></trkpt><trkpt lat="50.034382" lon="14.349862"><ele>258.25</ele><time>2011-05-22T09:29:32Z</time></trkpt><trkpt lat="50.034370" lon="14.349858"><ele>258.73</ele><time>2011-05-22T09:29:33Z</time></trkpt><trkpt lat="50.034286" lon="14.349803"><ele>260.17</ele><time>2011-05-22T09:29:47Z</time></trkpt><trkpt lat="50.034275" lon="14.349791"><ele>258.73</ele><time>2011-05-22T09:29:55Z</time></trkpt><trkpt lat="50.034168" lon="14.349597"><ele>255.37</ele><time>2011-05-22T09:30:01Z</time></trkpt><trkpt lat="50.034130" lon="14.349466"><ele>254.41</ele><time>2011-05-22T09:30:03Z</time></trkpt><trkpt lat="50.034008" lon="14.349060"><ele>251.04</ele><time>2011-05-22T09:30:09Z</time></trkpt><trkpt lat="50.033928" lon="14.348876"><ele>249.60</ele><time>2011-05-22T09:30:12Z</time></trkpt><trkpt lat="50.033848" lon="14.348703"><ele>247.20</ele><time>2011-05-22T09:30:18Z</time></trkpt><trkpt lat="50.033749" lon="14.349019"><ele>245.75</ele><time>2011-05-22T09:30:29Z</time></trkpt><trkpt lat="50.033733" lon="14.349032"><ele>244.31</ele><time>2011-05-22T09:30:34Z</time></trkpt><trkpt lat="50.033737" lon="14.349033"><ele>246.72</ele><time>2011-05-22T09:30:36Z</time></trkpt><trkpt lat="50.033737" lon="14.349041"><ele>245.27</ele><time>2011-05-22T09:30:54Z</time></trkpt><trkpt lat="50.033737" lon="14.349041"><ele>248.64</ele><time>2011-05-22T09:30:55Z</time></trkpt><trkpt lat="50.033741" lon="14.349051"><ele>247.20</ele><time>2011-05-22T09:31:00Z</time></trkpt><trkpt lat="50.033718" lon="14.349251"><ele>245.27</ele><time>2011-05-22T09:31:14Z</time></trkpt><trkpt lat="50.033707" lon="14.349257"><ele>244.31</ele><time>2011-05-22T09:31:15Z</time></trkpt><trkpt lat="50.033592" lon="14.349256"><ele>245.27</ele><time>2011-05-22T09:31:21Z</time></trkpt><trkpt lat="50.033310" lon="14.349039"><ele>247.68</ele><time>2011-05-22T09:31:33Z</time></trkpt><trkpt lat="50.033142" lon="14.348875"><ele>250.56</ele><time>2011-05-22T09:31:43Z</time></trkpt><trkpt lat="50.033123" lon="14.348880"><ele>250.08</ele><time>2011-05-22T09:31:56Z</time></trkpt><trkpt lat="50.033123" lon="14.348880"><ele>251.04</ele><time>2011-05-22T09:32:00Z</time></trkpt><trkpt lat="50.033127" lon="14.348882"><ele>250.56</ele><time>2011-05-22T09:32:20Z</time></trkpt><trkpt lat="50.033127" lon="14.348882"><ele>250.56</ele><time>2011-05-22T09:32:47Z</time></trkpt><trkpt lat="50.033127" lon="14.348882"><ele>251.04</ele><time>2011-05-22T09:33:09Z</time></trkpt><trkpt lat="50.033127" lon="14.348880"><ele>251.52</ele><time>2011-05-22T09:33:31Z</time></trkpt><trkpt lat="50.033127" lon="14.348880"><ele>252.00</ele><time>2011-05-22T09:33:36Z</time></trkpt><trkpt lat="50.033123" lon="14.348878"><ele>251.52</ele><time>2011-05-22T09:33:53Z</time></trkpt><trkpt lat="50.033123" lon="14.348878"><ele>251.52</ele><time>2011-05-22T09:34:11Z</time></trkpt><trkpt lat="50.033199" lon="14.348948"><ele>249.60</ele><time>2011-05-22T09:34:15Z</time></trkpt><trkpt lat="50.033508" lon="14.349030"><ele>244.79</ele><time>2011-05-22T09:34:27Z</time></trkpt><trkpt lat="50.033512" lon="14.349009"><ele>248.16</ele><time>2011-05-22T09:34:28Z</time></trkpt><trkpt lat="50.033493" lon="14.348922"><ele>247.68</ele><time>2011-05-22T09:34:32Z</time></trkpt><trkpt lat="50.033371" lon="14.348497"><ele>244.79</ele><time>2011-05-22T09:34:39Z</time></trkpt><trkpt lat="50.033360" lon="14.348453"><ele>248.16</ele><time>2011-05-22T09:34:40Z</time></trkpt><trkpt lat="50.033146" lon="14.347938"><ele>248.64</ele><time>2011-05-22T09:34:53Z</time></trkpt><trkpt lat="50.033146" lon="14.347898"><ele>248.64</ele><time>2011-05-22T09:34:54Z</time></trkpt><trkpt lat="50.033176" lon="14.347692"><ele>250.56</ele><time>2011-05-22T09:35:00Z</time></trkpt><trkpt lat="50.033268" lon="14.347293"><ele>247.20</ele><time>2011-05-22T09:35:11Z</time></trkpt><trkpt lat="50.033268" lon="14.347259"><ele>252.48</ele><time>2011-05-22T09:35:12Z</time></trkpt><trkpt lat="50.033264" lon="14.347224"><ele>248.64</ele><time>2011-05-22T09:35:13Z</time></trkpt><trkpt lat="50.033260" lon="14.347193"><ele>251.52</ele><time>2011-05-22T09:35:14Z</time></trkpt><trkpt lat="50.033234" lon="14.347113"><ele>254.41</ele><time>2011-05-22T09:35:17Z</time></trkpt><trkpt lat="50.033012" lon="14.346757"><ele>254.41</ele><time>2011-05-22T09:35:31Z</time></trkpt><trkpt lat="50.032749" lon="14.345988"><ele>255.37</ele><time>2011-05-22T09:35:44Z</time></trkpt><trkpt lat="50.032608" lon="14.345560"><ele>251.52</ele><time>2011-05-22T09:35:55Z</time></trkpt><trkpt lat="50.032612" lon="14.345561"><ele>257.29</ele><time>2011-05-22T09:35:56Z</time></trkpt><trkpt lat="50.032623" lon="14.345591"><ele>257.29</ele><time>2011-05-22T09:36:15Z</time></trkpt><trkpt lat="50.032639" lon="14.345626"><ele>255.37</ele><time>2011-05-22T09:36:32Z</time></trkpt><trkpt lat="50.032639" lon="14.345624"><ele>257.77</ele><time>2011-05-22T09:36:41Z</time></trkpt><trkpt lat="50.032631" lon="14.345606"><ele>257.77</ele><time>2011-05-22T09:36:42Z</time></trkpt><trkpt lat="50.032597" lon="14.345556"><ele>257.77</ele><time>2011-05-22T09:36:44Z</time></trkpt><trkpt lat="50.032578" lon="14.345525"><ele>256.81</ele><time>2011-05-22T09:36:45Z</time></trkpt><trkpt lat="50.032555" lon="14.345489"><ele>256.33</ele><time>2011-05-22T09:36:46Z</time></trkpt><trkpt lat="50.032291" lon="14.345126"><ele>255.85</ele><time>2011-05-22T09:36:53Z</time></trkpt><trkpt lat="50.032001" lon="14.344529"><ele>255.37</ele><time>2011-05-22T09:37:02Z</time></trkpt><trkpt lat="50.031944" lon="14.344375"><ele>254.41</ele><time>2011-05-22T09:37:04Z</time></trkpt><trkpt lat="50.031902" lon="14.344304"><ele>254.41</ele><time>2011-05-22T09:37:05Z</time></trkpt><trkpt lat="50.031826" lon="14.344170"><ele>254.89</ele><time>2011-05-22T09:37:07Z</time></trkpt><trkpt lat="50.031799" lon="14.344099"><ele>255.37</ele><time>2011-05-22T09:37:08Z</time></trkpt><trkpt lat="50.031780" lon="14.344035"><ele>255.85</ele><time>2011-05-22T09:37:09Z</time></trkpt><trkpt lat="50.031734" lon="14.343867"><ele>257.29</ele><time>2011-05-22T09:37:12Z</time></trkpt><trkpt lat="50.031624" lon="14.343564"><ele>258.73</ele><time>2011-05-22T09:37:22Z</time></trkpt><trkpt lat="50.031624" lon="14.343564"><ele>252.96</ele><time>2011-05-22T09:37:32Z</time></trkpt><trkpt lat="50.031624" lon="14.343564"><ele>258.73</ele><time>2011-05-22T09:37:33Z</time></trkpt><trkpt lat="50.031609" lon="14.343534"><ele>257.77</ele><time>2011-05-22T09:37:39Z</time></trkpt><trkpt lat="50.031601" lon="14.343511"><ele>257.77</ele><time>2011-05-22T09:37:40Z</time></trkpt><trkpt lat="50.031586" lon="14.343481"><ele>257.77</ele><time>2011-05-22T09:37:41Z</time></trkpt><trkpt lat="50.031567" lon="14.343445"><ele>257.77</ele><time>2011-05-22T09:37:42Z</time></trkpt><trkpt lat="50.031551" lon="14.343404"><ele>257.77</ele><time>2011-05-22T09:37:43Z</time></trkpt><trkpt lat="50.031464" lon="14.343199"><ele>257.77</ele><time>2011-05-22T09:37:53Z</time></trkpt><trkpt lat="50.031464" lon="14.343199"><ele>257.29</ele><time>2011-05-22T09:38:11Z</time></trkpt><trkpt lat="50.031464" lon="14.343180"><ele>258.25</ele><time>2011-05-22T09:38:12Z</time></trkpt><trkpt lat="50.031456" lon="14.343153"><ele>257.77</ele><time>2011-05-22T09:38:13Z</time></trkpt><trkpt lat="50.031448" lon="14.343125"><ele>257.77</ele><time>2011-05-22T09:38:14Z</time></trkpt><trkpt lat="50.031437" lon="14.343092"><ele>257.77</ele><time>2011-05-22T09:38:15Z</time></trkpt><trkpt lat="50.031429" lon="14.343047"><ele>257.77</ele><time>2011-05-22T09:38:16Z</time></trkpt><trkpt lat="50.031418" lon="14.342995"><ele>258.25</ele><time>2011-05-22T09:38:17Z</time></trkpt><trkpt lat="50.031391" lon="14.342810"><ele>258.25</ele><time>2011-05-22T09:38:20Z</time></trkpt><trkpt lat="50.031372" lon="14.342574"><ele>257.29</ele><time>2011-05-22T09:38:23Z</time></trkpt><trkpt lat="50.031246" lon="14.341650"><ele>259.69</ele><time>2011-05-22T09:38:35Z</time></trkpt><trkpt lat="50.031246" lon="14.340928"><ele>259.69</ele><time>2011-05-22T09:38:44Z</time></trkpt><trkpt lat="50.031269" lon="14.340209"><ele>259.69</ele><time>2011-05-22T09:38:55Z</time></trkpt><trkpt lat="50.031231" lon="14.339967"><ele>261.62</ele><time>2011-05-22T09:39:01Z</time></trkpt><trkpt lat="50.031147" lon="14.339569"><ele>264.50</ele><time>2011-05-22T09:39:10Z</time></trkpt><trkpt lat="50.031090" lon="14.339382"><ele>265.94</ele><time>2011-05-22T09:39:15Z</time></trkpt><trkpt lat="50.030975" lon="14.338487"><ele>267.86</ele><time>2011-05-22T09:39:30Z</time></trkpt><trkpt lat="50.030975" lon="14.337849"><ele>269.31</ele><time>2011-05-22T09:39:39Z</time></trkpt><trkpt lat="50.030979" lon="14.336879"><ele>268.83</ele><time>2011-05-22T09:39:52Z</time></trkpt><trkpt lat="50.030956" lon="14.336113"><ele>269.79</ele><time>2011-05-22T09:40:06Z</time></trkpt><trkpt lat="50.030956" lon="14.336051"><ele>270.27</ele><time>2011-05-22T09:40:08Z</time></trkpt><trkpt lat="50.031082" lon="14.335889"><ele>273.63</ele><time>2011-05-22T09:40:19Z</time></trkpt><trkpt lat="50.031155" lon="14.335986"><ele>275.56</ele><time>2011-05-22T09:40:24Z</time></trkpt><trkpt lat="50.031372" lon="14.336199"><ele>278.92</ele><time>2011-05-22T09:40:39Z</time></trkpt><trkpt lat="50.031483" lon="14.336005"><ele>280.84</ele><time>2011-05-22T09:40:52Z</time></trkpt><trkpt lat="50.031425" lon="14.335893"><ele>281.80</ele><time>2011-05-22T09:40:57Z</time></trkpt><trkpt lat="50.031071" lon="14.335476"><ele>281.80</ele><time>2011-05-22T09:41:11Z</time></trkpt><trkpt lat="50.031052" lon="14.335447"><ele>281.32</ele><time>2011-05-22T09:41:21Z</time></trkpt><trkpt lat="50.031052" lon="14.335447"><ele>283.25</ele><time>2011-05-22T09:41:33Z</time></trkpt><trkpt lat="50.031033" lon="14.335400"><ele>282.28</ele><time>2011-05-22T09:41:51Z</time></trkpt><trkpt lat="50.031059" lon="14.335402"><ele>282.28</ele><time>2011-05-22T09:42:06Z</time></trkpt><trkpt lat="50.031063" lon="14.335406"><ele>282.77</ele><time>2011-05-22T09:42:25Z</time></trkpt><trkpt lat="50.031086" lon="14.335427"><ele>283.25</ele><time>2011-05-22T09:42:30Z</time></trkpt><trkpt lat="50.031082" lon="14.335409"><ele>282.77</ele><time>2011-05-22T09:42:34Z</time></trkpt><trkpt lat="50.031090" lon="14.335395"><ele>282.28</ele><time>2011-05-22T09:42:39Z</time></trkpt><trkpt lat="50.031101" lon="14.335431"><ele>283.25</ele><time>2011-05-22T09:42:52Z</time></trkpt><trkpt lat="50.031101" lon="14.335417"><ele>283.25</ele><time>2011-05-22T09:43:08Z</time></trkpt><trkpt lat="50.031097" lon="14.335377"><ele>283.25</ele><time>2011-05-22T09:43:13Z</time></trkpt><trkpt lat="50.030918" lon="14.334842"><ele>282.77</ele><time>2011-05-22T09:43:26Z</time></trkpt><trkpt lat="50.030807" lon="14.334009"><ele>282.28</ele><time>2011-05-22T09:43:42Z</time></trkpt><trkpt lat="50.030701" lon="14.333662"><ele>285.17</ele><time>2011-05-22T09:43:53Z</time></trkpt><trkpt lat="50.030632" lon="14.333111"><ele>287.09</ele><time>2011-05-22T09:44:10Z</time></trkpt><trkpt lat="50.030697" lon="14.332357"><ele>284.21</ele><time>2011-05-22T09:44:22Z</time></trkpt><trkpt lat="50.030926" lon="14.331964"><ele>283.25</ele><time>2011-05-22T09:44:35Z</time></trkpt><trkpt lat="50.030914" lon="14.331979"><ele>283.73</ele><time>2011-05-22T09:44:48Z</time></trkpt><trkpt lat="50.030716" lon="14.332004"><ele>282.28</ele><time>2011-05-22T09:44:57Z</time></trkpt><trkpt lat="50.030540" lon="14.332085"><ele>279.88</ele><time>2011-05-22T09:45:03Z</time></trkpt><trkpt lat="50.030190" lon="14.332003"><ele>277.48</ele><time>2011-05-22T09:45:14Z</time></trkpt><trkpt lat="50.030209" lon="14.331798"><ele>276.52</ele><time>2011-05-22T09:45:19Z</time></trkpt><trkpt lat="50.030243" lon="14.331657"><ele>277.96</ele><time>2011-05-22T09:45:24Z</time></trkpt><trkpt lat="50.030243" lon="14.331473"><ele>274.59</ele><time>2011-05-22T09:45:33Z</time></trkpt><trkpt lat="50.030243" lon="14.331468"><ele>277.96</ele><time>2011-05-22T09:45:37Z</time></trkpt><trkpt lat="50.030239" lon="14.331472"><ele>271.71</ele><time>2011-05-22T09:46:03Z</time></trkpt><trkpt lat="50.030239" lon="14.331472"><ele>280.36</ele><time>2011-05-22T09:46:04Z</time></trkpt><trkpt lat="50.030239" lon="14.331472"><ele>275.56</ele><time>2011-05-22T09:46:31Z</time></trkpt><trkpt lat="50.030239" lon="14.331472"><ele>279.88</ele><time>2011-05-22T09:46:33Z</time></trkpt><trkpt lat="50.030239" lon="14.331472"><ele>277.96</ele><time>2011-05-22T09:46:40Z</time></trkpt><trkpt lat="50.030262" lon="14.331352"><ele>277.96</ele><time>2011-05-22T09:46:44Z</time></trkpt><trkpt lat="50.030582" lon="14.331197"><ele>277.96</ele><time>2011-05-22T09:46:56Z</time></trkpt><trkpt lat="50.031200" lon="14.331162"><ele>277.00</ele><time>2011-05-22T09:47:11Z</time></trkpt><trkpt lat="50.031281" lon="14.330372"><ele>277.48</ele><time>2011-05-22T09:47:24Z</time></trkpt><trkpt lat="50.031307" lon="14.329294"><ele>278.92</ele><time>2011-05-22T09:47:39Z</time></trkpt><trkpt lat="50.031528" lon="14.328498"><ele>277.00</ele><time>2011-05-22T09:47:52Z</time></trkpt><trkpt lat="50.031620" lon="14.327563"><ele>277.48</ele><time>2011-05-22T09:48:06Z</time></trkpt><trkpt lat="50.031742" lon="14.326970"><ele>279.88</ele><time>2011-05-22T09:48:19Z</time></trkpt><trkpt lat="50.031685" lon="14.326686"><ele>281.32</ele><time>2011-05-22T09:48:32Z</time></trkpt><trkpt lat="50.031662" lon="14.326673"><ele>281.80</ele><time>2011-05-22T09:48:35Z</time></trkpt><trkpt lat="50.031628" lon="14.326666"><ele>282.77</ele><time>2011-05-22T09:48:50Z</time></trkpt><trkpt lat="50.031628" lon="14.326666"><ele>277.48</ele><time>2011-05-22T09:48:55Z</time></trkpt><trkpt lat="50.031628" lon="14.326666"><ele>284.69</ele><time>2011-05-22T09:48:56Z</time></trkpt><trkpt lat="50.031483" lon="14.326466"><ele>284.21</ele><time>2011-05-22T09:49:11Z</time></trkpt><trkpt lat="50.031467" lon="14.326425"><ele>284.69</ele><time>2011-05-22T09:49:26Z</time></trkpt><trkpt lat="50.031467" lon="14.326425"><ele>285.17</ele><time>2011-05-22T09:49:46Z</time></trkpt><trkpt lat="50.031467" lon="14.326425"><ele>284.69</ele><time>2011-05-22T09:49:52Z</time></trkpt><trkpt lat="50.031467" lon="14.326425"><ele>288.05</ele><time>2011-05-22T09:49:53Z</time></trkpt><trkpt lat="50.031479" lon="14.326388"><ele>284.69</ele><time>2011-05-22T09:50:02Z</time></trkpt><trkpt lat="50.031479" lon="14.326369"><ele>284.69</ele><time>2011-05-22T09:50:03Z</time></trkpt><trkpt lat="50.031471" lon="14.326314"><ele>285.17</ele><time>2011-05-22T09:50:05Z</time></trkpt><trkpt lat="50.031460" lon="14.326279"><ele>285.17</ele><time>2011-05-22T09:50:06Z</time></trkpt><trkpt lat="50.031445" lon="14.326243"><ele>285.65</ele><time>2011-05-22T09:50:07Z</time></trkpt><trkpt lat="50.031239" lon="14.325564"><ele>287.09</ele><time>2011-05-22T09:50:20Z</time></trkpt><trkpt lat="50.031055" lon="14.324495"><ele>285.65</ele><time>2011-05-22T09:50:36Z</time></trkpt><trkpt lat="50.031155" lon="14.323259"><ele>286.13</ele><time>2011-05-22T09:50:53Z</time></trkpt><trkpt lat="50.031338" lon="14.322181"><ele>285.65</ele><time>2011-05-22T09:51:08Z</time></trkpt><trkpt lat="50.031433" lon="14.321192"><ele>287.09</ele><time>2011-05-22T09:51:23Z</time></trkpt><trkpt lat="50.031330" lon="14.320451"><ele>287.09</ele><time>2011-05-22T09:51:36Z</time></trkpt><trkpt lat="50.031334" lon="14.320428"><ele>286.61</ele><time>2011-05-22T09:51:37Z</time></trkpt><trkpt lat="50.031342" lon="14.320432"><ele>286.61</ele><time>2011-05-22T09:51:38Z</time></trkpt><trkpt lat="50.031353" lon="14.320449"><ele>286.61</ele><time>2011-05-22T09:51:44Z</time></trkpt><trkpt lat="50.031349" lon="14.320463"><ele>287.09</ele><time>2011-05-22T09:51:45Z</time></trkpt><trkpt lat="50.031353" lon="14.320477"><ele>287.09</ele><time>2011-05-22T09:51:51Z</time></trkpt><trkpt lat="50.031357" lon="14.320479"><ele>287.09</ele><time>2011-05-22T09:51:52Z</time></trkpt><trkpt lat="50.031349" lon="14.320560"><ele>287.57</ele><time>2011-05-22T09:51:56Z</time></trkpt><trkpt lat="50.031349" lon="14.320592"><ele>287.09</ele><time>2011-05-22T09:51:57Z</time></trkpt><trkpt lat="50.031391" lon="14.321000"><ele>287.09</ele><time>2011-05-22T09:52:13Z</time></trkpt><trkpt lat="50.031368" lon="14.321263"><ele>287.57</ele><time>2011-05-22T09:52:28Z</time></trkpt><trkpt lat="50.031368" lon="14.321263"><ele>287.57</ele><time>2011-05-22T09:52:52Z</time></trkpt><trkpt lat="50.031364" lon="14.321244"><ele>287.09</ele><time>2011-05-22T09:53:08Z</time></trkpt><trkpt lat="50.031361" lon="14.321206"><ele>288.53</ele><time>2011-05-22T09:53:10Z</time></trkpt><trkpt lat="50.031368" lon="14.320923"><ele>288.05</ele><time>2011-05-22T09:53:21Z</time></trkpt><trkpt lat="50.031311" lon="14.320632"><ele>287.57</ele><time>2011-05-22T09:53:36Z</time></trkpt><trkpt lat="50.031277" lon="14.320505"><ele>289.01</ele><time>2011-05-22T09:53:48Z</time></trkpt><trkpt lat="50.031277" lon="14.320480"><ele>288.53</ele><time>2011-05-22T09:53:49Z</time></trkpt><trkpt lat="50.031273" lon="14.320436"><ele>287.57</ele><time>2011-05-22T09:53:50Z</time></trkpt><trkpt lat="50.031269" lon="14.320384"><ele>289.01</ele><time>2011-05-22T09:53:51Z</time></trkpt><trkpt lat="50.031261" lon="14.320325"><ele>288.53</ele><time>2011-05-22T09:53:52Z</time></trkpt><trkpt lat="50.031258" lon="14.320265"><ele>288.05</ele><time>2011-05-22T09:53:53Z</time></trkpt><trkpt lat="50.031227" lon="14.319283"><ele>288.53</ele><time>2011-05-22T09:54:07Z</time></trkpt><trkpt lat="50.031212" lon="14.318677"><ele>288.53</ele><time>2011-05-22T09:54:16Z</time></trkpt><trkpt lat="50.031208" lon="14.318537"><ele>289.01</ele><time>2011-05-22T09:54:18Z</time></trkpt><trkpt lat="50.031200" lon="14.318336"><ele>289.49</ele><time>2011-05-22T09:54:21Z</time></trkpt><trkpt lat="50.031197" lon="14.318265"><ele>289.49</ele><time>2011-05-22T09:54:22Z</time></trkpt><trkpt lat="50.031193" lon="14.318193"><ele>289.49</ele><time>2011-05-22T09:54:23Z</time></trkpt><trkpt lat="50.030975" lon="14.317187"><ele>290.46</ele><time>2011-05-22T09:54:39Z</time></trkpt><trkpt lat="50.030701" lon="14.316324"><ele>291.90</ele><time>2011-05-22T09:54:54Z</time></trkpt><trkpt lat="50.030571" lon="14.315362"><ele>291.42</ele><time>2011-05-22T09:55:09Z</time></trkpt><trkpt lat="50.030613" lon="14.314932"><ele>287.57</ele><time>2011-05-22T09:55:20Z</time></trkpt><trkpt lat="50.030613" lon="14.314904"><ele>290.94</ele><time>2011-05-22T09:55:21Z</time></trkpt><trkpt lat="50.030609" lon="14.314487"><ele>291.42</ele><time>2011-05-22T09:55:34Z</time></trkpt><trkpt lat="50.030907" lon="14.313903"><ele>292.38</ele><time>2011-05-22T09:55:49Z</time></trkpt><trkpt lat="50.031338" lon="14.313839"><ele>294.78</ele><time>2011-05-22T09:56:02Z</time></trkpt><trkpt lat="50.031727" lon="14.313758"><ele>297.67</ele><time>2011-05-22T09:56:16Z</time></trkpt><trkpt lat="50.032162" lon="14.313457"><ele>299.11</ele><time>2011-05-22T09:56:31Z</time></trkpt><trkpt lat="50.032318" lon="14.312932"><ele>299.11</ele><time>2011-05-22T09:56:43Z</time></trkpt><trkpt lat="50.032345" lon="14.312839"><ele>295.74</ele><time>2011-05-22T09:56:45Z</time></trkpt><trkpt lat="50.032356" lon="14.312795"><ele>299.11</ele><time>2011-05-22T09:56:46Z</time></trkpt><trkpt lat="50.032440" lon="14.312552"><ele>299.11</ele><time>2011-05-22T09:56:51Z</time></trkpt><trkpt lat="50.032768" lon="14.312181"><ele>297.18</ele><time>2011-05-22T09:57:02Z</time></trkpt><trkpt lat="50.033306" lon="14.311928"><ele>298.63</ele><time>2011-05-22T09:57:16Z</time></trkpt><trkpt lat="50.033630" lon="14.311798"><ele>300.07</ele><time>2011-05-22T09:57:29Z</time></trkpt><trkpt lat="50.033875" lon="14.311279"><ele>302.95</ele><time>2011-05-22T09:57:44Z</time></trkpt><trkpt lat="50.034061" lon="14.310556"><ele>305.36</ele><time>2011-05-22T09:58:00Z</time></trkpt><trkpt lat="50.034122" lon="14.310423"><ele>306.32</ele><time>2011-05-22T09:58:15Z</time></trkpt><trkpt lat="50.034126" lon="14.310318"><ele>306.32</ele><time>2011-05-22T09:58:29Z</time></trkpt><trkpt lat="50.034138" lon="14.310258"><ele>306.32</ele><time>2011-05-22T09:58:30Z</time></trkpt><trkpt lat="50.034302" lon="14.309408"><ele>305.84</ele><time>2011-05-22T09:58:42Z</time></trkpt><trkpt lat="50.034435" lon="14.308372"><ele>307.28</ele><time>2011-05-22T09:58:56Z</time></trkpt><trkpt lat="50.034706" lon="14.307405"><ele>308.72</ele><time>2011-05-22T09:59:11Z</time></trkpt><trkpt lat="50.034805" lon="14.307123"><ele>312.57</ele><time>2011-05-22T09:59:17Z</time></trkpt><trkpt lat="50.034821" lon="14.307071"><ele>308.72</ele><time>2011-05-22T09:59:18Z</time></trkpt><trkpt lat="50.034836" lon="14.307017"><ele>310.16</ele><time>2011-05-22T09:59:19Z</time></trkpt><trkpt lat="50.034996" lon="14.306509"><ele>312.09</ele><time>2011-05-22T09:59:31Z</time></trkpt><trkpt lat="50.035194" lon="14.305804"><ele>314.97</ele><time>2011-05-22T09:59:48Z</time></trkpt><trkpt lat="50.035412" lon="14.305058"><ele>317.85</ele><time>2011-05-22T10:00:06Z</time></trkpt><trkpt lat="50.035557" lon="14.304543"><ele>321.22</ele><time>2011-05-22T10:00:18Z</time></trkpt><trkpt lat="50.035728" lon="14.303722"><ele>324.10</ele><time>2011-05-22T10:00:37Z</time></trkpt><trkpt lat="50.035908" lon="14.302876"><ele>326.02</ele><time>2011-05-22T10:00:55Z</time></trkpt><trkpt lat="50.035954" lon="14.302746"><ele>320.74</ele><time>2011-05-22T10:00:59Z</time></trkpt><trkpt lat="50.035961" lon="14.302727"><ele>324.58</ele><time>2011-05-22T10:01:00Z</time></trkpt><trkpt lat="50.035938" lon="14.302779"><ele>326.99</ele><time>2011-05-22T10:01:05Z</time></trkpt><trkpt lat="50.035938" lon="14.302779"><ele>325.54</ele><time>2011-05-22T10:01:34Z</time></trkpt><trkpt lat="50.035934" lon="14.302791"><ele>325.54</ele><time>2011-05-22T10:02:06Z</time></trkpt><trkpt lat="50.035931" lon="14.302794"><ele>325.54</ele><time>2011-05-22T10:02:39Z</time></trkpt><trkpt lat="50.035931" lon="14.302794"><ele>327.47</ele><time>2011-05-22T10:02:42Z</time></trkpt><trkpt lat="50.035931" lon="14.302794"><ele>327.95</ele><time>2011-05-22T10:02:48Z</time></trkpt><trkpt lat="50.035927" lon="14.302802"><ele>324.58</ele><time>2011-05-22T10:03:10Z</time></trkpt><trkpt lat="50.035927" lon="14.302802"><ele>327.95</ele><time>2011-05-22T10:03:15Z</time></trkpt><trkpt lat="50.035927" lon="14.302807"><ele>326.99</ele><time>2011-05-22T10:03:54Z</time></trkpt><trkpt lat="50.035927" lon="14.302761"><ele>327.47</ele><time>2011-05-22T10:04:01Z</time></trkpt><trkpt lat="50.035927" lon="14.302732"><ele>326.99</ele><time>2011-05-22T10:04:02Z</time></trkpt><trkpt lat="50.035931" lon="14.302694"><ele>326.99</ele><time>2011-05-22T10:04:03Z</time></trkpt><trkpt lat="50.036098" lon="14.301714"><ele>328.43</ele><time>2011-05-22T10:04:20Z</time></trkpt><trkpt lat="50.036259" lon="14.300303"><ele>329.87</ele><time>2011-05-22T10:04:39Z</time></trkpt><trkpt lat="50.036392" lon="14.298841"><ele>331.79</ele><time>2011-05-22T10:04:58Z</time></trkpt><trkpt lat="50.036400" lon="14.298767"><ele>331.31</ele><time>2011-05-22T10:04:59Z</time></trkpt><trkpt lat="50.036457" lon="14.298488"><ele>332.27</ele><time>2011-05-22T10:05:03Z</time></trkpt><trkpt lat="50.036476" lon="14.298419"><ele>329.39</ele><time>2011-05-22T10:05:04Z</time></trkpt><trkpt lat="50.036488" lon="14.298346"><ele>333.23</ele><time>2011-05-22T10:05:05Z</time></trkpt><trkpt lat="50.036499" lon="14.298272"><ele>334.20</ele><time>2011-05-22T10:05:06Z</time></trkpt><trkpt lat="50.036510" lon="14.298201"><ele>332.75</ele><time>2011-05-22T10:05:07Z</time></trkpt><trkpt lat="50.036613" lon="14.297787"><ele>331.79</ele><time>2011-05-22T10:05:13Z</time></trkpt><trkpt lat="50.036625" lon="14.297716"><ele>333.71</ele><time>2011-05-22T10:05:14Z</time></trkpt><trkpt lat="50.036633" lon="14.297644"><ele>333.23</ele><time>2011-05-22T10:05:15Z</time></trkpt><trkpt lat="50.036644" lon="14.297573"><ele>333.71</ele><time>2011-05-22T10:05:16Z</time></trkpt><trkpt lat="50.036659" lon="14.297503"><ele>334.20</ele><time>2011-05-22T10:05:17Z</time></trkpt><trkpt lat="50.036671" lon="14.297433"><ele>333.71</ele><time>2011-05-22T10:05:18Z</time></trkpt><trkpt lat="50.036732" lon="14.297074"><ele>334.20</ele><time>2011-05-22T10:05:23Z</time></trkpt><trkpt lat="50.036747" lon="14.297002"><ele>335.64</ele><time>2011-05-22T10:05:24Z</time></trkpt><trkpt lat="50.036777" lon="14.296868"><ele>332.75</ele><time>2011-05-22T10:05:26Z</time></trkpt><trkpt lat="50.036800" lon="14.296735"><ele>336.12</ele><time>2011-05-22T10:05:28Z</time></trkpt><trkpt lat="50.036919" lon="14.295700"><ele>335.64</ele><time>2011-05-22T10:05:43Z</time></trkpt><trkpt lat="50.037045" lon="14.294694"><ele>337.08</ele><time>2011-05-22T10:05:58Z</time></trkpt><trkpt lat="50.037216" lon="14.293886"><ele>339.00</ele><time>2011-05-22T10:06:11Z</time></trkpt><trkpt lat="50.037205" lon="14.293448"><ele>339.48</ele><time>2011-05-22T10:06:23Z</time></trkpt><trkpt lat="50.037125" lon="14.292980"><ele>339.96</ele><time>2011-05-22T10:06:35Z</time></trkpt><trkpt lat="50.037037" lon="14.292553"><ele>340.92</ele><time>2011-05-22T10:06:46Z</time></trkpt><trkpt lat="50.037029" lon="14.292311"><ele>340.92</ele><time>2011-05-22T10:06:53Z</time></trkpt><trkpt lat="50.037338" lon="14.292096"><ele>341.41</ele><time>2011-05-22T10:07:05Z</time></trkpt><trkpt lat="50.037811" lon="14.291783"><ele>342.37</ele><time>2011-05-22T10:07:20Z</time></trkpt><trkpt lat="50.038223" lon="14.291527"><ele>343.33</ele><time>2011-05-22T10:07:34Z</time></trkpt><trkpt lat="50.038223" lon="14.291530"><ele>341.89</ele><time>2011-05-22T10:07:50Z</time></trkpt><trkpt lat="50.038223" lon="14.291530"><ele>345.25</ele><time>2011-05-22T10:07:52Z</time></trkpt><trkpt lat="50.038223" lon="14.291530"><ele>343.81</ele><time>2011-05-22T10:07:53Z</time></trkpt><trkpt lat="50.038227" lon="14.291521"><ele>343.81</ele><time>2011-05-22T10:07:56Z</time></trkpt><trkpt lat="50.038326" lon="14.291426"><ele>344.29</ele><time>2011-05-22T10:08:02Z</time></trkpt><trkpt lat="50.038982" lon="14.290916"><ele>342.85</ele><time>2011-05-22T10:08:17Z</time></trkpt><trkpt lat="50.040012" lon="14.290357"><ele>339.96</ele><time>2011-05-22T10:08:34Z</time></trkpt><trkpt lat="50.040897" lon="14.289988"><ele>336.60</ele><time>2011-05-22T10:08:46Z</time></trkpt><trkpt lat="50.040977" lon="14.289981"><ele>336.12</ele><time>2011-05-22T10:08:47Z</time></trkpt><trkpt lat="50.041054" lon="14.289997"><ele>336.60</ele><time>2011-05-22T10:08:48Z</time></trkpt><trkpt lat="50.041130" lon="14.290038"><ele>336.12</ele><time>2011-05-22T10:08:49Z</time></trkpt><trkpt lat="50.041203" lon="14.290096"><ele>335.64</ele><time>2011-05-22T10:08:50Z</time></trkpt><trkpt lat="50.041271" lon="14.290156"><ele>336.12</ele><time>2011-05-22T10:08:51Z</time></trkpt><trkpt lat="50.041637" lon="14.290520"><ele>335.16</ele><time>2011-05-22T10:08:57Z</time></trkpt><trkpt lat="50.041698" lon="14.290559"><ele>335.16</ele><time>2011-05-22T10:08:58Z</time></trkpt><trkpt lat="50.041759" lon="14.290577"><ele>334.68</ele><time>2011-05-22T10:08:59Z</time></trkpt><trkpt lat="50.041824" lon="14.290577"><ele>335.64</ele><time>2011-05-22T10:09:00Z</time></trkpt><trkpt lat="50.041885" lon="14.290561"><ele>336.12</ele><time>2011-05-22T10:09:01Z</time></trkpt><trkpt lat="50.041946" lon="14.290531"><ele>335.64</ele><time>2011-05-22T10:09:02Z</time></trkpt><trkpt lat="50.042004" lon="14.290487"><ele>336.12</ele><time>2011-05-22T10:09:03Z</time></trkpt><trkpt lat="50.042061" lon="14.290438"><ele>336.12</ele><time>2011-05-22T10:09:04Z</time></trkpt><trkpt lat="50.042160" lon="14.290326"><ele>336.60</ele><time>2011-05-22T10:09:06Z</time></trkpt><trkpt lat="50.042622" lon="14.289474"><ele>336.12</ele><time>2011-05-22T10:09:20Z</time></trkpt><trkpt lat="50.042732" lon="14.289141"><ele>339.00</ele><time>2011-05-22T10:09:25Z</time></trkpt><trkpt lat="50.042751" lon="14.289075"><ele>338.52</ele><time>2011-05-22T10:09:26Z</time></trkpt><trkpt lat="50.042774" lon="14.289014"><ele>339.96</ele><time>2011-05-22T10:09:27Z</time></trkpt><trkpt lat="50.042797" lon="14.288956"><ele>338.52</ele><time>2011-05-22T10:09:28Z</time></trkpt><trkpt lat="50.042816" lon="14.288896"><ele>338.52</ele><time>2011-05-22T10:09:29Z</time></trkpt><trkpt lat="50.042828" lon="14.288837"><ele>338.52</ele><time>2011-05-22T10:09:30Z</time></trkpt><trkpt lat="50.042839" lon="14.288775"><ele>338.52</ele><time>2011-05-22T10:09:31Z</time></trkpt><trkpt lat="50.043003" lon="14.288247"><ele>339.00</ele><time>2011-05-22T10:09:41Z</time></trkpt><trkpt lat="50.043217" lon="14.287554"><ele>339.00</ele><time>2011-05-22T10:09:54Z</time></trkpt><trkpt lat="50.043373" lon="14.286683"><ele>341.41</ele><time>2011-05-22T10:10:09Z</time></trkpt><trkpt lat="50.043465" lon="14.285653"><ele>343.33</ele><time>2011-05-22T10:10:26Z</time></trkpt><trkpt lat="50.043545" lon="14.284684"><ele>344.77</ele><time>2011-05-22T10:10:43Z</time></trkpt><trkpt lat="50.043598" lon="14.284386"><ele>345.25</ele><time>2011-05-22T10:10:58Z</time></trkpt><trkpt lat="50.043560" lon="14.284535"><ele>342.37</ele><time>2011-05-22T10:11:03Z</time></trkpt><trkpt lat="50.043560" lon="14.284535"><ele>345.73</ele><time>2011-05-22T10:11:04Z</time></trkpt><trkpt lat="50.043564" lon="14.284529"><ele>345.73</ele><time>2011-05-22T10:11:30Z</time></trkpt><trkpt lat="50.043671" lon="14.284520"><ele>345.25</ele><time>2011-05-22T10:11:36Z</time></trkpt><trkpt lat="50.044075" lon="14.284319"><ele>346.21</ele><time>2011-05-22T10:11:49Z</time></trkpt><trkpt lat="50.044140" lon="14.284257"><ele>346.21</ele><time>2011-05-22T10:12:01Z</time></trkpt><trkpt lat="50.044140" lon="14.284257"><ele>346.21</ele><time>2011-05-22T10:12:18Z</time></trkpt><trkpt lat="50.043896" lon="14.284431"><ele>345.73</ele><time>2011-05-22T10:12:32Z</time></trkpt><trkpt lat="50.043682" lon="14.284533"><ele>345.73</ele><time>2011-05-22T10:12:43Z</time></trkpt><trkpt lat="50.043598" lon="14.284501"><ele>345.25</ele><time>2011-05-22T10:12:54Z</time></trkpt><trkpt lat="50.043598" lon="14.284501"><ele>345.73</ele><time>2011-05-22T10:13:22Z</time></trkpt><trkpt lat="50.043598" lon="14.284499"><ele>346.21</ele><time>2011-05-22T10:13:45Z</time></trkpt><trkpt lat="50.043587" lon="14.284520"><ele>346.21</ele><time>2011-05-22T10:14:07Z</time></trkpt><trkpt lat="50.043518" lon="14.284463"><ele>347.17</ele><time>2011-05-22T10:14:14Z</time></trkpt><trkpt lat="50.043549" lon="14.284314"><ele>347.17</ele><time>2011-05-22T10:14:18Z</time></trkpt><trkpt lat="50.043591" lon="14.283774"><ele>348.13</ele><time>2011-05-22T10:14:31Z</time></trkpt><trkpt lat="50.043606" lon="14.283041"><ele>349.10</ele><time>2011-05-22T10:14:47Z</time></trkpt><trkpt lat="50.043633" lon="14.282359"><ele>350.06</ele><time>2011-05-22T10:15:01Z</time></trkpt><trkpt lat="50.043724" lon="14.281650"><ele>351.02</ele><time>2011-05-22T10:15:15Z</time></trkpt><trkpt lat="50.044147" lon="14.281318"><ele>351.98</ele><time>2011-05-22T10:15:29Z</time></trkpt><trkpt lat="50.044670" lon="14.281338"><ele>354.86</ele><time>2011-05-22T10:15:43Z</time></trkpt><trkpt lat="50.045074" lon="14.281142"><ele>357.27</ele><time>2011-05-22T10:15:58Z</time></trkpt><trkpt lat="50.045300" lon="14.280585"><ele>359.67</ele><time>2011-05-22T10:16:14Z</time></trkpt><trkpt lat="50.045433" lon="14.279919"><ele>362.07</ele><time>2011-05-22T10:16:30Z</time></trkpt><trkpt lat="50.045570" lon="14.279170"><ele>364.00</ele><time>2011-05-22T10:16:47Z</time></trkpt><trkpt lat="50.045681" lon="14.278357"><ele>365.44</ele><time>2011-05-22T10:17:04Z</time></trkpt><trkpt lat="50.045746" lon="14.277766"><ele>366.40</ele><time>2011-05-22T10:17:19Z</time></trkpt><trkpt lat="50.045769" lon="14.277378"><ele>367.36</ele><time>2011-05-22T10:17:33Z</time></trkpt><trkpt lat="50.045773" lon="14.277379"><ele>367.84</ele><time>2011-05-22T10:17:44Z</time></trkpt><trkpt lat="50.045773" lon="14.277379"><ele>369.28</ele><time>2011-05-22T10:18:03Z</time></trkpt><trkpt lat="50.045765" lon="14.277173"><ele>368.32</ele><time>2011-05-22T10:18:15Z</time></trkpt><trkpt lat="50.045807" lon="14.276718"><ele>368.80</ele><time>2011-05-22T10:18:29Z</time></trkpt><trkpt lat="50.045887" lon="14.276300"><ele>368.80</ele><time>2011-05-22T10:18:45Z</time></trkpt><trkpt lat="50.045918" lon="14.276325"><ele>369.28</ele><time>2011-05-22T10:18:47Z</time></trkpt><trkpt lat="50.045994" lon="14.276452"><ele>370.24</ele><time>2011-05-22T10:18:51Z</time></trkpt><trkpt lat="50.046257" lon="14.276771"><ele>371.21</ele><time>2011-05-22T10:19:07Z</time></trkpt><trkpt lat="50.046619" lon="14.277168"><ele>372.65</ele><time>2011-05-22T10:19:23Z</time></trkpt><trkpt lat="50.046867" lon="14.277699"><ele>374.09</ele><time>2011-05-22T10:19:39Z</time></trkpt><trkpt lat="50.047081" lon="14.278334"><ele>377.94</ele><time>2011-05-22T10:19:57Z</time></trkpt><trkpt lat="50.047260" lon="14.278981"><ele>380.34</ele><time>2011-05-22T10:20:14Z</time></trkpt><trkpt lat="50.047421" lon="14.279559"><ele>382.26</ele><time>2011-05-22T10:20:30Z</time></trkpt><trkpt lat="50.047523" lon="14.280000"><ele>383.22</ele><time>2011-05-22T10:20:45Z</time></trkpt><trkpt lat="50.047497" lon="14.280357"><ele>383.22</ele><time>2011-05-22T10:20:57Z</time></trkpt><trkpt lat="50.047295" lon="14.280523"><ele>384.18</ele><time>2011-05-22T10:21:10Z</time></trkpt><trkpt lat="50.047279" lon="14.280526"><ele>384.18</ele><time>2011-05-22T10:21:27Z</time></trkpt><trkpt lat="50.046906" lon="14.280776"><ele>384.18</ele><time>2011-05-22T10:21:42Z</time></trkpt><trkpt lat="50.046738" lon="14.281082"><ele>383.22</ele><time>2011-05-22T10:21:52Z</time></trkpt><trkpt lat="50.046814" lon="14.281597"><ele>384.18</ele><time>2011-05-22T10:22:05Z</time></trkpt><trkpt lat="50.046974" lon="14.282141"><ele>381.78</ele><time>2011-05-22T10:22:19Z</time></trkpt><trkpt lat="50.046925" lon="14.282707"><ele>381.30</ele><time>2011-05-22T10:22:31Z</time></trkpt><trkpt lat="50.046989" lon="14.282958"><ele>381.30</ele><time>2011-05-22T10:22:42Z</time></trkpt><trkpt lat="50.047157" lon="14.283560"><ele>382.74</ele><time>2011-05-22T10:22:58Z</time></trkpt><trkpt lat="50.047344" lon="14.284156"><ele>383.70</ele><time>2011-05-22T10:23:15Z</time></trkpt><trkpt lat="50.047535" lon="14.284609"><ele>385.15</ele><time>2011-05-22T10:23:28Z</time></trkpt><trkpt lat="50.047688" lon="14.285099"><ele>385.63</ele><time>2011-05-22T10:23:42Z</time></trkpt><trkpt lat="50.047726" lon="14.285401"><ele>385.63</ele><time>2011-05-22T10:23:50Z</time></trkpt><trkpt lat="50.047615" lon="14.285620"><ele>382.26</ele><time>2011-05-22T10:24:01Z</time></trkpt><trkpt lat="50.047470" lon="14.285525"><ele>379.38</ele><time>2011-05-22T10:24:06Z</time></trkpt><trkpt lat="50.047192" lon="14.285452"><ele>375.53</ele><time>2011-05-22T10:24:13Z</time></trkpt><trkpt lat="50.046989" lon="14.285434"><ele>371.21</ele><time>2011-05-22T10:24:19Z</time></trkpt><trkpt lat="50.046959" lon="14.285435"><ele>373.61</ele><time>2011-05-22T10:24:31Z</time></trkpt><trkpt lat="50.046959" lon="14.285435"><ele>372.65</ele><time>2011-05-22T10:24:36Z</time></trkpt><trkpt lat="50.046936" lon="14.285345"><ele>373.13</ele><time>2011-05-22T10:24:40Z</time></trkpt><trkpt lat="50.046715" lon="14.284602"><ele>372.17</ele><time>2011-05-22T10:24:54Z</time></trkpt><trkpt lat="50.046562" lon="14.284076"><ele>370.73</ele><time>2011-05-22T10:25:08Z</time></trkpt><trkpt lat="50.046410" lon="14.283627"><ele>370.73</ele><time>2011-05-22T10:25:23Z</time></trkpt><trkpt lat="50.046257" lon="14.283130"><ele>369.28</ele><time>2011-05-22T10:25:40Z</time></trkpt><trkpt lat="50.046124" lon="14.282659"><ele>368.80</ele><time>2011-05-22T10:25:57Z</time></trkpt><trkpt lat="50.045975" lon="14.281946"><ele>367.84</ele><time>2011-05-22T10:26:12Z</time></trkpt><trkpt lat="50.045853" lon="14.281696"><ele>367.84</ele><time>2011-05-22T10:26:25Z</time></trkpt><trkpt lat="50.045853" lon="14.281701"><ele>368.32</ele><time>2011-05-22T10:26:41Z</time></trkpt><trkpt lat="50.045864" lon="14.281739"><ele>368.32</ele><time>2011-05-22T10:26:42Z</time></trkpt><trkpt lat="50.045876" lon="14.281776"><ele>368.32</ele><time>2011-05-22T10:26:43Z</time></trkpt><trkpt lat="50.045891" lon="14.281816"><ele>367.84</ele><time>2011-05-22T10:26:44Z</time></trkpt><trkpt lat="50.045921" lon="14.282031"><ele>365.92</ele><time>2011-05-22T10:26:58Z</time></trkpt><trkpt lat="50.045921" lon="14.282031"><ele>364.96</ele><time>2011-05-22T10:27:13Z</time></trkpt><trkpt lat="50.045967" lon="14.282021"><ele>365.92</ele><time>2011-05-22T10:27:19Z</time></trkpt><trkpt lat="50.045971" lon="14.282021"><ele>369.28</ele><time>2011-05-22T10:27:32Z</time></trkpt><trkpt lat="50.045971" lon="14.282021"><ele>364.96</ele><time>2011-05-22T10:27:33Z</time></trkpt><trkpt lat="50.045971" lon="14.282021"><ele>364.48</ele><time>2011-05-22T10:27:42Z</time></trkpt><trkpt lat="50.045956" lon="14.282011"><ele>364.48</ele><time>2011-05-22T10:27:43Z</time></trkpt><trkpt lat="50.045940" lon="14.281998"><ele>363.52</ele><time>2011-05-22T10:27:44Z</time></trkpt><trkpt lat="50.045918" lon="14.281982"><ele>363.04</ele><time>2011-05-22T10:27:45Z</time></trkpt><trkpt lat="50.045891" lon="14.281966"><ele>364.00</ele><time>2011-05-22T10:27:46Z</time></trkpt><trkpt lat="50.045227" lon="14.281167"><ele>362.55</ele><time>2011-05-22T10:27:52Z</time></trkpt><trkpt lat="50.045254" lon="14.281122"><ele>362.55</ele><time>2011-05-22T10:27:53Z</time></trkpt><trkpt lat="50.045254" lon="14.281086"><ele>363.04</ele><time>2011-05-22T10:27:54Z</time></trkpt><trkpt lat="50.045250" lon="14.281060"><ele>363.04</ele><time>2011-05-22T10:28:05Z</time></trkpt><trkpt lat="50.045246" lon="14.281036"><ele>363.04</ele><time>2011-05-22T10:28:07Z</time></trkpt><trkpt lat="50.045246" lon="14.281034"><ele>362.55</ele><time>2011-05-22T10:28:08Z</time></trkpt><trkpt lat="50.045242" lon="14.281022"><ele>363.04</ele><time>2011-05-22T10:28:09Z</time></trkpt><trkpt lat="50.045235" lon="14.281004"><ele>362.55</ele><time>2011-05-22T10:28:10Z</time></trkpt><trkpt lat="50.045235" lon="14.280984"><ele>362.55</ele><time>2011-05-22T10:28:11Z</time></trkpt><trkpt lat="50.045235" lon="14.280959"><ele>362.55</ele><time>2011-05-22T10:28:12Z</time></trkpt><trkpt lat="50.045235" lon="14.280930"><ele>362.55</ele><time>2011-05-22T10:28:13Z</time></trkpt><trkpt lat="50.045235" lon="14.280900"><ele>362.07</ele><time>2011-05-22T10:28:14Z</time></trkpt><trkpt lat="50.045231" lon="14.280867"><ele>362.55</ele><time>2011-05-22T10:28:15Z</time></trkpt><trkpt lat="50.045231" lon="14.280833"><ele>362.55</ele><time>2011-05-22T10:28:16Z</time></trkpt><trkpt lat="50.045235" lon="14.280802"><ele>362.55</ele><time>2011-05-22T10:28:17Z</time></trkpt><trkpt lat="50.045235" lon="14.280780"><ele>362.07</ele><time>2011-05-22T10:28:18Z</time></trkpt><trkpt lat="50.045227" lon="14.280768"><ele>362.55</ele><time>2011-05-22T10:28:19Z</time></trkpt><trkpt lat="50.045216" lon="14.280753"><ele>362.55</ele><time>2011-05-22T10:28:20Z</time></trkpt><trkpt lat="50.045208" lon="14.280734"><ele>362.07</ele><time>2011-05-22T10:28:21Z</time></trkpt><trkpt lat="50.045200" lon="14.280713"><ele>362.55</ele><time>2011-05-22T10:28:22Z</time></trkpt><trkpt lat="50.045200" lon="14.280695"><ele>361.59</ele><time>2011-05-22T10:28:23Z</time></trkpt><trkpt lat="50.045193" lon="14.280644"><ele>362.07</ele><time>2011-05-22T10:28:27Z</time></trkpt><trkpt lat="50.045181" lon="14.280624"><ele>362.07</ele><time>2011-05-22T10:28:28Z</time></trkpt><trkpt lat="50.045177" lon="14.280602"><ele>362.07</ele><time>2011-05-22T10:28:29Z</time></trkpt><trkpt lat="50.045193" lon="14.280140"><ele>363.04</ele><time>2011-05-22T10:28:42Z</time></trkpt><trkpt lat="50.045227" lon="14.279947"><ele>364.00</ele><time>2011-05-22T10:28:55Z</time></trkpt><trkpt lat="50.045235" lon="14.279958"><ele>364.48</ele><time>2011-05-22T10:29:07Z</time></trkpt><trkpt lat="50.045135" lon="14.279943"><ele>364.00</ele><time>2011-05-22T10:29:25Z</time></trkpt><trkpt lat="50.045021" lon="14.280016"><ele>364.96</ele><time>2011-05-22T10:29:42Z</time></trkpt><trkpt lat="50.045296" lon="14.280013"><ele>364.96</ele><time>2011-05-22T10:29:57Z</time></trkpt><trkpt lat="50.045307" lon="14.280015"><ele>364.96</ele><time>2011-05-22T10:30:06Z</time></trkpt><trkpt lat="50.045284" lon="14.280011"><ele>364.96</ele><time>2011-05-22T10:30:07Z</time></trkpt><trkpt lat="50.045238" lon="14.280074"><ele>364.48</ele><time>2011-05-22T10:30:12Z</time></trkpt><trkpt lat="50.045464" lon="14.279953"><ele>365.92</ele><time>2011-05-22T10:30:25Z</time></trkpt><trkpt lat="50.045467" lon="14.279888"><ele>365.92</ele><time>2011-05-22T10:30:38Z</time></trkpt><trkpt lat="50.045464" lon="14.279879"><ele>368.80</ele><time>2011-05-22T10:30:57Z</time></trkpt><trkpt lat="50.045464" lon="14.279879"><ele>365.92</ele><time>2011-05-22T10:31:05Z</time></trkpt><trkpt lat="50.045464" lon="14.279833"><ele>366.40</ele><time>2011-05-22T10:31:10Z</time></trkpt><trkpt lat="50.045467" lon="14.279809"><ele>366.40</ele><time>2011-05-22T10:31:11Z</time></trkpt><trkpt lat="50.045475" lon="14.279782"><ele>366.40</ele><time>2011-05-22T10:31:12Z</time></trkpt><trkpt lat="50.045567" lon="14.279112"><ele>368.32</ele><time>2011-05-22T10:31:27Z</time></trkpt><trkpt lat="50.045689" lon="14.278265"><ele>369.28</ele><time>2011-05-22T10:31:44Z</time></trkpt><trkpt lat="50.045757" lon="14.277337"><ele>370.73</ele><time>2011-05-22T10:32:01Z</time></trkpt><trkpt lat="50.045792" lon="14.276387"><ele>371.69</ele><time>2011-05-22T10:32:18Z</time></trkpt><trkpt lat="50.045837" lon="14.275339"><ele>371.69</ele><time>2011-05-22T10:32:35Z</time></trkpt><trkpt lat="50.045765" lon="14.274318"><ele>371.69</ele><time>2011-05-22T10:32:52Z</time></trkpt><trkpt lat="50.045567" lon="14.274083"><ele>372.17</ele><time>2011-05-22T10:33:04Z</time></trkpt><trkpt lat="50.045357" lon="14.273642"><ele>370.73</ele><time>2011-05-22T10:33:16Z</time></trkpt><trkpt lat="50.045166" lon="14.273057"><ele>373.13</ele><time>2011-05-22T10:33:31Z</time></trkpt><trkpt lat="50.044746" lon="14.272622"><ele>376.49</ele><time>2011-05-22T10:33:51Z</time></trkpt><trkpt lat="50.044342" lon="14.272586"><ele>379.38</ele><time>2011-05-22T10:34:07Z</time></trkpt><trkpt lat="50.043972" lon="14.272495"><ele>379.86</ele><time>2011-05-22T10:34:21Z</time></trkpt><trkpt lat="50.043602" lon="14.272232"><ele>381.30</ele><time>2011-05-22T10:34:35Z</time></trkpt><trkpt lat="50.043213" lon="14.271786"><ele>384.66</ele><time>2011-05-22T10:34:50Z</time></trkpt><trkpt lat="50.043194" lon="14.271747"><ele>380.82</ele><time>2011-05-22T10:34:51Z</time></trkpt><trkpt lat="50.043175" lon="14.271701"><ele>384.18</ele><time>2011-05-22T10:34:52Z</time></trkpt><trkpt lat="50.043209" lon="14.271143"><ele>384.18</ele><time>2011-05-22T10:35:03Z</time></trkpt><trkpt lat="50.043213" lon="14.270522"><ele>385.15</ele><time>2011-05-22T10:35:15Z</time></trkpt><trkpt lat="50.043217" lon="14.270004"><ele>381.78</ele><time>2011-05-22T10:35:24Z</time></trkpt><trkpt lat="50.043217" lon="14.269944"><ele>385.63</ele><time>2011-05-22T10:35:25Z</time></trkpt><trkpt lat="50.043224" lon="14.269687"><ele>385.63</ele><time>2011-05-22T10:35:29Z</time></trkpt><trkpt lat="50.043221" lon="14.269183"><ele>385.15</ele><time>2011-05-22T10:35:37Z</time></trkpt><trkpt lat="50.043201" lon="14.268431"><ele>380.82</ele><time>2011-05-22T10:35:48Z</time></trkpt><trkpt lat="50.043201" lon="14.268354"><ele>381.30</ele><time>2011-05-22T10:35:49Z</time></trkpt><trkpt lat="50.043198" lon="14.268194"><ele>382.74</ele><time>2011-05-22T10:35:51Z</time></trkpt><trkpt lat="50.043201" lon="14.266854"><ele>379.38</ele><time>2011-05-22T10:36:06Z</time></trkpt><trkpt lat="50.043137" lon="14.265564"><ele>379.86</ele><time>2011-05-22T10:36:22Z</time></trkpt><trkpt lat="50.042995" lon="14.264638"><ele>380.82</ele><time>2011-05-22T10:36:35Z</time></trkpt><trkpt lat="50.042976" lon="14.264568"><ele>380.82</ele><time>2011-05-22T10:36:36Z</time></trkpt><trkpt lat="50.042961" lon="14.264495"><ele>380.82</ele><time>2011-05-22T10:36:37Z</time></trkpt><trkpt lat="50.042645" lon="14.262898"><ele>382.26</ele><time>2011-05-22T10:36:59Z</time></trkpt><trkpt lat="50.042423" lon="14.261436"><ele>382.26</ele><time>2011-05-22T10:37:20Z</time></trkpt><trkpt lat="50.042366" lon="14.260285"><ele>383.22</ele><time>2011-05-22T10:37:37Z</time></trkpt><trkpt lat="50.042362" lon="14.260057"><ele>383.22</ele><time>2011-05-22T10:37:47Z</time></trkpt><trkpt lat="50.042385" lon="14.260206"><ele>382.74</ele><time>2011-05-22T10:37:51Z</time></trkpt><trkpt lat="50.042397" lon="14.260255"><ele>382.74</ele><time>2011-05-22T10:37:52Z</time></trkpt><trkpt lat="50.042412" lon="14.260309"><ele>382.74</ele><time>2011-05-22T10:37:53Z</time></trkpt><trkpt lat="50.042423" lon="14.260366"><ele>382.26</ele><time>2011-05-22T10:37:54Z</time></trkpt><trkpt lat="50.042450" lon="14.260393"><ele>382.26</ele><time>2011-05-22T10:37:55Z</time></trkpt><trkpt lat="50.042667" lon="14.259963"><ele>382.26</ele><time>2011-05-22T10:38:06Z</time></trkpt><trkpt lat="50.042835" lon="14.259396"><ele>383.70</ele><time>2011-05-22T10:38:15Z</time></trkpt><trkpt lat="50.043251" lon="14.258934"><ele>383.22</ele><time>2011-05-22T10:38:28Z</time></trkpt><trkpt lat="50.043388" lon="14.259046"><ele>383.70</ele><time>2011-05-22T10:38:30Z</time></trkpt><trkpt lat="50.044044" lon="14.259006"><ele>384.18</ele><time>2011-05-22T10:38:43Z</time></trkpt><trkpt lat="50.044521" lon="14.258776"><ele>385.63</ele><time>2011-05-22T10:38:56Z</time></trkpt><trkpt lat="50.044716" lon="14.258516"><ele>384.66</ele><time>2011-05-22T10:39:09Z</time></trkpt><trkpt lat="50.044998" lon="14.258158"><ele>385.63</ele><time>2011-05-22T10:39:21Z</time></trkpt><trkpt lat="50.045647" lon="14.257807"><ele>387.07</ele><time>2011-05-22T10:39:39Z</time></trkpt><trkpt lat="50.046524" lon="14.257312"><ele>388.99</ele><time>2011-05-22T10:40:00Z</time></trkpt><trkpt lat="50.047298" lon="14.256804"><ele>390.43</ele><time>2011-05-22T10:40:19Z</time></trkpt><trkpt lat="50.048294" lon="14.256201"><ele>391.39</ele><time>2011-05-22T10:40:41Z</time></trkpt><trkpt lat="50.048817" lon="14.255869"><ele>394.76</ele><time>2011-05-22T10:40:54Z</time></trkpt><trkpt lat="50.049374" lon="14.255520"><ele>398.12</ele><time>2011-05-22T10:41:11Z</time></trkpt><trkpt lat="50.050045" lon="14.255109"><ele>400.53</ele><time>2011-05-22T10:41:30Z</time></trkpt><trkpt lat="50.050838" lon="14.254673"><ele>401.01</ele><time>2011-05-22T10:41:49Z</time></trkpt><trkpt lat="50.051285" lon="14.254441"><ele>401.01</ele><time>2011-05-22T10:41:59Z</time></trkpt><trkpt lat="50.051506" lon="14.254372"><ele>397.64</ele><time>2011-05-22T10:42:07Z</time></trkpt><trkpt lat="50.051510" lon="14.254371"><ele>399.08</ele><time>2011-05-22T10:42:08Z</time></trkpt><trkpt lat="50.051476" lon="14.254374"><ele>401.01</ele><time>2011-05-22T10:42:10Z</time></trkpt><trkpt lat="50.051476" lon="14.254374"><ele>401.01</ele><time>2011-05-22T10:42:41Z</time></trkpt><trkpt lat="50.051483" lon="14.254359"><ele>400.53</ele><time>2011-05-22T10:42:54Z</time></trkpt><trkpt lat="50.051502" lon="14.254343"><ele>400.53</ele><time>2011-05-22T10:42:55Z</time></trkpt><trkpt lat="50.051636" lon="14.254236"><ele>399.57</ele><time>2011-05-22T10:42:59Z</time></trkpt><trkpt lat="50.052517" lon="14.253622"><ele>397.64</ele><time>2011-05-22T10:43:14Z</time></trkpt><trkpt lat="50.053593" lon="14.252877"><ele>394.76</ele><time>2011-05-22T10:43:29Z</time></trkpt><trkpt lat="50.054543" lon="14.252071"><ele>395.72</ele><time>2011-05-22T10:43:44Z</time></trkpt><trkpt lat="50.055458" lon="14.251393"><ele>394.76</ele><time>2011-05-22T10:44:00Z</time></trkpt><trkpt lat="50.056416" lon="14.250919"><ele>391.87</ele><time>2011-05-22T10:44:15Z</time></trkpt><trkpt lat="50.056999" lon="14.250583"><ele>388.03</ele><time>2011-05-22T10:44:24Z</time></trkpt><trkpt lat="50.057308" lon="14.250319"><ele>384.66</ele><time>2011-05-22T10:44:29Z</time></trkpt><trkpt lat="50.057590" lon="14.249996"><ele>382.26</ele><time>2011-05-22T10:44:34Z</time></trkpt><trkpt lat="50.057739" lon="14.249768"><ele>380.34</ele><time>2011-05-22T10:44:37Z</time></trkpt><trkpt lat="50.057926" lon="14.249393"><ele>377.45</ele><time>2011-05-22T10:44:41Z</time></trkpt><trkpt lat="50.058102" lon="14.248864"><ele>375.05</ele><time>2011-05-22T10:44:46Z</time></trkpt><trkpt lat="50.058491" lon="14.247210"><ele>373.13</ele><time>2011-05-22T10:45:01Z</time></trkpt><trkpt lat="50.058933" lon="14.245795"><ele>372.17</ele><time>2011-05-22T10:45:19Z</time></trkpt><trkpt lat="50.059319" lon="14.244781"><ele>371.69</ele><time>2011-05-22T10:45:33Z</time></trkpt><trkpt lat="50.059792" lon="14.243350"><ele>370.24</ele><time>2011-05-22T10:45:51Z</time></trkpt><trkpt lat="50.060261" lon="14.241838"><ele>369.76</ele><time>2011-05-22T10:46:08Z</time></trkpt><trkpt lat="50.060764" lon="14.240849"><ele>368.80</ele><time>2011-05-22T10:46:21Z</time></trkpt><trkpt lat="50.061825" lon="14.239269"><ele>366.40</ele><time>2011-05-22T10:46:42Z</time></trkpt><trkpt lat="50.062767" lon="14.237918"><ele>364.00</ele><time>2011-05-22T10:47:01Z</time></trkpt><trkpt lat="50.063206" lon="14.237263"><ele>362.55</ele><time>2011-05-22T10:47:11Z</time></trkpt><trkpt lat="50.063236" lon="14.237206"><ele>363.04</ele><time>2011-05-22T10:47:12Z</time></trkpt><trkpt lat="50.063255" lon="14.237142"><ele>364.48</ele><time>2011-05-22T10:47:13Z</time></trkpt><trkpt lat="50.063267" lon="14.237073"><ele>363.04</ele><time>2011-05-22T10:47:14Z</time></trkpt><trkpt lat="50.063274" lon="14.237005"><ele>363.52</ele><time>2011-05-22T10:47:15Z</time></trkpt><trkpt lat="50.063282" lon="14.236937"><ele>363.04</ele><time>2011-05-22T10:47:16Z</time></trkpt><trkpt lat="50.063320" lon="14.236683"><ele>362.55</ele><time>2011-05-22T10:47:20Z</time></trkpt><trkpt lat="50.063328" lon="14.236620"><ele>363.04</ele><time>2011-05-22T10:47:21Z</time></trkpt><trkpt lat="50.063408" lon="14.235930"><ele>363.04</ele><time>2011-05-22T10:47:31Z</time></trkpt><trkpt lat="50.063446" lon="14.235658"><ele>362.55</ele><time>2011-05-22T10:47:35Z</time></trkpt><trkpt lat="50.063454" lon="14.235585"><ele>363.04</ele><time>2011-05-22T10:47:36Z</time></trkpt><trkpt lat="50.063450" lon="14.235269"><ele>364.00</ele><time>2011-05-22T10:47:41Z</time></trkpt><trkpt lat="50.063446" lon="14.234923"><ele>364.48</ele><time>2011-05-22T10:47:46Z</time></trkpt><trkpt lat="50.063370" lon="14.233921"><ele>364.48</ele><time>2011-05-22T10:48:02Z</time></trkpt><trkpt lat="50.063313" lon="14.233624"><ele>365.44</ele><time>2011-05-22T10:48:12Z</time></trkpt><trkpt lat="50.063320" lon="14.233654"><ele>364.00</ele><time>2011-05-22T10:48:14Z</time></trkpt><trkpt lat="50.063328" lon="14.233671"><ele>364.00</ele><time>2011-05-22T10:48:15Z</time></trkpt><trkpt lat="50.063332" lon="14.233689"><ele>364.00</ele><time>2011-05-22T10:48:16Z</time></trkpt><trkpt lat="50.063332" lon="14.233774"><ele>360.15</ele><time>2011-05-22T10:48:24Z</time></trkpt><trkpt lat="50.063332" lon="14.233774"><ele>367.84</ele><time>2011-05-22T10:48:25Z</time></trkpt><trkpt lat="50.063332" lon="14.233774"><ele>358.23</ele><time>2011-05-22T10:48:37Z</time></trkpt><trkpt lat="50.063332" lon="14.233774"><ele>366.40</ele><time>2011-05-22T10:48:38Z</time></trkpt><trkpt lat="50.063332" lon="14.233774"><ele>363.04</ele><time>2011-05-22T10:48:42Z</time></trkpt><trkpt lat="50.063332" lon="14.233774"><ele>367.84</ele><time>2011-05-22T10:48:43Z</time></trkpt><trkpt lat="50.063332" lon="14.233774"><ele>365.44</ele><time>2011-05-22T10:48:51Z</time></trkpt><trkpt lat="50.063316" lon="14.233768"><ele>366.40</ele><time>2011-05-22T10:48:52Z</time></trkpt><trkpt lat="50.063305" lon="14.233752"><ele>366.40</ele><time>2011-05-22T10:48:53Z</time></trkpt><trkpt lat="50.063290" lon="14.233729"><ele>366.40</ele><time>2011-05-22T10:48:54Z</time></trkpt><trkpt lat="50.063282" lon="14.233697"><ele>366.40</ele><time>2011-05-22T10:48:55Z</time></trkpt><trkpt lat="50.063274" lon="14.233662"><ele>366.40</ele><time>2011-05-22T10:48:56Z</time></trkpt><trkpt lat="50.063271" lon="14.233625"><ele>366.40</ele><time>2011-05-22T10:48:57Z</time></trkpt><trkpt lat="50.063049" lon="14.233142"><ele>367.84</ele><time>2011-05-22T10:49:12Z</time></trkpt><trkpt lat="50.062809" lon="14.232877"><ele>372.17</ele><time>2011-05-22T10:49:24Z</time></trkpt><trkpt lat="50.062805" lon="14.232882"><ele>368.80</ele><time>2011-05-22T10:49:25Z</time></trkpt><trkpt lat="50.062801" lon="14.232884"><ele>372.17</ele><time>2011-05-22T10:49:38Z</time></trkpt><trkpt lat="50.062801" lon="14.232884"><ele>368.80</ele><time>2011-05-22T10:49:39Z</time></trkpt><trkpt lat="50.062786" lon="14.232936"><ele>368.80</ele><time>2011-05-22T10:49:45Z</time></trkpt><trkpt lat="50.062767" lon="14.232928"><ele>368.80</ele><time>2011-05-22T10:49:46Z</time></trkpt><trkpt lat="50.062458" lon="14.232980"><ele>369.28</ele><time>2011-05-22T10:49:58Z</time></trkpt><trkpt lat="50.062180" lon="14.233278"><ele>370.24</ele><time>2011-05-22T10:50:10Z</time></trkpt><trkpt lat="50.062168" lon="14.233315"><ele>370.24</ele><time>2011-05-22T10:50:23Z</time></trkpt><trkpt lat="50.062164" lon="14.233314"><ele>369.28</ele><time>2011-05-22T10:50:38Z</time></trkpt><trkpt lat="50.062164" lon="14.233314"><ele>370.24</ele><time>2011-05-22T10:50:51Z</time></trkpt><trkpt lat="50.062183" lon="14.233371"><ele>370.24</ele><time>2011-05-22T10:51:05Z</time></trkpt><trkpt lat="50.062183" lon="14.233371"><ele>369.76</ele><time>2011-05-22T10:51:14Z</time></trkpt><trkpt lat="50.062229" lon="14.233370"><ele>370.24</ele><time>2011-05-22T10:51:23Z</time></trkpt><trkpt lat="50.062252" lon="14.233398"><ele>369.76</ele><time>2011-05-22T10:51:25Z</time></trkpt><trkpt lat="50.062225" lon="14.233490"><ele>370.24</ele><time>2011-05-22T10:51:45Z</time></trkpt><trkpt lat="50.062237" lon="14.233478"><ele>370.24</ele><time>2011-05-22T10:52:12Z</time></trkpt><trkpt lat="50.062237" lon="14.233478"><ele>369.76</ele><time>2011-05-22T10:52:37Z</time></trkpt><trkpt lat="50.062237" lon="14.233478"><ele>370.24</ele><time>2011-05-22T10:53:03Z</time></trkpt><trkpt lat="50.062279" lon="14.233393"><ele>370.24</ele><time>2011-05-22T10:53:23Z</time></trkpt><trkpt lat="50.062279" lon="14.233393"><ele>369.76</ele><time>2011-05-22T10:53:26Z</time></trkpt><trkpt lat="50.062298" lon="14.233369"><ele>369.28</ele><time>2011-05-22T10:53:43Z</time></trkpt><trkpt lat="50.062298" lon="14.233369"><ele>368.80</ele><time>2011-05-22T10:54:07Z</time></trkpt><trkpt lat="50.062305" lon="14.233355"><ele>369.28</ele><time>2011-05-22T10:54:38Z</time></trkpt><trkpt lat="50.062305" lon="14.233346"><ele>369.28</ele><time>2011-05-22T10:55:07Z</time></trkpt><trkpt lat="50.062305" lon="14.233340"><ele>369.28</ele><time>2011-05-22T10:55:41Z</time></trkpt><trkpt lat="50.062305" lon="14.233340"><ele>369.28</ele><time>2011-05-22T10:56:13Z</time></trkpt><trkpt lat="50.062305" lon="14.233339"><ele>369.28</ele><time>2011-05-22T10:56:50Z</time></trkpt><trkpt lat="50.062305" lon="14.233342"><ele>369.76</ele><time>2011-05-22T10:57:22Z</time></trkpt><trkpt lat="50.062313" lon="14.233337"><ele>369.28</ele><time>2011-05-22T10:58:01Z</time></trkpt><trkpt lat="50.062313" lon="14.233336"><ele>369.76</ele><time>2011-05-22T10:58:40Z</time></trkpt><trkpt lat="50.062313" lon="14.233332"><ele>369.76</ele><time>2011-05-22T10:59:19Z</time></trkpt><trkpt lat="50.062321" lon="14.233330"><ele>370.24</ele><time>2011-05-22T10:59:53Z</time></trkpt><trkpt lat="50.062325" lon="14.233329"><ele>370.24</ele><time>2011-05-22T11:00:27Z</time></trkpt><trkpt lat="50.062321" lon="14.233322"><ele>369.76</ele><time>2011-05-22T11:01:08Z</time></trkpt><trkpt lat="50.062325" lon="14.233323"><ele>369.76</ele><time>2011-05-22T11:01:45Z</time></trkpt><trkpt lat="50.062325" lon="14.233322"><ele>369.76</ele><time>2011-05-22T11:02:21Z</time></trkpt><trkpt lat="50.062325" lon="14.233322"><ele>369.76</ele><time>2011-05-22T11:02:49Z</time></trkpt><trkpt lat="50.062325" lon="14.233319"><ele>369.76</ele><time>2011-05-22T11:03:27Z</time></trkpt><trkpt lat="50.062328" lon="14.233315"><ele>370.24</ele><time>2011-05-22T11:04:10Z</time></trkpt><trkpt lat="50.062328" lon="14.233315"><ele>370.24</ele><time>2011-05-22T11:04:49Z</time></trkpt><trkpt lat="50.062328" lon="14.233315"><ele>370.73</ele><time>2011-05-22T11:05:25Z</time></trkpt><trkpt lat="50.062328" lon="14.233315"><ele>370.24</ele><time>2011-05-22T11:06:02Z</time></trkpt><trkpt lat="50.062328" lon="14.233314"><ele>370.24</ele><time>2011-05-22T11:06:41Z</time></trkpt><trkpt lat="50.062332" lon="14.233307"><ele>370.73</ele><time>2011-05-22T11:07:26Z</time></trkpt><trkpt lat="50.062332" lon="14.233307"><ele>371.21</ele><time>2011-05-22T11:08:07Z</time></trkpt><trkpt lat="50.062332" lon="14.233305"><ele>370.73</ele><time>2011-05-22T11:08:47Z</time></trkpt><trkpt lat="50.062332" lon="14.233305"><ele>370.73</ele><time>2011-05-22T11:09:28Z</time></trkpt><trkpt lat="50.062332" lon="14.233306"><ele>371.21</ele><time>2011-05-22T11:10:05Z</time></trkpt><trkpt lat="50.062332" lon="14.233308"><ele>371.69</ele><time>2011-05-22T11:10:47Z</time></trkpt><trkpt lat="50.062332" lon="14.233305"><ele>371.69</ele><time>2011-05-22T11:11:25Z</time></trkpt><trkpt lat="50.062336" lon="14.233299"><ele>371.69</ele><time>2011-05-22T11:12:04Z</time></trkpt><trkpt lat="50.062336" lon="14.233300"><ele>371.69</ele><time>2011-05-22T11:12:42Z</time></trkpt><trkpt lat="50.062336" lon="14.233299"><ele>371.69</ele><time>2011-05-22T11:13:24Z</time></trkpt><trkpt lat="50.062340" lon="14.233296"><ele>372.17</ele><time>2011-05-22T11:14:07Z</time></trkpt><trkpt lat="50.062340" lon="14.233299"><ele>371.69</ele><time>2011-05-22T11:14:42Z</time></trkpt><trkpt lat="50.062336" lon="14.233301"><ele>372.17</ele><time>2011-05-22T11:15:18Z</time></trkpt><trkpt lat="50.062336" lon="14.233304"><ele>372.17</ele><time>2011-05-22T11:15:47Z</time></trkpt><trkpt lat="50.062336" lon="14.233303"><ele>372.17</ele><time>2011-05-22T11:16:20Z</time></trkpt><trkpt lat="50.062336" lon="14.233303"><ele>371.69</ele><time>2011-05-22T11:16:56Z</time></trkpt><trkpt lat="50.062332" lon="14.233300"><ele>372.17</ele><time>2011-05-22T11:17:27Z</time></trkpt><trkpt lat="50.062332" lon="14.233299"><ele>372.17</ele><time>2011-05-22T11:18:01Z</time></trkpt><trkpt lat="50.062332" lon="14.233302"><ele>372.17</ele><time>2011-05-22T11:18:34Z</time></trkpt><trkpt lat="50.062332" lon="14.233300"><ele>372.17</ele><time>2011-05-22T11:19:05Z</time></trkpt><trkpt lat="50.062332" lon="14.233300"><ele>372.17</ele><time>2011-05-22T11:19:37Z</time></trkpt><trkpt lat="50.062336" lon="14.233297"><ele>372.17</ele><time>2011-05-22T11:20:12Z</time></trkpt><trkpt lat="50.062336" lon="14.233296"><ele>372.65</ele><time>2011-05-22T11:20:52Z</time></trkpt><trkpt lat="50.062336" lon="14.233291"><ele>372.65</ele><time>2011-05-22T11:21:27Z</time></trkpt><trkpt lat="50.062336" lon="14.233283"><ele>373.13</ele><time>2011-05-22T11:21:58Z</time></trkpt><trkpt lat="50.062336" lon="14.233282"><ele>373.13</ele><time>2011-05-22T11:22:25Z</time></trkpt><trkpt lat="50.062336" lon="14.233282"><ele>373.13</ele><time>2011-05-22T11:22:57Z</time></trkpt><trkpt lat="50.062332" lon="14.233279"><ele>372.65</ele><time>2011-05-22T11:23:28Z</time></trkpt><trkpt lat="50.062336" lon="14.233272"><ele>373.61</ele><time>2011-05-22T11:24:03Z</time></trkpt><trkpt lat="50.062340" lon="14.233273"><ele>374.09</ele><time>2011-05-22T11:24:35Z</time></trkpt><trkpt lat="50.062336" lon="14.233274"><ele>373.61</ele><time>2011-05-22T11:25:04Z</time></trkpt><trkpt lat="50.062336" lon="14.233274"><ele>374.09</ele><time>2011-05-22T11:25:36Z</time></trkpt><trkpt lat="50.062332" lon="14.233273"><ele>374.09</ele><time>2011-05-22T11:26:10Z</time></trkpt><trkpt lat="50.062336" lon="14.233276"><ele>374.57</ele><time>2011-05-22T11:26:45Z</time></trkpt><trkpt lat="50.062332" lon="14.233276"><ele>374.57</ele><time>2011-05-22T11:27:18Z</time></trkpt><trkpt lat="50.062332" lon="14.233275"><ele>374.09</ele><time>2011-05-22T11:27:49Z</time></trkpt><trkpt lat="50.062332" lon="14.233277"><ele>374.57</ele><time>2011-05-22T11:28:20Z</time></trkpt><trkpt lat="50.062332" lon="14.233277"><ele>374.57</ele><time>2011-05-22T11:28:50Z</time></trkpt><trkpt lat="50.062332" lon="14.233278"><ele>374.57</ele><time>2011-05-22T11:29:23Z</time></trkpt><trkpt lat="50.062332" lon="14.233278"><ele>374.57</ele><time>2011-05-22T11:29:54Z</time></trkpt><trkpt lat="50.062332" lon="14.233281"><ele>374.57</ele><time>2011-05-22T11:30:28Z</time></trkpt><trkpt lat="50.062332" lon="14.233279"><ele>374.57</ele><time>2011-05-22T11:31:06Z</time></trkpt><trkpt lat="50.062336" lon="14.233278"><ele>375.05</ele><time>2011-05-22T11:31:40Z</time></trkpt><trkpt lat="50.062336" lon="14.233278"><ele>376.49</ele><time>2011-05-22T11:32:03Z</time></trkpt><trkpt lat="50.062336" lon="14.233278"><ele>373.61</ele><time>2011-05-22T11:32:08Z</time></trkpt><trkpt lat="50.062336" lon="14.233278"><ele>375.53</ele><time>2011-05-22T11:32:10Z</time></trkpt><trkpt lat="50.062336" lon="14.233278"><ele>375.05</ele><time>2011-05-22T11:32:45Z</time></trkpt><trkpt lat="50.062336" lon="14.233280"><ele>372.17</ele><time>2011-05-22T11:33:12Z</time></trkpt><trkpt lat="50.062336" lon="14.233280"><ele>375.53</ele><time>2011-05-22T11:33:13Z</time></trkpt><trkpt lat="50.062340" lon="14.233281"><ele>372.17</ele><time>2011-05-22T11:33:53Z</time></trkpt><trkpt lat="50.062340" lon="14.233281"><ele>375.53</ele><time>2011-05-22T11:33:54Z</time></trkpt><trkpt lat="50.062340" lon="14.233281"><ele>376.01</ele><time>2011-05-22T11:34:28Z</time></trkpt><trkpt lat="50.062340" lon="14.233284"><ele>376.01</ele><time>2011-05-22T11:35:01Z</time></trkpt><trkpt lat="50.062340" lon="14.233284"><ele>373.13</ele><time>2011-05-22T11:35:11Z</time></trkpt><trkpt lat="50.062340" lon="14.233284"><ele>376.49</ele><time>2011-05-22T11:35:12Z</time></trkpt><trkpt lat="50.062340" lon="14.233284"><ele>373.61</ele><time>2011-05-22T11:35:20Z</time></trkpt><trkpt lat="50.062340" lon="14.233284"><ele>376.49</ele><time>2011-05-22T11:35:25Z</time></trkpt><trkpt lat="50.062340" lon="14.233284"><ele>375.53</ele><time>2011-05-22T11:35:28Z</time></trkpt><trkpt lat="50.062347" lon="14.233288"><ele>376.01</ele><time>2011-05-22T11:35:53Z</time></trkpt><trkpt lat="50.062347" lon="14.233288"><ele>375.53</ele><time>2011-05-22T11:36:10Z</time></trkpt><trkpt lat="50.062351" lon="14.233323"><ele>376.49</ele><time>2011-05-22T11:36:39Z</time></trkpt><trkpt lat="50.062351" lon="14.233323"><ele>375.05</ele><time>2011-05-22T11:37:07Z</time></trkpt><trkpt lat="50.062351" lon="14.233333"><ele>376.97</ele><time>2011-05-22T11:37:22Z</time></trkpt><trkpt lat="50.062321" lon="14.233394"><ele>376.49</ele><time>2011-05-22T11:37:27Z</time></trkpt><trkpt lat="50.062313" lon="14.233375"><ele>376.97</ele><time>2011-05-22T11:37:43Z</time></trkpt><trkpt lat="50.062263" lon="14.233353"><ele>376.97</ele><time>2011-05-22T11:38:00Z</time></trkpt><trkpt lat="50.062263" lon="14.233354"><ele>376.49</ele><time>2011-05-22T11:38:18Z</time></trkpt><trkpt lat="50.062267" lon="14.233355"><ele>370.73</ele><time>2011-05-22T11:38:31Z</time></trkpt><trkpt lat="50.062267" lon="14.233355"><ele>381.78</ele><time>2011-05-22T11:38:32Z</time></trkpt><trkpt lat="50.062267" lon="14.233355"><ele>376.97</ele><time>2011-05-22T11:38:33Z</time></trkpt><trkpt lat="50.062267" lon="14.233355"><ele>371.21</ele><time>2011-05-22T11:38:41Z</time></trkpt><trkpt lat="50.062267" lon="14.233355"><ele>374.57</ele><time>2011-05-22T11:38:42Z</time></trkpt><trkpt lat="50.062267" lon="14.233355"><ele>379.86</ele><time>2011-05-22T11:38:44Z</time></trkpt><trkpt lat="50.062271" lon="14.233367"><ele>376.97</ele><time>2011-05-22T11:38:47Z</time></trkpt><trkpt lat="50.062271" lon="14.233364"><ele>376.97</ele><time>2011-05-22T11:39:04Z</time></trkpt><trkpt lat="50.062271" lon="14.233294"><ele>376.01</ele><time>2011-05-22T11:39:12Z</time></trkpt><trkpt lat="50.062279" lon="14.233243"><ele>377.45</ele><time>2011-05-22T11:39:15Z</time></trkpt><trkpt lat="50.062283" lon="14.233232"><ele>376.97</ele><time>2011-05-22T11:39:16Z</time></trkpt><trkpt lat="50.062271" lon="14.233207"><ele>374.57</ele><time>2011-05-22T11:39:18Z</time></trkpt><trkpt lat="50.062275" lon="14.233185"><ele>376.01</ele><time>2011-05-22T11:39:21Z</time></trkpt><trkpt lat="50.062305" lon="14.233149"><ele>376.01</ele><time>2011-05-22T11:39:36Z</time></trkpt><trkpt lat="50.062580" lon="14.232939"><ele>372.65</ele><time>2011-05-22T11:39:47Z</time></trkpt><trkpt lat="50.062607" lon="14.232902"><ele>376.01</ele><time>2011-05-22T11:39:48Z</time></trkpt><trkpt lat="50.062672" lon="14.232787"><ele>375.05</ele><time>2011-05-22T11:39:59Z</time></trkpt><trkpt lat="50.062668" lon="14.232767"><ele>375.05</ele><time>2011-05-22T11:40:04Z</time></trkpt><trkpt lat="50.062359" lon="14.232405"><ele>376.01</ele><time>2011-05-22T11:40:17Z</time></trkpt><trkpt lat="50.062008" lon="14.231781"><ele>376.01</ele><time>2011-05-22T11:40:31Z</time></trkpt><trkpt lat="50.061966" lon="14.231674"><ele>374.57</ele><time>2011-05-22T11:40:33Z</time></trkpt><trkpt lat="50.061939" lon="14.231630"><ele>375.05</ele><time>2011-05-22T11:40:34Z</time></trkpt><trkpt lat="50.061417" lon="14.230897"><ele>376.49</ele><time>2011-05-22T11:40:51Z</time></trkpt><trkpt lat="50.061287" lon="14.230631"><ele>376.97</ele><time>2011-05-22T11:40:56Z</time></trkpt><trkpt lat="50.061043" lon="14.229535"><ele>376.01</ele><time>2011-05-22T11:41:12Z</time></trkpt><trkpt lat="50.060913" lon="14.228767"><ele>375.53</ele><time>2011-05-22T11:41:25Z</time></trkpt><trkpt lat="50.060734" lon="14.227833"><ele>376.49</ele><time>2011-05-22T11:41:39Z</time></trkpt><trkpt lat="50.060722" lon="14.227763"><ele>376.01</ele><time>2011-05-22T11:41:40Z</time></trkpt><trkpt lat="50.060711" lon="14.227550"><ele>376.01</ele><time>2011-05-22T11:41:43Z</time></trkpt><trkpt lat="50.060711" lon="14.227478"><ele>376.49</ele><time>2011-05-22T11:41:44Z</time></trkpt><trkpt lat="50.060749" lon="14.227066"><ele>376.97</ele><time>2011-05-22T11:41:50Z</time></trkpt><trkpt lat="50.060799" lon="14.226542"><ele>377.45</ele><time>2011-05-22T11:41:58Z</time></trkpt><trkpt lat="50.061047" lon="14.225907"><ele>378.90</ele><time>2011-05-22T11:42:11Z</time></trkpt><trkpt lat="50.061180" lon="14.225885"><ele>379.38</ele><time>2011-05-22T11:42:14Z</time></trkpt><trkpt lat="50.061222" lon="14.225871"><ele>379.38</ele><time>2011-05-22T11:42:15Z</time></trkpt><trkpt lat="50.061935" lon="14.225618"><ele>380.34</ele><time>2011-05-22T11:42:31Z</time></trkpt><trkpt lat="50.062160" lon="14.225533"><ele>376.97</ele><time>2011-05-22T11:42:36Z</time></trkpt><trkpt lat="50.062294" lon="14.225463"><ele>380.82</ele><time>2011-05-22T11:42:39Z</time></trkpt><trkpt lat="50.063072" lon="14.225142"><ele>377.45</ele><time>2011-05-22T11:42:52Z</time></trkpt><trkpt lat="50.063137" lon="14.225115"><ele>376.97</ele><time>2011-05-22T11:42:53Z</time></trkpt><trkpt lat="50.064407" lon="14.224617"><ele>376.49</ele><time>2011-05-22T11:43:13Z</time></trkpt><trkpt lat="50.065338" lon="14.224306"><ele>376.49</ele><time>2011-05-22T11:43:29Z</time></trkpt><trkpt lat="50.066101" lon="14.224068"><ele>378.90</ele><time>2011-05-22T11:43:46Z</time></trkpt><trkpt lat="50.066719" lon="14.223899"><ele>382.26</ele><time>2011-05-22T11:44:03Z</time></trkpt><trkpt lat="50.067348" lon="14.223704"><ele>384.18</ele><time>2011-05-22T11:44:22Z</time></trkpt><trkpt lat="50.067818" lon="14.223562"><ele>386.11</ele><time>2011-05-22T11:44:36Z</time></trkpt><trkpt lat="50.068382" lon="14.223746"><ele>388.51</ele><time>2011-05-22T11:44:53Z</time></trkpt><trkpt lat="50.068928" lon="14.223975"><ele>389.47</ele><time>2011-05-22T11:45:10Z</time></trkpt><trkpt lat="50.069031" lon="14.223695"><ele>390.91</ele><time>2011-05-22T11:45:22Z</time></trkpt><trkpt lat="50.068989" lon="14.223292"><ele>390.43</ele><time>2011-05-22T11:45:38Z</time></trkpt><trkpt lat="50.068985" lon="14.222716"><ele>390.91</ele><time>2011-05-22T11:45:56Z</time></trkpt><trkpt lat="50.068954" lon="14.222096"><ele>391.39</ele><time>2011-05-22T11:46:13Z</time></trkpt><trkpt lat="50.068924" lon="14.221160"><ele>391.39</ele><time>2011-05-22T11:46:28Z</time></trkpt><trkpt lat="50.068882" lon="14.219652"><ele>391.39</ele><time>2011-05-22T11:46:48Z</time></trkpt><trkpt lat="50.068878" lon="14.219495"><ele>394.76</ele><time>2011-05-22T11:46:50Z</time></trkpt><trkpt lat="50.068874" lon="14.219419"><ele>391.87</ele><time>2011-05-22T11:46:51Z</time></trkpt><trkpt lat="50.068871" lon="14.219195"><ele>394.76</ele><time>2011-05-22T11:46:54Z</time></trkpt><trkpt lat="50.068867" lon="14.219122"><ele>395.24</ele><time>2011-05-22T11:46:55Z</time></trkpt><trkpt lat="50.068840" lon="14.218550"><ele>394.76</ele><time>2011-05-22T11:47:03Z</time></trkpt><trkpt lat="50.068836" lon="14.218405"><ele>393.80</ele><time>2011-05-22T11:47:05Z</time></trkpt><trkpt lat="50.068794" lon="14.217093"><ele>394.28</ele><time>2011-05-22T11:47:23Z</time></trkpt><trkpt lat="50.068752" lon="14.215563"><ele>396.20</ele><time>2011-05-22T11:47:44Z</time></trkpt><trkpt lat="50.068714" lon="14.214030"><ele>396.68</ele><time>2011-05-22T11:48:05Z</time></trkpt><trkpt lat="50.068687" lon="14.212535"><ele>397.64</ele><time>2011-05-22T11:48:26Z</time></trkpt><trkpt lat="50.068645" lon="14.211201"><ele>398.12</ele><time>2011-05-22T11:48:45Z</time></trkpt><trkpt lat="50.068501" lon="14.209988"><ele>399.08</ele><time>2011-05-22T11:49:02Z</time></trkpt><trkpt lat="50.068241" lon="14.208823"><ele>400.05</ele><time>2011-05-22T11:49:19Z</time></trkpt><trkpt lat="50.067917" lon="14.207613"><ele>400.53</ele><time>2011-05-22T11:49:37Z</time></trkpt><trkpt lat="50.067516" lon="14.206142"><ele>401.49</ele><time>2011-05-22T11:49:58Z</time></trkpt><trkpt lat="50.067120" lon="14.204727"><ele>402.45</ele><time>2011-05-22T11:50:18Z</time></trkpt><trkpt lat="50.066807" lon="14.203251"><ele>403.41</ele><time>2011-05-22T11:50:38Z</time></trkpt><trkpt lat="50.066765" lon="14.202954"><ele>402.45</ele><time>2011-05-22T11:50:42Z</time></trkpt><trkpt lat="50.066628" lon="14.201684"><ele>402.45</ele><time>2011-05-22T11:50:58Z</time></trkpt><trkpt lat="50.066566" lon="14.200068"><ele>401.97</ele><time>2011-05-22T11:51:18Z</time></trkpt><trkpt lat="50.066673" lon="14.198530"><ele>403.41</ele><time>2011-05-22T11:51:37Z</time></trkpt><trkpt lat="50.066769" lon="14.197063"><ele>402.93</ele><time>2011-05-22T11:51:55Z</time></trkpt><trkpt lat="50.066868" lon="14.195601"><ele>402.93</ele><time>2011-05-22T11:52:13Z</time></trkpt><trkpt lat="50.066986" lon="14.194092"><ele>404.85</ele><time>2011-05-22T11:52:31Z</time></trkpt><trkpt lat="50.067101" lon="14.192803"><ele>405.33</ele><time>2011-05-22T11:52:47Z</time></trkpt><trkpt lat="50.067238" lon="14.191604"><ele>406.29</ele><time>2011-05-22T11:53:03Z</time></trkpt><trkpt lat="50.067608" lon="14.190177"><ele>406.77</ele><time>2011-05-22T11:53:21Z</time></trkpt><trkpt lat="50.068027" lon="14.188703"><ele>405.33</ele><time>2011-05-22T11:53:39Z</time></trkpt><trkpt lat="50.068039" lon="14.188616"><ele>405.81</ele><time>2011-05-22T11:53:40Z</time></trkpt><trkpt lat="50.068047" lon="14.188532"><ele>405.81</ele><time>2011-05-22T11:53:41Z</time></trkpt><trkpt lat="50.068047" lon="14.188451"><ele>405.33</ele><time>2011-05-22T11:53:42Z</time></trkpt><trkpt lat="50.068039" lon="14.188104"><ele>405.33</ele><time>2011-05-22T11:53:47Z</time></trkpt><trkpt lat="50.068031" lon="14.188029"><ele>405.81</ele><time>2011-05-22T11:53:48Z</time></trkpt><trkpt lat="50.068024" lon="14.187958"><ele>404.85</ele><time>2011-05-22T11:53:49Z</time></trkpt><trkpt lat="50.068020" lon="14.187732"><ele>405.33</ele><time>2011-05-22T11:53:52Z</time></trkpt><trkpt lat="50.068043" lon="14.187390"><ele>405.33</ele><time>2011-05-22T11:53:57Z</time></trkpt><trkpt lat="50.068062" lon="14.187204"><ele>407.26</ele><time>2011-05-22T11:54:00Z</time></trkpt><trkpt lat="50.068192" lon="14.186366"><ele>405.33</ele><time>2011-05-22T11:54:13Z</time></trkpt><trkpt lat="50.068195" lon="14.186297"><ele>405.33</ele><time>2011-05-22T11:54:14Z</time></trkpt><trkpt lat="50.068199" lon="14.186232"><ele>406.29</ele><time>2011-05-22T11:54:15Z</time></trkpt><trkpt lat="50.068226" lon="14.185952"><ele>406.29</ele><time>2011-05-22T11:54:19Z</time></trkpt><trkpt lat="50.068298" lon="14.185468"><ele>406.29</ele><time>2011-05-22T11:54:26Z</time></trkpt><trkpt lat="50.068310" lon="14.185390"><ele>406.29</ele><time>2011-05-22T11:54:27Z</time></trkpt><trkpt lat="50.068325" lon="14.185255"><ele>405.81</ele><time>2011-05-22T11:54:29Z</time></trkpt><trkpt lat="50.068401" lon="14.184489"><ele>406.77</ele><time>2011-05-22T11:54:40Z</time></trkpt><trkpt lat="50.068451" lon="14.184065"><ele>406.77</ele><time>2011-05-22T11:54:46Z</time></trkpt><trkpt lat="50.068459" lon="14.183990"><ele>406.29</ele><time>2011-05-22T11:54:47Z</time></trkpt><trkpt lat="50.068466" lon="14.183916"><ele>405.81</ele><time>2011-05-22T11:54:48Z</time></trkpt><trkpt lat="50.068523" lon="14.183475"><ele>407.26</ele><time>2011-05-22T11:54:54Z</time></trkpt><trkpt lat="50.068539" lon="14.183331"><ele>407.26</ele><time>2011-05-22T11:54:56Z</time></trkpt><trkpt lat="50.068756" lon="14.182511"><ele>408.22</ele><time>2011-05-22T11:55:09Z</time></trkpt><trkpt lat="50.068790" lon="14.182379"><ele>408.70</ele><time>2011-05-22T11:55:11Z</time></trkpt><trkpt lat="50.069130" lon="14.181275"><ele>408.70</ele><time>2011-05-22T11:55:28Z</time></trkpt><trkpt lat="50.069344" lon="14.180569"><ele>410.14</ele><time>2011-05-22T11:55:42Z</time></trkpt><trkpt lat="50.069511" lon="14.179970"><ele>410.14</ele><time>2011-05-22T11:55:54Z</time></trkpt><trkpt lat="50.069534" lon="14.179916"><ele>410.62</ele><time>2011-05-22T11:55:55Z</time></trkpt><trkpt lat="50.069778" lon="14.179111"><ele>408.70</ele><time>2011-05-22T11:56:10Z</time></trkpt><trkpt lat="50.070080" lon="14.178117"><ele>409.18</ele><time>2011-05-22T11:56:30Z</time></trkpt><trkpt lat="50.070251" lon="14.177491"><ele>409.18</ele><time>2011-05-22T11:56:43Z</time></trkpt><trkpt lat="50.070499" lon="14.176677"><ele>408.70</ele><time>2011-05-22T11:56:57Z</time></trkpt><trkpt lat="50.070557" lon="14.176469"><ele>408.22</ele><time>2011-05-22T11:57:00Z</time></trkpt><trkpt lat="50.070572" lon="14.176393"><ele>408.70</ele><time>2011-05-22T11:57:01Z</time></trkpt><trkpt lat="50.070576" lon="14.176315"><ele>408.70</ele><time>2011-05-22T11:57:02Z</time></trkpt><trkpt lat="50.070572" lon="14.176237"><ele>409.18</ele><time>2011-05-22T11:57:03Z</time></trkpt><trkpt lat="50.070560" lon="14.176158"><ele>408.70</ele><time>2011-05-22T11:57:04Z</time></trkpt><trkpt lat="50.070545" lon="14.176085"><ele>408.70</ele><time>2011-05-22T11:57:05Z</time></trkpt><trkpt lat="50.070332" lon="14.175515"><ele>409.66</ele><time>2011-05-22T11:57:14Z</time></trkpt><trkpt lat="50.070293" lon="14.175392"><ele>410.14</ele><time>2011-05-22T11:57:16Z</time></trkpt><trkpt lat="50.070232" lon="14.175207"><ele>409.66</ele><time>2011-05-22T11:57:19Z</time></trkpt><trkpt lat="50.070217" lon="14.175143"><ele>411.10</ele><time>2011-05-22T11:57:20Z</time></trkpt><trkpt lat="50.070107" lon="14.174195"><ele>410.62</ele><time>2011-05-22T11:57:34Z</time></trkpt><trkpt lat="50.070030" lon="14.173309"><ele>411.10</ele><time>2011-05-22T11:57:47Z</time></trkpt><trkpt lat="50.070023" lon="14.173247"><ele>411.10</ele><time>2011-05-22T11:57:48Z</time></trkpt><trkpt lat="50.070015" lon="14.173185"><ele>411.10</ele><time>2011-05-22T11:57:49Z</time></trkpt><trkpt lat="50.070007" lon="14.173125"><ele>411.10</ele><time>2011-05-22T11:57:50Z</time></trkpt><trkpt lat="50.070004" lon="14.173061"><ele>411.10</ele><time>2011-05-22T11:57:51Z</time></trkpt><trkpt lat="50.069935" lon="14.172098"><ele>412.06</ele><time>2011-05-22T11:58:05Z</time></trkpt><trkpt lat="50.069901" lon="14.171678"><ele>410.62</ele><time>2011-05-22T11:58:11Z</time></trkpt><trkpt lat="50.069897" lon="14.171606"><ele>411.10</ele><time>2011-05-22T11:58:12Z</time></trkpt><trkpt lat="50.069809" lon="14.170480"><ele>413.02</ele><time>2011-05-22T11:58:28Z</time></trkpt><trkpt lat="50.069771" lon="14.169726"><ele>412.54</ele><time>2011-05-22T11:58:38Z</time></trkpt><trkpt lat="50.069756" lon="14.169646"><ele>412.54</ele><time>2011-05-22T11:58:39Z</time></trkpt><trkpt lat="50.069748" lon="14.169565"><ele>411.58</ele><time>2011-05-22T11:58:40Z</time></trkpt><trkpt lat="50.069744" lon="14.169482"><ele>412.06</ele><time>2011-05-22T11:58:41Z</time></trkpt><trkpt lat="50.069740" lon="14.169400"><ele>412.06</ele><time>2011-05-22T11:58:42Z</time></trkpt><trkpt lat="50.069675" lon="14.168510"><ele>412.06</ele><time>2011-05-22T11:58:54Z</time></trkpt><trkpt lat="50.069660" lon="14.168228"><ele>411.58</ele><time>2011-05-22T11:58:58Z</time></trkpt><trkpt lat="50.069641" lon="14.168071"><ele>410.62</ele><time>2011-05-22T11:59:01Z</time></trkpt><trkpt lat="50.069614" lon="14.168038"><ele>411.10</ele><time>2011-05-22T11:59:02Z</time></trkpt><trkpt lat="50.069588" lon="14.168017"><ele>410.62</ele><time>2011-05-22T11:59:03Z</time></trkpt><trkpt lat="50.069553" lon="14.168008"><ele>411.10</ele><time>2011-05-22T11:59:04Z</time></trkpt><trkpt lat="50.069519" lon="14.168007"><ele>411.58</ele><time>2011-05-22T11:59:05Z</time></trkpt><trkpt lat="50.069241" lon="14.168027"><ele>410.62</ele><time>2011-05-22T11:59:12Z</time></trkpt><trkpt lat="50.069199" lon="14.168022"><ele>410.62</ele><time>2011-05-22T11:59:13Z</time></trkpt><trkpt lat="50.069042" lon="14.167953"><ele>411.10</ele><time>2011-05-22T11:59:17Z</time></trkpt><trkpt lat="50.069019" lon="14.167908"><ele>412.06</ele><time>2011-05-22T11:59:18Z</time></trkpt><trkpt lat="50.069000" lon="14.167856"><ele>411.58</ele><time>2011-05-22T11:59:19Z</time></trkpt><trkpt lat="50.068993" lon="14.167800"><ele>411.10</ele><time>2011-05-22T11:59:20Z</time></trkpt><trkpt lat="50.068989" lon="14.167742"><ele>411.10</ele><time>2011-05-22T11:59:21Z</time></trkpt><trkpt lat="50.068954" lon="14.167510"><ele>410.62</ele><time>2011-05-22T11:59:25Z</time></trkpt><trkpt lat="50.068821" lon="14.166254"><ele>410.14</ele><time>2011-05-22T11:59:41Z</time></trkpt><trkpt lat="50.068787" lon="14.165872"><ele>410.14</ele><time>2011-05-22T11:59:46Z</time></trkpt><trkpt lat="50.068775" lon="14.165731"><ele>409.66</ele><time>2011-05-22T11:59:48Z</time></trkpt><trkpt lat="50.068760" lon="14.165669"><ele>409.66</ele><time>2011-05-22T11:59:49Z</time></trkpt><trkpt lat="50.068752" lon="14.165609"><ele>410.14</ele><time>2011-05-22T11:59:50Z</time></trkpt><trkpt lat="50.068737" lon="14.165376"><ele>409.18</ele><time>2011-05-22T11:59:54Z</time></trkpt><trkpt lat="50.068752" lon="14.165333"><ele>410.14</ele><time>2011-05-22T11:59:55Z</time></trkpt><trkpt lat="50.068787" lon="14.165307"><ele>409.18</ele><time>2011-05-22T11:59:56Z</time></trkpt><trkpt lat="50.068825" lon="14.165289"><ele>409.18</ele><time>2011-05-22T11:59:57Z</time></trkpt><trkpt lat="50.068867" lon="14.165280"><ele>407.74</ele><time>2011-05-22T11:59:58Z</time></trkpt><trkpt lat="50.068913" lon="14.165267"><ele>408.22</ele><time>2011-05-22T11:59:59Z</time></trkpt><trkpt lat="50.069416" lon="14.165024"><ele>406.77</ele><time>2011-05-22T12:00:09Z</time></trkpt><trkpt lat="50.069462" lon="14.164986"><ele>406.29</ele><time>2011-05-22T12:00:10Z</time></trkpt><trkpt lat="50.069508" lon="14.164942"><ele>406.29</ele><time>2011-05-22T12:00:11Z</time></trkpt><trkpt lat="50.069546" lon="14.164889"><ele>406.29</ele><time>2011-05-22T12:00:12Z</time></trkpt><trkpt lat="50.069580" lon="14.164832"><ele>405.81</ele><time>2011-05-22T12:00:13Z</time></trkpt><trkpt lat="50.069614" lon="14.164768"><ele>405.33</ele><time>2011-05-22T12:00:14Z</time></trkpt><trkpt lat="50.069637" lon="14.164695"><ele>405.33</ele><time>2011-05-22T12:00:15Z</time></trkpt><trkpt lat="50.069660" lon="14.164616"><ele>406.29</ele><time>2011-05-22T12:00:16Z</time></trkpt><trkpt lat="50.069717" lon="14.164392"><ele>404.85</ele><time>2011-05-22T12:00:20Z</time></trkpt><trkpt lat="50.069702" lon="14.164366"><ele>406.77</ele><time>2011-05-22T12:00:21Z</time></trkpt><trkpt lat="50.069660" lon="14.164414"><ele>403.89</ele><time>2011-05-22T12:00:24Z</time></trkpt><trkpt lat="50.069458" lon="14.164882"><ele>405.81</ele><time>2011-05-22T12:00:36Z</time></trkpt><trkpt lat="50.069427" lon="14.164896"><ele>405.81</ele><time>2011-05-22T12:00:37Z</time></trkpt><trkpt lat="50.069305" lon="14.164746"><ele>408.70</ele><time>2011-05-22T12:00:42Z</time></trkpt><trkpt lat="50.069168" lon="14.164405"><ele>407.26</ele><time>2011-05-22T12:00:53Z</time></trkpt><trkpt lat="50.069164" lon="14.164398"><ele>405.33</ele><time>2011-05-22T12:01:02Z</time></trkpt><trkpt lat="50.069191" lon="14.164545"><ele>406.77</ele><time>2011-05-22T12:01:10Z</time></trkpt><trkpt lat="50.069218" lon="14.164595"><ele>406.29</ele><time>2011-05-22T12:01:12Z</time></trkpt><trkpt lat="50.069260" lon="14.164703"><ele>403.89</ele><time>2011-05-22T12:01:15Z</time></trkpt><trkpt lat="50.069271" lon="14.164742"><ele>405.81</ele><time>2011-05-22T12:01:16Z</time></trkpt><trkpt lat="50.069298" lon="14.164814"><ele>407.74</ele><time>2011-05-22T12:01:18Z</time></trkpt><trkpt lat="50.069340" lon="14.164913"><ele>406.29</ele><time>2011-05-22T12:01:21Z</time></trkpt><trkpt lat="50.069469" lon="14.165030"><ele>407.26</ele><time>2011-05-22T12:01:28Z</time></trkpt><trkpt lat="50.069523" lon="14.165015"><ele>406.29</ele><time>2011-05-22T12:01:31Z</time></trkpt><trkpt lat="50.069668" lon="14.164619"><ele>405.33</ele><time>2011-05-22T12:01:39Z</time></trkpt><trkpt lat="50.069679" lon="14.164553"><ele>405.33</ele><time>2011-05-22T12:01:40Z</time></trkpt><trkpt lat="50.069897" lon="14.163487"><ele>405.81</ele><time>2011-05-22T12:01:54Z</time></trkpt><trkpt lat="50.070023" lon="14.163023"><ele>404.85</ele><time>2011-05-22T12:01:59Z</time></trkpt><trkpt lat="50.070381" lon="14.162263"><ele>403.89</ele><time>2011-05-22T12:02:08Z</time></trkpt><trkpt lat="50.070694" lon="14.161368"><ele>401.97</ele><time>2011-05-22T12:02:17Z</time></trkpt><trkpt lat="50.070744" lon="14.161277"><ele>401.49</ele><time>2011-05-22T12:02:18Z</time></trkpt><trkpt lat="50.071384" lon="14.159956"><ele>399.08</ele><time>2011-05-22T12:02:33Z</time></trkpt><trkpt lat="50.071491" lon="14.159583"><ele>398.60</ele><time>2011-05-22T12:02:42Z</time></trkpt><trkpt lat="50.071663" lon="14.159099"><ele>397.64</ele><time>2011-05-22T12:02:54Z</time></trkpt><trkpt lat="50.071808" lon="14.158741"><ele>396.68</ele><time>2011-05-22T12:02:59Z</time></trkpt><trkpt lat="50.071846" lon="14.158672"><ele>396.68</ele><time>2011-05-22T12:03:00Z</time></trkpt><trkpt lat="50.072533" lon="14.157748"><ele>395.24</ele><time>2011-05-22T12:03:14Z</time></trkpt><trkpt lat="50.073105" lon="14.156989"><ele>393.80</ele><time>2011-05-22T12:03:26Z</time></trkpt><trkpt lat="50.073776" lon="14.156058"><ele>394.76</ele><time>2011-05-22T12:03:42Z</time></trkpt><trkpt lat="50.074368" lon="14.155216"><ele>395.72</ele><time>2011-05-22T12:03:57Z</time></trkpt><trkpt lat="50.074413" lon="14.155083"><ele>395.72</ele><time>2011-05-22T12:03:59Z</time></trkpt><trkpt lat="50.074432" lon="14.155011"><ele>395.24</ele><time>2011-05-22T12:04:00Z</time></trkpt><trkpt lat="50.074501" lon="14.154366"><ele>393.80</ele><time>2011-05-22T12:04:08Z</time></trkpt><trkpt lat="50.074539" lon="14.153672"><ele>393.80</ele><time>2011-05-22T12:04:16Z</time></trkpt><trkpt lat="50.074635" lon="14.152190"><ele>395.24</ele><time>2011-05-22T12:04:33Z</time></trkpt><trkpt lat="50.074661" lon="14.152010"><ele>395.24</ele><time>2011-05-22T12:04:35Z</time></trkpt><trkpt lat="50.074852" lon="14.151007"><ele>396.20</ele><time>2011-05-22T12:04:47Z</time></trkpt><trkpt lat="50.075069" lon="14.149802"><ele>397.64</ele><time>2011-05-22T12:05:02Z</time></trkpt><trkpt lat="50.075268" lon="14.148665"><ele>397.64</ele><time>2011-05-22T12:05:17Z</time></trkpt><trkpt lat="50.075508" lon="14.147353"><ele>397.16</ele><time>2011-05-22T12:05:35Z</time></trkpt><trkpt lat="50.075806" lon="14.146550"><ele>398.12</ele><time>2011-05-22T12:05:48Z</time></trkpt><trkpt lat="50.075840" lon="14.146500"><ele>398.12</ele><time>2011-05-22T12:05:49Z</time></trkpt><trkpt lat="50.076466" lon="14.145712"><ele>399.57</ele><time>2011-05-22T12:06:06Z</time></trkpt><trkpt lat="50.076534" lon="14.145623"><ele>399.08</ele><time>2011-05-22T12:06:08Z</time></trkpt><trkpt lat="50.076988" lon="14.145045"><ele>400.05</ele><time>2011-05-22T12:06:21Z</time></trkpt><trkpt lat="50.077579" lon="14.144281"><ele>401.01</ele><time>2011-05-22T12:06:37Z</time></trkpt><trkpt lat="50.078270" lon="14.143414"><ele>401.97</ele><time>2011-05-22T12:06:55Z</time></trkpt><trkpt lat="50.078987" lon="14.142472"><ele>402.93</ele><time>2011-05-22T12:07:14Z</time></trkpt><trkpt lat="50.079014" lon="14.142414"><ele>402.45</ele><time>2011-05-22T12:07:15Z</time></trkpt><trkpt lat="50.079041" lon="14.142356"><ele>402.45</ele><time>2011-05-22T12:07:16Z</time></trkpt><trkpt lat="50.079147" lon="14.142105"><ele>401.49</ele><time>2011-05-22T12:07:20Z</time></trkpt><trkpt lat="50.079178" lon="14.142038"><ele>401.01</ele><time>2011-05-22T12:07:21Z</time></trkpt><trkpt lat="50.079529" lon="14.141236"><ele>403.41</ele><time>2011-05-22T12:07:33Z</time></trkpt><trkpt lat="50.079559" lon="14.141177"><ele>403.41</ele><time>2011-05-22T12:07:34Z</time></trkpt><trkpt lat="50.080021" lon="14.140519"><ele>404.85</ele><time>2011-05-22T12:07:49Z</time></trkpt><trkpt lat="50.080242" lon="14.140229"><ele>404.37</ele><time>2011-05-22T12:08:01Z</time></trkpt><trkpt lat="50.080238" lon="14.140227"><ele>405.81</ele><time>2011-05-22T12:08:04Z</time></trkpt><trkpt lat="50.080257" lon="14.140217"><ele>405.33</ele><time>2011-05-22T12:08:07Z</time></trkpt><trkpt lat="50.080265" lon="14.140205"><ele>404.37</ele><time>2011-05-22T12:08:08Z</time></trkpt><trkpt lat="50.080276" lon="14.140187"><ele>404.85</ele><time>2011-05-22T12:08:09Z</time></trkpt><trkpt lat="50.080654" lon="14.140029"><ele>402.93</ele><time>2011-05-22T12:08:20Z</time></trkpt><trkpt lat="50.081123" lon="14.139913"><ele>399.57</ele><time>2011-05-22T12:08:30Z</time></trkpt><trkpt lat="50.081253" lon="14.139884"><ele>400.53</ele><time>2011-05-22T12:08:34Z</time></trkpt><trkpt lat="50.081459" lon="14.139832"><ele>399.57</ele><time>2011-05-22T12:08:42Z</time></trkpt><trkpt lat="50.081474" lon="14.139810"><ele>400.05</ele><time>2011-05-22T12:08:43Z</time></trkpt><trkpt lat="50.081390" lon="14.139793"><ele>400.05</ele><time>2011-05-22T12:08:50Z</time></trkpt><trkpt lat="50.081024" lon="14.139879"><ele>401.49</ele><time>2011-05-22T12:09:05Z</time></trkpt><trkpt lat="50.080742" lon="14.139939"><ele>402.45</ele><time>2011-05-22T12:09:14Z</time></trkpt><trkpt lat="50.080727" lon="14.139750"><ele>402.45</ele><time>2011-05-22T12:09:20Z</time></trkpt><trkpt lat="50.080807" lon="14.139530"><ele>398.60</ele><time>2011-05-22T12:09:24Z</time></trkpt><trkpt lat="50.080830" lon="14.139467"><ele>402.93</ele><time>2011-05-22T12:09:25Z</time></trkpt><trkpt lat="50.080853" lon="14.139409"><ele>401.97</ele><time>2011-05-22T12:09:26Z</time></trkpt><trkpt lat="50.080875" lon="14.139347"><ele>402.93</ele><time>2011-05-22T12:09:27Z</time></trkpt><trkpt lat="50.080887" lon="14.139275"><ele>401.49</ele><time>2011-05-22T12:09:28Z</time></trkpt><trkpt lat="50.080898" lon="14.139200"><ele>401.49</ele><time>2011-05-22T12:09:29Z</time></trkpt><trkpt lat="50.080906" lon="14.139126"><ele>401.97</ele><time>2011-05-22T12:09:30Z</time></trkpt><trkpt lat="50.080921" lon="14.138893"><ele>401.01</ele><time>2011-05-22T12:09:33Z</time></trkpt><trkpt lat="50.080853" lon="14.137622"><ele>400.53</ele><time>2011-05-22T12:09:49Z</time></trkpt><trkpt lat="50.080883" lon="14.136268"><ele>399.57</ele><time>2011-05-22T12:10:07Z</time></trkpt><trkpt lat="50.080921" lon="14.136131"><ele>399.57</ele><time>2011-05-22T12:10:16Z</time></trkpt><trkpt lat="50.080925" lon="14.136087"><ele>399.08</ele><time>2011-05-22T12:10:33Z</time></trkpt><trkpt lat="50.080925" lon="14.136053"><ele>399.08</ele><time>2011-05-22T12:10:34Z</time></trkpt><trkpt lat="50.080925" lon="14.136014"><ele>399.57</ele><time>2011-05-22T12:10:35Z</time></trkpt><trkpt lat="50.080929" lon="14.135970"><ele>399.08</ele><time>2011-05-22T12:10:36Z</time></trkpt><trkpt lat="50.080933" lon="14.135921"><ele>399.08</ele><time>2011-05-22T12:10:37Z</time></trkpt><trkpt lat="50.080944" lon="14.135667"><ele>399.08</ele><time>2011-05-22T12:10:41Z</time></trkpt><trkpt lat="50.080910" lon="14.134274"><ele>398.60</ele><time>2011-05-22T12:10:57Z</time></trkpt><trkpt lat="50.081051" lon="14.133510"><ele>398.12</ele><time>2011-05-22T12:11:05Z</time></trkpt><trkpt lat="50.081066" lon="14.133407"><ele>398.12</ele><time>2011-05-22T12:11:06Z</time></trkpt><trkpt lat="50.081287" lon="14.131997"><ele>397.64</ele><time>2011-05-22T12:11:20Z</time></trkpt><trkpt lat="50.081291" lon="14.131904"><ele>394.76</ele><time>2011-05-22T12:11:21Z</time></trkpt><trkpt lat="50.081287" lon="14.131815"><ele>396.68</ele><time>2011-05-22T12:11:22Z</time></trkpt><trkpt lat="50.081272" lon="14.131734"><ele>396.20</ele><time>2011-05-22T12:11:23Z</time></trkpt><trkpt lat="50.081253" lon="14.131665"><ele>395.72</ele><time>2011-05-22T12:11:24Z</time></trkpt><trkpt lat="50.081234" lon="14.131604"><ele>395.72</ele><time>2011-05-22T12:11:25Z</time></trkpt><trkpt lat="50.081245" lon="14.131063"><ele>395.72</ele><time>2011-05-22T12:11:36Z</time></trkpt><trkpt lat="50.081367" lon="14.130777"><ele>395.72</ele><time>2011-05-22T12:11:41Z</time></trkpt><trkpt lat="50.081390" lon="14.130713"><ele>395.72</ele><time>2011-05-22T12:11:42Z</time></trkpt><trkpt lat="50.081413" lon="14.130651"><ele>395.24</ele><time>2011-05-22T12:11:43Z</time></trkpt><trkpt lat="50.081440" lon="14.130589"><ele>395.72</ele><time>2011-05-22T12:11:44Z</time></trkpt><trkpt lat="50.081459" lon="14.130521"><ele>395.24</ele><time>2011-05-22T12:11:45Z</time></trkpt><trkpt lat="50.081470" lon="14.130447"><ele>395.24</ele><time>2011-05-22T12:11:46Z</time></trkpt><trkpt lat="50.081467" lon="14.130370"><ele>395.24</ele><time>2011-05-22T12:11:47Z</time></trkpt><trkpt lat="50.081451" lon="14.130296"><ele>395.24</ele><time>2011-05-22T12:11:48Z</time></trkpt><trkpt lat="50.081432" lon="14.130222"><ele>395.24</ele><time>2011-05-22T12:11:49Z</time></trkpt><trkpt lat="50.081413" lon="14.130149"><ele>395.72</ele><time>2011-05-22T12:11:50Z</time></trkpt><trkpt lat="50.081387" lon="14.130079"><ele>395.72</ele><time>2011-05-22T12:11:51Z</time></trkpt><trkpt lat="50.081360" lon="14.130010"><ele>395.24</ele><time>2011-05-22T12:11:52Z</time></trkpt><trkpt lat="50.081337" lon="14.129939"><ele>394.76</ele><time>2011-05-22T12:11:53Z</time></trkpt><trkpt lat="50.081314" lon="14.129868"><ele>395.24</ele><time>2011-05-22T12:11:54Z</time></trkpt><trkpt lat="50.081059" lon="14.128921"><ele>395.24</ele><time>2011-05-22T12:12:07Z</time></trkpt><trkpt lat="50.081028" lon="14.128772"><ele>394.76</ele><time>2011-05-22T12:12:09Z</time></trkpt><trkpt lat="50.081001" lon="14.128554"><ele>394.28</ele><time>2011-05-22T12:12:12Z</time></trkpt><trkpt lat="50.080997" lon="14.128487"><ele>394.76</ele><time>2011-05-22T12:12:13Z</time></trkpt><trkpt lat="50.081005" lon="14.128269"><ele>393.80</ele><time>2011-05-22T12:12:16Z</time></trkpt><trkpt lat="50.081039" lon="14.128042"><ele>394.28</ele><time>2011-05-22T12:12:19Z</time></trkpt><trkpt lat="50.081055" lon="14.127968"><ele>393.80</ele><time>2011-05-22T12:12:20Z</time></trkpt><trkpt lat="50.081242" lon="14.127633"><ele>392.84</ele><time>2011-05-22T12:12:30Z</time></trkpt><trkpt lat="50.081249" lon="14.127637"><ele>392.84</ele><time>2011-05-22T12:12:43Z</time></trkpt><trkpt lat="50.081306" lon="14.127634"><ele>393.32</ele><time>2011-05-22T12:12:47Z</time></trkpt><trkpt lat="50.081326" lon="14.127636"><ele>393.32</ele><time>2011-05-22T12:12:48Z</time></trkpt><trkpt lat="50.081348" lon="14.127640"><ele>393.32</ele><time>2011-05-22T12:12:49Z</time></trkpt><trkpt lat="50.081375" lon="14.127643"><ele>393.32</ele><time>2011-05-22T12:12:50Z</time></trkpt><trkpt lat="50.081406" lon="14.127642"><ele>393.32</ele><time>2011-05-22T12:12:51Z</time></trkpt><trkpt lat="50.081860" lon="14.127588"><ele>391.39</ele><time>2011-05-22T12:13:02Z</time></trkpt><trkpt lat="50.081951" lon="14.127579"><ele>391.87</ele><time>2011-05-22T12:13:04Z</time></trkpt><trkpt lat="50.081993" lon="14.127568"><ele>391.87</ele><time>2011-05-22T12:13:05Z</time></trkpt><trkpt lat="50.082039" lon="14.127564"><ele>392.84</ele><time>2011-05-22T12:13:06Z</time></trkpt><trkpt lat="50.082088" lon="14.127563"><ele>392.36</ele><time>2011-05-22T12:13:07Z</time></trkpt><trkpt lat="50.082138" lon="14.127556"><ele>390.91</ele><time>2011-05-22T12:13:08Z</time></trkpt><trkpt lat="50.082275" lon="14.127536"><ele>391.87</ele><time>2011-05-22T12:13:11Z</time></trkpt><trkpt lat="50.082790" lon="14.127498"><ele>390.43</ele><time>2011-05-22T12:13:22Z</time></trkpt><trkpt lat="50.082836" lon="14.127501"><ele>389.47</ele><time>2011-05-22T12:13:23Z</time></trkpt><trkpt lat="50.082939" lon="14.127491"><ele>389.47</ele><time>2011-05-22T12:13:25Z</time></trkpt><trkpt lat="50.083424" lon="14.127469"><ele>387.55</ele><time>2011-05-22T12:13:33Z</time></trkpt><trkpt lat="50.083530" lon="14.127473"><ele>387.07</ele><time>2011-05-22T12:13:35Z</time></trkpt><trkpt lat="50.083580" lon="14.127466"><ele>386.59</ele><time>2011-05-22T12:13:36Z</time></trkpt><trkpt lat="50.083618" lon="14.127451"><ele>386.11</ele><time>2011-05-22T12:13:37Z</time></trkpt><trkpt lat="50.083645" lon="14.127425"><ele>386.59</ele><time>2011-05-22T12:13:38Z</time></trkpt><trkpt lat="50.083660" lon="14.127390"><ele>386.11</ele><time>2011-05-22T12:13:39Z</time></trkpt><trkpt lat="50.083675" lon="14.127348"><ele>386.11</ele><time>2011-05-22T12:13:40Z</time></trkpt><trkpt lat="50.083687" lon="14.127297"><ele>385.63</ele><time>2011-05-22T12:13:41Z</time></trkpt><trkpt lat="50.083687" lon="14.127246"><ele>386.11</ele><time>2011-05-22T12:13:42Z</time></trkpt><trkpt lat="50.083679" lon="14.127196"><ele>385.63</ele><time>2011-05-22T12:13:43Z</time></trkpt><trkpt lat="50.083672" lon="14.127147"><ele>386.11</ele><time>2011-05-22T12:13:44Z</time></trkpt><trkpt lat="50.083664" lon="14.127095"><ele>386.11</ele><time>2011-05-22T12:13:45Z</time></trkpt><trkpt lat="50.083542" lon="14.126391"><ele>385.63</ele><time>2011-05-22T12:13:58Z</time></trkpt><trkpt lat="50.083530" lon="14.126326"><ele>385.63</ele><time>2011-05-22T12:13:59Z</time></trkpt><trkpt lat="50.083515" lon="14.126257"><ele>384.18</ele><time>2011-05-22T12:14:00Z</time></trkpt><trkpt lat="50.083473" lon="14.126100"><ele>383.22</ele><time>2011-05-22T12:14:02Z</time></trkpt><trkpt lat="50.083420" lon="14.125834"><ele>381.78</ele><time>2011-05-22T12:14:05Z</time></trkpt><trkpt lat="50.083336" lon="14.125484"><ele>380.34</ele><time>2011-05-22T12:14:09Z</time></trkpt><trkpt lat="50.083332" lon="14.125403"><ele>380.34</ele><time>2011-05-22T12:14:10Z</time></trkpt><trkpt lat="50.083340" lon="14.125323"><ele>381.30</ele><time>2011-05-22T12:14:11Z</time></trkpt><trkpt lat="50.083355" lon="14.125248"><ele>380.34</ele><time>2011-05-22T12:14:12Z</time></trkpt><trkpt lat="50.083378" lon="14.125189"><ele>380.34</ele><time>2011-05-22T12:14:13Z</time></trkpt><trkpt lat="50.083401" lon="14.125135"><ele>380.34</ele><time>2011-05-22T12:14:14Z</time></trkpt><trkpt lat="50.083420" lon="14.125076"><ele>379.86</ele><time>2011-05-22T12:14:15Z</time></trkpt><trkpt lat="50.083435" lon="14.125011"><ele>379.86</ele><time>2011-05-22T12:14:16Z</time></trkpt><trkpt lat="50.083443" lon="14.124944"><ele>378.42</ele><time>2011-05-22T12:14:17Z</time></trkpt><trkpt lat="50.083462" lon="14.124630"><ele>379.86</ele><time>2011-05-22T12:14:22Z</time></trkpt><trkpt lat="50.083462" lon="14.124564"><ele>380.34</ele><time>2011-05-22T12:14:23Z</time></trkpt><trkpt lat="50.083454" lon="14.124370"><ele>379.38</ele><time>2011-05-22T12:14:26Z</time></trkpt><trkpt lat="50.083393" lon="14.123476"><ele>380.34</ele><time>2011-05-22T12:14:39Z</time></trkpt><trkpt lat="50.083355" lon="14.123192"><ele>380.34</ele><time>2011-05-22T12:14:43Z</time></trkpt><trkpt lat="50.083336" lon="14.123124"><ele>379.86</ele><time>2011-05-22T12:14:44Z</time></trkpt><trkpt lat="50.083317" lon="14.123056"><ele>380.34</ele><time>2011-05-22T12:14:45Z</time></trkpt><trkpt lat="50.083225" lon="14.122705"><ele>378.90</ele><time>2011-05-22T12:14:50Z</time></trkpt><trkpt lat="50.083202" lon="14.122642"><ele>378.90</ele><time>2011-05-22T12:14:51Z</time></trkpt><trkpt lat="50.083054" lon="14.122346"><ele>379.38</ele><time>2011-05-22T12:14:56Z</time></trkpt><trkpt lat="50.083035" lon="14.122274"><ele>379.38</ele><time>2011-05-22T12:14:57Z</time></trkpt><trkpt lat="50.083012" lon="14.122201"><ele>378.90</ele><time>2011-05-22T12:14:58Z</time></trkpt><trkpt lat="50.082848" lon="14.121777"><ele>377.94</ele><time>2011-05-22T12:15:04Z</time></trkpt><trkpt lat="50.082813" lon="14.121718"><ele>378.42</ele><time>2011-05-22T12:15:05Z</time></trkpt><trkpt lat="50.082623" lon="14.121465"><ele>376.97</ele><time>2011-05-22T12:15:10Z</time></trkpt><trkpt lat="50.082359" lon="14.121114"><ele>376.97</ele><time>2011-05-22T12:15:17Z</time></trkpt><trkpt lat="50.082237" lon="14.120724"><ele>376.01</ele><time>2011-05-22T12:15:23Z</time></trkpt><trkpt lat="50.082184" lon="14.120399"><ele>376.49</ele><time>2011-05-22T12:15:28Z</time></trkpt><trkpt lat="50.082050" lon="14.119652"><ele>376.97</ele><time>2011-05-22T12:15:40Z</time></trkpt><trkpt lat="50.082031" lon="14.119597"><ele>376.49</ele><time>2011-05-22T12:15:53Z</time></trkpt><trkpt lat="50.082031" lon="14.119597"><ele>376.01</ele><time>2011-05-22T12:16:07Z</time></trkpt><trkpt lat="50.082005" lon="14.119414"><ele>376.01</ele><time>2011-05-22T12:16:12Z</time></trkpt><trkpt lat="50.081905" lon="14.118656"><ele>376.49</ele><time>2011-05-22T12:16:25Z</time></trkpt><trkpt lat="50.081512" lon="14.118418"><ele>375.05</ele><time>2011-05-22T12:16:37Z</time></trkpt><trkpt lat="50.081036" lon="14.118266"><ele>376.49</ele><time>2011-05-22T12:16:51Z</time></trkpt><trkpt lat="50.080574" lon="14.118283"><ele>376.97</ele><time>2011-05-22T12:17:06Z</time></trkpt><trkpt lat="50.080429" lon="14.118842"><ele>376.01</ele><time>2011-05-22T12:17:17Z</time></trkpt><trkpt lat="50.080429" lon="14.118820"><ele>375.05</ele><time>2011-05-22T12:17:29Z</time></trkpt><trkpt lat="50.080437" lon="14.118819"><ele>374.57</ele><time>2011-05-22T12:17:56Z</time></trkpt><trkpt lat="50.080441" lon="14.118819"><ele>375.05</ele><time>2011-05-22T12:18:24Z</time></trkpt><trkpt lat="50.080425" lon="14.118791"><ele>375.05</ele><time>2011-05-22T12:18:48Z</time></trkpt><trkpt lat="50.080418" lon="14.118770"><ele>375.53</ele><time>2011-05-22T12:18:53Z</time></trkpt><trkpt lat="50.080479" lon="14.118472"><ele>375.05</ele><time>2011-05-22T12:19:09Z</time></trkpt><trkpt lat="50.080585" lon="14.118215"><ele>375.53</ele><time>2011-05-22T12:19:24Z</time></trkpt><trkpt lat="50.080551" lon="14.117929"><ele>376.97</ele><time>2011-05-22T12:19:40Z</time></trkpt><trkpt lat="50.080399" lon="14.117736"><ele>377.94</ele><time>2011-05-22T12:19:57Z</time></trkpt><trkpt lat="50.080265" lon="14.117615"><ele>378.90</ele><time>2011-05-22T12:20:11Z</time></trkpt><trkpt lat="50.080185" lon="14.117529"><ele>380.34</ele><time>2011-05-22T12:20:20Z</time></trkpt><trkpt lat="50.080166" lon="14.117513"><ele>380.34</ele><time>2011-05-22T12:20:22Z</time></trkpt><trkpt lat="50.080132" lon="14.117466"><ele>380.82</ele><time>2011-05-22T12:20:36Z</time></trkpt><trkpt lat="50.080040" lon="14.117226"><ele>382.26</ele><time>2011-05-22T12:20:51Z</time></trkpt><trkpt lat="50.079952" lon="14.116887"><ele>383.70</ele><time>2011-05-22T12:21:10Z</time></trkpt><trkpt lat="50.079838" lon="14.116666"><ele>384.66</ele><time>2011-05-22T12:21:25Z</time></trkpt><trkpt lat="50.079803" lon="14.116631"><ele>385.15</ele><time>2011-05-22T12:21:36Z</time></trkpt><trkpt lat="50.079792" lon="14.116616"><ele>385.15</ele><time>2011-05-22T12:21:38Z</time></trkpt><trkpt lat="50.079723" lon="14.116527"><ele>385.15</ele><time>2011-05-22T12:21:43Z</time></trkpt><trkpt lat="50.079437" lon="14.116059"><ele>387.07</ele><time>2011-05-22T12:22:00Z</time></trkpt><trkpt lat="50.079144" lon="14.115488"><ele>388.03</ele><time>2011-05-22T12:22:16Z</time></trkpt><trkpt lat="50.078831" lon="14.114561"><ele>386.59</ele><time>2011-05-22T12:22:32Z</time></trkpt><trkpt lat="50.078682" lon="14.114256"><ele>385.63</ele><time>2011-05-22T12:22:43Z</time></trkpt><trkpt lat="50.078785" lon="14.114343"><ele>385.63</ele><time>2011-05-22T12:22:59Z</time></trkpt><trkpt lat="50.078785" lon="14.114343"><ele>386.11</ele><time>2011-05-22T12:23:04Z</time></trkpt><trkpt lat="50.078545" lon="14.113948"><ele>387.55</ele><time>2011-05-22T12:23:17Z</time></trkpt><trkpt lat="50.078453" lon="14.113471"><ele>387.07</ele><time>2011-05-22T12:23:31Z</time></trkpt><trkpt lat="50.078461" lon="14.113491"><ele>387.55</ele><time>2011-05-22T12:23:47Z</time></trkpt><trkpt lat="50.078461" lon="14.113491"><ele>388.03</ele><time>2011-05-22T12:24:08Z</time></trkpt><trkpt lat="50.078457" lon="14.113498"><ele>388.03</ele><time>2011-05-22T12:24:10Z</time></trkpt><trkpt lat="50.078308" lon="14.113042"><ele>387.07</ele><time>2011-05-22T12:24:21Z</time></trkpt><trkpt lat="50.078270" lon="14.112598"><ele>385.15</ele><time>2011-05-22T12:24:27Z</time></trkpt><trkpt lat="50.078209" lon="14.111686"><ele>382.74</ele><time>2011-05-22T12:24:37Z</time></trkpt><trkpt lat="50.078285" lon="14.111254"><ele>382.26</ele><time>2011-05-22T12:24:46Z</time></trkpt><trkpt lat="50.078285" lon="14.111254"><ele>383.22</ele><time>2011-05-22T12:25:04Z</time></trkpt><trkpt lat="50.078285" lon="14.111254"><ele>382.26</ele><time>2011-05-22T12:25:05Z</time></trkpt><trkpt lat="50.078396" lon="14.111060"><ele>380.82</ele><time>2011-05-22T12:25:09Z</time></trkpt><trkpt lat="50.078381" lon="14.110799"><ele>377.94</ele><time>2011-05-22T12:25:16Z</time></trkpt><trkpt lat="50.078266" lon="14.110586"><ele>374.57</ele><time>2011-05-22T12:25:23Z</time></trkpt><trkpt lat="50.078255" lon="14.110539"><ele>373.61</ele><time>2011-05-22T12:25:34Z</time></trkpt><trkpt lat="50.078255" lon="14.110539"><ele>373.61</ele><time>2011-05-22T12:25:47Z</time></trkpt><trkpt lat="50.078205" lon="14.110360"><ele>372.17</ele><time>2011-05-22T12:25:53Z</time></trkpt><trkpt lat="50.078068" lon="14.110064"><ele>368.32</ele><time>2011-05-22T12:26:04Z</time></trkpt><trkpt lat="50.077736" lon="14.109836"><ele>365.92</ele><time>2011-05-22T12:26:15Z</time></trkpt><trkpt lat="50.077480" lon="14.109780"><ele>364.96</ele><time>2011-05-22T12:26:20Z</time></trkpt><trkpt lat="50.077271" lon="14.109653"><ele>364.00</ele><time>2011-05-22T12:26:24Z</time></trkpt><trkpt lat="50.076923" lon="14.109278"><ele>363.52</ele><time>2011-05-22T12:26:33Z</time></trkpt><trkpt lat="50.076675" lon="14.108727"><ele>362.07</ele><time>2011-05-22T12:26:44Z</time></trkpt><trkpt lat="50.076508" lon="14.108278"><ele>364.96</ele><time>2011-05-22T12:26:56Z</time></trkpt><trkpt lat="50.076355" lon="14.107801"><ele>364.48</ele><time>2011-05-22T12:27:07Z</time></trkpt><trkpt lat="50.076351" lon="14.107743"><ele>364.00</ele><time>2011-05-22T12:27:09Z</time></trkpt><trkpt lat="50.076351" lon="14.107693"><ele>364.00</ele><time>2011-05-22T12:27:30Z</time></trkpt><trkpt lat="50.076366" lon="14.107656"><ele>365.44</ele><time>2011-05-22T12:27:37Z</time></trkpt><trkpt lat="50.076370" lon="14.107607"><ele>364.00</ele><time>2011-05-22T12:27:39Z</time></trkpt><trkpt lat="50.076313" lon="14.107568"><ele>364.00</ele><time>2011-05-22T12:27:44Z</time></trkpt><trkpt lat="50.075985" lon="14.107654"><ele>363.52</ele><time>2011-05-22T12:27:55Z</time></trkpt><trkpt lat="50.075497" lon="14.107305"><ele>364.96</ele><time>2011-05-22T12:28:10Z</time></trkpt><trkpt lat="50.074966" lon="14.106653"><ele>365.44</ele><time>2011-05-22T12:28:26Z</time></trkpt><trkpt lat="50.074814" lon="14.106057"><ele>364.48</ele><time>2011-05-22T12:28:42Z</time></trkpt><trkpt lat="50.074718" lon="14.105430"><ele>361.11</ele><time>2011-05-22T12:28:50Z</time></trkpt><trkpt lat="50.074486" lon="14.104815"><ele>360.63</ele><time>2011-05-22T12:29:02Z</time></trkpt><trkpt lat="50.074532" lon="14.104633"><ele>361.11</ele><time>2011-05-22T12:29:23Z</time></trkpt><trkpt lat="50.074371" lon="14.104626"><ele>360.63</ele><time>2011-05-22T12:29:40Z</time></trkpt><trkpt lat="50.074295" lon="14.104751"><ele>361.59</ele><time>2011-05-22T12:29:59Z</time></trkpt><trkpt lat="50.073837" lon="14.105017"><ele>360.15</ele><time>2011-05-22T12:30:12Z</time></trkpt><trkpt lat="50.073147" lon="14.104952"><ele>359.67</ele><time>2011-05-22T12:30:26Z</time></trkpt><trkpt lat="50.072922" lon="14.104667"><ele>362.55</ele><time>2011-05-22T12:30:42Z</time></trkpt><trkpt lat="50.072784" lon="14.103915"><ele>363.04</ele><time>2011-05-22T12:30:57Z</time></trkpt><trkpt lat="50.072803" lon="14.103121"><ele>364.00</ele><time>2011-05-22T12:31:11Z</time></trkpt><trkpt lat="50.072578" lon="14.102276"><ele>362.55</ele><time>2011-05-22T12:31:26Z</time></trkpt><trkpt lat="50.072346" lon="14.101817"><ele>359.19</ele><time>2011-05-22T12:31:36Z</time></trkpt><trkpt lat="50.071754" lon="14.101752"><ele>357.27</ele><time>2011-05-22T12:31:52Z</time></trkpt><trkpt lat="50.071705" lon="14.101759"><ele>357.27</ele><time>2011-05-22T12:32:07Z</time></trkpt><trkpt lat="50.071732" lon="14.101788"><ele>357.27</ele><time>2011-05-22T12:32:10Z</time></trkpt><trkpt lat="50.071438" lon="14.102340"><ele>357.27</ele><time>2011-05-22T12:32:27Z</time></trkpt><trkpt lat="50.071003" lon="14.103314"><ele>357.75</ele><time>2011-05-22T12:32:42Z</time></trkpt><trkpt lat="50.070908" lon="14.104081"><ele>357.27</ele><time>2011-05-22T12:32:57Z</time></trkpt><trkpt lat="50.070881" lon="14.104710"><ele>356.31</ele><time>2011-05-22T12:33:12Z</time></trkpt><trkpt lat="50.070999" lon="14.105130"><ele>354.86</ele><time>2011-05-22T12:33:25Z</time></trkpt><trkpt lat="50.071022" lon="14.105239"><ele>353.42</ele><time>2011-05-22T12:33:44Z</time></trkpt><trkpt lat="50.070862" lon="14.105378"><ele>352.94</ele><time>2011-05-22T12:33:55Z</time></trkpt><trkpt lat="50.070705" lon="14.105305"><ele>352.46</ele><time>2011-05-22T12:34:09Z</time></trkpt><trkpt lat="50.070705" lon="14.105305"><ele>352.46</ele><time>2011-05-22T12:34:13Z</time></trkpt><trkpt lat="50.070694" lon="14.105233"><ele>352.46</ele><time>2011-05-22T12:34:33Z</time></trkpt><trkpt lat="50.070347" lon="14.104917"><ele>354.86</ele><time>2011-05-22T12:34:47Z</time></trkpt><trkpt lat="50.070023" lon="14.104491"><ele>354.86</ele><time>2011-05-22T12:35:00Z</time></trkpt><trkpt lat="50.069641" lon="14.103971"><ele>356.79</ele><time>2011-05-22T12:35:15Z</time></trkpt><trkpt lat="50.069519" lon="14.103690"><ele>357.27</ele><time>2011-05-22T12:35:25Z</time></trkpt><trkpt lat="50.069527" lon="14.103598"><ele>358.23</ele><time>2011-05-22T12:35:29Z</time></trkpt><trkpt lat="50.069527" lon="14.103526"><ele>358.71</ele><time>2011-05-22T12:35:39Z</time></trkpt><trkpt lat="50.069534" lon="14.103512"><ele>354.86</ele><time>2011-05-22T12:35:53Z</time></trkpt><trkpt lat="50.069534" lon="14.103512"><ele>357.75</ele><time>2011-05-22T12:35:54Z</time></trkpt><trkpt lat="50.069534" lon="14.103512"><ele>354.86</ele><time>2011-05-22T12:36:15Z</time></trkpt><trkpt lat="50.069534" lon="14.103512"><ele>358.71</ele><time>2011-05-22T12:36:17Z</time></trkpt><trkpt lat="50.069534" lon="14.103512"><ele>360.15</ele><time>2011-05-22T12:36:19Z</time></trkpt><trkpt lat="50.069530" lon="14.103509"><ele>358.23</ele><time>2011-05-22T12:36:22Z</time></trkpt><trkpt lat="50.069530" lon="14.103509"><ele>356.79</ele><time>2011-05-22T12:36:31Z</time></trkpt><trkpt lat="50.069530" lon="14.103509"><ele>360.63</ele><time>2011-05-22T12:36:37Z</time></trkpt><trkpt lat="50.069530" lon="14.103509"><ele>356.31</ele><time>2011-05-22T12:36:38Z</time></trkpt><trkpt lat="50.069530" lon="14.103509"><ele>357.27</ele><time>2011-05-22T12:36:42Z</time></trkpt><trkpt lat="50.069530" lon="14.103505"><ele>357.75</ele><time>2011-05-22T12:37:00Z</time></trkpt><trkpt lat="50.069363" lon="14.103289"><ele>354.86</ele><time>2011-05-22T12:37:07Z</time></trkpt><trkpt lat="50.069309" lon="14.103226"><ele>354.86</ele><time>2011-05-22T12:37:08Z</time></trkpt><trkpt lat="50.069172" lon="14.103069"><ele>353.90</ele><time>2011-05-22T12:37:10Z</time></trkpt><trkpt lat="50.068935" lon="14.103004"><ele>352.94</ele><time>2011-05-22T12:37:13Z</time></trkpt><trkpt lat="50.068748" lon="14.102982"><ele>351.98</ele><time>2011-05-22T12:37:16Z</time></trkpt><trkpt lat="50.068459" lon="14.103131"><ele>351.50</ele><time>2011-05-22T12:37:20Z</time></trkpt><trkpt lat="50.068344" lon="14.103237"><ele>351.02</ele><time>2011-05-22T12:37:22Z</time></trkpt><trkpt lat="50.068138" lon="14.103511"><ele>350.54</ele><time>2011-05-22T12:37:26Z</time></trkpt><trkpt lat="50.067852" lon="14.104250"><ele>351.02</ele><time>2011-05-22T12:37:39Z</time></trkpt><trkpt lat="50.067738" lon="14.104549"><ele>351.02</ele><time>2011-05-22T12:37:49Z</time></trkpt><trkpt lat="50.067692" lon="14.104600"><ele>349.58</ele><time>2011-05-22T12:37:51Z</time></trkpt><trkpt lat="50.067234" lon="14.104891"><ele>346.21</ele><time>2011-05-22T12:38:00Z</time></trkpt><trkpt lat="50.067142" lon="14.104961"><ele>345.73</ele><time>2011-05-22T12:38:05Z</time></trkpt><trkpt lat="50.067066" lon="14.104941"><ele>345.25</ele><time>2011-05-22T12:38:07Z</time></trkpt><trkpt lat="50.066742" lon="14.104606"><ele>342.37</ele><time>2011-05-22T12:38:16Z</time></trkpt><trkpt lat="50.066723" lon="14.104600"><ele>344.29</ele><time>2011-05-22T12:38:17Z</time></trkpt><trkpt lat="50.066669" lon="14.104558"><ele>344.77</ele><time>2011-05-22T12:38:35Z</time></trkpt><trkpt lat="50.066563" lon="14.104506"><ele>345.25</ele><time>2011-05-22T12:38:42Z</time></trkpt><trkpt lat="50.066521" lon="14.104505"><ele>345.73</ele><time>2011-05-22T12:38:46Z</time></trkpt><trkpt lat="50.066502" lon="14.104502"><ele>346.21</ele><time>2011-05-22T12:38:48Z</time></trkpt><trkpt lat="50.066353" lon="14.104518"><ele>347.65</ele><time>2011-05-22T12:39:02Z</time></trkpt><trkpt lat="50.066231" lon="14.104624"><ele>347.17</ele><time>2011-05-22T12:39:08Z</time></trkpt><trkpt lat="50.065830" lon="14.104973"><ele>348.62</ele><time>2011-05-22T12:39:22Z</time></trkpt><trkpt lat="50.065659" lon="14.105173"><ele>351.50</ele><time>2011-05-22T12:39:32Z</time></trkpt><trkpt lat="50.065559" lon="14.105229"><ele>352.46</ele><time>2011-05-22T12:39:38Z</time></trkpt><trkpt lat="50.065250" lon="14.105161"><ele>353.42</ele><time>2011-05-22T12:39:55Z</time></trkpt><trkpt lat="50.064976" lon="14.105048"><ele>353.42</ele><time>2011-05-22T12:40:10Z</time></trkpt><trkpt lat="50.064926" lon="14.105026"><ele>352.94</ele><time>2011-05-22T12:40:14Z</time></trkpt><trkpt lat="50.064919" lon="14.104985"><ele>350.06</ele><time>2011-05-22T12:40:17Z</time></trkpt><trkpt lat="50.064922" lon="14.104979"><ele>353.42</ele><time>2011-05-22T12:40:18Z</time></trkpt><trkpt lat="50.064953" lon="14.104967"><ele>354.38</ele><time>2011-05-22T12:40:22Z</time></trkpt><trkpt lat="50.065014" lon="14.104971"><ele>352.46</ele><time>2011-05-22T12:40:27Z</time></trkpt><trkpt lat="50.064964" lon="14.104955"><ele>351.98</ele><time>2011-05-22T12:40:42Z</time></trkpt><trkpt lat="50.064907" lon="14.104948"><ele>351.98</ele><time>2011-05-22T12:40:46Z</time></trkpt><trkpt lat="50.064629" lon="14.104958"><ele>350.06</ele><time>2011-05-22T12:40:52Z</time></trkpt><trkpt lat="50.063801" lon="14.105444"><ele>350.06</ele><time>2011-05-22T12:41:08Z</time></trkpt><trkpt lat="50.063538" lon="14.106121"><ele>348.62</ele><time>2011-05-22T12:41:22Z</time></trkpt><trkpt lat="50.063564" lon="14.107068"><ele>347.65</ele><time>2011-05-22T12:41:38Z</time></trkpt><trkpt lat="50.063599" lon="14.108039"><ele>345.73</ele><time>2011-05-22T12:41:51Z</time></trkpt><trkpt lat="50.063633" lon="14.108880"><ele>342.37</ele><time>2011-05-22T12:42:01Z</time></trkpt><trkpt lat="50.063633" lon="14.109038"><ele>341.41</ele><time>2011-05-22T12:42:03Z</time></trkpt><trkpt lat="50.063591" lon="14.109799"><ele>338.04</ele><time>2011-05-22T12:42:14Z</time></trkpt><trkpt lat="50.063152" lon="14.110046"><ele>340.44</ele><time>2011-05-22T12:42:27Z</time></trkpt><trkpt lat="50.063034" lon="14.110107"><ele>339.48</ele><time>2011-05-22T12:42:42Z</time></trkpt><trkpt lat="50.062630" lon="14.110149"><ele>338.52</ele><time>2011-05-22T12:43:00Z</time></trkpt><trkpt lat="50.062065" lon="14.109904"><ele>335.16</ele><time>2011-05-22T12:43:11Z</time></trkpt><trkpt lat="50.061146" lon="14.109157"><ele>333.71</ele><time>2011-05-22T12:43:30Z</time></trkpt><trkpt lat="50.060841" lon="14.108802"><ele>334.20</ele><time>2011-05-22T12:43:34Z</time></trkpt><trkpt lat="50.060036" lon="14.108008"><ele>332.75</ele><time>2011-05-22T12:43:51Z</time></trkpt><trkpt lat="50.059380" lon="14.108022"><ele>331.79</ele><time>2011-05-22T12:44:06Z</time></trkpt><trkpt lat="50.059181" lon="14.108027"><ele>329.87</ele><time>2011-05-22T12:44:11Z</time></trkpt><trkpt lat="50.058273" lon="14.107391"><ele>329.87</ele><time>2011-05-22T12:44:26Z</time></trkpt><trkpt lat="50.058281" lon="14.107381"><ele>329.39</ele><time>2011-05-22T12:44:46Z</time></trkpt><trkpt lat="50.058254" lon="14.107580"><ele>330.35</ele><time>2011-05-22T12:45:04Z</time></trkpt><trkpt lat="50.057877" lon="14.108174"><ele>329.39</ele><time>2011-05-22T12:45:21Z</time></trkpt><trkpt lat="50.057430" lon="14.108983"><ele>329.87</ele><time>2011-05-22T12:45:35Z</time></trkpt><trkpt lat="50.057217" lon="14.109703"><ele>328.91</ele><time>2011-05-22T12:45:49Z</time></trkpt><trkpt lat="50.056900" lon="14.110476"><ele>329.87</ele><time>2011-05-22T12:46:03Z</time></trkpt><trkpt lat="50.056465" lon="14.110993"><ele>331.79</ele><time>2011-05-22T12:46:19Z</time></trkpt><trkpt lat="50.055992" lon="14.111059"><ele>334.68</ele><time>2011-05-22T12:46:34Z</time></trkpt><trkpt lat="50.055775" lon="14.110988"><ele>334.68</ele><time>2011-05-22T12:46:43Z</time></trkpt><trkpt lat="50.055687" lon="14.110920"><ele>335.64</ele><time>2011-05-22T12:47:02Z</time></trkpt><trkpt lat="50.055618" lon="14.110864"><ele>336.12</ele><time>2011-05-22T12:47:07Z</time></trkpt><trkpt lat="50.055569" lon="14.110830"><ele>336.60</ele><time>2011-05-22T12:47:09Z</time></trkpt><trkpt lat="50.055225" lon="14.110830"><ele>338.04</ele><time>2011-05-22T12:47:24Z</time></trkpt><trkpt lat="50.055199" lon="14.110826"><ele>338.04</ele><time>2011-05-22T12:47:26Z</time></trkpt><trkpt lat="50.054909" lon="14.110721"><ele>341.41</ele><time>2011-05-22T12:47:39Z</time></trkpt><trkpt lat="50.054867" lon="14.110728"><ele>341.41</ele><time>2011-05-22T12:47:40Z</time></trkpt><trkpt lat="50.054607" lon="14.111012"><ele>340.92</ele><time>2011-05-22T12:47:56Z</time></trkpt><trkpt lat="50.054607" lon="14.111012"><ele>336.60</ele><time>2011-05-22T12:47:58Z</time></trkpt><trkpt lat="50.054607" lon="14.111012"><ele>341.89</ele><time>2011-05-22T12:47:59Z</time></trkpt><trkpt lat="50.054600" lon="14.111010"><ele>339.96</ele><time>2011-05-22T12:48:16Z</time></trkpt><trkpt lat="50.054585" lon="14.111003"><ele>340.92</ele><time>2011-05-22T12:48:23Z</time></trkpt><trkpt lat="50.054287" lon="14.110954"><ele>338.52</ele><time>2011-05-22T12:48:31Z</time></trkpt><trkpt lat="50.053951" lon="14.110875"><ele>338.04</ele><time>2011-05-22T12:48:45Z</time></trkpt><trkpt lat="50.053921" lon="14.110810"><ele>338.04</ele><time>2011-05-22T12:49:01Z</time></trkpt><trkpt lat="50.054008" lon="14.110765"><ele>338.04</ele><time>2011-05-22T12:49:07Z</time></trkpt><trkpt lat="50.054371" lon="14.110776"><ele>341.41</ele><time>2011-05-22T12:49:23Z</time></trkpt><trkpt lat="50.054527" lon="14.111268"><ele>341.89</ele><time>2011-05-22T12:49:36Z</time></trkpt><trkpt lat="50.054546" lon="14.111341"><ele>341.89</ele><time>2011-05-22T12:49:49Z</time></trkpt><trkpt lat="50.054569" lon="14.111465"><ele>342.37</ele><time>2011-05-22T12:50:06Z</time></trkpt><trkpt lat="50.054588" lon="14.111526"><ele>341.89</ele><time>2011-05-22T12:50:17Z</time></trkpt><trkpt lat="50.054535" lon="14.111578"><ele>341.89</ele><time>2011-05-22T12:50:21Z</time></trkpt><trkpt lat="50.054272" lon="14.111537"><ele>338.04</ele><time>2011-05-22T12:50:29Z</time></trkpt><trkpt lat="50.054226" lon="14.111543"><ele>337.56</ele><time>2011-05-22T12:50:30Z</time></trkpt><trkpt lat="50.053936" lon="14.111550"><ele>333.71</ele><time>2011-05-22T12:50:36Z</time></trkpt><trkpt lat="50.053791" lon="14.111523"><ele>332.27</ele><time>2011-05-22T12:50:39Z</time></trkpt><trkpt lat="50.053619" lon="14.111416"><ele>330.83</ele><time>2011-05-22T12:50:42Z</time></trkpt><trkpt lat="50.053360" lon="14.111223"><ele>327.47</ele><time>2011-05-22T12:50:47Z</time></trkpt><trkpt lat="50.053314" lon="14.111185"><ele>327.47</ele><time>2011-05-22T12:50:48Z</time></trkpt><trkpt lat="50.053192" lon="14.111083"><ele>326.99</ele><time>2011-05-22T12:50:49Z</time></trkpt><trkpt lat="50.053017" lon="14.110908"><ele>325.54</ele><time>2011-05-22T12:50:52Z</time></trkpt><trkpt lat="50.052780" lon="14.110683"><ele>324.10</ele><time>2011-05-22T12:50:55Z</time></trkpt><trkpt lat="50.052807" lon="14.110614"><ele>323.62</ele><time>2011-05-22T12:51:04Z</time></trkpt><trkpt lat="50.052818" lon="14.110617"><ele>323.62</ele><time>2011-05-22T12:51:21Z</time></trkpt><trkpt lat="50.052784" lon="14.110536"><ele>323.14</ele><time>2011-05-22T12:51:37Z</time></trkpt><trkpt lat="50.052788" lon="14.110530"><ele>322.18</ele><time>2011-05-22T12:51:51Z</time></trkpt><trkpt lat="50.052776" lon="14.110518"><ele>323.14</ele><time>2011-05-22T12:51:55Z</time></trkpt><trkpt lat="50.052860" lon="14.110377"><ele>323.14</ele><time>2011-05-22T12:52:10Z</time></trkpt><trkpt lat="50.052898" lon="14.110360"><ele>323.14</ele><time>2011-05-22T12:52:18Z</time></trkpt><trkpt lat="50.052982" lon="14.110557"><ele>324.10</ele><time>2011-05-22T12:52:31Z</time></trkpt><trkpt lat="50.052986" lon="14.110592"><ele>324.58</ele><time>2011-05-22T12:52:34Z</time></trkpt><trkpt lat="50.053036" lon="14.110723"><ele>323.62</ele><time>2011-05-22T12:52:39Z</time></trkpt><trkpt lat="50.053185" lon="14.110940"><ele>323.14</ele><time>2011-05-22T12:52:51Z</time></trkpt><trkpt lat="50.053158" lon="14.110936"><ele>322.66</ele><time>2011-05-22T12:53:12Z</time></trkpt><trkpt lat="50.053169" lon="14.110966"><ele>323.14</ele><time>2011-05-22T12:53:14Z</time></trkpt><trkpt lat="50.053341" lon="14.111478"><ele>322.18</ele><time>2011-05-22T12:53:27Z</time></trkpt><trkpt lat="50.053436" lon="14.111776"><ele>319.78</ele><time>2011-05-22T12:53:32Z</time></trkpt><trkpt lat="50.053692" lon="14.112328"><ele>319.30</ele><time>2011-05-22T12:53:47Z</time></trkpt><trkpt lat="50.053967" lon="14.112847"><ele>318.81</ele><time>2011-05-22T12:54:00Z</time></trkpt><trkpt lat="50.054253" lon="14.113279"><ele>318.81</ele><time>2011-05-22T12:54:14Z</time></trkpt><trkpt lat="50.054638" lon="14.114098"><ele>319.78</ele><time>2011-05-22T12:54:29Z</time></trkpt><trkpt lat="50.054813" lon="14.114395"><ele>319.30</ele><time>2011-05-22T12:54:43Z</time></trkpt><trkpt lat="50.054813" lon="14.114395"><ele>318.81</ele><time>2011-05-22T12:55:12Z</time></trkpt><trkpt lat="50.054817" lon="14.114416"><ele>318.81</ele><time>2011-05-22T12:55:13Z</time></trkpt><trkpt lat="50.054890" lon="14.115270"><ele>319.30</ele><time>2011-05-22T12:55:30Z</time></trkpt><trkpt lat="50.054955" lon="14.115825"><ele>318.81</ele><time>2011-05-22T12:55:38Z</time></trkpt><trkpt lat="50.054989" lon="14.115901"><ele>318.81</ele><time>2011-05-22T12:56:00Z</time></trkpt><trkpt lat="50.054981" lon="14.115909"><ele>318.81</ele><time>2011-05-22T12:56:09Z</time></trkpt><trkpt lat="50.054882" lon="14.115985"><ele>319.30</ele><time>2011-05-22T12:56:26Z</time></trkpt><trkpt lat="50.054882" lon="14.115985"><ele>319.30</ele><time>2011-05-22T12:56:48Z</time></trkpt><trkpt lat="50.054798" lon="14.115974"><ele>317.85</ele><time>2011-05-22T12:57:06Z</time></trkpt><trkpt lat="50.054733" lon="14.115959"><ele>316.89</ele><time>2011-05-22T12:57:22Z</time></trkpt><trkpt lat="50.054733" lon="14.115959"><ele>316.41</ele><time>2011-05-22T12:57:53Z</time></trkpt><trkpt lat="50.054737" lon="14.115966"><ele>316.41</ele><time>2011-05-22T12:58:36Z</time></trkpt><trkpt lat="50.054737" lon="14.115966"><ele>317.37</ele><time>2011-05-22T12:59:02Z</time></trkpt><trkpt lat="50.054779" lon="14.115942"><ele>317.85</ele><time>2011-05-22T12:59:19Z</time></trkpt><trkpt lat="50.054802" lon="14.115966"><ele>318.33</ele><time>2011-05-22T12:59:40Z</time></trkpt><trkpt lat="50.054802" lon="14.115966"><ele>318.81</ele><time>2011-05-22T12:59:53Z</time></trkpt><trkpt lat="50.054852" lon="14.116014"><ele>319.30</ele><time>2011-05-22T13:00:06Z</time></trkpt><trkpt lat="50.054848" lon="14.116070"><ele>319.30</ele><time>2011-05-22T13:00:08Z</time></trkpt><trkpt lat="50.054810" lon="14.116198"><ele>319.30</ele><time>2011-05-22T13:00:13Z</time></trkpt><trkpt lat="50.054363" lon="14.116573"><ele>318.81</ele><time>2011-05-22T13:00:30Z</time></trkpt><trkpt lat="50.054031" lon="14.116795"><ele>320.74</ele><time>2011-05-22T13:00:39Z</time></trkpt><trkpt lat="50.053619" lon="14.117166"><ele>319.78</ele><time>2011-05-22T13:00:53Z</time></trkpt><trkpt lat="50.053299" lon="14.117877"><ele>318.33</ele><time>2011-05-22T13:01:07Z</time></trkpt><trkpt lat="50.052917" lon="14.118501"><ele>318.81</ele><time>2011-05-22T13:01:20Z</time></trkpt><trkpt lat="50.052536" lon="14.119005"><ele>319.30</ele><time>2011-05-22T13:01:34Z</time></trkpt><trkpt lat="50.052513" lon="14.119434"><ele>319.30</ele><time>2011-05-22T13:01:47Z</time></trkpt><trkpt lat="50.052738" lon="14.119769"><ele>318.33</ele><time>2011-05-22T13:02:02Z</time></trkpt><trkpt lat="50.052803" lon="14.120019"><ele>318.33</ele><time>2011-05-22T13:02:17Z</time></trkpt><trkpt lat="50.052803" lon="14.120019"><ele>318.33</ele><time>2011-05-22T13:02:18Z</time></trkpt><trkpt lat="50.053089" lon="14.119653"><ele>319.30</ele><time>2011-05-22T13:02:33Z</time></trkpt><trkpt lat="50.053467" lon="14.119352"><ele>320.26</ele><time>2011-05-22T13:02:48Z</time></trkpt><trkpt lat="50.053566" lon="14.119669"><ele>319.30</ele><time>2011-05-22T13:02:54Z</time></trkpt><trkpt lat="50.053589" lon="14.119937"><ele>319.78</ele><time>2011-05-22T13:02:58Z</time></trkpt><trkpt lat="50.053375" lon="14.120662"><ele>319.78</ele><time>2011-05-22T13:03:16Z</time></trkpt><trkpt lat="50.053112" lon="14.121701"><ele>321.22</ele><time>2011-05-22T13:03:35Z</time></trkpt><trkpt lat="50.053123" lon="14.122588"><ele>323.14</ele><time>2011-05-22T13:03:51Z</time></trkpt><trkpt lat="50.053154" lon="14.123405"><ele>324.10</ele><time>2011-05-22T13:04:07Z</time></trkpt><trkpt lat="50.053154" lon="14.124242"><ele>320.74</ele><time>2011-05-22T13:04:22Z</time></trkpt><trkpt lat="50.053146" lon="14.124478"><ele>320.26</ele><time>2011-05-22T13:04:35Z</time></trkpt><trkpt lat="50.053146" lon="14.124478"><ele>320.26</ele><time>2011-05-22T13:04:58Z</time></trkpt><trkpt lat="50.053139" lon="14.124432"><ele>320.26</ele><time>2011-05-22T13:05:27Z</time></trkpt><trkpt lat="50.053158" lon="14.124553"><ele>320.74</ele><time>2011-05-22T13:05:33Z</time></trkpt><trkpt lat="50.053261" lon="14.124818"><ele>320.26</ele><time>2011-05-22T13:05:42Z</time></trkpt><trkpt lat="50.052238" lon="14.124979"><ele>319.78</ele><time>2011-05-22T13:05:55Z</time></trkpt><trkpt lat="50.052082" lon="14.124887"><ele>319.78</ele><time>2011-05-22T13:05:59Z</time></trkpt><trkpt lat="50.052094" lon="14.124825"><ele>319.78</ele><time>2011-05-22T13:06:00Z</time></trkpt><trkpt lat="50.052155" lon="14.124688"><ele>319.78</ele><time>2011-05-22T13:06:01Z</time></trkpt><trkpt lat="50.052208" lon="14.124163"><ele>319.78</ele><time>2011-05-22T13:06:11Z</time></trkpt><trkpt lat="50.052029" lon="14.123855"><ele>319.78</ele><time>2011-05-22T13:06:25Z</time></trkpt><trkpt lat="50.051991" lon="14.123683"><ele>317.85</ele><time>2011-05-22T13:06:29Z</time></trkpt><trkpt lat="50.051991" lon="14.123642"><ele>317.85</ele><time>2011-05-22T13:06:30Z</time></trkpt><trkpt lat="50.051983" lon="14.123600"><ele>317.85</ele><time>2011-05-22T13:06:31Z</time></trkpt><trkpt lat="50.051979" lon="14.123555"><ele>317.37</ele><time>2011-05-22T13:06:32Z</time></trkpt><trkpt lat="50.051971" lon="14.123512"><ele>317.37</ele><time>2011-05-22T13:06:33Z</time></trkpt><trkpt lat="50.051899" lon="14.122912"><ele>314.01</ele><time>2011-05-22T13:06:45Z</time></trkpt><trkpt lat="50.051781" lon="14.122264"><ele>314.97</ele><time>2011-05-22T13:06:57Z</time></trkpt><trkpt lat="50.051643" lon="14.121527"><ele>315.93</ele><time>2011-05-22T13:07:11Z</time></trkpt><trkpt lat="50.051567" lon="14.120728"><ele>315.93</ele><time>2011-05-22T13:07:26Z</time></trkpt><trkpt lat="50.051460" lon="14.120135"><ele>311.60</ele><time>2011-05-22T13:07:37Z</time></trkpt><trkpt lat="50.051441" lon="14.120083"><ele>313.05</ele><time>2011-05-22T13:07:38Z</time></trkpt><trkpt lat="50.051395" lon="14.119987"><ele>314.01</ele><time>2011-05-22T13:07:40Z</time></trkpt><trkpt lat="50.051205" lon="14.119707"><ele>310.64</ele><time>2011-05-22T13:07:48Z</time></trkpt><trkpt lat="50.050858" lon="14.119405"><ele>310.64</ele><time>2011-05-22T13:08:01Z</time></trkpt><trkpt lat="50.050705" lon="14.119259"><ele>309.20</ele><time>2011-05-22T13:08:13Z</time></trkpt><trkpt lat="50.050758" lon="14.119289"><ele>310.16</ele><time>2011-05-22T13:08:22Z</time></trkpt><trkpt lat="50.050774" lon="14.119313"><ele>310.16</ele><time>2011-05-22T13:08:24Z</time></trkpt><trkpt lat="50.050777" lon="14.119318"><ele>310.64</ele><time>2011-05-22T13:08:38Z</time></trkpt><trkpt lat="50.050789" lon="14.119324"><ele>310.64</ele><time>2011-05-22T13:08:55Z</time></trkpt><trkpt lat="50.050819" lon="14.119335"><ele>310.16</ele><time>2011-05-22T13:08:57Z</time></trkpt><trkpt lat="50.050838" lon="14.119345"><ele>310.64</ele><time>2011-05-22T13:08:58Z</time></trkpt><trkpt lat="50.050854" lon="14.119352"><ele>310.64</ele><time>2011-05-22T13:08:59Z</time></trkpt><trkpt lat="50.051170" lon="14.119576"><ele>311.60</ele><time>2011-05-22T13:09:14Z</time></trkpt><trkpt lat="50.051468" lon="14.120036"><ele>314.49</ele><time>2011-05-22T13:09:30Z</time></trkpt><trkpt lat="50.051479" lon="14.120228"><ele>315.45</ele><time>2011-05-22T13:09:39Z</time></trkpt><trkpt lat="50.051483" lon="14.120231"><ele>315.45</ele><time>2011-05-22T13:09:40Z</time></trkpt><trkpt lat="50.051495" lon="14.120139"><ele>315.93</ele><time>2011-05-22T13:09:49Z</time></trkpt><trkpt lat="50.051483" lon="14.120123"><ele>316.41</ele><time>2011-05-22T13:09:50Z</time></trkpt><trkpt lat="50.051468" lon="14.119988"><ele>315.45</ele><time>2011-05-22T13:09:58Z</time></trkpt><trkpt lat="50.051476" lon="14.119969"><ele>315.45</ele><time>2011-05-22T13:09:59Z</time></trkpt><trkpt lat="50.051483" lon="14.119953"><ele>314.97</ele><time>2011-05-22T13:10:00Z</time></trkpt><trkpt lat="50.050972" lon="14.119286"><ele>314.97</ele><time>2011-05-22T13:10:01Z</time></trkpt><trkpt lat="50.050915" lon="14.119207"><ele>314.49</ele><time>2011-05-22T13:10:02Z</time></trkpt><trkpt lat="50.050880" lon="14.119131"><ele>314.49</ele><time>2011-05-22T13:10:03Z</time></trkpt><trkpt lat="50.050854" lon="14.119041"><ele>314.49</ele><time>2011-05-22T13:10:04Z</time></trkpt><trkpt lat="50.050560" lon="14.118527"><ele>313.53</ele><time>2011-05-22T13:10:15Z</time></trkpt><trkpt lat="50.050369" lon="14.118452"><ele>313.53</ele><time>2011-05-22T13:10:21Z</time></trkpt><trkpt lat="50.050053" lon="14.118752"><ele>311.12</ele><time>2011-05-22T13:10:30Z</time></trkpt><trkpt lat="50.050011" lon="14.118805"><ele>311.12</ele><time>2011-05-22T13:10:31Z</time></trkpt><trkpt lat="50.049557" lon="14.119323"><ele>309.68</ele><time>2011-05-22T13:10:40Z</time></trkpt><trkpt lat="50.049057" lon="14.119831"><ele>310.64</ele><time>2011-05-22T13:10:55Z</time></trkpt><trkpt lat="50.048759" lon="14.120179"><ele>310.16</ele><time>2011-05-22T13:11:06Z</time></trkpt><trkpt lat="50.048721" lon="14.120219"><ele>309.20</ele><time>2011-05-22T13:11:19Z</time></trkpt><trkpt lat="50.048695" lon="14.120228"><ele>309.20</ele><time>2011-05-22T13:11:22Z</time></trkpt><trkpt lat="50.048611" lon="14.120433"><ele>309.20</ele><time>2011-05-22T13:11:28Z</time></trkpt><trkpt lat="50.048416" lon="14.120999"><ele>308.72</ele><time>2011-05-22T13:11:41Z</time></trkpt><trkpt lat="50.048080" lon="14.121475"><ele>308.24</ele><time>2011-05-22T13:11:53Z</time></trkpt><trkpt lat="50.047184" lon="14.121882"><ele>308.24</ele><time>2011-05-22T13:12:05Z</time></trkpt><trkpt lat="50.047104" lon="14.122005"><ele>309.20</ele><time>2011-05-22T13:12:14Z</time></trkpt><trkpt lat="50.047153" lon="14.122253"><ele>312.57</ele><time>2011-05-22T13:12:26Z</time></trkpt><trkpt lat="50.047222" lon="14.122502"><ele>315.93</ele><time>2011-05-22T13:12:38Z</time></trkpt><trkpt lat="50.047203" lon="14.122567"><ele>317.37</ele><time>2011-05-22T13:12:43Z</time></trkpt><trkpt lat="50.047192" lon="14.122600"><ele>318.33</ele><time>2011-05-22T13:12:46Z</time></trkpt><trkpt lat="50.047176" lon="14.122615"><ele>318.81</ele><time>2011-05-22T13:12:48Z</time></trkpt><trkpt lat="50.047127" lon="14.122718"><ele>319.78</ele><time>2011-05-22T13:12:52Z</time></trkpt><trkpt lat="50.047047" lon="14.122863"><ele>321.70</ele><time>2011-05-22T13:12:58Z</time></trkpt><trkpt lat="50.047028" lon="14.122908"><ele>322.18</ele><time>2011-05-22T13:13:01Z</time></trkpt><trkpt lat="50.046967" lon="14.123125"><ele>322.18</ele><time>2011-05-22T13:13:16Z</time></trkpt><trkpt lat="50.046967" lon="14.123125"><ele>322.66</ele><time>2011-05-22T13:13:43Z</time></trkpt><trkpt lat="50.046944" lon="14.123205"><ele>321.70</ele><time>2011-05-22T13:13:51Z</time></trkpt><trkpt lat="50.046806" lon="14.123406"><ele>320.74</ele><time>2011-05-22T13:13:55Z</time></trkpt><trkpt lat="50.046585" lon="14.124316"><ele>319.78</ele><time>2011-05-22T13:14:11Z</time></trkpt><trkpt lat="50.046520" lon="14.124751"><ele>315.93</ele><time>2011-05-22T13:14:17Z</time></trkpt><trkpt lat="50.046490" lon="14.124949"><ele>314.97</ele><time>2011-05-22T13:14:19Z</time></trkpt><trkpt lat="50.046432" lon="14.125352"><ele>314.01</ele><time>2011-05-22T13:14:23Z</time></trkpt><trkpt lat="50.046310" lon="14.125541"><ele>312.09</ele><time>2011-05-22T13:14:26Z</time></trkpt><trkpt lat="50.046219" lon="14.125734"><ele>309.20</ele><time>2011-05-22T13:14:30Z</time></trkpt><trkpt lat="50.045746" lon="14.126252"><ele>306.80</ele><time>2011-05-22T13:14:44Z</time></trkpt><trkpt lat="50.045738" lon="14.126266"><ele>306.80</ele><time>2011-05-22T13:14:57Z</time></trkpt><trkpt lat="50.045723" lon="14.126248"><ele>306.80</ele><time>2011-05-22T13:15:15Z</time></trkpt><trkpt lat="50.045712" lon="14.126221"><ele>306.80</ele><time>2011-05-22T13:15:41Z</time></trkpt><trkpt lat="50.045692" lon="14.126220"><ele>306.80</ele><time>2011-05-22T13:15:47Z</time></trkpt><trkpt lat="50.045448" lon="14.126205"><ele>306.80</ele><time>2011-05-22T13:16:09Z</time></trkpt><trkpt lat="50.045437" lon="14.126193"><ele>306.80</ele><time>2011-05-22T13:16:18Z</time></trkpt><trkpt lat="50.045502" lon="14.126218"><ele>307.28</ele><time>2011-05-22T13:16:22Z</time></trkpt><trkpt lat="50.045658" lon="14.126853"><ele>307.28</ele><time>2011-05-22T13:16:37Z</time></trkpt><trkpt lat="50.045589" lon="14.127080"><ele>307.76</ele><time>2011-05-22T13:16:50Z</time></trkpt><trkpt lat="50.045589" lon="14.127080"><ele>306.32</ele><time>2011-05-22T13:16:55Z</time></trkpt><trkpt lat="50.045589" lon="14.127080"><ele>307.76</ele><time>2011-05-22T13:16:57Z</time></trkpt><trkpt lat="50.045582" lon="14.127151"><ele>308.24</ele><time>2011-05-22T13:17:03Z</time></trkpt><trkpt lat="50.045498" lon="14.127582"><ele>309.20</ele><time>2011-05-22T13:17:18Z</time></trkpt><trkpt lat="50.045506" lon="14.127884"><ele>312.09</ele><time>2011-05-22T13:17:29Z</time></trkpt><trkpt lat="50.045513" lon="14.128167"><ele>315.45</ele><time>2011-05-22T13:17:39Z</time></trkpt><trkpt lat="50.045532" lon="14.128783"><ele>318.81</ele><time>2011-05-22T13:17:52Z</time></trkpt><trkpt lat="50.045494" lon="14.128982"><ele>320.74</ele><time>2011-05-22T13:18:01Z</time></trkpt><trkpt lat="50.045387" lon="14.129138"><ele>323.14</ele><time>2011-05-22T13:18:08Z</time></trkpt><trkpt lat="50.045219" lon="14.129183"><ele>323.62</ele><time>2011-05-22T13:18:28Z</time></trkpt><trkpt lat="50.045219" lon="14.129182"><ele>322.66</ele><time>2011-05-22T13:18:52Z</time></trkpt><trkpt lat="50.045063" lon="14.129130"><ele>323.14</ele><time>2011-05-22T13:19:14Z</time></trkpt><trkpt lat="50.044968" lon="14.129107"><ele>319.78</ele><time>2011-05-22T13:19:17Z</time></trkpt><trkpt lat="50.044968" lon="14.129107"><ele>325.06</ele><time>2011-05-22T13:19:19Z</time></trkpt><trkpt lat="50.044968" lon="14.129107"><ele>320.26</ele><time>2011-05-22T13:19:20Z</time></trkpt><trkpt lat="50.044968" lon="14.129107"><ele>323.62</ele><time>2011-05-22T13:19:21Z</time></trkpt><trkpt lat="50.044968" lon="14.129107"><ele>320.74</ele><time>2011-05-22T13:19:30Z</time></trkpt><trkpt lat="50.044968" lon="14.129107"><ele>323.62</ele><time>2011-05-22T13:19:31Z</time></trkpt><trkpt lat="50.044968" lon="14.129107"><ele>323.62</ele><time>2011-05-22T13:19:39Z</time></trkpt><trkpt lat="50.044968" lon="14.129107"><ele>323.14</ele><time>2011-05-22T13:19:43Z</time></trkpt><trkpt lat="50.044876" lon="14.129153"><ele>324.10</ele><time>2011-05-22T13:20:03Z</time></trkpt><trkpt lat="50.044842" lon="14.129173"><ele>324.58</ele><time>2011-05-22T13:20:05Z</time></trkpt><trkpt lat="50.044701" lon="14.129310"><ele>325.54</ele><time>2011-05-22T13:20:15Z</time></trkpt><trkpt lat="50.044540" lon="14.129461"><ele>326.99</ele><time>2011-05-22T13:20:20Z</time></trkpt><trkpt lat="50.044502" lon="14.129572"><ele>327.95</ele><time>2011-05-22T13:20:24Z</time></trkpt><trkpt lat="50.044483" lon="14.129744"><ele>330.83</ele><time>2011-05-22T13:20:34Z</time></trkpt><trkpt lat="50.044468" lon="14.129777"><ele>331.79</ele><time>2011-05-22T13:20:36Z</time></trkpt><trkpt lat="50.044437" lon="14.129916"><ele>332.75</ele><time>2011-05-22T13:20:42Z</time></trkpt><trkpt lat="50.044403" lon="14.130191"><ele>334.68</ele><time>2011-05-22T13:20:58Z</time></trkpt><trkpt lat="50.044304" lon="14.130341"><ele>335.64</ele><time>2011-05-22T13:21:04Z</time></trkpt><trkpt lat="50.044121" lon="14.130606"><ele>336.60</ele><time>2011-05-22T13:21:15Z</time></trkpt><trkpt lat="50.044083" lon="14.130651"><ele>336.60</ele><time>2011-05-22T13:21:17Z</time></trkpt><trkpt lat="50.043709" lon="14.131183"><ele>337.56</ele><time>2011-05-22T13:21:38Z</time></trkpt><trkpt lat="50.043678" lon="14.131184"><ele>337.08</ele><time>2011-05-22T13:21:51Z</time></trkpt><trkpt lat="50.043644" lon="14.131143"><ele>339.00</ele><time>2011-05-22T13:22:15Z</time></trkpt><trkpt lat="50.043644" lon="14.131143"><ele>337.08</ele><time>2011-05-22T13:22:18Z</time></trkpt><trkpt lat="50.043541" lon="14.131208"><ele>337.08</ele><time>2011-05-22T13:22:31Z</time></trkpt><trkpt lat="50.043446" lon="14.131782"><ele>335.16</ele><time>2011-05-22T13:22:46Z</time></trkpt><trkpt lat="50.043381" lon="14.132134"><ele>331.79</ele><time>2011-05-22T13:22:52Z</time></trkpt><trkpt lat="50.043381" lon="14.132162"><ele>331.79</ele><time>2011-05-22T13:22:53Z</time></trkpt><trkpt lat="50.042488" lon="14.132865"><ele>328.91</ele><time>2011-05-22T13:22:56Z</time></trkpt><trkpt lat="50.042171" lon="14.133495"><ele>325.54</ele><time>2011-05-22T13:23:02Z</time></trkpt><trkpt lat="50.041828" lon="14.133969"><ele>324.10</ele><time>2011-05-22T13:23:08Z</time></trkpt><trkpt lat="50.041656" lon="14.134282"><ele>321.70</ele><time>2011-05-22T13:23:12Z</time></trkpt><trkpt lat="50.041519" lon="14.134712"><ele>318.33</ele><time>2011-05-22T13:23:16Z</time></trkpt><trkpt lat="50.041424" lon="14.135058"><ele>314.97</ele><time>2011-05-22T13:23:19Z</time></trkpt><trkpt lat="50.041348" lon="14.135346"><ele>311.60</ele><time>2011-05-22T13:23:22Z</time></trkpt><trkpt lat="50.041298" lon="14.135492"><ele>310.16</ele><time>2011-05-22T13:23:24Z</time></trkpt><trkpt lat="50.041264" lon="14.135550"><ele>309.20</ele><time>2011-05-22T13:23:25Z</time></trkpt><trkpt lat="50.041225" lon="14.135603"><ele>308.24</ele><time>2011-05-22T13:23:26Z</time></trkpt><trkpt lat="50.041039" lon="14.135876"><ele>304.39</ele><time>2011-05-22T13:23:31Z</time></trkpt><trkpt lat="50.040989" lon="14.135962"><ele>303.43</ele><time>2011-05-22T13:23:33Z</time></trkpt><trkpt lat="50.040863" lon="14.136087"><ele>301.51</ele><time>2011-05-22T13:23:43Z</time></trkpt><trkpt lat="50.040833" lon="14.136108"><ele>301.99</ele><time>2011-05-22T13:23:45Z</time></trkpt><trkpt lat="50.040825" lon="14.136119"><ele>301.51</ele><time>2011-05-22T13:23:46Z</time></trkpt><trkpt lat="50.040794" lon="14.136142"><ele>301.51</ele><time>2011-05-22T13:24:00Z</time></trkpt><trkpt lat="50.040813" lon="14.136089"><ele>301.99</ele><time>2011-05-22T13:24:07Z</time></trkpt><trkpt lat="50.040810" lon="14.136147"><ele>301.51</ele><time>2011-05-22T13:24:11Z</time></trkpt><trkpt lat="50.040798" lon="14.136147"><ele>301.51</ele><time>2011-05-22T13:24:12Z</time></trkpt><trkpt lat="50.040783" lon="14.136115"><ele>301.03</ele><time>2011-05-22T13:24:23Z</time></trkpt><trkpt lat="50.040787" lon="14.136107"><ele>301.51</ele><time>2011-05-22T13:24:36Z</time></trkpt><trkpt lat="50.040764" lon="14.136065"><ele>301.03</ele><time>2011-05-22T13:24:44Z</time></trkpt><trkpt lat="50.040752" lon="14.136055"><ele>300.55</ele><time>2011-05-22T13:24:45Z</time></trkpt><trkpt lat="50.040718" lon="14.135973"><ele>301.51</ele><time>2011-05-22T13:24:58Z</time></trkpt><trkpt lat="50.040558" lon="14.136074"><ele>301.03</ele><time>2011-05-22T13:25:26Z</time></trkpt><trkpt lat="50.040512" lon="14.135940"><ele>300.55</ele><time>2011-05-22T13:25:53Z</time></trkpt><trkpt lat="50.040802" lon="14.135964"><ele>301.03</ele><time>2011-05-22T13:26:07Z</time></trkpt><trkpt lat="50.040760" lon="14.136058"><ele>300.55</ele><time>2011-05-22T13:26:20Z</time></trkpt><trkpt lat="50.040668" lon="14.136113"><ele>300.55</ele><time>2011-05-22T13:26:24Z</time></trkpt><trkpt lat="50.040672" lon="14.136118"><ele>300.55</ele><time>2011-05-22T13:26:50Z</time></trkpt><trkpt lat="50.040688" lon="14.136161"><ele>299.59</ele><time>2011-05-22T13:27:13Z</time></trkpt><trkpt lat="50.040672" lon="14.136189"><ele>299.59</ele><time>2011-05-22T13:27:40Z</time></trkpt><trkpt lat="50.040684" lon="14.136177"><ele>300.07</ele><time>2011-05-22T13:28:03Z</time></trkpt><trkpt lat="50.040676" lon="14.136114"><ele>299.59</ele><time>2011-05-22T13:28:14Z</time></trkpt><trkpt lat="50.040749" lon="14.136036"><ele>299.59</ele><time>2011-05-22T13:28:23Z</time></trkpt><trkpt lat="50.040752" lon="14.136041"><ele>300.07</ele><time>2011-05-22T13:28:24Z</time></trkpt><trkpt lat="50.040764" lon="14.136044"><ele>299.11</ele><time>2011-05-22T13:28:35Z</time></trkpt><trkpt lat="50.040764" lon="14.136044"><ele>298.63</ele><time>2011-05-22T13:28:56Z</time></trkpt><trkpt lat="50.040764" lon="14.136036"><ele>298.63</ele><time>2011-05-22T13:29:17Z</time></trkpt><trkpt lat="50.040760" lon="14.136045"><ele>296.22</ele><time>2011-05-22T13:29:35Z</time></trkpt><trkpt lat="50.040760" lon="14.136047"><ele>299.59</ele><time>2011-05-22T13:29:37Z</time></trkpt><trkpt lat="50.040760" lon="14.136047"><ele>299.59</ele><time>2011-05-22T13:29:38Z</time></trkpt><trkpt lat="50.040760" lon="14.136047"><ele>294.78</ele><time>2011-05-22T13:29:40Z</time></trkpt><trkpt lat="50.040760" lon="14.136047"><ele>297.67</ele><time>2011-05-22T13:29:41Z</time></trkpt><trkpt lat="50.040771" lon="14.136052"><ele>302.95</ele><time>2011-05-22T13:29:42Z</time></trkpt><trkpt lat="50.040771" lon="14.136058"><ele>300.55</ele><time>2011-05-22T13:29:43Z</time></trkpt><trkpt lat="50.040771" lon="14.136058"><ele>297.18</ele><time>2011-05-22T13:29:44Z</time></trkpt><trkpt lat="50.040771" lon="14.136058"><ele>299.11</ele><time>2011-05-22T13:29:45Z</time></trkpt><trkpt lat="50.040771" lon="14.136060"><ele>300.07</ele><time>2011-05-22T13:29:49Z</time></trkpt><trkpt lat="50.040771" lon="14.136060"><ele>300.07</ele><time>2011-05-22T13:30:14Z</time></trkpt><trkpt lat="50.040771" lon="14.136059"><ele>299.11</ele><time>2011-05-22T13:30:35Z</time></trkpt><trkpt lat="50.040775" lon="14.136056"><ele>297.18</ele><time>2011-05-22T13:30:48Z</time></trkpt><trkpt lat="50.040775" lon="14.136056"><ele>301.03</ele><time>2011-05-22T13:30:50Z</time></trkpt><trkpt lat="50.040771" lon="14.136057"><ele>299.11</ele><time>2011-05-22T13:31:10Z</time></trkpt><trkpt lat="50.040771" lon="14.136057"><ele>299.11</ele><time>2011-05-22T13:31:33Z</time></trkpt><trkpt lat="50.040775" lon="14.136052"><ele>299.11</ele><time>2011-05-22T13:31:58Z</time></trkpt><trkpt lat="50.040775" lon="14.136048"><ele>298.63</ele><time>2011-05-22T13:32:30Z</time></trkpt><trkpt lat="50.040775" lon="14.136048"><ele>298.63</ele><time>2011-05-22T13:32:53Z</time></trkpt><trkpt lat="50.040775" lon="14.136045"><ele>298.15</ele><time>2011-05-22T13:33:16Z</time></trkpt><trkpt lat="50.040771" lon="14.136043"><ele>298.63</ele><time>2011-05-22T13:33:37Z</time></trkpt><trkpt lat="50.040771" lon="14.136056"><ele>293.82</ele><time>2011-05-22T13:33:59Z</time></trkpt><trkpt lat="50.040771" lon="14.136056"><ele>299.11</ele><time>2011-05-22T13:34:00Z</time></trkpt><trkpt lat="50.040768" lon="14.136049"><ele>298.63</ele><time>2011-05-22T13:34:32Z</time></trkpt><trkpt lat="50.040768" lon="14.136049"><ele>295.26</ele><time>2011-05-22T13:34:38Z</time></trkpt><trkpt lat="50.040768" lon="14.136049"><ele>298.63</ele><time>2011-05-22T13:34:40Z</time></trkpt><trkpt lat="50.040768" lon="14.136051"><ele>298.63</ele><time>2011-05-22T13:34:58Z</time></trkpt><trkpt lat="50.040768" lon="14.136051"><ele>298.15</ele><time>2011-05-22T13:35:22Z</time></trkpt><trkpt lat="50.040771" lon="14.136048"><ele>298.15</ele><time>2011-05-22T13:35:53Z</time></trkpt><trkpt lat="50.040771" lon="14.136048"><ele>298.63</ele><time>2011-05-22T13:36:25Z</time></trkpt><trkpt lat="50.040771" lon="14.136048"><ele>297.18</ele><time>2011-05-22T13:36:32Z</time></trkpt><trkpt lat="50.040768" lon="14.136051"><ele>298.15</ele><time>2011-05-22T13:37:03Z</time></trkpt><trkpt lat="50.040768" lon="14.136051"><ele>297.67</ele><time>2011-05-22T13:37:40Z</time></trkpt><trkpt lat="50.040768" lon="14.136051"><ele>296.22</ele><time>2011-05-22T13:37:51Z</time></trkpt><trkpt lat="50.040771" lon="14.136050"><ele>296.70</ele><time>2011-05-22T13:38:27Z</time></trkpt><trkpt lat="50.040768" lon="14.136054"><ele>298.15</ele><time>2011-05-22T13:38:59Z</time></trkpt><trkpt lat="50.040768" lon="14.136054"><ele>298.15</ele><time>2011-05-22T13:39:22Z</time></trkpt><trkpt lat="50.040768" lon="14.136047"><ele>298.15</ele><time>2011-05-22T13:39:44Z</time></trkpt><trkpt lat="50.040771" lon="14.136072"><ele>299.11</ele><time>2011-05-22T13:40:01Z</time></trkpt><trkpt lat="50.040787" lon="14.136084"><ele>298.63</ele><time>2011-05-22T13:40:04Z</time></trkpt><trkpt lat="50.040783" lon="14.136098"><ele>298.63</ele><time>2011-05-22T13:40:18Z</time></trkpt><trkpt lat="50.040802" lon="14.136116"><ele>298.63</ele><time>2011-05-22T13:40:31Z</time></trkpt><trkpt lat="50.040817" lon="14.136118"><ele>299.11</ele><time>2011-05-22T13:40:50Z</time></trkpt><trkpt lat="50.040840" lon="14.136082"><ele>298.63</ele><time>2011-05-22T13:41:05Z</time></trkpt><trkpt lat="50.040897" lon="14.136144"><ele>299.11</ele><time>2011-05-22T13:41:17Z</time></trkpt><trkpt lat="50.040901" lon="14.136171"><ele>299.59</ele><time>2011-05-22T13:41:18Z</time></trkpt><trkpt lat="50.040897" lon="14.136209"><ele>299.11</ele><time>2011-05-22T13:41:19Z</time></trkpt><trkpt lat="50.040894" lon="14.136250"><ele>299.11</ele><time>2011-05-22T13:41:20Z</time></trkpt><trkpt lat="50.040882" lon="14.136293"><ele>299.11</ele><time>2011-05-22T13:41:21Z</time></trkpt><trkpt lat="50.040867" lon="14.136339"><ele>299.11</ele><time>2011-05-22T13:41:22Z</time></trkpt><trkpt lat="50.040852" lon="14.136385"><ele>298.63</ele><time>2011-05-22T13:41:23Z</time></trkpt><trkpt lat="50.040829" lon="14.136430"><ele>298.15</ele><time>2011-05-22T13:41:24Z</time></trkpt><trkpt lat="50.040287" lon="14.137030"><ele>295.74</ele><time>2011-05-22T13:41:37Z</time></trkpt><trkpt lat="50.039925" lon="14.137376"><ele>296.70</ele><time>2011-05-22T13:41:49Z</time></trkpt><trkpt lat="50.039673" lon="14.137904"><ele>296.70</ele><time>2011-05-22T13:42:01Z</time></trkpt><trkpt lat="50.039749" lon="14.138671"><ele>296.70</ele><time>2011-05-22T13:42:15Z</time></trkpt><trkpt lat="50.039719" lon="14.139371"><ele>296.70</ele><time>2011-05-22T13:42:28Z</time></trkpt><trkpt lat="50.039299" lon="14.139912"><ele>297.18</ele><time>2011-05-22T13:42:41Z</time></trkpt><trkpt lat="50.039261" lon="14.140741"><ele>296.70</ele><time>2011-05-22T13:42:55Z</time></trkpt><trkpt lat="50.039192" lon="14.141606"><ele>295.74</ele><time>2011-05-22T13:43:11Z</time></trkpt><trkpt lat="50.038994" lon="14.142379"><ele>296.22</ele><time>2011-05-22T13:43:26Z</time></trkpt><trkpt lat="50.038651" lon="14.142948"><ele>295.74</ele><time>2011-05-22T13:43:42Z</time></trkpt><trkpt lat="50.038288" lon="14.143449"><ele>297.18</ele><time>2011-05-22T13:43:58Z</time></trkpt><trkpt lat="50.037888" lon="14.143867"><ele>297.67</ele><time>2011-05-22T13:44:15Z</time></trkpt><trkpt lat="50.037346" lon="14.143940"><ele>297.18</ele><time>2011-05-22T13:44:30Z</time></trkpt><trkpt lat="50.036888" lon="14.143903"><ele>296.22</ele><time>2011-05-22T13:44:46Z</time></trkpt><trkpt lat="50.036579" lon="14.144238"><ele>296.22</ele><time>2011-05-22T13:45:00Z</time></trkpt><trkpt lat="50.036480" lon="14.144979"><ele>297.18</ele><time>2011-05-22T13:45:13Z</time></trkpt><trkpt lat="50.036407" lon="14.145660"><ele>297.18</ele><time>2011-05-22T13:45:27Z</time></trkpt><trkpt lat="50.036274" lon="14.146135"><ele>296.22</ele><time>2011-05-22T13:45:40Z</time></trkpt><trkpt lat="50.036243" lon="14.146249"><ele>296.22</ele><time>2011-05-22T13:45:57Z</time></trkpt><trkpt lat="50.036282" lon="14.146976"><ele>295.74</ele><time>2011-05-22T13:46:12Z</time></trkpt><trkpt lat="50.036263" lon="14.147807"><ele>296.70</ele><time>2011-05-22T13:46:28Z</time></trkpt><trkpt lat="50.036274" lon="14.148791"><ele>297.67</ele><time>2011-05-22T13:46:47Z</time></trkpt><trkpt lat="50.036350" lon="14.149357"><ele>299.11</ele><time>2011-05-22T13:47:00Z</time></trkpt><trkpt lat="50.036304" lon="14.149464"><ele>298.63</ele><time>2011-05-22T13:47:08Z</time></trkpt><trkpt lat="50.035934" lon="14.149213"><ele>296.22</ele><time>2011-05-22T13:47:19Z</time></trkpt><trkpt lat="50.035545" lon="14.148955"><ele>294.30</ele><time>2011-05-22T13:47:27Z</time></trkpt><trkpt lat="50.034855" lon="14.148479"><ele>293.34</ele><time>2011-05-22T13:47:38Z</time></trkpt><trkpt lat="50.034286" lon="14.148093"><ele>290.46</ele><time>2011-05-22T13:47:47Z</time></trkpt><trkpt lat="50.034050" lon="14.147948"><ele>289.97</ele><time>2011-05-22T13:47:52Z</time></trkpt><trkpt lat="50.033974" lon="14.147910"><ele>290.46</ele><time>2011-05-22T13:47:55Z</time></trkpt><trkpt lat="50.033928" lon="14.147892"><ele>289.49</ele><time>2011-05-22T13:47:56Z</time></trkpt><trkpt lat="50.033924" lon="14.147911"><ele>290.46</ele><time>2011-05-22T13:47:57Z</time></trkpt><trkpt lat="50.033936" lon="14.147925"><ele>290.94</ele><time>2011-05-22T13:47:58Z</time></trkpt><trkpt lat="50.033951" lon="14.147934"><ele>290.46</ele><time>2011-05-22T13:47:59Z</time></trkpt><trkpt lat="50.033970" lon="14.147943"><ele>288.53</ele><time>2011-05-22T13:48:00Z</time></trkpt><trkpt lat="50.033993" lon="14.147954"><ele>289.49</ele><time>2011-05-22T13:48:01Z</time></trkpt><trkpt lat="50.034031" lon="14.147982"><ele>290.46</ele><time>2011-05-22T13:48:03Z</time></trkpt><trkpt lat="50.034130" lon="14.148023"><ele>290.46</ele><time>2011-05-22T13:48:07Z</time></trkpt><trkpt lat="50.034142" lon="14.148041"><ele>291.42</ele><time>2011-05-22T13:48:08Z</time></trkpt><trkpt lat="50.034153" lon="14.148062"><ele>290.94</ele><time>2011-05-22T13:48:09Z</time></trkpt><trkpt lat="50.034161" lon="14.148086"><ele>290.94</ele><time>2011-05-22T13:48:10Z</time></trkpt><trkpt lat="50.034157" lon="14.148116"><ele>290.46</ele><time>2011-05-22T13:48:11Z</time></trkpt><trkpt lat="50.034149" lon="14.148149"><ele>290.94</ele><time>2011-05-22T13:48:12Z</time></trkpt><trkpt lat="50.034134" lon="14.148185"><ele>290.94</ele><time>2011-05-22T13:48:13Z</time></trkpt><trkpt lat="50.034122" lon="14.148226"><ele>290.94</ele><time>2011-05-22T13:48:14Z</time></trkpt><trkpt lat="50.033993" lon="14.148735"><ele>291.42</ele><time>2011-05-22T13:48:26Z</time></trkpt><trkpt lat="50.034016" lon="14.148815"><ele>291.42</ele><time>2011-05-22T13:48:29Z</time></trkpt><trkpt lat="50.034039" lon="14.148829"><ele>291.42</ele><time>2011-05-22T13:48:30Z</time></trkpt><trkpt lat="50.034065" lon="14.148861"><ele>291.42</ele><time>2011-05-22T13:48:32Z</time></trkpt><trkpt lat="50.034054" lon="14.148864"><ele>291.42</ele><time>2011-05-22T13:48:42Z</time></trkpt><trkpt lat="50.034061" lon="14.148856"><ele>291.42</ele><time>2011-05-22T13:48:59Z</time></trkpt><trkpt lat="50.034058" lon="14.148849"><ele>291.90</ele><time>2011-05-22T13:49:18Z</time></trkpt><trkpt lat="50.034058" lon="14.148849"><ele>291.42</ele><time>2011-05-22T13:49:31Z</time></trkpt><trkpt lat="50.034058" lon="14.148849"><ele>291.90</ele><time>2011-05-22T13:49:52Z</time></trkpt><trkpt lat="50.034061" lon="14.148846"><ele>291.90</ele><time>2011-05-22T13:50:13Z</time></trkpt><trkpt lat="50.034046" lon="14.148827"><ele>291.42</ele><time>2011-05-22T13:50:24Z</time></trkpt><trkpt lat="50.034035" lon="14.148815"><ele>291.90</ele><time>2011-05-22T13:50:25Z</time></trkpt><trkpt lat="50.034023" lon="14.148797"><ele>291.90</ele><time>2011-05-22T13:50:26Z</time></trkpt><trkpt lat="50.034016" lon="14.148767"><ele>291.90</ele><time>2011-05-22T13:50:27Z</time></trkpt><trkpt lat="50.034019" lon="14.148732"><ele>291.42</ele><time>2011-05-22T13:50:28Z</time></trkpt><trkpt lat="50.034027" lon="14.148689"><ele>291.90</ele><time>2011-05-22T13:50:29Z</time></trkpt><trkpt lat="50.034031" lon="14.148647"><ele>291.90</ele><time>2011-05-22T13:50:30Z</time></trkpt><trkpt lat="50.034039" lon="14.148602"><ele>291.42</ele><time>2011-05-22T13:50:31Z</time></trkpt><trkpt lat="50.034195" lon="14.148045"><ele>290.94</ele><time>2011-05-22T13:50:44Z</time></trkpt><trkpt lat="50.033852" lon="14.147807"><ele>290.46</ele><time>2011-05-22T13:50:56Z</time></trkpt><trkpt lat="50.033539" lon="14.147618"><ele>290.46</ele><time>2011-05-22T13:51:02Z</time></trkpt><trkpt lat="50.033276" lon="14.147431"><ele>289.97</ele><time>2011-05-22T13:51:08Z</time></trkpt><trkpt lat="50.032593" lon="14.147006"><ele>289.49</ele><time>2011-05-22T13:51:24Z</time></trkpt><trkpt lat="50.031876" lon="14.146644"><ele>290.94</ele><time>2011-05-22T13:51:42Z</time></trkpt><trkpt lat="50.031540" lon="14.146226"><ele>289.97</ele><time>2011-05-22T13:51:54Z</time></trkpt><trkpt lat="50.031445" lon="14.146095"><ele>286.61</ele><time>2011-05-22T13:51:57Z</time></trkpt><trkpt lat="50.031418" lon="14.146049"><ele>289.97</ele><time>2011-05-22T13:51:58Z</time></trkpt><trkpt lat="50.031349" lon="14.145954"><ele>290.46</ele><time>2011-05-22T13:52:00Z</time></trkpt><trkpt lat="50.031315" lon="14.145901"><ele>289.97</ele><time>2011-05-22T13:52:01Z</time></trkpt><trkpt lat="50.031281" lon="14.145842"><ele>289.01</ele><time>2011-05-22T13:52:02Z</time></trkpt><trkpt lat="50.030663" lon="14.144956"><ele>289.49</ele><time>2011-05-22T13:52:17Z</time></trkpt><trkpt lat="50.029919" lon="14.143932"><ele>286.61</ele><time>2011-05-22T13:52:33Z</time></trkpt><trkpt lat="50.029228" lon="14.142984"><ele>286.13</ele><time>2011-05-22T13:52:47Z</time></trkpt><trkpt lat="50.028885" lon="14.142570"><ele>286.13</ele><time>2011-05-22T13:52:54Z</time></trkpt><trkpt lat="50.028748" lon="14.142424"><ele>285.65</ele><time>2011-05-22T13:52:57Z</time></trkpt><trkpt lat="50.028694" lon="14.142389"><ele>285.65</ele><time>2011-05-22T13:52:58Z</time></trkpt><trkpt lat="50.028637" lon="14.142365"><ele>285.17</ele><time>2011-05-22T13:52:59Z</time></trkpt><trkpt lat="50.028580" lon="14.142350"><ele>285.17</ele><time>2011-05-22T13:53:00Z</time></trkpt><trkpt lat="50.028522" lon="14.142342"><ele>285.17</ele><time>2011-05-22T13:53:01Z</time></trkpt><trkpt lat="50.028458" lon="14.142340"><ele>285.17</ele><time>2011-05-22T13:53:02Z</time></trkpt><trkpt lat="50.028400" lon="14.142345"><ele>285.17</ele><time>2011-05-22T13:53:03Z</time></trkpt><trkpt lat="50.028343" lon="14.142366"><ele>284.69</ele><time>2011-05-22T13:53:04Z</time></trkpt><trkpt lat="50.028290" lon="14.142392"><ele>284.21</ele><time>2011-05-22T13:53:05Z</time></trkpt><trkpt lat="50.028236" lon="14.142423"><ele>285.17</ele><time>2011-05-22T13:53:06Z</time></trkpt><trkpt lat="50.027477" lon="14.142850"><ele>284.21</ele><time>2011-05-22T13:53:20Z</time></trkpt><trkpt lat="50.026779" lon="14.143208"><ele>283.25</ele><time>2011-05-22T13:53:33Z</time></trkpt><trkpt lat="50.026115" lon="14.143551"><ele>283.25</ele><time>2011-05-22T13:53:46Z</time></trkpt><trkpt lat="50.025749" lon="14.143795"><ele>283.73</ele><time>2011-05-22T13:53:53Z</time></trkpt><trkpt lat="50.025074" lon="14.144200"><ele>282.77</ele><time>2011-05-22T13:54:06Z</time></trkpt><trkpt lat="50.024326" lon="14.144507"><ele>282.28</ele><time>2011-05-22T13:54:21Z</time></trkpt><trkpt lat="50.023567" lon="14.144933"><ele>282.28</ele><time>2011-05-22T13:54:36Z</time></trkpt><trkpt lat="50.023460" lon="14.145000"><ele>281.80</ele><time>2011-05-22T13:54:38Z</time></trkpt><trkpt lat="50.023167" lon="14.145163"><ele>282.28</ele><time>2011-05-22T13:54:44Z</time></trkpt><trkpt lat="50.023029" lon="14.145197"><ele>282.28</ele><time>2011-05-22T13:54:47Z</time></trkpt><trkpt lat="50.022984" lon="14.145200"><ele>282.28</ele><time>2011-05-22T13:54:48Z</time></trkpt><trkpt lat="50.022942" lon="14.145202"><ele>282.77</ele><time>2011-05-22T13:54:49Z</time></trkpt><trkpt lat="50.022800" lon="14.145198"><ele>282.28</ele><time>2011-05-22T13:54:52Z</time></trkpt><trkpt lat="50.022755" lon="14.145203"><ele>282.77</ele><time>2011-05-22T13:54:53Z</time></trkpt><trkpt lat="50.022713" lon="14.145212"><ele>282.77</ele><time>2011-05-22T13:54:54Z</time></trkpt><trkpt lat="50.022331" lon="14.144512"><ele>282.28</ele><time>2011-05-22T13:55:08Z</time></trkpt><trkpt lat="50.021851" lon="14.143368"><ele>280.84</ele><time>2011-05-22T13:55:24Z</time></trkpt><trkpt lat="50.021431" lon="14.142551"><ele>280.84</ele><time>2011-05-22T13:55:37Z</time></trkpt><trkpt lat="50.021347" lon="14.142408"><ele>280.36</ele><time>2011-05-22T13:55:40Z</time></trkpt><trkpt lat="50.021156" lon="14.142048"><ele>280.36</ele><time>2011-05-22T13:55:51Z</time></trkpt><trkpt lat="50.021160" lon="14.142051"><ele>281.32</ele><time>2011-05-22T13:56:10Z</time></trkpt><trkpt lat="50.021103" lon="14.142033"><ele>280.36</ele><time>2011-05-22T13:56:17Z</time></trkpt><trkpt lat="50.021076" lon="14.142015"><ele>279.88</ele><time>2011-05-22T13:56:18Z</time></trkpt><trkpt lat="50.021049" lon="14.141994"><ele>279.88</ele><time>2011-05-22T13:56:19Z</time></trkpt><trkpt lat="50.021019" lon="14.141978"><ele>279.88</ele><time>2011-05-22T13:56:20Z</time></trkpt><trkpt lat="50.020985" lon="14.141962"><ele>279.88</ele><time>2011-05-22T13:56:21Z</time></trkpt><trkpt lat="50.020950" lon="14.141951"><ele>279.88</ele><time>2011-05-22T13:56:22Z</time></trkpt><trkpt lat="50.020912" lon="14.141942"><ele>279.40</ele><time>2011-05-22T13:56:23Z</time></trkpt><trkpt lat="50.020672" lon="14.141877"><ele>278.92</ele><time>2011-05-22T13:56:29Z</time></trkpt><trkpt lat="50.020626" lon="14.141881"><ele>278.92</ele><time>2011-05-22T13:56:30Z</time></trkpt><trkpt lat="50.020390" lon="14.141918"><ele>279.40</ele><time>2011-05-22T13:56:35Z</time></trkpt><trkpt lat="50.020275" lon="14.141938"><ele>278.44</ele><time>2011-05-22T13:56:37Z</time></trkpt><trkpt lat="50.019428" lon="14.142222"><ele>277.00</ele><time>2011-05-22T13:56:52Z</time></trkpt><trkpt lat="50.019054" lon="14.142314"><ele>276.52</ele><time>2011-05-22T13:56:59Z</time></trkpt><trkpt lat="50.018955" lon="14.142311"><ele>276.04</ele><time>2011-05-22T13:57:01Z</time></trkpt><trkpt lat="50.018734" lon="14.142222"><ele>277.48</ele><time>2011-05-22T13:57:06Z</time></trkpt><trkpt lat="50.018600" lon="14.142155"><ele>276.52</ele><time>2011-05-22T13:57:10Z</time></trkpt><trkpt lat="50.018574" lon="14.142167"><ele>276.52</ele><time>2011-05-22T13:57:11Z</time></trkpt><trkpt lat="50.018494" lon="14.142348"><ele>277.96</ele><time>2011-05-22T13:57:18Z</time></trkpt><trkpt lat="50.018497" lon="14.142383"><ele>278.44</ele><time>2011-05-22T13:57:19Z</time></trkpt><trkpt lat="50.018494" lon="14.142420"><ele>277.96</ele><time>2011-05-22T13:57:20Z</time></trkpt><trkpt lat="50.018463" lon="14.143023"><ele>277.96</ele><time>2011-05-22T13:57:34Z</time></trkpt><trkpt lat="50.018436" lon="14.143581"><ele>278.92</ele><time>2011-05-22T13:57:48Z</time></trkpt><trkpt lat="50.018417" lon="14.143849"><ele>282.28</ele><time>2011-05-22T13:57:56Z</time></trkpt><trkpt lat="50.018394" lon="14.143951"><ele>278.92</ele><time>2011-05-22T13:57:59Z</time></trkpt><trkpt lat="50.018147" lon="14.144507"><ele>277.96</ele><time>2011-05-22T13:58:13Z</time></trkpt><trkpt lat="50.018070" lon="14.144670"><ele>277.48</ele><time>2011-05-22T13:58:16Z</time></trkpt><trkpt lat="50.018021" lon="14.144790"><ele>277.00</ele><time>2011-05-22T13:58:18Z</time></trkpt><trkpt lat="50.017666" lon="14.145545"><ele>277.00</ele><time>2011-05-22T13:58:33Z</time></trkpt><trkpt lat="50.017311" lon="14.145947"><ele>277.96</ele><time>2011-05-22T13:58:48Z</time></trkpt><trkpt lat="50.017033" lon="14.146530"><ele>278.92</ele><time>2011-05-22T13:59:04Z</time></trkpt><trkpt lat="50.016998" lon="14.146588"><ele>278.92</ele><time>2011-05-22T13:59:13Z</time></trkpt><trkpt lat="50.017178" lon="14.146185"><ele>278.44</ele><time>2011-05-22T13:59:22Z</time></trkpt><trkpt lat="50.017490" lon="14.145751"><ele>277.96</ele><time>2011-05-22T13:59:35Z</time></trkpt><trkpt lat="50.017490" lon="14.145751"><ele>277.96</ele><time>2011-05-22T14:00:04Z</time></trkpt><trkpt lat="50.017437" lon="14.145824"><ele>277.96</ele><time>2011-05-22T14:00:22Z</time></trkpt><trkpt lat="50.017410" lon="14.145848"><ele>277.00</ele><time>2011-05-22T14:00:28Z</time></trkpt><trkpt lat="50.017395" lon="14.145859"><ele>277.96</ele><time>2011-05-22T14:00:29Z</time></trkpt><trkpt lat="50.017376" lon="14.145877"><ele>277.00</ele><time>2011-05-22T14:00:30Z</time></trkpt><trkpt lat="50.017353" lon="14.145901"><ele>277.00</ele><time>2011-05-22T14:00:31Z</time></trkpt><trkpt lat="50.017334" lon="14.145930"><ele>277.00</ele><time>2011-05-22T14:00:32Z</time></trkpt><trkpt lat="50.017315" lon="14.145964"><ele>277.00</ele><time>2011-05-22T14:00:33Z</time></trkpt><trkpt lat="50.017292" lon="14.145998"><ele>277.00</ele><time>2011-05-22T14:00:34Z</time></trkpt><trkpt lat="50.017269" lon="14.146031"><ele>277.00</ele><time>2011-05-22T14:00:35Z</time></trkpt><trkpt lat="50.017254" lon="14.146068"><ele>277.48</ele><time>2011-05-22T14:00:36Z</time></trkpt><trkpt lat="50.017246" lon="14.146104"><ele>277.48</ele><time>2011-05-22T14:00:37Z</time></trkpt><trkpt lat="50.017216" lon="14.146130"><ele>277.96</ele><time>2011-05-22T14:00:49Z</time></trkpt><trkpt lat="50.017181" lon="14.146179"><ele>277.00</ele><time>2011-05-22T14:01:08Z</time></trkpt><trkpt lat="50.016911" lon="14.146757"><ele>277.00</ele><time>2011-05-22T14:01:20Z</time></trkpt><trkpt lat="50.016472" lon="14.147560"><ele>278.44</ele><time>2011-05-22T14:01:35Z</time></trkpt><trkpt lat="50.016159" lon="14.147964"><ele>278.92</ele><time>2011-05-22T14:01:46Z</time></trkpt><trkpt lat="50.016014" lon="14.148100"><ele>278.44</ele><time>2011-05-22T14:01:50Z</time></trkpt><trkpt lat="50.015976" lon="14.148127"><ele>277.96</ele><time>2011-05-22T14:01:51Z</time></trkpt><trkpt lat="50.015934" lon="14.148152"><ele>279.88</ele><time>2011-05-22T14:01:52Z</time></trkpt><trkpt lat="50.015892" lon="14.148174"><ele>280.36</ele><time>2011-05-22T14:01:53Z</time></trkpt><trkpt lat="50.015854" lon="14.148192"><ele>280.36</ele><time>2011-05-22T14:01:54Z</time></trkpt><trkpt lat="50.015732" lon="14.148233"><ele>279.40</ele><time>2011-05-22T14:01:57Z</time></trkpt><trkpt lat="50.015686" lon="14.148250"><ele>279.40</ele><time>2011-05-22T14:01:58Z</time></trkpt><trkpt lat="50.015648" lon="14.148259"><ele>279.40</ele><time>2011-05-22T14:01:59Z</time></trkpt><trkpt lat="50.015606" lon="14.148261"><ele>279.88</ele><time>2011-05-22T14:02:00Z</time></trkpt><trkpt lat="50.015564" lon="14.148268"><ele>279.88</ele><time>2011-05-22T14:02:01Z</time></trkpt><trkpt lat="50.015522" lon="14.148286"><ele>279.88</ele><time>2011-05-22T14:02:02Z</time></trkpt><trkpt lat="50.015480" lon="14.148312"><ele>280.84</ele><time>2011-05-22T14:02:03Z</time></trkpt><trkpt lat="50.015434" lon="14.148336"><ele>278.92</ele><time>2011-05-22T14:02:04Z</time></trkpt><trkpt lat="50.015396" lon="14.148360"><ele>278.92</ele><time>2011-05-22T14:02:05Z</time></trkpt><trkpt lat="50.014992" lon="14.148678"><ele>275.56</ele><time>2011-05-22T14:02:15Z</time></trkpt><trkpt lat="50.014572" lon="14.149182"><ele>273.15</ele><time>2011-05-22T14:02:24Z</time></trkpt><trkpt lat="50.014225" lon="14.149662"><ele>273.63</ele><time>2011-05-22T14:02:35Z</time></trkpt><trkpt lat="50.013969" lon="14.149981"><ele>274.11</ele><time>2011-05-22T14:02:47Z</time></trkpt><trkpt lat="50.013935" lon="14.150030"><ele>274.59</ele><time>2011-05-22T14:02:49Z</time></trkpt><trkpt lat="50.013920" lon="14.150054"><ele>274.11</ele><time>2011-05-22T14:02:50Z</time></trkpt><trkpt lat="50.013908" lon="14.150084"><ele>274.59</ele><time>2011-05-22T14:02:51Z</time></trkpt><trkpt lat="50.013905" lon="14.150112"><ele>274.11</ele><time>2011-05-22T14:02:52Z</time></trkpt><trkpt lat="50.013901" lon="14.150139"><ele>273.63</ele><time>2011-05-22T14:02:53Z</time></trkpt><trkpt lat="50.013905" lon="14.150169"><ele>274.11</ele><time>2011-05-22T14:02:54Z</time></trkpt><trkpt lat="50.013908" lon="14.150199"><ele>274.59</ele><time>2011-05-22T14:02:55Z</time></trkpt><trkpt lat="50.013992" lon="14.150483"><ele>275.07</ele><time>2011-05-22T14:03:04Z</time></trkpt><trkpt lat="50.014000" lon="14.150517"><ele>275.07</ele><time>2011-05-22T14:03:05Z</time></trkpt><trkpt lat="50.014004" lon="14.150546"><ele>275.07</ele><time>2011-05-22T14:03:06Z</time></trkpt><trkpt lat="50.014011" lon="14.150574"><ele>274.59</ele><time>2011-05-22T14:03:07Z</time></trkpt><trkpt lat="50.014023" lon="14.150599"><ele>275.56</ele><time>2011-05-22T14:03:08Z</time></trkpt><trkpt lat="50.014034" lon="14.150624"><ele>275.07</ele><time>2011-05-22T14:03:09Z</time></trkpt><trkpt lat="50.014042" lon="14.150650"><ele>276.04</ele><time>2011-05-22T14:03:10Z</time></trkpt><trkpt lat="50.014122" lon="14.150929"><ele>276.52</ele><time>2011-05-22T14:03:18Z</time></trkpt><trkpt lat="50.013966" lon="14.151393"><ele>274.59</ele><time>2011-05-22T14:03:29Z</time></trkpt><trkpt lat="50.013916" lon="14.151461"><ele>274.59</ele><time>2011-05-22T14:03:30Z</time></trkpt><trkpt lat="50.013496" lon="14.152244"><ele>272.67</ele><time>2011-05-22T14:03:40Z</time></trkpt><trkpt lat="50.013424" lon="14.152382"><ele>272.19</ele><time>2011-05-22T14:03:42Z</time></trkpt><trkpt lat="50.013004" lon="14.152781"><ele>274.11</ele><time>2011-05-22T14:03:54Z</time></trkpt><trkpt lat="50.012745" lon="14.152836"><ele>275.07</ele><time>2011-05-22T14:04:06Z</time></trkpt><trkpt lat="50.012642" lon="14.152878"><ele>273.63</ele><time>2011-05-22T14:04:25Z</time></trkpt><trkpt lat="50.012478" lon="14.152901"><ele>272.67</ele><time>2011-05-22T14:04:30Z</time></trkpt><trkpt lat="50.012318" lon="14.152870"><ele>272.19</ele><time>2011-05-22T14:04:33Z</time></trkpt><trkpt lat="50.011707" lon="14.152745"><ele>271.71</ele><time>2011-05-22T14:04:46Z</time></trkpt><trkpt lat="50.011341" lon="14.152810"><ele>271.71</ele><time>2011-05-22T14:04:59Z</time></trkpt><trkpt lat="50.010853" lon="14.152847"><ele>272.19</ele><time>2011-05-22T14:05:14Z</time></trkpt><trkpt lat="50.010525" lon="14.153075"><ele>272.19</ele><time>2011-05-22T14:05:29Z</time></trkpt><trkpt lat="50.010204" lon="14.153508"><ele>274.59</ele><time>2011-05-22T14:05:45Z</time></trkpt><trkpt lat="50.010132" lon="14.153690"><ele>275.07</ele><time>2011-05-22T14:05:54Z</time></trkpt><trkpt lat="50.010124" lon="14.153686"><ele>276.04</ele><time>2011-05-22T14:06:08Z</time></trkpt><trkpt lat="50.010147" lon="14.153607"><ele>275.07</ele><time>2011-05-22T14:06:23Z</time></trkpt><trkpt lat="50.010159" lon="14.153565"><ele>274.59</ele><time>2011-05-22T14:06:25Z</time></trkpt><trkpt lat="50.010227" lon="14.153377"><ele>274.11</ele><time>2011-05-22T14:06:30Z</time></trkpt><trkpt lat="50.010536" lon="14.153022"><ele>272.67</ele><time>2011-05-22T14:06:44Z</time></trkpt><trkpt lat="50.010448" lon="14.153039"><ele>272.19</ele><time>2011-05-22T14:06:55Z</time></trkpt><trkpt lat="50.010189" lon="14.153172"><ele>272.19</ele><time>2011-05-22T14:07:07Z</time></trkpt><trkpt lat="50.010143" lon="14.153196"><ele>272.19</ele><time>2011-05-22T14:07:15Z</time></trkpt><trkpt lat="50.010086" lon="14.153234"><ele>272.19</ele><time>2011-05-22T14:07:22Z</time></trkpt><trkpt lat="50.010029" lon="14.153309"><ele>272.19</ele><time>2011-05-22T14:07:30Z</time></trkpt><trkpt lat="50.009964" lon="14.153292"><ele>270.27</ele><time>2011-05-22T14:07:46Z</time></trkpt><trkpt lat="50.009964" lon="14.153292"><ele>272.19</ele><time>2011-05-22T14:08:08Z</time></trkpt><trkpt lat="50.009960" lon="14.153296"><ele>271.23</ele><time>2011-05-22T14:08:14Z</time></trkpt><trkpt lat="50.009663" lon="14.153561"><ele>272.19</ele><time>2011-05-22T14:08:33Z</time></trkpt><trkpt lat="50.009411" lon="14.153623"><ele>272.67</ele><time>2011-05-22T14:08:49Z</time></trkpt><trkpt lat="50.009357" lon="14.153627"><ele>271.23</ele><time>2011-05-22T14:08:59Z</time></trkpt><trkpt lat="50.009327" lon="14.153633"><ele>272.19</ele><time>2011-05-22T14:09:01Z</time></trkpt><trkpt lat="50.009254" lon="14.153663"><ele>272.19</ele><time>2011-05-22T14:09:05Z</time></trkpt><trkpt lat="50.009083" lon="14.153707"><ele>271.71</ele><time>2011-05-22T14:09:21Z</time></trkpt><trkpt lat="50.009026" lon="14.153723"><ele>271.71</ele><time>2011-05-22T14:09:27Z</time></trkpt><trkpt lat="50.008831" lon="14.153855"><ele>270.75</ele><time>2011-05-22T14:09:45Z</time></trkpt><trkpt lat="50.008633" lon="14.154099"><ele>270.27</ele><time>2011-05-22T14:10:04Z</time></trkpt><trkpt lat="50.008564" lon="14.154187"><ele>269.31</ele><time>2011-05-22T14:10:16Z</time></trkpt><trkpt lat="50.008549" lon="14.154212"><ele>269.79</ele><time>2011-05-22T14:10:24Z</time></trkpt><trkpt lat="50.008350" lon="14.154589"><ele>268.83</ele><time>2011-05-22T14:10:40Z</time></trkpt><trkpt lat="50.008118" lon="14.154988"><ele>269.31</ele><time>2011-05-22T14:10:54Z</time></trkpt><trkpt lat="50.008102" lon="14.155032"><ele>268.83</ele><time>2011-05-22T14:10:59Z</time></trkpt><trkpt lat="50.008064" lon="14.155159"><ele>269.31</ele><time>2011-05-22T14:11:08Z</time></trkpt><trkpt lat="50.007946" lon="14.155396"><ele>268.83</ele><time>2011-05-22T14:11:23Z</time></trkpt><trkpt lat="50.007935" lon="14.155410"><ele>269.31</ele><time>2011-05-22T14:11:39Z</time></trkpt><trkpt lat="50.007927" lon="14.155417"><ele>268.83</ele><time>2011-05-22T14:11:55Z</time></trkpt><trkpt lat="50.007877" lon="14.155496"><ele>268.83</ele><time>2011-05-22T14:11:59Z</time></trkpt><trkpt lat="50.007626" lon="14.155810"><ele>268.83</ele><time>2011-05-22T14:12:13Z</time></trkpt><trkpt lat="50.007408" lon="14.156119"><ele>268.35</ele><time>2011-05-22T14:12:27Z</time></trkpt><trkpt lat="50.007103" lon="14.156079"><ele>268.83</ele><time>2011-05-22T14:12:40Z</time></trkpt><trkpt lat="50.007103" lon="14.156071"><ele>268.35</ele><time>2011-05-22T14:12:50Z</time></trkpt><trkpt lat="50.007019" lon="14.156029"><ele>268.83</ele><time>2011-05-22T14:13:04Z</time></trkpt><trkpt lat="50.006741" lon="14.155839"><ele>269.31</ele><time>2011-05-22T14:13:19Z</time></trkpt><trkpt lat="50.006256" lon="14.155523"><ele>269.31</ele><time>2011-05-22T14:13:37Z</time></trkpt><trkpt lat="50.005821" lon="14.155301"><ele>269.79</ele><time>2011-05-22T14:13:53Z</time></trkpt><trkpt lat="50.005329" lon="14.155062"><ele>271.23</ele><time>2011-05-22T14:14:12Z</time></trkpt><trkpt lat="50.004776" lon="14.154632"><ele>273.15</ele><time>2011-05-22T14:14:34Z</time></trkpt><trkpt lat="50.004681" lon="14.154435"><ele>273.15</ele><time>2011-05-22T14:14:46Z</time></trkpt><trkpt lat="50.004688" lon="14.154454"><ele>273.15</ele><time>2011-05-22T14:15:01Z</time></trkpt><trkpt lat="50.004696" lon="14.154464"><ele>273.15</ele><time>2011-05-22T14:15:12Z</time></trkpt><trkpt lat="50.004696" lon="14.154464"><ele>273.15</ele><time>2011-05-22T14:15:37Z</time></trkpt><trkpt lat="50.004700" lon="14.154444"><ele>272.67</ele><time>2011-05-22T14:15:55Z</time></trkpt><trkpt lat="50.004692" lon="14.154356"><ele>273.63</ele><time>2011-05-22T14:15:59Z</time></trkpt><trkpt lat="50.004711" lon="14.153980"><ele>276.52</ele><time>2011-05-22T14:16:13Z</time></trkpt><trkpt lat="50.004765" lon="14.153410"><ele>277.48</ele><time>2011-05-22T14:16:28Z</time></trkpt><trkpt lat="50.004757" lon="14.152733"><ele>277.96</ele><time>2011-05-22T14:16:43Z</time></trkpt><trkpt lat="50.004543" lon="14.152596"><ele>278.44</ele><time>2011-05-22T14:16:53Z</time></trkpt><trkpt lat="50.004044" lon="14.152695"><ele>276.52</ele><time>2011-05-22T14:17:08Z</time></trkpt><trkpt lat="50.003525" lon="14.152832"><ele>274.11</ele><time>2011-05-22T14:17:19Z</time></trkpt><trkpt lat="50.003464" lon="14.152873"><ele>272.67</ele><time>2011-05-22T14:17:20Z</time></trkpt><trkpt lat="50.003403" lon="14.152929"><ele>272.67</ele><time>2011-05-22T14:17:21Z</time></trkpt><trkpt lat="50.003342" lon="14.152997"><ele>271.23</ele><time>2011-05-22T14:17:22Z</time></trkpt><trkpt lat="50.003273" lon="14.153076"><ele>270.75</ele><time>2011-05-22T14:17:23Z</time></trkpt><trkpt lat="50.003067" lon="14.153344"><ele>267.38</ele><time>2011-05-22T14:17:26Z</time></trkpt><trkpt lat="50.002991" lon="14.153435"><ele>267.86</ele><time>2011-05-22T14:17:27Z</time></trkpt><trkpt lat="50.002682" lon="14.153769"><ele>265.46</ele><time>2011-05-22T14:17:31Z</time></trkpt><trkpt lat="50.002434" lon="14.153968"><ele>264.02</ele><time>2011-05-22T14:17:34Z</time></trkpt><trkpt lat="50.001900" lon="14.154343"><ele>264.98</ele><time>2011-05-22T14:17:43Z</time></trkpt><trkpt lat="50.001892" lon="14.154341"><ele>265.94</ele><time>2011-05-22T14:17:54Z</time></trkpt><trkpt lat="50.001892" lon="14.154341"><ele>265.94</ele><time>2011-05-22T14:17:58Z</time></trkpt><trkpt lat="50.001884" lon="14.154359"><ele>265.94</ele><time>2011-05-22T14:18:06Z</time></trkpt><trkpt lat="50.001869" lon="14.154387"><ele>265.46</ele><time>2011-05-22T14:18:07Z</time></trkpt><trkpt lat="50.001850" lon="14.154421"><ele>264.98</ele><time>2011-05-22T14:18:08Z</time></trkpt><trkpt lat="50.001797" lon="14.154564"><ele>264.98</ele><time>2011-05-22T14:18:11Z</time></trkpt><trkpt lat="50.001781" lon="14.154621"><ele>264.98</ele><time>2011-05-22T14:18:12Z</time></trkpt><trkpt lat="50.001644" lon="14.155353"><ele>264.98</ele><time>2011-05-22T14:18:25Z</time></trkpt><trkpt lat="50.001675" lon="14.155896"><ele>265.94</ele><time>2011-05-22T14:18:37Z</time></trkpt><trkpt lat="50.001720" lon="14.156520"><ele>268.35</ele><time>2011-05-22T14:18:53Z</time></trkpt><trkpt lat="50.001751" lon="14.157013"><ele>271.23</ele><time>2011-05-22T14:19:07Z</time></trkpt><trkpt lat="50.001637" lon="14.157490"><ele>274.11</ele><time>2011-05-22T14:19:22Z</time></trkpt><trkpt lat="50.001434" lon="14.157829"><ele>277.00</ele><time>2011-05-22T14:19:39Z</time></trkpt><trkpt lat="50.001183" lon="14.158180"><ele>278.92</ele><time>2011-05-22T14:19:58Z</time></trkpt><trkpt lat="50.000969" lon="14.158468"><ele>280.84</ele><time>2011-05-22T14:20:14Z</time></trkpt><trkpt lat="50.000740" lon="14.158803"><ele>279.88</ele><time>2011-05-22T14:20:28Z</time></trkpt><trkpt lat="50.000748" lon="14.158774"><ele>280.36</ele><time>2011-05-22T14:20:36Z</time></trkpt><trkpt lat="50.000748" lon="14.158774"><ele>281.32</ele><time>2011-05-22T14:21:02Z</time></trkpt><trkpt lat="50.000751" lon="14.158767"><ele>280.36</ele><time>2011-05-22T14:21:22Z</time></trkpt><trkpt lat="50.000755" lon="14.158771"><ele>280.36</ele><time>2011-05-22T14:21:38Z</time></trkpt><trkpt lat="50.000755" lon="14.158764"><ele>280.84</ele><time>2011-05-22T14:21:58Z</time></trkpt><trkpt lat="50.000759" lon="14.158804"><ele>280.36</ele><time>2011-05-22T14:22:13Z</time></trkpt><trkpt lat="50.000751" lon="14.158834"><ele>280.36</ele><time>2011-05-22T14:22:19Z</time></trkpt><trkpt lat="50.000744" lon="14.158854"><ele>280.84</ele><time>2011-05-22T14:22:20Z</time></trkpt><trkpt lat="50.000732" lon="14.158879"><ele>280.36</ele><time>2011-05-22T14:22:21Z</time></trkpt><trkpt lat="50.000717" lon="14.158907"><ele>280.36</ele><time>2011-05-22T14:22:22Z</time></trkpt><trkpt lat="50.000698" lon="14.158941"><ele>279.88</ele><time>2011-05-22T14:22:23Z</time></trkpt><trkpt lat="50.000286" lon="14.159598"><ele>276.52</ele><time>2011-05-22T14:22:36Z</time></trkpt><trkpt lat="49.999897" lon="14.160209"><ele>273.63</ele><time>2011-05-22T14:22:45Z</time></trkpt><trkpt lat="49.999847" lon="14.160288"><ele>273.15</ele><time>2011-05-22T14:22:46Z</time></trkpt><trkpt lat="49.999504" lon="14.160844"><ele>271.23</ele><time>2011-05-22T14:22:53Z</time></trkpt><trkpt lat="49.999165" lon="14.161516"><ele>267.38</ele><time>2011-05-22T14:23:02Z</time></trkpt><trkpt lat="49.999126" lon="14.161588"><ele>267.38</ele><time>2011-05-22T14:23:03Z</time></trkpt><trkpt lat="49.999043" lon="14.161720"><ele>266.42</ele><time>2011-05-22T14:23:05Z</time></trkpt><trkpt lat="49.998993" lon="14.161779"><ele>265.94</ele><time>2011-05-22T14:23:06Z</time></trkpt><trkpt lat="49.998940" lon="14.161834"><ele>265.46</ele><time>2011-05-22T14:23:07Z</time></trkpt><trkpt lat="49.998829" lon="14.161931"><ele>264.50</ele><time>2011-05-22T14:23:09Z</time></trkpt><trkpt lat="49.998421" lon="14.162148"><ele>265.94</ele><time>2011-05-22T14:23:19Z</time></trkpt><trkpt lat="49.998222" lon="14.161879"><ele>262.10</ele><time>2011-05-22T14:23:26Z</time></trkpt><trkpt lat="49.998077" lon="14.161623"><ele>264.02</ele><time>2011-05-22T14:23:36Z</time></trkpt><trkpt lat="49.998077" lon="14.161623"><ele>264.02</ele><time>2011-05-22T14:23:59Z</time></trkpt><trkpt lat="49.998035" lon="14.161556"><ele>264.02</ele><time>2011-05-22T14:24:02Z</time></trkpt><trkpt lat="49.998020" lon="14.161523"><ele>263.54</ele><time>2011-05-22T14:24:03Z</time></trkpt><trkpt lat="49.997635" lon="14.160775"><ele>262.58</ele><time>2011-05-22T14:24:18Z</time></trkpt><trkpt lat="49.997108" lon="14.159802"><ele>262.10</ele><time>2011-05-22T14:24:34Z</time></trkpt><trkpt lat="49.996563" lon="14.159081"><ele>262.58</ele><time>2011-05-22T14:24:49Z</time></trkpt><trkpt lat="49.996517" lon="14.159060"><ele>262.58</ele><time>2011-05-22T14:24:50Z</time></trkpt><trkpt lat="49.996326" lon="14.158994"><ele>262.58</ele><time>2011-05-22T14:24:54Z</time></trkpt><trkpt lat="49.995834" lon="14.158890"><ele>263.06</ele><time>2011-05-22T14:25:04Z</time></trkpt><trkpt lat="49.995438" lon="14.158764"><ele>264.50</ele><time>2011-05-22T14:25:15Z</time></trkpt><trkpt lat="49.995285" lon="14.158633"><ele>264.02</ele><time>2011-05-22T14:25:19Z</time></trkpt><trkpt lat="49.995033" lon="14.158303"><ele>263.54</ele><time>2011-05-22T14:25:26Z</time></trkpt><trkpt lat="49.994987" lon="14.158260"><ele>262.58</ele><time>2011-05-22T14:25:27Z</time></trkpt><trkpt lat="49.994686" lon="14.158005"><ele>262.58</ele><time>2011-05-22T14:25:36Z</time></trkpt><trkpt lat="49.994663" lon="14.158022"><ele>262.58</ele><time>2011-05-22T14:25:37Z</time></trkpt><trkpt lat="49.994640" lon="14.158043"><ele>262.10</ele><time>2011-05-22T14:25:38Z</time></trkpt><trkpt lat="49.994617" lon="14.158062"><ele>262.10</ele><time>2011-05-22T14:25:39Z</time></trkpt><trkpt lat="49.994606" lon="14.158084"><ele>262.10</ele><time>2011-05-22T14:25:40Z</time></trkpt><trkpt lat="49.994606" lon="14.158095"><ele>262.58</ele><time>2011-05-22T14:25:51Z</time></trkpt><trkpt lat="49.994610" lon="14.158113"><ele>262.58</ele><time>2011-05-22T14:25:58Z</time></trkpt><trkpt lat="49.994606" lon="14.158138"><ele>262.10</ele><time>2011-05-22T14:25:59Z</time></trkpt><trkpt lat="49.994595" lon="14.158168"><ele>262.10</ele><time>2011-05-22T14:26:00Z</time></trkpt><trkpt lat="49.994579" lon="14.158200"><ele>262.10</ele><time>2011-05-22T14:26:01Z</time></trkpt><trkpt lat="49.994560" lon="14.158237"><ele>261.62</ele><time>2011-05-22T14:26:02Z</time></trkpt><trkpt lat="49.994534" lon="14.158274"><ele>261.14</ele><time>2011-05-22T14:26:03Z</time></trkpt><trkpt lat="49.994179" lon="14.158714"><ele>261.62</ele><time>2011-05-22T14:26:14Z</time></trkpt><trkpt lat="49.993835" lon="14.159148"><ele>258.73</ele><time>2011-05-22T14:26:24Z</time></trkpt><trkpt lat="49.993652" lon="14.159374"><ele>258.73</ele><time>2011-05-22T14:26:29Z</time></trkpt><trkpt lat="49.993618" lon="14.159429"><ele>258.73</ele><time>2011-05-22T14:26:30Z</time></trkpt><trkpt lat="49.992996" lon="14.160247"><ele>259.69</ele><time>2011-05-22T14:26:45Z</time></trkpt><trkpt lat="49.992580" lon="14.160748"><ele>259.21</ele><time>2011-05-22T14:26:56Z</time></trkpt><trkpt lat="49.992531" lon="14.160783"><ele>259.21</ele><time>2011-05-22T14:26:57Z</time></trkpt><trkpt lat="49.992485" lon="14.160810"><ele>258.73</ele><time>2011-05-22T14:26:58Z</time></trkpt><trkpt lat="49.992435" lon="14.160830"><ele>258.73</ele><time>2011-05-22T14:26:59Z</time></trkpt><trkpt lat="49.992382" lon="14.160841"><ele>258.73</ele><time>2011-05-22T14:27:00Z</time></trkpt><trkpt lat="49.992329" lon="14.160846"><ele>258.25</ele><time>2011-05-22T14:27:01Z</time></trkpt><trkpt lat="49.992275" lon="14.160846"><ele>258.73</ele><time>2011-05-22T14:27:02Z</time></trkpt><trkpt lat="49.992222" lon="14.160839"><ele>258.25</ele><time>2011-05-22T14:27:03Z</time></trkpt><trkpt lat="49.992168" lon="14.160823"><ele>258.25</ele><time>2011-05-22T14:27:04Z</time></trkpt><trkpt lat="49.992073" lon="14.160784"><ele>258.25</ele><time>2011-05-22T14:27:06Z</time></trkpt><trkpt lat="49.992027" lon="14.160747"><ele>258.25</ele><time>2011-05-22T14:27:07Z</time></trkpt><trkpt lat="49.991982" lon="14.160707"><ele>257.77</ele><time>2011-05-22T14:27:08Z</time></trkpt><trkpt lat="49.991276" lon="14.160167"><ele>258.73</ele><time>2011-05-22T14:27:25Z</time></trkpt><trkpt lat="49.990780" lon="14.160120"><ele>261.62</ele><time>2011-05-22T14:27:40Z</time></trkpt><trkpt lat="49.990479" lon="14.159809"><ele>262.58</ele><time>2011-05-22T14:27:52Z</time></trkpt><trkpt lat="49.990040" lon="14.159413"><ele>263.54</ele><time>2011-05-22T14:28:07Z</time></trkpt><trkpt lat="49.989468" lon="14.159037"><ele>265.94</ele><time>2011-05-22T14:28:24Z</time></trkpt><trkpt lat="49.989002" lon="14.158768"><ele>267.38</ele><time>2011-05-22T14:28:40Z</time></trkpt><trkpt lat="49.988537" lon="14.158678"><ele>269.31</ele><time>2011-05-22T14:28:56Z</time></trkpt><trkpt lat="49.988071" lon="14.158627"><ele>271.71</ele><time>2011-05-22T14:29:13Z</time></trkpt><trkpt lat="49.987656" lon="14.158667"><ele>273.63</ele><time>2011-05-22T14:29:29Z</time></trkpt><trkpt lat="49.987526" lon="14.159074"><ele>275.07</ele><time>2011-05-22T14:29:43Z</time></trkpt><trkpt lat="49.987537" lon="14.159092"><ele>275.07</ele><time>2011-05-22T14:29:46Z</time></trkpt><trkpt lat="49.987553" lon="14.158987"><ele>276.52</ele><time>2011-05-22T14:30:02Z</time></trkpt><trkpt lat="49.987568" lon="14.158911"><ele>275.07</ele><time>2011-05-22T14:30:07Z</time></trkpt><trkpt lat="49.987610" lon="14.158783"><ele>275.07</ele><time>2011-05-22T14:30:21Z</time></trkpt><trkpt lat="49.987625" lon="14.158767"><ele>274.11</ele><time>2011-05-22T14:30:23Z</time></trkpt><trkpt lat="49.987892" lon="14.158637"><ele>273.15</ele><time>2011-05-22T14:30:35Z</time></trkpt><trkpt lat="49.988216" lon="14.158426"><ele>272.19</ele><time>2011-05-22T14:30:48Z</time></trkpt><trkpt lat="49.988232" lon="14.158424"><ele>270.27</ele><time>2011-05-22T14:30:50Z</time></trkpt><trkpt lat="49.988228" lon="14.158444"><ele>267.38</ele><time>2011-05-22T14:30:52Z</time></trkpt><trkpt lat="49.988228" lon="14.158444"><ele>268.83</ele><time>2011-05-22T14:30:53Z</time></trkpt><trkpt lat="49.988228" lon="14.158444"><ele>271.23</ele><time>2011-05-22T14:30:55Z</time></trkpt><trkpt lat="49.988228" lon="14.158444"><ele>266.90</ele><time>2011-05-22T14:30:58Z</time></trkpt><trkpt lat="49.988228" lon="14.158444"><ele>271.23</ele><time>2011-05-22T14:30:59Z</time></trkpt><trkpt lat="49.988243" lon="14.158437"><ele>270.27</ele><time>2011-05-22T14:31:07Z</time></trkpt><trkpt lat="49.988529" lon="14.158241"><ele>267.86</ele><time>2011-05-22T14:31:16Z</time></trkpt><trkpt lat="49.988617" lon="14.158150"><ele>267.38</ele><time>2011-05-22T14:31:18Z</time></trkpt><trkpt lat="49.988693" lon="14.158059"><ele>266.42</ele><time>2011-05-22T14:31:20Z</time></trkpt><trkpt lat="49.988777" lon="14.157965"><ele>265.46</ele><time>2011-05-22T14:31:27Z</time></trkpt><trkpt lat="49.988789" lon="14.157948"><ele>265.46</ele><time>2011-05-22T14:31:28Z</time></trkpt><trkpt lat="49.988800" lon="14.157923"><ele>264.98</ele><time>2011-05-22T14:31:29Z</time></trkpt><trkpt lat="49.988819" lon="14.157883"><ele>264.98</ele><time>2011-05-22T14:31:30Z</time></trkpt><trkpt lat="49.988945" lon="14.157459"><ele>261.62</ele><time>2011-05-22T14:31:37Z</time></trkpt><trkpt lat="49.988873" lon="14.157092"><ele>258.25</ele><time>2011-05-22T14:31:42Z</time></trkpt><trkpt lat="49.988834" lon="14.156992"><ele>257.77</ele><time>2011-05-22T14:31:43Z</time></trkpt><trkpt lat="49.988613" lon="14.156498"><ele>257.29</ele><time>2011-05-22T14:31:51Z</time></trkpt><trkpt lat="49.988522" lon="14.155802"><ele>255.37</ele><time>2011-05-22T14:32:05Z</time></trkpt><trkpt lat="49.988621" lon="14.155145"><ele>255.85</ele><time>2011-05-22T14:32:20Z</time></trkpt><trkpt lat="49.988628" lon="14.155121"><ele>255.85</ele><time>2011-05-22T14:32:21Z</time></trkpt><trkpt lat="49.988632" lon="14.155093"><ele>255.85</ele><time>2011-05-22T14:32:22Z</time></trkpt><trkpt lat="49.988636" lon="14.155060"><ele>256.33</ele><time>2011-05-22T14:32:23Z</time></trkpt><trkpt lat="49.988640" lon="14.155022"><ele>255.85</ele><time>2011-05-22T14:32:24Z</time></trkpt><trkpt lat="49.988640" lon="14.154979"><ele>256.81</ele><time>2011-05-22T14:32:25Z</time></trkpt><trkpt lat="49.988667" lon="14.154716"><ele>252.48</ele><time>2011-05-22T14:32:31Z</time></trkpt><trkpt lat="49.988670" lon="14.154672"><ele>255.85</ele><time>2011-05-22T14:32:32Z</time></trkpt><trkpt lat="49.988743" lon="14.154102"><ele>255.37</ele><time>2011-05-22T14:32:45Z</time></trkpt><trkpt lat="49.988647" lon="14.153516"><ele>254.89</ele><time>2011-05-22T14:32:57Z</time></trkpt><trkpt lat="49.988571" lon="14.153115"><ele>254.89</ele><time>2011-05-22T14:33:10Z</time></trkpt><trkpt lat="49.988487" lon="14.152725"><ele>253.93</ele><time>2011-05-22T14:33:23Z</time></trkpt><trkpt lat="49.988338" lon="14.152139"><ele>253.93</ele><time>2011-05-22T14:33:36Z</time></trkpt><trkpt lat="49.988213" lon="14.151522"><ele>253.93</ele><time>2011-05-22T14:33:51Z</time></trkpt><trkpt lat="49.988106" lon="14.151077"><ele>256.33</ele><time>2011-05-22T14:34:05Z</time></trkpt><trkpt lat="49.988102" lon="14.151068"><ele>256.33</ele><time>2011-05-22T14:34:11Z</time></trkpt><trkpt lat="49.988091" lon="14.151057"><ele>256.33</ele><time>2011-05-22T14:34:12Z</time></trkpt><trkpt lat="49.988079" lon="14.151051"><ele>256.33</ele><time>2011-05-22T14:34:13Z</time></trkpt><trkpt lat="49.987682" lon="14.150980"><ele>254.89</ele><time>2011-05-22T14:34:26Z</time></trkpt><trkpt lat="49.987362" lon="14.150945"><ele>255.37</ele><time>2011-05-22T14:34:34Z</time></trkpt><trkpt lat="49.987156" lon="14.151016"><ele>254.41</ele><time>2011-05-22T14:34:39Z</time></trkpt><trkpt lat="49.986855" lon="14.151344"><ele>253.93</ele><time>2011-05-22T14:34:47Z</time></trkpt><trkpt lat="49.986656" lon="14.151585"><ele>252.96</ele><time>2011-05-22T14:34:52Z</time></trkpt><trkpt lat="49.986206" lon="14.151836"><ele>252.48</ele><time>2011-05-22T14:35:01Z</time></trkpt><trkpt lat="49.985672" lon="14.151858"><ele>252.00</ele><time>2011-05-22T14:35:11Z</time></trkpt><trkpt lat="49.984814" lon="14.151954"><ele>252.48</ele><time>2011-05-22T14:35:27Z</time></trkpt><trkpt lat="49.984287" lon="14.151734"><ele>252.48</ele><time>2011-05-22T14:35:37Z</time></trkpt><trkpt lat="49.983913" lon="14.151192"><ele>252.00</ele><time>2011-05-22T14:35:47Z</time></trkpt><trkpt lat="49.983887" lon="14.151125"><ele>252.00</ele><time>2011-05-22T14:35:48Z</time></trkpt><trkpt lat="49.983860" lon="14.151056"><ele>252.00</ele><time>2011-05-22T14:35:49Z</time></trkpt><trkpt lat="49.983818" lon="14.150912"><ele>252.00</ele><time>2011-05-22T14:35:51Z</time></trkpt><trkpt lat="49.983582" lon="14.149796"><ele>252.96</ele><time>2011-05-22T14:36:06Z</time></trkpt><trkpt lat="49.983337" lon="14.148881"><ele>253.93</ele><time>2011-05-22T14:36:20Z</time></trkpt><trkpt lat="49.983318" lon="14.148818"><ele>253.93</ele><time>2011-05-22T14:36:21Z</time></trkpt><trkpt lat="49.982986" lon="14.147801"><ele>252.48</ele><time>2011-05-22T14:36:35Z</time></trkpt><trkpt lat="49.982918" lon="14.147578"><ele>252.48</ele><time>2011-05-22T14:36:38Z</time></trkpt><trkpt lat="49.982590" lon="14.146773"><ele>252.48</ele><time>2011-05-22T14:36:50Z</time></trkpt><trkpt lat="49.982555" lon="14.146716"><ele>252.48</ele><time>2011-05-22T14:36:51Z</time></trkpt><trkpt lat="49.982521" lon="14.146661"><ele>252.48</ele><time>2011-05-22T14:36:52Z</time></trkpt><trkpt lat="49.981964" lon="14.145797"><ele>252.00</ele><time>2011-05-22T14:37:07Z</time></trkpt><trkpt lat="49.981258" lon="14.144664"><ele>250.08</ele><time>2011-05-22T14:37:25Z</time></trkpt><trkpt lat="49.980728" lon="14.144099"><ele>250.56</ele><time>2011-05-22T14:37:37Z</time></trkpt><trkpt lat="49.980057" lon="14.143353"><ele>251.04</ele><time>2011-05-22T14:37:52Z</time></trkpt><trkpt lat="49.979500" lon="14.142509"><ele>251.52</ele><time>2011-05-22T14:38:08Z</time></trkpt><trkpt lat="49.979168" lon="14.141585"><ele>253.44</ele><time>2011-05-22T14:38:23Z</time></trkpt><trkpt lat="49.979099" lon="14.140822"><ele>256.81</ele><time>2011-05-22T14:38:41Z</time></trkpt><trkpt lat="49.979149" lon="14.140114"><ele>258.73</ele><time>2011-05-22T14:38:58Z</time></trkpt><trkpt lat="49.979160" lon="14.139918"><ele>259.21</ele><time>2011-05-22T14:39:10Z</time></trkpt><trkpt lat="49.979156" lon="14.139894"><ele>258.25</ele><time>2011-05-22T14:39:33Z</time></trkpt><trkpt lat="49.979156" lon="14.139875"><ele>258.73</ele><time>2011-05-22T14:39:34Z</time></trkpt><trkpt lat="49.979153" lon="14.139851"><ele>258.25</ele><time>2011-05-22T14:39:35Z</time></trkpt><trkpt lat="49.979141" lon="14.139299"><ele>254.89</ele><time>2011-05-22T14:39:44Z</time></trkpt><trkpt lat="49.979141" lon="14.137871"><ele>252.48</ele><time>2011-05-22T14:40:00Z</time></trkpt><trkpt lat="49.979084" lon="14.136666"><ele>250.56</ele><time>2011-05-22T14:40:13Z</time></trkpt><trkpt lat="49.979065" lon="14.136576"><ele>250.08</ele><time>2011-05-22T14:40:14Z</time></trkpt><trkpt lat="49.979038" lon="14.136486"><ele>250.08</ele><time>2011-05-22T14:40:15Z</time></trkpt><trkpt lat="49.978977" lon="14.136301"><ele>249.12</ele><time>2011-05-22T14:40:17Z</time></trkpt><trkpt lat="49.978893" lon="14.136125"><ele>249.12</ele><time>2011-05-22T14:40:19Z</time></trkpt><trkpt lat="49.978348" lon="14.135315"><ele>248.16</ele><time>2011-05-22T14:40:31Z</time></trkpt><trkpt lat="49.978313" lon="14.135276"><ele>248.64</ele><time>2011-05-22T14:40:32Z</time></trkpt><trkpt lat="49.978279" lon="14.135243"><ele>249.12</ele><time>2011-05-22T14:40:33Z</time></trkpt><trkpt lat="49.978249" lon="14.135218"><ele>249.60</ele><time>2011-05-22T14:40:34Z</time></trkpt><trkpt lat="49.978210" lon="14.135201"><ele>249.60</ele><time>2011-05-22T14:40:35Z</time></trkpt><trkpt lat="49.978172" lon="14.135186"><ele>249.12</ele><time>2011-05-22T14:40:36Z</time></trkpt><trkpt lat="49.977879" lon="14.135111"><ele>249.12</ele><time>2011-05-22T14:40:43Z</time></trkpt><trkpt lat="49.977833" lon="14.135118"><ele>249.12</ele><time>2011-05-22T14:40:44Z</time></trkpt><trkpt lat="49.977787" lon="14.135132"><ele>249.60</ele><time>2011-05-22T14:40:45Z</time></trkpt><trkpt lat="49.977737" lon="14.135146"><ele>249.60</ele><time>2011-05-22T14:40:46Z</time></trkpt><trkpt lat="49.977688" lon="14.135159"><ele>249.12</ele><time>2011-05-22T14:40:47Z</time></trkpt><trkpt lat="49.977276" lon="14.135074"><ele>252.00</ele><time>2011-05-22T14:40:59Z</time></trkpt><trkpt lat="49.977024" lon="14.134725"><ele>251.04</ele><time>2011-05-22T14:41:08Z</time></trkpt><trkpt lat="49.976963" lon="14.134595"><ele>250.08</ele><time>2011-05-22T14:41:10Z</time></trkpt><trkpt lat="49.976933" lon="14.134524"><ele>250.08</ele><time>2011-05-22T14:41:11Z</time></trkpt><trkpt lat="49.976349" lon="14.133693"><ele>248.64</ele><time>2011-05-22T14:41:25Z</time></trkpt><trkpt lat="49.975578" lon="14.132884"><ele>247.20</ele><time>2011-05-22T14:41:40Z</time></trkpt><trkpt lat="49.975475" lon="14.132792"><ele>246.72</ele><time>2011-05-22T14:41:42Z</time></trkpt><trkpt lat="49.975372" lon="14.132721"><ele>246.72</ele><time>2011-05-22T14:41:44Z</time></trkpt><trkpt lat="49.975216" lon="14.132656"><ele>246.72</ele><time>2011-05-22T14:41:47Z</time></trkpt><trkpt lat="49.975163" lon="14.132649"><ele>246.72</ele><time>2011-05-22T14:41:48Z</time></trkpt><trkpt lat="49.975060" lon="14.132652"><ele>247.68</ele><time>2011-05-22T14:41:50Z</time></trkpt><trkpt lat="49.975014" lon="14.132663"><ele>248.16</ele><time>2011-05-22T14:41:51Z</time></trkpt><trkpt lat="49.974968" lon="14.132680"><ele>248.16</ele><time>2011-05-22T14:41:52Z</time></trkpt><trkpt lat="49.974827" lon="14.132753"><ele>248.64</ele><time>2011-05-22T14:41:55Z</time></trkpt><trkpt lat="49.974777" lon="14.132794"><ele>248.64</ele><time>2011-05-22T14:41:56Z</time></trkpt><trkpt lat="49.974503" lon="14.133126"><ele>249.12</ele><time>2011-05-22T14:42:04Z</time></trkpt><trkpt lat="49.974506" lon="14.133174"><ele>248.64</ele><time>2011-05-22T14:42:06Z</time></trkpt><trkpt lat="49.974590" lon="14.133095"><ele>248.16</ele><time>2011-05-22T14:42:11Z</time></trkpt><trkpt lat="49.974606" lon="14.133015"><ele>249.60</ele><time>2011-05-22T14:42:20Z</time></trkpt><trkpt lat="49.974606" lon="14.133015"><ele>249.60</ele><time>2011-05-22T14:42:43Z</time></trkpt><trkpt lat="49.974567" lon="14.133070"><ele>249.12</ele><time>2011-05-22T14:42:47Z</time></trkpt><trkpt lat="49.974285" lon="14.133589"><ele>249.60</ele><time>2011-05-22T14:42:59Z</time></trkpt><trkpt lat="49.974140" lon="14.133930"><ele>249.12</ele><time>2011-05-22T14:43:05Z</time></trkpt><trkpt lat="49.973877" lon="14.134988"><ele>247.68</ele><time>2011-05-22T14:43:20Z</time></trkpt><trkpt lat="49.973682" lon="14.136258"><ele>248.16</ele><time>2011-05-22T14:43:37Z</time></trkpt><trkpt lat="49.973587" lon="14.136552"><ele>247.20</ele><time>2011-05-22T14:43:46Z</time></trkpt><trkpt lat="49.973587" lon="14.136552"><ele>248.64</ele><time>2011-05-22T14:43:48Z</time></trkpt><trkpt lat="49.973579" lon="14.136570"><ele>248.16</ele><time>2011-05-22T14:44:16Z</time></trkpt><trkpt lat="49.973572" lon="14.136588"><ele>248.64</ele><time>2011-05-22T14:44:17Z</time></trkpt><trkpt lat="49.973553" lon="14.136610"><ele>247.68</ele><time>2011-05-22T14:44:18Z</time></trkpt><trkpt lat="49.973537" lon="14.136637"><ele>247.68</ele><time>2011-05-22T14:44:19Z</time></trkpt><trkpt lat="49.973518" lon="14.136665"><ele>247.68</ele><time>2011-05-22T14:44:20Z</time></trkpt><trkpt lat="49.973495" lon="14.136698"><ele>247.20</ele><time>2011-05-22T14:44:21Z</time></trkpt><trkpt lat="49.973473" lon="14.136731"><ele>247.20</ele><time>2011-05-22T14:44:22Z</time></trkpt><trkpt lat="49.973091" lon="14.136963"><ele>247.20</ele><time>2011-05-22T14:44:33Z</time></trkpt><trkpt lat="49.972767" lon="14.137013"><ele>246.23</ele><time>2011-05-22T14:44:40Z</time></trkpt><trkpt lat="49.972717" lon="14.136990"><ele>246.23</ele><time>2011-05-22T14:44:41Z</time></trkpt><trkpt lat="49.972675" lon="14.136939"><ele>246.23</ele><time>2011-05-22T14:44:42Z</time></trkpt><trkpt lat="49.972569" lon="14.136787"><ele>247.20</ele><time>2011-05-22T14:44:45Z</time></trkpt><trkpt lat="49.972546" lon="14.136723"><ele>247.68</ele><time>2011-05-22T14:44:46Z</time></trkpt><trkpt lat="49.972527" lon="14.136656"><ele>247.68</ele><time>2011-05-22T14:44:47Z</time></trkpt><trkpt lat="49.972450" lon="14.135929"><ele>250.56</ele><time>2011-05-22T14:44:59Z</time></trkpt><trkpt lat="49.972446" lon="14.135082"><ele>252.48</ele><time>2011-05-22T14:45:13Z</time></trkpt><trkpt lat="49.972569" lon="14.134317"><ele>252.48</ele><time>2011-05-22T14:45:26Z</time></trkpt><trkpt lat="49.972694" lon="14.133457"><ele>251.04</ele><time>2011-05-22T14:45:37Z</time></trkpt><trkpt lat="49.972801" lon="14.132985"><ele>250.56</ele><time>2011-05-22T14:45:43Z</time></trkpt><trkpt lat="49.972847" lon="14.132834"><ele>250.56</ele><time>2011-05-22T14:45:45Z</time></trkpt><trkpt lat="49.972874" lon="14.132768"><ele>250.56</ele><time>2011-05-22T14:45:46Z</time></trkpt><trkpt lat="49.973053" lon="14.132237"><ele>250.56</ele><time>2011-05-22T14:45:53Z</time></trkpt><trkpt lat="49.973461" lon="14.131198"><ele>249.60</ele><time>2011-05-22T14:46:06Z</time></trkpt><trkpt lat="49.973663" lon="14.130583"><ele>250.56</ele><time>2011-05-22T14:46:14Z</time></trkpt><trkpt lat="49.973679" lon="14.130506"><ele>250.56</ele><time>2011-05-22T14:46:15Z</time></trkpt><trkpt lat="49.973682" lon="14.130425"><ele>251.04</ele><time>2011-05-22T14:46:16Z</time></trkpt><trkpt lat="49.973701" lon="14.130064"><ele>250.08</ele><time>2011-05-22T14:46:20Z</time></trkpt><trkpt lat="49.973694" lon="14.129982"><ele>250.08</ele><time>2011-05-22T14:46:21Z</time></trkpt><trkpt lat="49.973682" lon="14.129906"><ele>249.60</ele><time>2011-05-22T14:46:22Z</time></trkpt><trkpt lat="49.973660" lon="14.129823"><ele>249.12</ele><time>2011-05-22T14:46:23Z</time></trkpt><trkpt lat="49.973625" lon="14.129745"><ele>249.12</ele><time>2011-05-22T14:46:24Z</time></trkpt><trkpt lat="49.973583" lon="14.129676"><ele>248.64</ele><time>2011-05-22T14:46:25Z</time></trkpt><trkpt lat="49.973526" lon="14.129604"><ele>248.64</ele><time>2011-05-22T14:46:26Z</time></trkpt><trkpt lat="49.973465" lon="14.129542"><ele>248.16</ele><time>2011-05-22T14:46:27Z</time></trkpt><trkpt lat="49.973408" lon="14.129490"><ele>248.16</ele><time>2011-05-22T14:46:28Z</time></trkpt><trkpt lat="49.973343" lon="14.129454"><ele>248.16</ele><time>2011-05-22T14:46:29Z</time></trkpt><trkpt lat="49.973156" lon="14.129363"><ele>247.20</ele><time>2011-05-22T14:46:32Z</time></trkpt><trkpt lat="49.972687" lon="14.129025"><ele>243.35</ele><time>2011-05-22T14:46:39Z</time></trkpt><trkpt lat="49.972191" lon="14.128736"><ele>239.99</ele><time>2011-05-22T14:46:45Z</time></trkpt><trkpt lat="49.971367" lon="14.128737"><ele>240.47</ele><time>2011-05-22T14:46:56Z</time></trkpt><trkpt lat="49.970905" lon="14.129075"><ele>241.91</ele><time>2011-05-22T14:47:07Z</time></trkpt><trkpt lat="49.970600" lon="14.129148"><ele>240.95</ele><time>2011-05-22T14:47:16Z</time></trkpt><trkpt lat="49.970558" lon="14.129149"><ele>239.99</ele><time>2011-05-22T14:47:17Z</time></trkpt><trkpt lat="49.970375" lon="14.129244"><ele>240.47</ele><time>2011-05-22T14:47:27Z</time></trkpt><trkpt lat="49.970352" lon="14.129243"><ele>239.99</ele><time>2011-05-22T14:47:44Z</time></trkpt><trkpt lat="49.970360" lon="14.129245"><ele>240.47</ele><time>2011-05-22T14:47:56Z</time></trkpt><trkpt lat="49.970356" lon="14.129261"><ele>240.47</ele><time>2011-05-22T14:48:02Z</time></trkpt><trkpt lat="49.970375" lon="14.129293"><ele>239.51</ele><time>2011-05-22T14:48:14Z</time></trkpt><trkpt lat="49.970387" lon="14.129302"><ele>239.99</ele><time>2011-05-22T14:48:47Z</time></trkpt><trkpt lat="49.970425" lon="14.129284"><ele>240.47</ele><time>2011-05-22T14:49:11Z</time></trkpt><trkpt lat="49.970352" lon="14.129244"><ele>240.47</ele><time>2011-05-22T14:49:17Z</time></trkpt><trkpt lat="49.970345" lon="14.129243"><ele>239.99</ele><time>2011-05-22T14:49:18Z</time></trkpt><trkpt lat="49.970333" lon="14.129239"><ele>239.99</ele><time>2011-05-22T14:49:19Z</time></trkpt><trkpt lat="49.970322" lon="14.129240"><ele>239.99</ele><time>2011-05-22T14:49:20Z</time></trkpt><trkpt lat="49.970310" lon="14.129292"><ele>239.99</ele><time>2011-05-22T14:49:30Z</time></trkpt><trkpt lat="49.970284" lon="14.129336"><ele>239.99</ele><time>2011-05-22T14:49:34Z</time></trkpt><trkpt lat="49.969982" lon="14.129622"><ele>239.02</ele><time>2011-05-22T14:49:45Z</time></trkpt><trkpt lat="49.969585" lon="14.129931"><ele>239.99</ele><time>2011-05-22T14:50:00Z</time></trkpt><trkpt lat="49.969582" lon="14.129929"><ele>239.02</ele><time>2011-05-22T14:50:11Z</time></trkpt><trkpt lat="49.969604" lon="14.129911"><ele>239.02</ele><time>2011-05-22T14:50:13Z</time></trkpt><trkpt lat="49.969669" lon="14.129863"><ele>239.02</ele><time>2011-05-22T14:50:15Z</time></trkpt><trkpt lat="49.969814" lon="14.129773"><ele>239.02</ele><time>2011-05-22T14:50:26Z</time></trkpt><trkpt lat="49.969822" lon="14.129778"><ele>239.02</ele><time>2011-05-22T14:50:39Z</time></trkpt><trkpt lat="49.969822" lon="14.129778"><ele>239.99</ele><time>2011-05-22T14:50:58Z</time></trkpt><trkpt lat="49.969807" lon="14.129758"><ele>239.99</ele><time>2011-05-22T14:51:10Z</time></trkpt><trkpt lat="49.969791" lon="14.129763"><ele>239.51</ele><time>2011-05-22T14:51:26Z</time></trkpt><trkpt lat="49.969780" lon="14.129770"><ele>239.51</ele><time>2011-05-22T14:51:27Z</time></trkpt><trkpt lat="49.969765" lon="14.129784"><ele>239.02</ele><time>2011-05-22T14:51:28Z</time></trkpt><trkpt lat="49.969440" lon="14.130408"><ele>238.54</ele><time>2011-05-22T14:51:44Z</time></trkpt><trkpt lat="49.969303" lon="14.131266"><ele>238.54</ele><time>2011-05-22T14:51:57Z</time></trkpt><trkpt lat="49.969280" lon="14.132404"><ele>237.58</ele><time>2011-05-22T14:52:15Z</time></trkpt><trkpt lat="49.969273" lon="14.132628"><ele>238.06</ele><time>2011-05-22T14:52:27Z</time></trkpt><trkpt lat="49.969234" lon="14.132623"><ele>238.06</ele><time>2011-05-22T14:52:52Z</time></trkpt><trkpt lat="49.969231" lon="14.132673"><ele>238.06</ele><time>2011-05-22T14:52:59Z</time></trkpt><trkpt lat="49.969234" lon="14.132701"><ele>237.58</ele><time>2011-05-22T14:53:00Z</time></trkpt><trkpt lat="49.969231" lon="14.132731"><ele>237.58</ele><time>2011-05-22T14:53:01Z</time></trkpt><trkpt lat="49.969231" lon="14.132767"><ele>237.58</ele><time>2011-05-22T14:53:02Z</time></trkpt><trkpt lat="49.969227" lon="14.132808"><ele>238.06</ele><time>2011-05-22T14:53:03Z</time></trkpt><trkpt lat="49.969189" lon="14.133512"><ele>237.58</ele><time>2011-05-22T14:53:18Z</time></trkpt><trkpt lat="49.969006" lon="14.133734"><ele>238.06</ele><time>2011-05-22T14:53:33Z</time></trkpt><trkpt lat="49.969006" lon="14.133692"><ele>238.54</ele><time>2011-05-22T14:53:47Z</time></trkpt><trkpt lat="49.968964" lon="14.133639"><ele>237.58</ele><time>2011-05-22T14:54:00Z</time></trkpt><trkpt lat="49.968937" lon="14.133611"><ele>237.58</ele><time>2011-05-22T14:54:17Z</time></trkpt><trkpt lat="49.968967" lon="14.133579"><ele>238.06</ele><time>2011-05-22T14:54:34Z</time></trkpt><trkpt lat="49.968994" lon="14.133564"><ele>238.06</ele><time>2011-05-22T14:54:46Z</time></trkpt><trkpt lat="49.968952" lon="14.133532"><ele>237.58</ele><time>2011-05-22T14:54:51Z</time></trkpt><trkpt lat="49.968613" lon="14.133175"><ele>236.14</ele><time>2011-05-22T14:55:07Z</time></trkpt><trkpt lat="49.968323" lon="14.132717"><ele>235.18</ele><time>2011-05-22T14:55:22Z</time></trkpt><trkpt lat="49.968334" lon="14.132727"><ele>237.10</ele><time>2011-05-22T14:55:37Z</time></trkpt><trkpt lat="49.968338" lon="14.132722"><ele>236.62</ele><time>2011-05-22T14:55:45Z</time></trkpt><trkpt lat="49.968315" lon="14.132702"><ele>236.62</ele><time>2011-05-22T14:55:47Z</time></trkpt><trkpt lat="49.968227" lon="14.132597"><ele>236.14</ele><time>2011-05-22T14:55:52Z</time></trkpt><trkpt lat="49.967876" lon="14.132065"><ele>235.18</ele><time>2011-05-22T14:56:09Z</time></trkpt><trkpt lat="49.967575" lon="14.131388"><ele>235.66</ele><time>2011-05-22T14:56:25Z</time></trkpt><trkpt lat="49.967365" lon="14.130538"><ele>237.10</ele><time>2011-05-22T14:56:40Z</time></trkpt><trkpt lat="49.967052" lon="14.129562"><ele>234.22</ele><time>2011-05-22T14:56:57Z</time></trkpt><trkpt lat="49.966637" lon="14.129123"><ele>234.70</ele><time>2011-05-22T14:57:10Z</time></trkpt><trkpt lat="49.965878" lon="14.129120"><ele>235.66</ele><time>2011-05-22T14:57:25Z</time></trkpt><trkpt lat="49.965118" lon="14.129528"><ele>234.22</ele><time>2011-05-22T14:57:42Z</time></trkpt><trkpt lat="49.964996" lon="14.129620"><ele>234.22</ele><time>2011-05-22T14:57:45Z</time></trkpt><trkpt lat="49.964523" lon="14.130170"><ele>232.30</ele><time>2011-05-22T14:57:57Z</time></trkpt><trkpt lat="49.964436" lon="14.130290"><ele>232.78</ele><time>2011-05-22T14:57:59Z</time></trkpt><trkpt lat="49.964161" lon="14.130548"><ele>232.30</ele><time>2011-05-22T14:58:05Z</time></trkpt><trkpt lat="49.964111" lon="14.130567"><ele>232.78</ele><time>2011-05-22T14:58:06Z</time></trkpt><trkpt lat="49.963413" lon="14.130689"><ele>231.81</ele><time>2011-05-22T14:58:19Z</time></trkpt><trkpt lat="49.963181" lon="14.130599"><ele>231.81</ele><time>2011-05-22T14:58:23Z</time></trkpt><trkpt lat="49.963131" lon="14.130559"><ele>232.30</ele><time>2011-05-22T14:58:24Z</time></trkpt><trkpt lat="49.962891" lon="14.130233"><ele>232.30</ele><time>2011-05-22T14:58:30Z</time></trkpt><trkpt lat="49.962616" lon="14.129200"><ele>231.81</ele><time>2011-05-22T14:58:44Z</time></trkpt><trkpt lat="49.962391" lon="14.128043"><ele>231.33</ele><time>2011-05-22T14:58:59Z</time></trkpt><trkpt lat="49.962284" lon="14.127501"><ele>232.30</ele><time>2011-05-22T14:59:06Z</time></trkpt><trkpt lat="49.962242" lon="14.127446"><ele>232.30</ele><time>2011-05-22T14:59:07Z</time></trkpt><trkpt lat="49.962200" lon="14.127396"><ele>232.30</ele><time>2011-05-22T14:59:08Z</time></trkpt><trkpt lat="49.962154" lon="14.127360"><ele>232.30</ele><time>2011-05-22T14:59:09Z</time></trkpt><trkpt lat="49.962109" lon="14.127331"><ele>231.81</ele><time>2011-05-22T14:59:10Z</time></trkpt><trkpt lat="49.962063" lon="14.127312"><ele>231.33</ele><time>2011-05-22T14:59:11Z</time></trkpt><trkpt lat="49.962013" lon="14.127294"><ele>231.33</ele><time>2011-05-22T14:59:12Z</time></trkpt><trkpt lat="49.961960" lon="14.127275"><ele>230.85</ele><time>2011-05-22T14:59:13Z</time></trkpt><trkpt lat="49.961903" lon="14.127253"><ele>229.89</ele><time>2011-05-22T14:59:14Z</time></trkpt><trkpt lat="49.961845" lon="14.127244"><ele>230.37</ele><time>2011-05-22T14:59:15Z</time></trkpt><trkpt lat="49.961792" lon="14.127245"><ele>230.37</ele><time>2011-05-22T14:59:16Z</time></trkpt><trkpt lat="49.961742" lon="14.127255"><ele>230.37</ele><time>2011-05-22T14:59:17Z</time></trkpt><trkpt lat="49.961700" lon="14.127274"><ele>229.89</ele><time>2011-05-22T14:59:18Z</time></trkpt><trkpt lat="49.961666" lon="14.127297"><ele>230.37</ele><time>2011-05-22T14:59:19Z</time></trkpt><trkpt lat="49.961567" lon="14.127398"><ele>230.85</ele><time>2011-05-22T14:59:22Z</time></trkpt><trkpt lat="49.961296" lon="14.127781"><ele>230.37</ele><time>2011-05-22T14:59:29Z</time></trkpt><trkpt lat="49.961266" lon="14.127841"><ele>230.85</ele><time>2011-05-22T14:59:30Z</time></trkpt><trkpt lat="49.961235" lon="14.127905"><ele>230.37</ele><time>2011-05-22T14:59:31Z</time></trkpt><trkpt lat="49.961205" lon="14.127970"><ele>230.37</ele><time>2011-05-22T14:59:32Z</time></trkpt><trkpt lat="49.961178" lon="14.128025"><ele>230.85</ele><time>2011-05-22T14:59:33Z</time></trkpt><trkpt lat="49.961147" lon="14.128079"><ele>230.85</ele><time>2011-05-22T14:59:34Z</time></trkpt><trkpt lat="49.961124" lon="14.128141"><ele>230.85</ele><time>2011-05-22T14:59:35Z</time></trkpt><trkpt lat="49.961102" lon="14.128206"><ele>230.85</ele><time>2011-05-22T14:59:36Z</time></trkpt><trkpt lat="49.961086" lon="14.128267"><ele>230.37</ele><time>2011-05-22T14:59:37Z</time></trkpt><trkpt lat="49.960960" lon="14.128948"><ele>230.85</ele><time>2011-05-22T14:59:47Z</time></trkpt><trkpt lat="49.960777" lon="14.129437"><ele>231.81</ele><time>2011-05-22T14:59:58Z</time></trkpt><trkpt lat="49.960541" lon="14.129778"><ele>231.81</ele><time>2011-05-22T15:00:12Z</time></trkpt><trkpt lat="49.960545" lon="14.129808"><ele>232.30</ele><time>2011-05-22T15:00:13Z</time></trkpt><trkpt lat="49.960560" lon="14.129953"><ele>232.78</ele><time>2011-05-22T15:00:25Z</time></trkpt><trkpt lat="49.960583" lon="14.130053"><ele>232.78</ele><time>2011-05-22T15:00:44Z</time></trkpt><trkpt lat="49.960636" lon="14.130322"><ele>233.74</ele><time>2011-05-22T15:00:50Z</time></trkpt><trkpt lat="49.960735" lon="14.130454"><ele>234.70</ele><time>2011-05-22T15:00:59Z</time></trkpt><trkpt lat="49.960754" lon="14.130406"><ele>234.22</ele><time>2011-05-22T15:01:16Z</time></trkpt><trkpt lat="49.960758" lon="14.130408"><ele>235.18</ele><time>2011-05-22T15:01:33Z</time></trkpt><trkpt lat="49.960796" lon="14.130450"><ele>235.18</ele><time>2011-05-22T15:01:49Z</time></trkpt><trkpt lat="49.960812" lon="14.130442"><ele>235.66</ele><time>2011-05-22T15:02:09Z</time></trkpt><trkpt lat="49.960823" lon="14.130511"><ele>235.18</ele><time>2011-05-22T15:02:27Z</time></trkpt><trkpt lat="49.960831" lon="14.130520"><ele>235.66</ele><time>2011-05-22T15:02:45Z</time></trkpt><trkpt lat="49.960835" lon="14.130443"><ele>234.70</ele><time>2011-05-22T15:02:57Z</time></trkpt><trkpt lat="49.960835" lon="14.130443"><ele>235.18</ele><time>2011-05-22T15:03:22Z</time></trkpt><trkpt lat="49.960842" lon="14.130409"><ele>235.18</ele><time>2011-05-22T15:03:30Z</time></trkpt><trkpt lat="49.960869" lon="14.130244"><ele>234.70</ele><time>2011-05-22T15:03:53Z</time></trkpt></trkseg><trkseg><trkpt lat="49.960899" lon="14.130305"><ele>235.18</ele><time>2011-05-22T15:04:27Z</time></trkpt><trkpt lat="49.960960" lon="14.130418"><ele>234.22</ele><time>2011-05-22T15:04:47Z</time></trkpt></trkseg><trkseg><trkpt lat="49.960800" lon="14.130499"><ele>233.74</ele><time>2011-05-22T15:07:56Z</time></trkpt><trkpt lat="49.960724" lon="14.130476"><ele>233.74</ele><time>2011-05-22T15:08:12Z</time></trkpt><trkpt lat="49.960705" lon="14.130458"><ele>232.78</ele><time>2011-05-22T15:08:26Z</time></trkpt><trkpt lat="49.960697" lon="14.130427"><ele>232.30</ele><time>2011-05-22T15:08:55Z</time></trkpt><trkpt lat="49.960728" lon="14.130456"><ele>233.26</ele><time>2011-05-22T15:09:34Z</time></trkpt><trkpt lat="49.960735" lon="14.130459"><ele>232.78</ele><time>2011-05-22T15:10:04Z</time></trkpt><trkpt lat="49.960735" lon="14.130460"><ele>233.26</ele><time>2011-05-22T15:10:36Z</time></trkpt><trkpt lat="49.960739" lon="14.130465"><ele>233.26</ele><time>2011-05-22T15:11:10Z</time></trkpt><trkpt lat="49.960735" lon="14.130458"><ele>233.26</ele><time>2011-05-22T15:11:46Z</time></trkpt><trkpt lat="49.960732" lon="14.130458"><ele>233.26</ele><time>2011-05-22T15:12:20Z</time></trkpt><trkpt lat="49.960732" lon="14.130458"><ele>234.22</ele><time>2011-05-22T15:12:53Z</time></trkpt><trkpt lat="49.960732" lon="14.130456"><ele>233.74</ele><time>2011-05-22T15:13:25Z</time></trkpt><trkpt lat="49.960732" lon="14.130459"><ele>234.22</ele><time>2011-05-22T15:13:51Z</time></trkpt><trkpt lat="49.960728" lon="14.130459"><ele>233.74</ele><time>2011-05-22T15:14:21Z</time></trkpt><trkpt lat="49.960728" lon="14.130459"><ele>233.74</ele><time>2011-05-22T15:14:52Z</time></trkpt><trkpt lat="49.960728" lon="14.130459"><ele>234.22</ele><time>2011-05-22T15:15:22Z</time></trkpt><trkpt lat="49.960732" lon="14.130465"><ele>233.74</ele><time>2011-05-22T15:15:51Z</time></trkpt><trkpt lat="49.960732" lon="14.130463"><ele>233.74</ele><time>2011-05-22T15:16:23Z</time></trkpt><trkpt lat="49.960732" lon="14.130463"><ele>233.74</ele><time>2011-05-22T15:16:50Z</time></trkpt><trkpt lat="49.960728" lon="14.130466"><ele>233.74</ele><time>2011-05-22T15:17:15Z</time></trkpt><trkpt lat="49.960728" lon="14.130467"><ele>233.74</ele><time>2011-05-22T15:17:45Z</time></trkpt><trkpt lat="49.960724" lon="14.130468"><ele>234.22</ele><time>2011-05-22T15:18:16Z</time></trkpt><trkpt lat="49.960724" lon="14.130468"><ele>233.74</ele><time>2011-05-22T15:18:47Z</time></trkpt><trkpt lat="49.960724" lon="14.130466"><ele>234.22</ele><time>2011-05-22T15:19:12Z</time></trkpt><trkpt lat="49.960724" lon="14.130472"><ele>233.74</ele><time>2011-05-22T15:19:39Z</time></trkpt><trkpt lat="49.960724" lon="14.130472"><ele>233.74</ele><time>2011-05-22T15:20:07Z</time></trkpt><trkpt lat="49.960724" lon="14.130471"><ele>234.22</ele><time>2011-05-22T15:20:38Z</time></trkpt><trkpt lat="49.960724" lon="14.130472"><ele>234.22</ele><time>2011-05-22T15:21:09Z</time></trkpt><trkpt lat="49.960720" lon="14.130468"><ele>234.22</ele><time>2011-05-22T15:21:38Z</time></trkpt><trkpt lat="49.960720" lon="14.130468"><ele>234.22</ele><time>2011-05-22T15:22:09Z</time></trkpt><trkpt lat="49.960716" lon="14.130470"><ele>234.22</ele><time>2011-05-22T15:22:37Z</time></trkpt><trkpt lat="49.960716" lon="14.130469"><ele>235.18</ele><time>2011-05-22T15:23:08Z</time></trkpt><trkpt lat="49.960716" lon="14.130473"><ele>234.70</ele><time>2011-05-22T15:23:40Z</time></trkpt><trkpt lat="49.960716" lon="14.130473"><ele>235.18</ele><time>2011-05-22T15:24:10Z</time></trkpt><trkpt lat="49.960712" lon="14.130473"><ele>234.70</ele><time>2011-05-22T15:24:38Z</time></trkpt><trkpt lat="49.960712" lon="14.130475"><ele>235.18</ele><time>2011-05-22T15:25:03Z</time></trkpt><trkpt lat="49.960712" lon="14.130475"><ele>235.18</ele><time>2011-05-22T15:25:35Z</time></trkpt><trkpt lat="49.960712" lon="14.130479"><ele>235.18</ele><time>2011-05-22T15:26:10Z</time></trkpt><trkpt lat="49.960716" lon="14.130480"><ele>235.18</ele><time>2011-05-22T15:26:43Z</time></trkpt><trkpt lat="49.960716" lon="14.130485"><ele>235.66</ele><time>2011-05-22T15:27:15Z</time></trkpt><trkpt lat="49.960716" lon="14.130486"><ele>235.66</ele><time>2011-05-22T15:27:45Z</time></trkpt><trkpt lat="49.960716" lon="14.130486"><ele>235.66</ele><time>2011-05-22T15:28:15Z</time></trkpt><trkpt lat="49.960716" lon="14.130487"><ele>235.66</ele><time>2011-05-22T15:28:46Z</time></trkpt><trkpt lat="49.960716" lon="14.130488"><ele>235.66</ele><time>2011-05-22T15:29:18Z</time></trkpt><trkpt lat="49.960716" lon="14.130483"><ele>236.62</ele><time>2011-05-22T15:29:48Z</time></trkpt><trkpt lat="49.960716" lon="14.130487"><ele>236.14</ele><time>2011-05-22T15:30:20Z</time></trkpt><trkpt lat="49.960716" lon="14.130487"><ele>236.14</ele><time>2011-05-22T15:30:51Z</time></trkpt><trkpt lat="49.960712" lon="14.130491"><ele>236.62</ele><time>2011-05-22T15:31:24Z</time></trkpt><trkpt lat="49.960712" lon="14.130486"><ele>236.62</ele><time>2011-05-22T15:31:59Z</time></trkpt><trkpt lat="49.960712" lon="14.130485"><ele>236.14</ele><time>2011-05-22T15:32:31Z</time></trkpt><trkpt lat="49.960709" lon="14.130485"><ele>237.10</ele><time>2011-05-22T15:33:05Z</time></trkpt><trkpt lat="49.960712" lon="14.130485"><ele>236.14</ele><time>2011-05-22T15:33:36Z</time></trkpt><trkpt lat="49.960712" lon="14.130485"><ele>236.62</ele><time>2011-05-22T15:34:08Z</time></trkpt><trkpt lat="49.960712" lon="14.130482"><ele>236.62</ele><time>2011-05-22T15:34:41Z</time></trkpt><trkpt lat="49.960709" lon="14.130487"><ele>237.10</ele><time>2011-05-22T15:35:11Z</time></trkpt><trkpt lat="49.960709" lon="14.130489"><ele>236.14</ele><time>2011-05-22T15:35:42Z</time></trkpt><trkpt lat="49.960709" lon="14.130489"><ele>236.62</ele><time>2011-05-22T15:36:10Z</time></trkpt><trkpt lat="49.960709" lon="14.130486"><ele>235.66</ele><time>2011-05-22T15:36:39Z</time></trkpt><trkpt lat="49.960705" lon="14.130488"><ele>236.62</ele><time>2011-05-22T15:37:07Z</time></trkpt><trkpt lat="49.960705" lon="14.130487"><ele>236.14</ele><time>2011-05-22T15:37:41Z</time></trkpt><trkpt lat="49.960705" lon="14.130487"><ele>236.62</ele><time>2011-05-22T15:38:10Z</time></trkpt><trkpt lat="49.960709" lon="14.130487"><ele>236.62</ele><time>2011-05-22T15:38:37Z</time></trkpt><trkpt lat="49.960712" lon="14.130491"><ele>236.14</ele><time>2011-05-22T15:39:11Z</time></trkpt><trkpt lat="49.960712" lon="14.130492"><ele>236.14</ele><time>2011-05-22T15:39:40Z</time></trkpt><trkpt lat="49.960712" lon="14.130488"><ele>235.66</ele><time>2011-05-22T15:40:09Z</time></trkpt><trkpt lat="49.960712" lon="14.130490"><ele>239.02</ele><time>2011-05-22T15:40:14Z</time></trkpt><trkpt lat="49.960712" lon="14.130490"><ele>236.14</ele><time>2011-05-22T15:40:15Z</time></trkpt><trkpt lat="49.960712" lon="14.130490"><ele>235.66</ele><time>2011-05-22T15:40:16Z</time></trkpt><trkpt lat="49.960712" lon="14.130490"><ele>235.66</ele><time>2011-05-22T15:40:39Z</time></trkpt><trkpt lat="49.960709" lon="14.130487"><ele>236.14</ele><time>2011-05-22T15:41:07Z</time></trkpt><trkpt lat="49.960705" lon="14.130496"><ele>235.66</ele><time>2011-05-22T15:41:23Z</time></trkpt><trkpt lat="49.960705" lon="14.130521"><ele>236.62</ele><time>2011-05-22T15:41:43Z</time></trkpt><trkpt lat="49.960739" lon="14.130521"><ele>237.10</ele><time>2011-05-22T15:42:00Z</time></trkpt><trkpt lat="49.960781" lon="14.130509"><ele>236.62</ele><time>2011-05-22T15:42:14Z</time></trkpt><trkpt lat="49.960785" lon="14.130509"><ele>233.26</ele><time>2011-05-22T15:42:23Z</time></trkpt><trkpt lat="49.960785" lon="14.130509"><ele>237.10</ele><time>2011-05-22T15:42:24Z</time></trkpt><trkpt lat="49.960781" lon="14.130527"><ele>237.10</ele><time>2011-05-22T15:42:39Z</time></trkpt><trkpt lat="49.960781" lon="14.130530"><ele>237.58</ele><time>2011-05-22T15:42:57Z</time></trkpt><trkpt lat="49.960766" lon="14.130493"><ele>237.58</ele><time>2011-05-22T15:43:19Z</time></trkpt><trkpt lat="49.960762" lon="14.130485"><ele>237.10</ele><time>2011-05-22T15:43:20Z</time></trkpt><trkpt lat="49.960758" lon="14.130456"><ele>237.10</ele><time>2011-05-22T15:43:22Z</time></trkpt><trkpt lat="49.960674" lon="14.130300"><ele>235.66</ele><time>2011-05-22T15:43:36Z</time></trkpt><trkpt lat="49.960659" lon="14.130284"><ele>232.78</ele><time>2011-05-22T15:43:38Z</time></trkpt><trkpt lat="49.960648" lon="14.130285"><ele>233.74</ele><time>2011-05-22T15:43:39Z</time></trkpt><trkpt lat="49.960644" lon="14.130289"><ele>235.18</ele><time>2011-05-22T15:43:41Z</time></trkpt><trkpt lat="49.960632" lon="14.130295"><ele>235.18</ele><time>2011-05-22T15:43:46Z</time></trkpt><trkpt lat="49.960598" lon="14.130383"><ele>234.22</ele><time>2011-05-22T15:43:56Z</time></trkpt><trkpt lat="49.960556" lon="14.131042"><ele>235.66</ele><time>2011-05-22T15:44:11Z</time></trkpt><trkpt lat="49.960209" lon="14.131900"><ele>235.18</ele><time>2011-05-22T15:44:27Z</time></trkpt><trkpt lat="49.959873" lon="14.133000"><ele>237.10</ele><time>2011-05-22T15:44:43Z</time></trkpt><trkpt lat="49.959419" lon="14.133845"><ele>238.54</ele><time>2011-05-22T15:45:00Z</time></trkpt><trkpt lat="49.959152" lon="14.134375"><ele>240.95</ele><time>2011-05-22T15:45:16Z</time></trkpt><trkpt lat="49.958801" lon="14.134642"><ele>243.83</ele><time>2011-05-22T15:45:33Z</time></trkpt><trkpt lat="49.958488" lon="14.134965"><ele>246.23</ele><time>2011-05-22T15:45:50Z</time></trkpt><trkpt lat="49.958241" lon="14.134785"><ele>248.16</ele><time>2011-05-22T15:46:03Z</time></trkpt><trkpt lat="49.958057" lon="14.134897"><ele>250.08</ele><time>2011-05-22T15:46:16Z</time></trkpt><trkpt lat="49.958096" lon="14.134883"><ele>248.64</ele><time>2011-05-22T15:46:27Z</time></trkpt><trkpt lat="49.958111" lon="14.134885"><ele>248.16</ele><time>2011-05-22T15:46:28Z</time></trkpt><trkpt lat="49.958580" lon="14.135006"><ele>246.23</ele><time>2011-05-22T15:46:41Z</time></trkpt><trkpt lat="49.958862" lon="14.134776"><ele>243.35</ele><time>2011-05-22T15:46:50Z</time></trkpt><trkpt lat="49.958927" lon="14.134689"><ele>242.39</ele><time>2011-05-22T15:46:52Z</time></trkpt><trkpt lat="49.959278" lon="14.134289"><ele>239.51</ele><time>2011-05-22T15:47:00Z</time></trkpt><trkpt lat="49.959393" lon="14.134069"><ele>239.02</ele><time>2011-05-22T15:47:03Z</time></trkpt><trkpt lat="49.959419" lon="14.133963"><ele>239.02</ele><time>2011-05-22T15:47:04Z</time></trkpt><trkpt lat="49.959476" lon="14.133825"><ele>237.58</ele><time>2011-05-22T15:47:06Z</time></trkpt><trkpt lat="49.959503" lon="14.133775"><ele>237.10</ele><time>2011-05-22T15:47:07Z</time></trkpt><trkpt lat="49.959568" lon="14.133657"><ele>238.54</ele><time>2011-05-22T15:47:11Z</time></trkpt><trkpt lat="49.959568" lon="14.133653"><ele>238.06</ele><time>2011-05-22T15:47:22Z</time></trkpt><trkpt lat="49.959568" lon="14.133653"><ele>238.06</ele><time>2011-05-22T15:47:44Z</time></trkpt><trkpt lat="49.959564" lon="14.133644"><ele>235.66</ele><time>2011-05-22T15:47:46Z</time></trkpt><trkpt lat="49.959442" lon="14.133782"><ele>238.06</ele><time>2011-05-22T15:47:55Z</time></trkpt><trkpt lat="49.959309" lon="14.134079"><ele>239.99</ele><time>2011-05-22T15:48:06Z</time></trkpt><trkpt lat="49.959270" lon="14.134130"><ele>238.54</ele><time>2011-05-22T15:48:21Z</time></trkpt><trkpt lat="49.959270" lon="14.134139"><ele>238.06</ele><time>2011-05-22T15:48:37Z</time></trkpt><trkpt lat="49.959270" lon="14.134139"><ele>241.43</ele><time>2011-05-22T15:48:40Z</time></trkpt><trkpt lat="49.959274" lon="14.134142"><ele>239.02</ele><time>2011-05-22T15:48:54Z</time></trkpt><trkpt lat="49.959091" lon="14.134369"><ele>239.99</ele><time>2011-05-22T15:49:06Z</time></trkpt><trkpt lat="49.958961" lon="14.134337"><ele>237.58</ele><time>2011-05-22T15:49:12Z</time></trkpt><trkpt lat="49.958694" lon="14.134424"><ele>234.22</ele><time>2011-05-22T15:49:21Z</time></trkpt><trkpt lat="49.958435" lon="14.134494"><ele>233.74</ele><time>2011-05-22T15:49:35Z</time></trkpt><trkpt lat="49.958435" lon="14.134494"><ele>233.26</ele><time>2011-05-22T15:49:42Z</time></trkpt><trkpt lat="49.958340" lon="14.134426"><ele>230.85</ele><time>2011-05-22T15:49:48Z</time></trkpt><trkpt lat="49.957840" lon="14.133904"><ele>229.41</ele><time>2011-05-22T15:50:00Z</time></trkpt><trkpt lat="49.957306" lon="14.133087"><ele>229.89</ele><time>2011-05-22T15:50:15Z</time></trkpt><trkpt lat="49.957272" lon="14.133051"><ele>226.05</ele><time>2011-05-22T15:50:17Z</time></trkpt><trkpt lat="49.957264" lon="14.133038"><ele>229.89</ele><time>2011-05-22T15:50:18Z</time></trkpt><trkpt lat="49.957230" lon="14.133014"><ele>229.41</ele><time>2011-05-22T15:50:29Z</time></trkpt><trkpt lat="49.957211" lon="14.133029"><ele>229.41</ele><time>2011-05-22T15:50:31Z</time></trkpt><trkpt lat="49.957096" lon="14.133090"><ele>229.89</ele><time>2011-05-22T15:50:37Z</time></trkpt><trkpt lat="49.956501" lon="14.133216"><ele>230.85</ele><time>2011-05-22T15:50:56Z</time></trkpt><trkpt lat="49.955799" lon="14.132853"><ele>227.97</ele><time>2011-05-22T15:51:14Z</time></trkpt><trkpt lat="49.955074" lon="14.132039"><ele>226.53</ele><time>2011-05-22T15:51:30Z</time></trkpt><trkpt lat="49.954651" lon="14.131279"><ele>227.49</ele><time>2011-05-22T15:51:43Z</time></trkpt><trkpt lat="49.954479" lon="14.130827"><ele>228.45</ele><time>2011-05-22T15:51:58Z</time></trkpt><trkpt lat="49.954430" lon="14.130761"><ele>228.45</ele><time>2011-05-22T15:52:13Z</time></trkpt><trkpt lat="49.954388" lon="14.130743"><ele>228.45</ele><time>2011-05-22T15:52:15Z</time></trkpt><trkpt lat="49.954361" lon="14.130739"><ele>228.45</ele><time>2011-05-22T15:52:16Z</time></trkpt><trkpt lat="49.953758" lon="14.130828"><ele>225.57</ele><time>2011-05-22T15:52:27Z</time></trkpt><trkpt lat="49.953369" lon="14.130207"><ele>225.09</ele><time>2011-05-22T15:52:43Z</time></trkpt><trkpt lat="49.953049" lon="14.130025"><ele>224.12</ele><time>2011-05-22T15:52:57Z</time></trkpt><trkpt lat="49.952785" lon="14.130005"><ele>223.64</ele><time>2011-05-22T15:53:10Z</time></trkpt><trkpt lat="49.952423" lon="14.129837"><ele>224.12</ele><time>2011-05-22T15:53:25Z</time></trkpt><trkpt lat="49.952026" lon="14.129753"><ele>225.57</ele><time>2011-05-22T15:53:40Z</time></trkpt><trkpt lat="49.951561" lon="14.129572"><ele>223.64</ele><time>2011-05-22T15:53:55Z</time></trkpt><trkpt lat="49.951057" lon="14.129515"><ele>223.16</ele><time>2011-05-22T15:54:08Z</time></trkpt><trkpt lat="49.950607" lon="14.129813"><ele>223.64</ele><time>2011-05-22T15:54:23Z</time></trkpt><trkpt lat="49.950249" lon="14.130366"><ele>225.57</ele><time>2011-05-22T15:54:35Z</time></trkpt><trkpt lat="49.950188" lon="14.130496"><ele>225.57</ele><time>2011-05-22T15:54:39Z</time></trkpt><trkpt lat="49.950188" lon="14.130526"><ele>225.57</ele><time>2011-05-22T15:54:40Z</time></trkpt><trkpt lat="49.950188" lon="14.130559"><ele>225.57</ele><time>2011-05-22T15:54:41Z</time></trkpt><trkpt lat="49.950157" lon="14.131017"><ele>226.53</ele><time>2011-05-22T15:54:55Z</time></trkpt><trkpt lat="49.950199" lon="14.131255"><ele>224.61</ele><time>2011-05-22T15:55:04Z</time></trkpt><trkpt lat="49.950199" lon="14.131289"><ele>227.01</ele><time>2011-05-22T15:55:07Z</time></trkpt><trkpt lat="49.950195" lon="14.131283"><ele>226.53</ele><time>2011-05-22T15:55:13Z</time></trkpt><trkpt lat="49.950180" lon="14.131268"><ele>227.01</ele><time>2011-05-22T15:55:25Z</time></trkpt><trkpt lat="49.950241" lon="14.131315"><ele>225.57</ele><time>2011-05-22T15:55:45Z</time></trkpt><trkpt lat="49.950253" lon="14.131305"><ele>227.01</ele><time>2011-05-22T15:55:57Z</time></trkpt><trkpt lat="49.950245" lon="14.131292"><ele>227.49</ele><time>2011-05-22T15:56:16Z</time></trkpt><trkpt lat="49.950245" lon="14.131267"><ele>226.53</ele><time>2011-05-22T15:56:28Z</time></trkpt><trkpt lat="49.950279" lon="14.131097"><ele>226.53</ele><time>2011-05-22T15:56:37Z</time></trkpt><trkpt lat="49.950123" lon="14.130469"><ele>227.49</ele><time>2011-05-22T15:56:55Z</time></trkpt><trkpt lat="49.950123" lon="14.130469"><ele>227.97</ele><time>2011-05-22T15:57:09Z</time></trkpt><trkpt lat="49.949951" lon="14.130392"><ele>227.01</ele><time>2011-05-22T15:57:17Z</time></trkpt><trkpt lat="49.949844" lon="14.130404"><ele>226.53</ele><time>2011-05-22T15:57:22Z</time></trkpt><trkpt lat="49.949371" lon="14.130293"><ele>227.01</ele><time>2011-05-22T15:57:35Z</time></trkpt><trkpt lat="49.948994" lon="14.129459"><ele>226.53</ele><time>2011-05-22T15:57:48Z</time></trkpt><trkpt lat="49.948799" lon="14.128357"><ele>226.05</ele><time>2011-05-22T15:58:03Z</time></trkpt><trkpt lat="49.948849" lon="14.127178"><ele>226.05</ele><time>2011-05-22T15:58:16Z</time></trkpt><trkpt lat="49.948845" lon="14.126650"><ele>227.49</ele><time>2011-05-22T15:58:25Z</time></trkpt><trkpt lat="49.948860" lon="14.126623"><ele>227.01</ele><time>2011-05-22T15:58:29Z</time></trkpt><trkpt lat="49.948898" lon="14.126544"><ele>227.01</ele><time>2011-05-22T15:58:32Z</time></trkpt><trkpt lat="49.948906" lon="14.126510"><ele>227.01</ele><time>2011-05-22T15:58:33Z</time></trkpt><trkpt lat="49.948917" lon="14.126473"><ele>226.53</ele><time>2011-05-22T15:58:34Z</time></trkpt><trkpt lat="49.949146" lon="14.125890"><ele>226.05</ele><time>2011-05-22T15:58:47Z</time></trkpt><trkpt lat="49.949139" lon="14.125861"><ele>227.01</ele><time>2011-05-22T15:58:55Z</time></trkpt><trkpt lat="49.949139" lon="14.125895"><ele>227.49</ele><time>2011-05-22T15:58:57Z</time></trkpt><trkpt lat="49.949135" lon="14.125917"><ele>227.01</ele><time>2011-05-22T15:58:58Z</time></trkpt><trkpt lat="49.949131" lon="14.125943"><ele>227.49</ele><time>2011-05-22T15:58:59Z</time></trkpt><trkpt lat="49.949120" lon="14.125976"><ele>227.49</ele><time>2011-05-22T15:59:00Z</time></trkpt><trkpt lat="49.949104" lon="14.126019"><ele>227.01</ele><time>2011-05-22T15:59:01Z</time></trkpt><trkpt lat="49.949085" lon="14.126068"><ele>227.49</ele><time>2011-05-22T15:59:02Z</time></trkpt><trkpt lat="49.948914" lon="14.126594"><ele>226.53</ele><time>2011-05-22T15:59:13Z</time></trkpt><trkpt lat="49.948906" lon="14.126654"><ele>227.01</ele><time>2011-05-22T15:59:14Z</time></trkpt><trkpt lat="49.948841" lon="14.127368"><ele>226.53</ele><time>2011-05-22T15:59:26Z</time></trkpt><trkpt lat="49.948795" lon="14.127719"><ele>224.12</ele><time>2011-05-22T15:59:37Z</time></trkpt><trkpt lat="49.948769" lon="14.127748"><ele>222.68</ele><time>2011-05-22T15:59:40Z</time></trkpt><trkpt lat="49.948753" lon="14.127759"><ele>222.68</ele><time>2011-05-22T15:59:41Z</time></trkpt><trkpt lat="49.948658" lon="14.127775"><ele>220.28</ele><time>2011-05-22T15:59:45Z</time></trkpt><trkpt lat="49.948009" lon="14.127871"><ele>221.72</ele><time>2011-05-22T15:59:56Z</time></trkpt><trkpt lat="49.948006" lon="14.127865"><ele>221.24</ele><time>2011-05-22T16:00:07Z</time></trkpt><trkpt lat="49.948006" lon="14.127865"><ele>223.16</ele><time>2011-05-22T16:00:38Z</time></trkpt><trkpt lat="49.947964" lon="14.127912"><ele>220.76</ele><time>2011-05-22T16:00:49Z</time></trkpt><trkpt lat="49.947556" lon="14.128225"><ele>220.76</ele><time>2011-05-22T16:01:01Z</time></trkpt><trkpt lat="49.947021" lon="14.128809"><ele>220.76</ele><time>2011-05-22T16:01:17Z</time></trkpt><trkpt lat="49.946415" lon="14.129441"><ele>220.28</ele><time>2011-05-22T16:01:34Z</time></trkpt><trkpt lat="49.945919" lon="14.129889"><ele>220.28</ele><time>2011-05-22T16:01:48Z</time></trkpt><trkpt lat="49.945774" lon="14.129953"><ele>215.95</ele><time>2011-05-22T16:01:53Z</time></trkpt><trkpt lat="49.945770" lon="14.129954"><ele>220.76</ele><time>2011-05-22T16:01:54Z</time></trkpt><trkpt lat="49.945747" lon="14.129934"><ele>216.43</ele><time>2011-05-22T16:02:07Z</time></trkpt><trkpt lat="49.945747" lon="14.129934"><ele>219.32</ele><time>2011-05-22T16:02:08Z</time></trkpt><trkpt lat="49.945747" lon="14.129934"><ele>221.24</ele><time>2011-05-22T16:02:14Z</time></trkpt><trkpt lat="49.945686" lon="14.129970"><ele>220.76</ele><time>2011-05-22T16:02:25Z</time></trkpt><trkpt lat="49.945084" lon="14.130204"><ele>219.80</ele><time>2011-05-22T16:02:38Z</time></trkpt><trkpt lat="49.944298" lon="14.130476"><ele>219.80</ele><time>2011-05-22T16:02:55Z</time></trkpt><trkpt lat="49.943657" lon="14.130721"><ele>219.32</ele><time>2011-05-22T16:03:08Z</time></trkpt><trkpt lat="49.942760" lon="14.130956"><ele>218.84</ele><time>2011-05-22T16:03:25Z</time></trkpt><trkpt lat="49.942654" lon="14.130982"><ele>218.36</ele><time>2011-05-22T16:03:27Z</time></trkpt><trkpt lat="49.942402" lon="14.131145"><ele>219.80</ele><time>2011-05-22T16:03:37Z</time></trkpt><trkpt lat="49.942402" lon="14.131145"><ele>219.80</ele><time>2011-05-22T16:03:40Z</time></trkpt><trkpt lat="49.942410" lon="14.131136"><ele>217.40</ele><time>2011-05-22T16:03:47Z</time></trkpt><trkpt lat="49.942410" lon="14.131136"><ele>220.28</ele><time>2011-05-22T16:03:49Z</time></trkpt><trkpt lat="49.942429" lon="14.131096"><ele>220.28</ele><time>2011-05-22T16:04:07Z</time></trkpt><trkpt lat="49.942413" lon="14.131051"><ele>219.80</ele><time>2011-05-22T16:04:20Z</time></trkpt><trkpt lat="49.942200" lon="14.131136"><ele>219.80</ele><time>2011-05-22T16:04:34Z</time></trkpt><trkpt lat="49.941845" lon="14.131271"><ele>220.28</ele><time>2011-05-22T16:04:46Z</time></trkpt><trkpt lat="49.941261" lon="14.131424"><ele>219.32</ele><time>2011-05-22T16:05:03Z</time></trkpt><trkpt lat="49.940582" lon="14.131648"><ele>219.32</ele><time>2011-05-22T16:05:19Z</time></trkpt><trkpt lat="49.939781" lon="14.131898"><ele>219.32</ele><time>2011-05-22T16:05:37Z</time></trkpt><trkpt lat="49.938885" lon="14.132158"><ele>218.84</ele><time>2011-05-22T16:05:55Z</time></trkpt><trkpt lat="49.938091" lon="14.132457"><ele>219.32</ele><time>2011-05-22T16:06:11Z</time></trkpt><trkpt lat="49.938046" lon="14.132491"><ele>219.80</ele><time>2011-05-22T16:06:12Z</time></trkpt><trkpt lat="49.937782" lon="14.132755"><ele>221.24</ele><time>2011-05-22T16:06:21Z</time></trkpt><trkpt lat="49.937775" lon="14.132775"><ele>221.24</ele><time>2011-05-22T16:06:22Z</time></trkpt><trkpt lat="49.937767" lon="14.132765"><ele>219.80</ele><time>2011-05-22T16:06:24Z</time></trkpt><trkpt lat="49.937752" lon="14.132982"><ele>221.24</ele><time>2011-05-22T16:06:38Z</time></trkpt><trkpt lat="49.937733" lon="14.133333"><ele>221.72</ele><time>2011-05-22T16:06:45Z</time></trkpt><trkpt lat="49.937710" lon="14.133381"><ele>221.72</ele><time>2011-05-22T16:06:46Z</time></trkpt><trkpt lat="49.937366" lon="14.133987"><ele>220.76</ele><time>2011-05-22T16:06:59Z</time></trkpt><trkpt lat="49.937019" lon="14.134486"><ele>224.12</ele><time>2011-05-22T16:07:12Z</time></trkpt><trkpt lat="49.936943" lon="14.134595"><ele>224.12</ele><time>2011-05-22T16:07:16Z</time></trkpt><trkpt lat="49.936928" lon="14.134618"><ele>224.12</ele><time>2011-05-22T16:07:17Z</time></trkpt><trkpt lat="49.936909" lon="14.134672"><ele>224.12</ele><time>2011-05-22T16:07:20Z</time></trkpt><trkpt lat="49.936890" lon="14.134680"><ele>224.12</ele><time>2011-05-22T16:07:21Z</time></trkpt><trkpt lat="49.936871" lon="14.134681"><ele>224.12</ele><time>2011-05-22T16:07:22Z</time></trkpt><trkpt lat="49.936852" lon="14.134675"><ele>224.12</ele><time>2011-05-22T16:07:23Z</time></trkpt><trkpt lat="49.936829" lon="14.134628"><ele>222.68</ele><time>2011-05-22T16:07:24Z</time></trkpt><trkpt lat="49.936806" lon="14.134585"><ele>223.16</ele><time>2011-05-22T16:07:25Z</time></trkpt><trkpt lat="49.936787" lon="14.134550"><ele>223.64</ele><time>2011-05-22T16:07:26Z</time></trkpt><trkpt lat="49.936771" lon="14.134520"><ele>222.68</ele><time>2011-05-22T16:07:27Z</time></trkpt><trkpt lat="49.936752" lon="14.134482"><ele>222.20</ele><time>2011-05-22T16:07:28Z</time></trkpt><trkpt lat="49.936726" lon="14.134458"><ele>222.20</ele><time>2011-05-22T16:07:29Z</time></trkpt><trkpt lat="49.936707" lon="14.134438"><ele>221.72</ele><time>2011-05-22T16:07:30Z</time></trkpt><trkpt lat="49.936684" lon="14.134435"><ele>222.20</ele><time>2011-05-22T16:07:31Z</time></trkpt><trkpt lat="49.936657" lon="14.134426"><ele>221.72</ele><time>2011-05-22T16:07:32Z</time></trkpt><trkpt lat="49.936630" lon="14.134423"><ele>222.20</ele><time>2011-05-22T16:07:33Z</time></trkpt><trkpt lat="49.936604" lon="14.134433"><ele>222.20</ele><time>2011-05-22T16:07:34Z</time></trkpt><trkpt lat="49.936577" lon="14.134445"><ele>221.72</ele><time>2011-05-22T16:07:35Z</time></trkpt><trkpt lat="49.936546" lon="14.134496"><ele>222.20</ele><time>2011-05-22T16:07:36Z</time></trkpt><trkpt lat="49.936516" lon="14.134545"><ele>222.20</ele><time>2011-05-22T16:07:37Z</time></trkpt><trkpt lat="49.936489" lon="14.134596"><ele>221.72</ele><time>2011-05-22T16:07:38Z</time></trkpt><trkpt lat="49.936153" lon="14.135086"><ele>221.24</ele><time>2011-05-22T16:07:52Z</time></trkpt><trkpt lat="49.935886" lon="14.135388"><ele>221.24</ele><time>2011-05-22T16:07:59Z</time></trkpt><trkpt lat="49.935146" lon="14.135780"><ele>220.76</ele><time>2011-05-22T16:08:14Z</time></trkpt><trkpt lat="49.934841" lon="14.135984"><ele>220.76</ele><time>2011-05-22T16:08:21Z</time></trkpt><trkpt lat="49.934799" lon="14.136012"><ele>221.72</ele><time>2011-05-22T16:08:22Z</time></trkpt><trkpt lat="49.934757" lon="14.136045"><ele>220.76</ele><time>2011-05-22T16:08:23Z</time></trkpt><trkpt lat="49.934711" lon="14.136083"><ele>222.20</ele><time>2011-05-22T16:08:24Z</time></trkpt><trkpt lat="49.934669" lon="14.136105"><ele>221.24</ele><time>2011-05-22T16:08:25Z</time></trkpt><trkpt lat="49.934628" lon="14.136116"><ele>224.12</ele><time>2011-05-22T16:08:26Z</time></trkpt><trkpt lat="49.934582" lon="14.136134"><ele>222.20</ele><time>2011-05-22T16:08:27Z</time></trkpt><trkpt lat="49.934536" lon="14.136153"><ele>222.20</ele><time>2011-05-22T16:08:28Z</time></trkpt><trkpt lat="49.934490" lon="14.136173"><ele>221.24</ele><time>2011-05-22T16:08:29Z</time></trkpt><trkpt lat="49.934444" lon="14.136187"><ele>221.24</ele><time>2011-05-22T16:08:30Z</time></trkpt><trkpt lat="49.934399" lon="14.136196"><ele>221.72</ele><time>2011-05-22T16:08:31Z</time></trkpt><trkpt lat="49.934349" lon="14.136205"><ele>221.24</ele><time>2011-05-22T16:08:32Z</time></trkpt><trkpt lat="49.934132" lon="14.136247"><ele>221.72</ele><time>2011-05-22T16:08:36Z</time></trkpt><trkpt lat="49.934086" lon="14.136241"><ele>222.20</ele><time>2011-05-22T16:08:37Z</time></trkpt><trkpt lat="49.933929" lon="14.136230"><ele>221.72</ele><time>2011-05-22T16:08:40Z</time></trkpt><trkpt lat="49.933578" lon="14.136092"><ele>221.24</ele><time>2011-05-22T16:08:47Z</time></trkpt><trkpt lat="49.933060" lon="14.135674"><ele>221.72</ele><time>2011-05-22T16:08:59Z</time></trkpt><trkpt lat="49.933014" lon="14.135657"><ele>221.24</ele><time>2011-05-22T16:09:00Z</time></trkpt><trkpt lat="49.932873" lon="14.135636"><ele>221.24</ele><time>2011-05-22T16:09:03Z</time></trkpt><trkpt lat="49.932827" lon="14.135637"><ele>221.24</ele><time>2011-05-22T16:09:04Z</time></trkpt><trkpt lat="49.932777" lon="14.135641"><ele>220.76</ele><time>2011-05-22T16:09:05Z</time></trkpt><trkpt lat="49.932732" lon="14.135650"><ele>220.76</ele><time>2011-05-22T16:09:06Z</time></trkpt><trkpt lat="49.932686" lon="14.135661"><ele>221.24</ele><time>2011-05-22T16:09:07Z</time></trkpt><trkpt lat="49.932640" lon="14.135679"><ele>221.72</ele><time>2011-05-22T16:09:08Z</time></trkpt><trkpt lat="49.932598" lon="14.135700"><ele>221.72</ele><time>2011-05-22T16:09:09Z</time></trkpt><trkpt lat="49.932419" lon="14.135798"><ele>221.72</ele><time>2011-05-22T16:09:13Z</time></trkpt><trkpt lat="49.932175" lon="14.136043"><ele>222.68</ele><time>2011-05-22T16:09:20Z</time></trkpt><trkpt lat="49.931652" lon="14.136835"><ele>223.64</ele><time>2011-05-22T16:09:36Z</time></trkpt><trkpt lat="49.931618" lon="14.136886"><ele>223.16</ele><time>2011-05-22T16:09:37Z</time></trkpt><trkpt lat="49.931168" lon="14.137988"><ele>222.68</ele><time>2011-05-22T16:09:53Z</time></trkpt><trkpt lat="49.931118" lon="14.138134"><ele>223.16</ele><time>2011-05-22T16:09:55Z</time></trkpt><trkpt lat="49.930817" lon="14.139397"><ele>221.24</ele><time>2011-05-22T16:10:10Z</time></trkpt><trkpt lat="49.930668" lon="14.139812"><ele>220.28</ele><time>2011-05-22T16:10:15Z</time></trkpt><trkpt lat="49.930656" lon="14.139909"><ele>220.28</ele><time>2011-05-22T16:10:16Z</time></trkpt><trkpt lat="49.930649" lon="14.140011"><ele>220.76</ele><time>2011-05-22T16:10:17Z</time></trkpt><trkpt lat="49.930508" lon="14.141508"><ele>220.76</ele><time>2011-05-22T16:10:33Z</time></trkpt><trkpt lat="49.930496" lon="14.143142"><ele>221.24</ele><time>2011-05-22T16:10:51Z</time></trkpt><trkpt lat="49.930470" lon="14.143628"><ele>221.24</ele><time>2011-05-22T16:10:57Z</time></trkpt><trkpt lat="49.930466" lon="14.143715"><ele>221.24</ele><time>2011-05-22T16:10:58Z</time></trkpt><trkpt lat="49.930565" lon="14.145087"><ele>222.20</ele><time>2011-05-22T16:11:14Z</time></trkpt><trkpt lat="49.930737" lon="14.146282"><ele>223.16</ele><time>2011-05-22T16:11:29Z</time></trkpt><trkpt lat="49.930908" lon="14.147241"><ele>222.20</ele><time>2011-05-22T16:11:43Z</time></trkpt><trkpt lat="49.931000" lon="14.148038"><ele>221.24</ele><time>2011-05-22T16:11:52Z</time></trkpt><trkpt lat="49.931145" lon="14.149508"><ele>221.72</ele><time>2011-05-22T16:12:08Z</time></trkpt><trkpt lat="49.931175" lon="14.150056"><ele>221.72</ele><time>2011-05-22T16:12:14Z</time></trkpt><trkpt lat="49.931183" lon="14.150144"><ele>222.20</ele><time>2011-05-22T16:12:15Z</time></trkpt><trkpt lat="49.931343" lon="14.151712"><ele>221.24</ele><time>2011-05-22T16:12:32Z</time></trkpt><trkpt lat="49.931568" lon="14.153098"><ele>220.76</ele><time>2011-05-22T16:12:47Z</time></trkpt><trkpt lat="49.931732" lon="14.154647"><ele>219.80</ele><time>2011-05-22T16:13:03Z</time></trkpt><trkpt lat="49.931774" lon="14.155071"><ele>219.32</ele><time>2011-05-22T16:13:07Z</time></trkpt><trkpt lat="49.932026" lon="14.156246"><ele>220.28</ele><time>2011-05-22T16:13:20Z</time></trkpt><trkpt lat="49.932018" lon="14.157632"><ele>220.28</ele><time>2011-05-22T16:13:35Z</time></trkpt><trkpt lat="49.932220" lon="14.158835"><ele>222.20</ele><time>2011-05-22T16:13:49Z</time></trkpt><trkpt lat="49.932491" lon="14.160238"><ele>223.16</ele><time>2011-05-22T16:14:08Z</time></trkpt><trkpt lat="49.932758" lon="14.161545"><ele>222.68</ele><time>2011-05-22T16:14:24Z</time></trkpt><trkpt lat="49.932957" lon="14.162966"><ele>223.16</ele><time>2011-05-22T16:14:40Z</time></trkpt><trkpt lat="49.933144" lon="14.164386"><ele>223.16</ele><time>2011-05-22T16:14:56Z</time></trkpt><trkpt lat="49.933357" lon="14.165753"><ele>223.16</ele><time>2011-05-22T16:15:12Z</time></trkpt><trkpt lat="49.933540" lon="14.166682"><ele>224.12</ele><time>2011-05-22T16:15:26Z</time></trkpt><trkpt lat="49.933537" lon="14.166681"><ele>224.12</ele><time>2011-05-22T16:15:36Z</time></trkpt><trkpt lat="49.933529" lon="14.166672"><ele>223.64</ele><time>2011-05-22T16:15:52Z</time></trkpt><trkpt lat="49.933556" lon="14.166952"><ele>223.64</ele><time>2011-05-22T16:16:05Z</time></trkpt><trkpt lat="49.933567" lon="14.167014"><ele>223.16</ele><time>2011-05-22T16:16:06Z</time></trkpt><trkpt lat="49.933750" lon="14.168208"><ele>223.16</ele><time>2011-05-22T16:16:20Z</time></trkpt><trkpt lat="49.933971" lon="14.170277"><ele>219.80</ele><time>2011-05-22T16:16:42Z</time></trkpt><trkpt lat="49.934166" lon="14.172351"><ele>220.76</ele><time>2011-05-22T16:17:03Z</time></trkpt><trkpt lat="49.934364" lon="14.173890"><ele>220.76</ele><time>2011-05-22T16:17:20Z</time></trkpt><trkpt lat="49.934639" lon="14.175360"><ele>221.72</ele><time>2011-05-22T16:17:37Z</time></trkpt><trkpt lat="49.934826" lon="14.176550"><ele>221.24</ele><time>2011-05-22T16:17:53Z</time></trkpt><trkpt lat="49.934914" lon="14.177966"><ele>220.28</ele><time>2011-05-22T16:18:09Z</time></trkpt><trkpt lat="49.934757" lon="14.179243"><ele>220.76</ele><time>2011-05-22T16:18:24Z</time></trkpt><trkpt lat="49.934521" lon="14.180259"><ele>220.76</ele><time>2011-05-22T16:18:36Z</time></trkpt><trkpt lat="49.934433" lon="14.180728"><ele>221.72</ele><time>2011-05-22T16:18:42Z</time></trkpt><trkpt lat="49.934414" lon="14.180857"><ele>221.24</ele><time>2011-05-22T16:18:44Z</time></trkpt><trkpt lat="49.934387" lon="14.181079"><ele>222.20</ele><time>2011-05-22T16:18:48Z</time></trkpt><trkpt lat="49.934319" lon="14.181289"><ele>223.64</ele><time>2011-05-22T16:18:52Z</time></trkpt><trkpt lat="49.934223" lon="14.181579"><ele>220.76</ele><time>2011-05-22T16:18:57Z</time></trkpt><trkpt lat="49.934120" lon="14.181854"><ele>221.24</ele><time>2011-05-22T16:19:02Z</time></trkpt><trkpt lat="49.933876" lon="14.182595"><ele>217.88</ele><time>2011-05-22T16:19:14Z</time></trkpt><trkpt lat="49.933811" lon="14.182805"><ele>219.32</ele><time>2011-05-22T16:19:17Z</time></trkpt><trkpt lat="49.933655" lon="14.183798"><ele>218.84</ele><time>2011-05-22T16:19:31Z</time></trkpt><trkpt lat="49.933537" lon="14.184457"><ele>219.32</ele><time>2011-05-22T16:19:44Z</time></trkpt><trkpt lat="49.933338" lon="14.185163"><ele>219.80</ele><time>2011-05-22T16:19:58Z</time></trkpt><trkpt lat="49.933132" lon="14.185968"><ele>219.32</ele><time>2011-05-22T16:20:12Z</time></trkpt><trkpt lat="49.932903" lon="14.186627"><ele>219.80</ele><time>2011-05-22T16:20:24Z</time></trkpt><trkpt lat="49.932549" lon="14.187201"><ele>219.80</ele><time>2011-05-22T16:20:40Z</time></trkpt><trkpt lat="49.932499" lon="14.187201"><ele>220.28</ele><time>2011-05-22T16:20:53Z</time></trkpt><trkpt lat="49.932507" lon="14.187195"><ele>219.80</ele><time>2011-05-22T16:21:19Z</time></trkpt><trkpt lat="49.932514" lon="14.187223"><ele>219.80</ele><time>2011-05-22T16:21:28Z</time></trkpt><trkpt lat="49.932514" lon="14.187223"><ele>219.80</ele><time>2011-05-22T16:21:29Z</time></trkpt><trkpt lat="49.932537" lon="14.187211"><ele>219.32</ele><time>2011-05-22T16:21:46Z</time></trkpt><trkpt lat="49.932587" lon="14.187182"><ele>219.32</ele><time>2011-05-22T16:21:48Z</time></trkpt><trkpt lat="49.932613" lon="14.187168"><ele>219.32</ele><time>2011-05-22T16:21:49Z</time></trkpt><trkpt lat="49.932636" lon="14.187148"><ele>219.32</ele><time>2011-05-22T16:21:50Z</time></trkpt><trkpt lat="49.932663" lon="14.187121"><ele>219.80</ele><time>2011-05-22T16:21:51Z</time></trkpt><trkpt lat="49.932686" lon="14.187091"><ele>219.80</ele><time>2011-05-22T16:21:52Z</time></trkpt><trkpt lat="49.933064" lon="14.186375"><ele>218.84</ele><time>2011-05-22T16:22:05Z</time></trkpt><trkpt lat="49.933319" lon="14.185339"><ele>218.36</ele><time>2011-05-22T16:22:20Z</time></trkpt><trkpt lat="49.933613" lon="14.184316"><ele>216.91</ele><time>2011-05-22T16:22:34Z</time></trkpt><trkpt lat="49.933666" lon="14.184052"><ele>216.43</ele><time>2011-05-22T16:22:37Z</time></trkpt><trkpt lat="49.933708" lon="14.183783"><ele>216.43</ele><time>2011-05-22T16:22:40Z</time></trkpt><trkpt lat="49.933720" lon="14.183698"><ele>216.91</ele><time>2011-05-22T16:22:41Z</time></trkpt><trkpt lat="49.933743" lon="14.183537"><ele>216.91</ele><time>2011-05-22T16:22:43Z</time></trkpt><trkpt lat="49.933769" lon="14.183377"><ele>216.43</ele><time>2011-05-22T16:22:45Z</time></trkpt><trkpt lat="49.933773" lon="14.183294"><ele>216.43</ele><time>2011-05-22T16:22:46Z</time></trkpt><trkpt lat="49.933781" lon="14.183209"><ele>216.91</ele><time>2011-05-22T16:22:47Z</time></trkpt><trkpt lat="49.933838" lon="14.182801"><ele>216.43</ele><time>2011-05-22T16:22:52Z</time></trkpt><trkpt lat="49.933872" lon="14.182627"><ele>217.40</ele><time>2011-05-22T16:22:56Z</time></trkpt><trkpt lat="49.933857" lon="14.182625"><ele>217.88</ele><time>2011-05-22T16:22:59Z</time></trkpt><trkpt lat="49.933853" lon="14.182648"><ele>218.36</ele><time>2011-05-22T16:23:00Z</time></trkpt><trkpt lat="49.933853" lon="14.182678"><ele>217.88</ele><time>2011-05-22T16:23:01Z</time></trkpt><trkpt lat="49.933773" lon="14.182969"><ele>217.88</ele><time>2011-05-22T16:23:11Z</time></trkpt><trkpt lat="49.933777" lon="14.182959"><ele>217.88</ele><time>2011-05-22T16:23:22Z</time></trkpt><trkpt lat="49.933792" lon="14.182940"><ele>217.88</ele><time>2011-05-22T16:23:24Z</time></trkpt><trkpt lat="49.933918" lon="14.182530"><ele>217.40</ele><time>2011-05-22T16:23:34Z</time></trkpt><trkpt lat="49.934029" lon="14.182221"><ele>218.36</ele><time>2011-05-22T16:23:39Z</time></trkpt><trkpt lat="49.934052" lon="14.182166"><ele>218.84</ele><time>2011-05-22T16:23:40Z</time></trkpt><trkpt lat="49.934387" lon="14.181297"><ele>219.80</ele><time>2011-05-22T16:23:54Z</time></trkpt><trkpt lat="49.934486" lon="14.180514"><ele>220.28</ele><time>2011-05-22T16:24:07Z</time></trkpt><trkpt lat="49.934135" lon="14.180215"><ele>220.28</ele><time>2011-05-22T16:24:19Z</time></trkpt><trkpt lat="49.933395" lon="14.180020"><ele>218.36</ele><time>2011-05-22T16:24:32Z</time></trkpt><trkpt lat="49.933178" lon="14.179948"><ele>217.40</ele><time>2011-05-22T16:24:36Z</time></trkpt><trkpt lat="49.932449" lon="14.179677"><ele>218.36</ele><time>2011-05-22T16:24:50Z</time></trkpt><trkpt lat="49.932411" lon="14.179672"><ele>218.84</ele><time>2011-05-22T16:24:52Z</time></trkpt><trkpt lat="49.932419" lon="14.179735"><ele>218.84</ele><time>2011-05-22T16:25:01Z</time></trkpt><trkpt lat="49.932434" lon="14.179722"><ele>219.32</ele><time>2011-05-22T16:25:03Z</time></trkpt><trkpt lat="49.932430" lon="14.179708"><ele>218.84</ele><time>2011-05-22T16:25:04Z</time></trkpt><trkpt lat="49.932419" lon="14.179693"><ele>218.84</ele><time>2011-05-22T16:25:05Z</time></trkpt><trkpt lat="49.932407" lon="14.179682"><ele>218.84</ele><time>2011-05-22T16:25:06Z</time></trkpt><trkpt lat="49.932396" lon="14.179685"><ele>219.32</ele><time>2011-05-22T16:25:23Z</time></trkpt><trkpt lat="49.932182" lon="14.179716"><ele>218.36</ele><time>2011-05-22T16:25:37Z</time></trkpt><trkpt lat="49.932003" lon="14.179719"><ele>218.36</ele><time>2011-05-22T16:25:41Z</time></trkpt><trkpt lat="49.931332" lon="14.179609"><ele>216.43</ele><time>2011-05-22T16:25:57Z</time></trkpt><trkpt lat="49.930649" lon="14.179538"><ele>216.43</ele><time>2011-05-22T16:26:11Z</time></trkpt><trkpt lat="49.930264" lon="14.179502"><ele>218.36</ele><time>2011-05-22T16:26:24Z</time></trkpt><trkpt lat="49.930229" lon="14.179477"><ele>217.88</ele><time>2011-05-22T16:26:26Z</time></trkpt><trkpt lat="49.930218" lon="14.179482"><ele>218.36</ele><time>2011-05-22T16:26:40Z</time></trkpt><trkpt lat="49.930218" lon="14.179481"><ele>217.88</ele><time>2011-05-22T16:27:05Z</time></trkpt><trkpt lat="49.930214" lon="14.179476"><ele>216.91</ele><time>2011-05-22T16:27:29Z</time></trkpt><trkpt lat="49.930214" lon="14.179476"><ele>217.88</ele><time>2011-05-22T16:28:00Z</time></trkpt><trkpt lat="49.930214" lon="14.179490"><ele>217.88</ele><time>2011-05-22T16:28:12Z</time></trkpt><trkpt lat="49.930035" lon="14.179440"><ele>217.40</ele><time>2011-05-22T16:28:20Z</time></trkpt><trkpt lat="49.929901" lon="14.179379"><ele>218.84</ele><time>2011-05-22T16:28:26Z</time></trkpt><trkpt lat="49.930004" lon="14.179468"><ele>217.88</ele><time>2011-05-22T16:28:30Z</time></trkpt><trkpt lat="49.930210" lon="14.179532"><ele>216.91</ele><time>2011-05-22T16:28:36Z</time></trkpt><trkpt lat="49.930256" lon="14.179535"><ele>216.91</ele><time>2011-05-22T16:28:37Z</time></trkpt><trkpt lat="49.930546" lon="14.179550"><ele>216.43</ele><time>2011-05-22T16:28:43Z</time></trkpt><trkpt lat="49.930862" lon="14.179573"><ele>217.40</ele><time>2011-05-22T16:28:55Z</time></trkpt><trkpt lat="49.930824" lon="14.179615"><ele>217.40</ele><time>2011-05-22T16:29:09Z</time></trkpt><trkpt lat="49.930820" lon="14.179604"><ele>217.40</ele><time>2011-05-22T16:29:25Z</time></trkpt><trkpt lat="49.930862" lon="14.179577"><ele>217.40</ele><time>2011-05-22T16:29:35Z</time></trkpt><trkpt lat="49.930882" lon="14.179565"><ele>216.91</ele><time>2011-05-22T16:29:36Z</time></trkpt><trkpt lat="49.930904" lon="14.179567"><ele>217.40</ele><time>2011-05-22T16:29:37Z</time></trkpt><trkpt lat="49.930927" lon="14.179573"><ele>217.40</ele><time>2011-05-22T16:29:38Z</time></trkpt><trkpt lat="49.930954" lon="14.179574"><ele>216.91</ele><time>2011-05-22T16:29:39Z</time></trkpt><trkpt lat="49.930981" lon="14.179571"><ele>216.91</ele><time>2011-05-22T16:29:40Z</time></trkpt><trkpt lat="49.931007" lon="14.179569"><ele>216.91</ele><time>2011-05-22T16:29:41Z</time></trkpt><trkpt lat="49.931038" lon="14.179571"><ele>216.91</ele><time>2011-05-22T16:29:42Z</time></trkpt><trkpt lat="49.931072" lon="14.179579"><ele>216.91</ele><time>2011-05-22T16:29:43Z</time></trkpt><trkpt lat="49.931103" lon="14.179587"><ele>216.91</ele><time>2011-05-22T16:29:44Z</time></trkpt><trkpt lat="49.931137" lon="14.179594"><ele>216.43</ele><time>2011-05-22T16:29:45Z</time></trkpt><trkpt lat="49.931168" lon="14.179601"><ele>216.91</ele><time>2011-05-22T16:29:46Z</time></trkpt><trkpt lat="49.931198" lon="14.179610"><ele>216.91</ele><time>2011-05-22T16:29:47Z</time></trkpt><trkpt lat="49.931232" lon="14.179623"><ele>216.91</ele><time>2011-05-22T16:29:48Z</time></trkpt><trkpt lat="49.931499" lon="14.179665"><ele>215.95</ele><time>2011-05-22T16:29:55Z</time></trkpt><trkpt lat="49.932011" lon="14.179741"><ele>216.91</ele><time>2011-05-22T16:30:10Z</time></trkpt><trkpt lat="49.932289" lon="14.179706"><ele>217.88</ele><time>2011-05-22T16:30:23Z</time></trkpt><trkpt lat="49.932289" lon="14.179706"><ele>218.36</ele><time>2011-05-22T16:30:48Z</time></trkpt><trkpt lat="49.932289" lon="14.179705"><ele>218.36</ele><time>2011-05-22T16:31:19Z</time></trkpt><trkpt lat="49.932289" lon="14.179705"><ele>217.88</ele><time>2011-05-22T16:31:27Z</time></trkpt><trkpt lat="49.932266" lon="14.179732"><ele>218.36</ele><time>2011-05-22T16:31:30Z</time></trkpt><trkpt lat="49.932247" lon="14.179784"><ele>218.36</ele><time>2011-05-22T16:31:45Z</time></trkpt><trkpt lat="49.932251" lon="14.179787"><ele>218.84</ele><time>2011-05-22T16:32:09Z</time></trkpt><trkpt lat="49.932293" lon="14.179811"><ele>219.32</ele><time>2011-05-22T16:32:21Z</time></trkpt><trkpt lat="49.932308" lon="14.179816"><ele>219.32</ele><time>2011-05-22T16:32:23Z</time></trkpt><trkpt lat="49.932323" lon="14.179816"><ele>218.84</ele><time>2011-05-22T16:32:24Z</time></trkpt><trkpt lat="49.932343" lon="14.179815"><ele>218.36</ele><time>2011-05-22T16:32:25Z</time></trkpt><trkpt lat="49.932369" lon="14.179817"><ele>217.88</ele><time>2011-05-22T16:32:26Z</time></trkpt><trkpt lat="49.932411" lon="14.179825"><ele>217.40</ele><time>2011-05-22T16:32:27Z</time></trkpt><trkpt lat="49.932468" lon="14.179839"><ele>217.40</ele><time>2011-05-22T16:32:28Z</time></trkpt><trkpt lat="49.932495" lon="14.179852"><ele>216.91</ele><time>2011-05-22T16:32:29Z</time></trkpt><trkpt lat="49.932526" lon="14.179870"><ele>216.91</ele><time>2011-05-22T16:32:30Z</time></trkpt><trkpt lat="49.933292" lon="14.180083"><ele>218.36</ele><time>2011-05-22T16:32:43Z</time></trkpt><trkpt lat="49.934063" lon="14.180424"><ele>219.80</ele><time>2011-05-22T16:33:00Z</time></trkpt><trkpt lat="49.934334" lon="14.180524"><ele>219.80</ele><time>2011-05-22T16:33:09Z</time></trkpt><trkpt lat="49.934391" lon="14.180601"><ele>219.32</ele><time>2011-05-22T16:33:11Z</time></trkpt><trkpt lat="49.934406" lon="14.180672"><ele>218.84</ele><time>2011-05-22T16:33:12Z</time></trkpt><trkpt lat="49.934406" lon="14.180731"><ele>218.84</ele><time>2011-05-22T16:33:13Z</time></trkpt><trkpt lat="49.934330" lon="14.181249"><ele>219.32</ele><time>2011-05-22T16:33:27Z</time></trkpt><trkpt lat="49.934227" lon="14.181523"><ele>218.36</ele><time>2011-05-22T16:33:42Z</time></trkpt><trkpt lat="49.934151" lon="14.181758"><ele>218.36</ele><time>2011-05-22T16:33:46Z</time></trkpt><trkpt lat="49.933811" lon="14.182878"><ele>215.95</ele><time>2011-05-22T16:34:01Z</time></trkpt><trkpt lat="49.933670" lon="14.183940"><ele>215.47</ele><time>2011-05-22T16:34:13Z</time></trkpt><trkpt lat="49.933464" lon="14.184837"><ele>216.43</ele><time>2011-05-22T16:34:24Z</time></trkpt><trkpt lat="49.933437" lon="14.184907"><ele>216.91</ele><time>2011-05-22T16:34:25Z</time></trkpt><trkpt lat="49.933365" lon="14.185120"><ele>216.91</ele><time>2011-05-22T16:34:28Z</time></trkpt><trkpt lat="49.933346" lon="14.185193"><ele>217.40</ele><time>2011-05-22T16:34:29Z</time></trkpt><trkpt lat="49.933060" lon="14.186350"><ele>216.91</ele><time>2011-05-22T16:34:44Z</time></trkpt><trkpt lat="49.932606" lon="14.187383"><ele>217.40</ele><time>2011-05-22T16:34:59Z</time></trkpt><trkpt lat="49.932133" lon="14.187932"><ele>216.91</ele><time>2011-05-22T16:35:11Z</time></trkpt><trkpt lat="49.932091" lon="14.187956"><ele>216.91</ele><time>2011-05-22T16:35:12Z</time></trkpt><trkpt lat="49.932041" lon="14.187973"><ele>216.43</ele><time>2011-05-22T16:35:13Z</time></trkpt><trkpt lat="49.931705" lon="14.188112"><ele>216.43</ele><time>2011-05-22T16:35:20Z</time></trkpt><trkpt lat="49.931396" lon="14.188175"><ele>215.95</ele><time>2011-05-22T16:35:26Z</time></trkpt><trkpt lat="49.931343" lon="14.188180"><ele>216.91</ele><time>2011-05-22T16:35:27Z</time></trkpt><trkpt lat="49.930473" lon="14.188406"><ele>216.91</ele><time>2011-05-22T16:35:44Z</time></trkpt><trkpt lat="49.930347" lon="14.188437"><ele>216.91</ele><time>2011-05-22T16:35:47Z</time></trkpt><trkpt lat="49.929649" lon="14.188610"><ele>216.91</ele><time>2011-05-22T16:36:01Z</time></trkpt><trkpt lat="49.929344" lon="14.188660"><ele>216.91</ele><time>2011-05-22T16:36:07Z</time></trkpt><trkpt lat="49.929234" lon="14.188651"><ele>216.91</ele><time>2011-05-22T16:36:09Z</time></trkpt><trkpt lat="49.929127" lon="14.188657"><ele>216.43</ele><time>2011-05-22T16:36:11Z</time></trkpt><trkpt lat="49.929070" lon="14.188649"><ele>216.43</ele><time>2011-05-22T16:36:12Z</time></trkpt><trkpt lat="49.928444" lon="14.188241"><ele>216.43</ele><time>2011-05-22T16:36:23Z</time></trkpt><trkpt lat="49.928299" lon="14.188046"><ele>216.43</ele><time>2011-05-22T16:36:27Z</time></trkpt><trkpt lat="49.927910" lon="14.187632"><ele>217.40</ele><time>2011-05-22T16:36:37Z</time></trkpt><trkpt lat="49.927868" lon="14.187619"><ele>217.88</ele><time>2011-05-22T16:36:38Z</time></trkpt><trkpt lat="49.927700" lon="14.187599"><ele>217.88</ele><time>2011-05-22T16:36:42Z</time></trkpt><trkpt lat="49.927490" lon="14.187652"><ele>217.40</ele><time>2011-05-22T16:36:47Z</time></trkpt><trkpt lat="49.927269" lon="14.187625"><ele>217.40</ele><time>2011-05-22T16:36:53Z</time></trkpt><trkpt lat="49.926830" lon="14.187418"><ele>218.36</ele><time>2011-05-22T16:37:02Z</time></trkpt><trkpt lat="49.926743" lon="14.187346"><ele>218.84</ele><time>2011-05-22T16:37:04Z</time></trkpt><trkpt lat="49.926331" lon="14.186940"><ele>219.80</ele><time>2011-05-22T16:37:15Z</time></trkpt><trkpt lat="49.926296" lon="14.186948"><ele>220.28</ele><time>2011-05-22T16:37:25Z</time></trkpt><trkpt lat="49.925922" lon="14.186927"><ele>220.28</ele><time>2011-05-22T16:37:37Z</time></trkpt><trkpt lat="49.925514" lon="14.187449"><ele>220.76</ele><time>2011-05-22T16:37:49Z</time></trkpt><trkpt lat="49.924980" lon="14.188516"><ele>220.28</ele><time>2011-05-22T16:38:07Z</time></trkpt><trkpt lat="49.924484" lon="14.189489"><ele>219.80</ele><time>2011-05-22T16:38:23Z</time></trkpt><trkpt lat="49.924000" lon="14.190462"><ele>219.32</ele><time>2011-05-22T16:38:39Z</time></trkpt><trkpt lat="49.923790" lon="14.190886"><ele>217.88</ele><time>2011-05-22T16:38:46Z</time></trkpt><trkpt lat="49.923691" lon="14.191080"><ele>219.32</ele><time>2011-05-22T16:38:49Z</time></trkpt><trkpt lat="49.923225" lon="14.192204"><ele>218.36</ele><time>2011-05-22T16:39:05Z</time></trkpt><trkpt lat="49.922718" lon="14.193627"><ele>217.88</ele><time>2011-05-22T16:39:25Z</time></trkpt><trkpt lat="49.922497" lon="14.194543"><ele>219.80</ele><time>2011-05-22T16:39:39Z</time></trkpt><trkpt lat="49.922375" lon="14.195962"><ele>219.80</ele><time>2011-05-22T16:39:57Z</time></trkpt><trkpt lat="49.922222" lon="14.197674"><ele>220.28</ele><time>2011-05-22T16:40:18Z</time></trkpt><trkpt lat="49.922207" lon="14.197819"><ele>219.80</ele><time>2011-05-22T16:40:20Z</time></trkpt><trkpt lat="49.922123" lon="14.198599"><ele>218.36</ele><time>2011-05-22T16:40:31Z</time></trkpt><trkpt lat="49.922100" lon="14.198655"><ele>218.36</ele><time>2011-05-22T16:40:32Z</time></trkpt><trkpt lat="49.922070" lon="14.198705"><ele>217.88</ele><time>2011-05-22T16:40:33Z</time></trkpt><trkpt lat="49.922035" lon="14.198740"><ele>217.88</ele><time>2011-05-22T16:40:34Z</time></trkpt><trkpt lat="49.921997" lon="14.198762"><ele>217.88</ele><time>2011-05-22T16:40:35Z</time></trkpt><trkpt lat="49.921951" lon="14.198778"><ele>215.95</ele><time>2011-05-22T16:40:36Z</time></trkpt><trkpt lat="49.921909" lon="14.198792"><ele>217.40</ele><time>2011-05-22T16:40:37Z</time></trkpt><trkpt lat="49.921230" lon="14.198950"><ele>215.47</ele><time>2011-05-22T16:40:50Z</time></trkpt><trkpt lat="49.921021" lon="14.199030"><ele>214.99</ele><time>2011-05-22T16:40:54Z</time></trkpt><trkpt lat="49.920918" lon="14.199113"><ele>214.99</ele><time>2011-05-22T16:40:56Z</time></trkpt><trkpt lat="49.920879" lon="14.199171"><ele>214.51</ele><time>2011-05-22T16:40:57Z</time></trkpt><trkpt lat="49.920395" lon="14.200151"><ele>212.11</ele><time>2011-05-22T16:41:11Z</time></trkpt><trkpt lat="49.920341" lon="14.200304"><ele>211.63</ele><time>2011-05-22T16:41:13Z</time></trkpt><trkpt lat="49.920326" lon="14.200385"><ele>212.11</ele><time>2011-05-22T16:41:14Z</time></trkpt><trkpt lat="49.920273" lon="14.200869"><ele>212.59</ele><time>2011-05-22T16:41:21Z</time></trkpt><trkpt lat="49.920269" lon="14.200890"><ele>213.07</ele><time>2011-05-22T16:41:22Z</time></trkpt><trkpt lat="49.920261" lon="14.200914"><ele>213.07</ele><time>2011-05-22T16:41:23Z</time></trkpt><trkpt lat="49.920200" lon="14.201437"><ele>212.59</ele><time>2011-05-22T16:41:35Z</time></trkpt><trkpt lat="49.920158" lon="14.201512"><ele>212.59</ele><time>2011-05-22T16:41:37Z</time></trkpt><trkpt lat="49.919628" lon="14.201867"><ele>213.07</ele><time>2011-05-22T16:41:53Z</time></trkpt><trkpt lat="49.919327" lon="14.202035"><ele>213.55</ele><time>2011-05-22T16:42:05Z</time></trkpt><trkpt lat="49.918953" lon="14.202263"><ele>214.99</ele><time>2011-05-22T16:42:16Z</time></trkpt><trkpt lat="49.918785" lon="14.202534"><ele>212.59</ele><time>2011-05-22T16:42:29Z</time></trkpt><trkpt lat="49.918785" lon="14.202579"><ele>213.55</ele><time>2011-05-22T16:42:33Z</time></trkpt><trkpt lat="49.918808" lon="14.202352"><ele>213.07</ele><time>2011-05-22T16:42:49Z</time></trkpt><trkpt lat="49.918816" lon="14.202254"><ele>213.07</ele><time>2011-05-22T16:42:59Z</time></trkpt><trkpt lat="49.918747" lon="14.201822"><ele>211.63</ele><time>2011-05-22T16:43:12Z</time></trkpt><trkpt lat="49.918770" lon="14.201831"><ele>211.63</ele><time>2011-05-22T16:43:15Z</time></trkpt><trkpt lat="49.918789" lon="14.201892"><ele>211.15</ele><time>2011-05-22T16:43:23Z</time></trkpt><trkpt lat="49.918934" lon="14.202385"><ele>210.19</ele><time>2011-05-22T16:43:37Z</time></trkpt><trkpt lat="49.919003" lon="14.202531"><ele>209.70</ele><time>2011-05-22T16:43:50Z</time></trkpt><trkpt lat="49.919003" lon="14.202543"><ele>209.70</ele><time>2011-05-22T16:43:55Z</time></trkpt><trkpt lat="49.919018" lon="14.202659"><ele>209.22</ele><time>2011-05-22T16:43:59Z</time></trkpt><trkpt lat="49.919155" lon="14.203459"><ele>210.19</ele><time>2011-05-22T16:44:13Z</time></trkpt><trkpt lat="49.919407" lon="14.204306"><ele>210.19</ele><time>2011-05-22T16:44:28Z</time></trkpt><trkpt lat="49.919754" lon="14.205364"><ele>210.19</ele><time>2011-05-22T16:44:47Z</time></trkpt><trkpt lat="49.919884" lon="14.205505"><ele>207.30</ele><time>2011-05-22T16:44:57Z</time></trkpt><trkpt lat="49.919872" lon="14.205483"><ele>208.26</ele><time>2011-05-22T16:44:58Z</time></trkpt><trkpt lat="49.919865" lon="14.205452"><ele>210.67</ele><time>2011-05-22T16:45:00Z</time></trkpt><trkpt lat="49.919849" lon="14.205432"><ele>210.67</ele><time>2011-05-22T16:45:17Z</time></trkpt><trkpt lat="49.919849" lon="14.205432"><ele>210.67</ele><time>2011-05-22T16:45:20Z</time></trkpt><trkpt lat="49.919811" lon="14.205434"><ele>210.19</ele><time>2011-05-22T16:45:43Z</time></trkpt><trkpt lat="49.919811" lon="14.205458"><ele>210.19</ele><time>2011-05-22T16:45:50Z</time></trkpt><trkpt lat="49.919842" lon="14.205597"><ele>209.70</ele><time>2011-05-22T16:45:54Z</time></trkpt><trkpt lat="49.919983" lon="14.206082"><ele>209.22</ele><time>2011-05-22T16:46:03Z</time></trkpt><trkpt lat="49.919968" lon="14.207126"><ele>210.19</ele><time>2011-05-22T16:46:18Z</time></trkpt><trkpt lat="49.919888" lon="14.207729"><ele>210.19</ele><time>2011-05-22T16:46:25Z</time></trkpt><trkpt lat="49.919838" lon="14.208787"><ele>211.15</ele><time>2011-05-22T16:46:37Z</time></trkpt><trkpt lat="49.919827" lon="14.208868"><ele>210.67</ele><time>2011-05-22T16:46:38Z</time></trkpt><trkpt lat="49.919727" lon="14.209207"><ele>213.07</ele><time>2011-05-22T16:46:45Z</time></trkpt><trkpt lat="49.919685" lon="14.209253"><ele>213.07</ele><time>2011-05-22T16:46:48Z</time></trkpt><trkpt lat="49.919678" lon="14.209251"><ele>212.59</ele><time>2011-05-22T16:47:07Z</time></trkpt><trkpt lat="49.919468" lon="14.209261"><ele>212.59</ele><time>2011-05-22T16:47:20Z</time></trkpt><trkpt lat="49.919090" lon="14.209146"><ele>213.55</ele><time>2011-05-22T16:47:32Z</time></trkpt><trkpt lat="49.918877" lon="14.209048"><ele>213.55</ele><time>2011-05-22T16:47:40Z</time></trkpt><trkpt lat="49.918842" lon="14.209051"><ele>214.51</ele><time>2011-05-22T16:47:44Z</time></trkpt><trkpt lat="49.918858" lon="14.209056"><ele>214.03</ele><time>2011-05-22T16:47:45Z</time></trkpt><trkpt lat="49.918877" lon="14.209053"><ele>214.51</ele><time>2011-05-22T16:47:46Z</time></trkpt><trkpt lat="49.918884" lon="14.209039"><ele>214.03</ele><time>2011-05-22T16:47:47Z</time></trkpt><trkpt lat="49.918888" lon="14.209027"><ele>214.51</ele><time>2011-05-22T16:47:48Z</time></trkpt><trkpt lat="49.918877" lon="14.209017"><ele>214.51</ele><time>2011-05-22T16:47:49Z</time></trkpt><trkpt lat="49.918861" lon="14.209008"><ele>214.03</ele><time>2011-05-22T16:47:50Z</time></trkpt><trkpt lat="49.918846" lon="14.209002"><ele>214.03</ele><time>2011-05-22T16:47:51Z</time></trkpt><trkpt lat="49.918835" lon="14.208997"><ele>214.51</ele><time>2011-05-22T16:47:52Z</time></trkpt><trkpt lat="49.918789" lon="14.208984"><ele>214.03</ele><time>2011-05-22T16:47:56Z</time></trkpt><trkpt lat="49.918781" lon="14.208993"><ele>214.51</ele><time>2011-05-22T16:47:57Z</time></trkpt><trkpt lat="49.918774" lon="14.209007"><ele>214.51</ele><time>2011-05-22T16:47:58Z</time></trkpt><trkpt lat="49.918800" lon="14.209053"><ele>214.51</ele><time>2011-05-22T16:48:03Z</time></trkpt><trkpt lat="49.918823" lon="14.209060"><ele>214.51</ele><time>2011-05-22T16:48:04Z</time></trkpt><trkpt lat="49.918865" lon="14.209072"><ele>214.51</ele><time>2011-05-22T16:48:05Z</time></trkpt><trkpt lat="49.919197" lon="14.209262"><ele>212.59</ele><time>2011-05-22T16:48:20Z</time></trkpt><trkpt lat="49.919331" lon="14.209844"><ele>212.11</ele><time>2011-05-22T16:48:32Z</time></trkpt><trkpt lat="49.919334" lon="14.209946"><ele>214.03</ele><time>2011-05-22T16:48:34Z</time></trkpt><trkpt lat="49.919357" lon="14.210683"><ele>213.55</ele><time>2011-05-22T16:48:49Z</time></trkpt><trkpt lat="49.919388" lon="14.211304"><ele>211.63</ele><time>2011-05-22T16:49:03Z</time></trkpt><trkpt lat="49.919369" lon="14.211367"><ele>210.19</ele><time>2011-05-22T16:49:14Z</time></trkpt><trkpt lat="49.919369" lon="14.211367"><ele>212.59</ele><time>2011-05-22T16:49:17Z</time></trkpt><trkpt lat="49.919365" lon="14.211302"><ele>212.11</ele><time>2011-05-22T16:49:35Z</time></trkpt><trkpt lat="49.919376" lon="14.211264"><ele>212.59</ele><time>2011-05-22T16:49:38Z</time></trkpt><trkpt lat="49.919369" lon="14.210719"><ele>213.07</ele><time>2011-05-22T16:49:50Z</time></trkpt><trkpt lat="49.919353" lon="14.210205"><ele>214.03</ele><time>2011-05-22T16:50:04Z</time></trkpt><trkpt lat="49.919376" lon="14.210291"><ele>214.03</ele><time>2011-05-22T16:50:11Z</time></trkpt><trkpt lat="49.919407" lon="14.211342"><ele>211.15</ele><time>2011-05-22T16:50:22Z</time></trkpt><trkpt lat="49.919476" lon="14.212722"><ele>209.70</ele><time>2011-05-22T16:50:39Z</time></trkpt><trkpt lat="49.919518" lon="14.213387"><ele>209.22</ele><time>2011-05-22T16:50:50Z</time></trkpt><trkpt lat="49.919525" lon="14.213451"><ele>209.22</ele><time>2011-05-22T16:50:51Z</time></trkpt><trkpt lat="49.919533" lon="14.213525"><ele>209.22</ele><time>2011-05-22T16:50:52Z</time></trkpt><trkpt lat="49.919617" lon="14.214495"><ele>208.74</ele><time>2011-05-22T16:51:03Z</time></trkpt><trkpt lat="49.919701" lon="14.214941"><ele>211.15</ele><time>2011-05-22T16:51:12Z</time></trkpt><trkpt lat="49.919701" lon="14.214979"><ele>211.15</ele><time>2011-05-22T16:51:20Z</time></trkpt><trkpt lat="49.919701" lon="14.215019"><ele>211.15</ele><time>2011-05-22T16:51:21Z</time></trkpt><trkpt lat="49.919701" lon="14.215074"><ele>210.19</ele><time>2011-05-22T16:51:22Z</time></trkpt><trkpt lat="49.919708" lon="14.215513"><ele>209.22</ele><time>2011-05-22T16:51:28Z</time></trkpt><trkpt lat="49.919662" lon="14.216573"><ele>210.19</ele><time>2011-05-22T16:51:41Z</time></trkpt><trkpt lat="49.919647" lon="14.216763"><ele>211.63</ele><time>2011-05-22T16:51:44Z</time></trkpt><trkpt lat="49.919514" lon="14.217352"><ele>212.11</ele><time>2011-05-22T16:51:55Z</time></trkpt><trkpt lat="49.919483" lon="14.217471"><ele>211.15</ele><time>2011-05-22T16:51:57Z</time></trkpt><trkpt lat="49.919445" lon="14.217599"><ele>211.63</ele><time>2011-05-22T16:51:59Z</time></trkpt><trkpt lat="49.919426" lon="14.217662"><ele>211.15</ele><time>2011-05-22T16:52:00Z</time></trkpt><trkpt lat="49.919029" lon="14.218495"><ele>211.15</ele><time>2011-05-22T16:52:14Z</time></trkpt><trkpt lat="49.918957" lon="14.218562"><ele>211.15</ele><time>2011-05-22T16:52:16Z</time></trkpt><trkpt lat="49.918736" lon="14.218731"><ele>213.07</ele><time>2011-05-22T16:52:22Z</time></trkpt><trkpt lat="49.918304" lon="14.219292"><ele>214.51</ele><time>2011-05-22T16:52:37Z</time></trkpt><trkpt lat="49.918198" lon="14.220007"><ele>214.51</ele><time>2011-05-22T16:52:50Z</time></trkpt><trkpt lat="49.918201" lon="14.220188"><ele>214.03</ele><time>2011-05-22T16:53:02Z</time></trkpt><trkpt lat="49.918026" lon="14.220765"><ele>212.59</ele><time>2011-05-22T16:53:12Z</time></trkpt><trkpt lat="49.917519" lon="14.221738"><ele>213.07</ele><time>2011-05-22T16:53:27Z</time></trkpt><trkpt lat="49.917072" lon="14.222606"><ele>212.59</ele><time>2011-05-22T16:53:39Z</time></trkpt><trkpt lat="49.916615" lon="14.223405"><ele>214.03</ele><time>2011-05-22T16:53:52Z</time></trkpt><trkpt lat="49.916172" lon="14.224353"><ele>214.03</ele><time>2011-05-22T16:54:08Z</time></trkpt><trkpt lat="49.915840" lon="14.225121"><ele>211.15</ele><time>2011-05-22T16:54:19Z</time></trkpt><trkpt lat="49.915436" lon="14.226250"><ele>212.11</ele><time>2011-05-22T16:54:34Z</time></trkpt><trkpt lat="49.915310" lon="14.226327"><ele>213.07</ele><time>2011-05-22T16:54:40Z</time></trkpt><trkpt lat="49.915279" lon="14.226319"><ele>212.11</ele><time>2011-05-22T16:54:42Z</time></trkpt><trkpt lat="49.915268" lon="14.226307"><ele>213.55</ele><time>2011-05-22T16:54:45Z</time></trkpt><trkpt lat="49.915268" lon="14.226308"><ele>213.07</ele><time>2011-05-22T16:54:53Z</time></trkpt><trkpt lat="49.915260" lon="14.226254"><ele>209.22</ele><time>2011-05-22T16:55:01Z</time></trkpt><trkpt lat="49.915237" lon="14.226256"><ele>213.07</ele><time>2011-05-22T16:55:03Z</time></trkpt><trkpt lat="49.915234" lon="14.226274"><ele>213.07</ele><time>2011-05-22T16:55:04Z</time></trkpt><trkpt lat="49.915230" lon="14.226293"><ele>212.59</ele><time>2011-05-22T16:55:05Z</time></trkpt><trkpt lat="49.915234" lon="14.226309"><ele>213.07</ele><time>2011-05-22T16:55:06Z</time></trkpt><trkpt lat="49.915245" lon="14.226318"><ele>213.07</ele><time>2011-05-22T16:55:07Z</time></trkpt><trkpt lat="49.915260" lon="14.226324"><ele>212.59</ele><time>2011-05-22T16:55:08Z</time></trkpt><trkpt lat="49.915367" lon="14.226304"><ele>212.59</ele><time>2011-05-22T16:55:13Z</time></trkpt><trkpt lat="49.915401" lon="14.226448"><ele>212.59</ele><time>2011-05-22T16:55:19Z</time></trkpt><trkpt lat="49.915211" lon="14.227345"><ele>213.07</ele><time>2011-05-22T16:55:35Z</time></trkpt><trkpt lat="49.915073" lon="14.228027"><ele>214.51</ele><time>2011-05-22T16:55:48Z</time></trkpt><trkpt lat="49.915070" lon="14.228192"><ele>214.99</ele><time>2011-05-22T16:55:52Z</time></trkpt><trkpt lat="49.915001" lon="14.228992"><ele>214.51</ele><time>2011-05-22T16:56:07Z</time></trkpt><trkpt lat="49.914989" lon="14.230154"><ele>214.99</ele><time>2011-05-22T16:56:24Z</time></trkpt><trkpt lat="49.915039" lon="14.231023"><ele>215.47</ele><time>2011-05-22T16:56:39Z</time></trkpt><trkpt lat="49.915047" lon="14.231082"><ele>214.99</ele><time>2011-05-22T16:56:40Z</time></trkpt><trkpt lat="49.915089" lon="14.231403"><ele>212.59</ele><time>2011-05-22T16:56:44Z</time></trkpt><trkpt lat="49.915100" lon="14.231503"><ele>211.15</ele><time>2011-05-22T16:56:45Z</time></trkpt><trkpt lat="49.915123" lon="14.231703"><ele>210.19</ele><time>2011-05-22T16:56:47Z</time></trkpt><trkpt lat="49.915154" lon="14.232048"><ele>209.70</ele><time>2011-05-22T16:56:51Z</time></trkpt><trkpt lat="49.915161" lon="14.232106"><ele>210.67</ele><time>2011-05-22T16:56:52Z</time></trkpt><trkpt lat="49.915173" lon="14.232151"><ele>210.67</ele><time>2011-05-22T16:56:53Z</time></trkpt><trkpt lat="49.915188" lon="14.232193"><ele>210.67</ele><time>2011-05-22T16:56:54Z</time></trkpt><trkpt lat="49.915195" lon="14.232234"><ele>210.19</ele><time>2011-05-22T16:56:55Z</time></trkpt><trkpt lat="49.915222" lon="14.232569"><ele>211.63</ele><time>2011-05-22T16:57:06Z</time></trkpt><trkpt lat="49.915230" lon="14.232677"><ele>210.67</ele><time>2011-05-22T16:57:10Z</time></trkpt><trkpt lat="49.915245" lon="14.232681"><ele>210.67</ele><time>2011-05-22T16:57:11Z</time></trkpt><trkpt lat="49.915268" lon="14.232663"><ele>210.19</ele><time>2011-05-22T16:57:12Z</time></trkpt><trkpt lat="49.915295" lon="14.232631"><ele>209.70</ele><time>2011-05-22T16:57:13Z</time></trkpt><trkpt lat="49.915314" lon="14.232592"><ele>209.70</ele><time>2011-05-22T16:57:14Z</time></trkpt><trkpt lat="49.915325" lon="14.232548"><ele>209.70</ele><time>2011-05-22T16:57:15Z</time></trkpt><trkpt lat="49.915321" lon="14.232510"><ele>210.19</ele><time>2011-05-22T16:57:16Z</time></trkpt><trkpt lat="49.915302" lon="14.232482"><ele>209.70</ele><time>2011-05-22T16:57:17Z</time></trkpt><trkpt lat="49.915283" lon="14.232471"><ele>210.19</ele><time>2011-05-22T16:57:18Z</time></trkpt><trkpt lat="49.915272" lon="14.232479"><ele>210.19</ele><time>2011-05-22T16:57:19Z</time></trkpt><trkpt lat="49.915264" lon="14.232502"><ele>210.67</ele><time>2011-05-22T16:57:20Z</time></trkpt><trkpt lat="49.915264" lon="14.232516"><ele>212.59</ele><time>2011-05-22T16:57:33Z</time></trkpt><trkpt lat="49.915264" lon="14.232516"><ele>210.67</ele><time>2011-05-22T16:57:36Z</time></trkpt><trkpt lat="49.915253" lon="14.232541"><ele>210.19</ele><time>2011-05-22T16:57:56Z</time></trkpt><trkpt lat="49.915249" lon="14.232570"><ele>209.70</ele><time>2011-05-22T16:57:57Z</time></trkpt><trkpt lat="49.915241" lon="14.232600"><ele>209.70</ele><time>2011-05-22T16:57:58Z</time></trkpt><trkpt lat="49.915237" lon="14.232639"><ele>210.19</ele><time>2011-05-22T16:57:59Z</time></trkpt><trkpt lat="49.915234" lon="14.232683"><ele>210.19</ele><time>2011-05-22T16:58:00Z</time></trkpt><trkpt lat="49.915295" lon="14.233375"><ele>211.15</ele><time>2011-05-22T16:58:13Z</time></trkpt><trkpt lat="49.915318" lon="14.233543"><ele>210.19</ele><time>2011-05-22T16:58:19Z</time></trkpt><trkpt lat="49.915333" lon="14.233548"><ele>210.19</ele><time>2011-05-22T16:58:23Z</time></trkpt><trkpt lat="49.915340" lon="14.233524"><ele>210.19</ele><time>2011-05-22T16:58:24Z</time></trkpt><trkpt lat="49.915344" lon="14.233499"><ele>209.70</ele><time>2011-05-22T16:58:25Z</time></trkpt><trkpt lat="49.915306" lon="14.233129"><ele>209.70</ele><time>2011-05-22T16:58:32Z</time></trkpt><trkpt lat="49.915287" lon="14.233051"><ele>209.70</ele><time>2011-05-22T16:58:33Z</time></trkpt><trkpt lat="49.915276" lon="14.232980"><ele>209.70</ele><time>2011-05-22T16:58:34Z</time></trkpt><trkpt lat="49.915272" lon="14.232908"><ele>209.70</ele><time>2011-05-22T16:58:35Z</time></trkpt><trkpt lat="49.915276" lon="14.232838"><ele>209.22</ele><time>2011-05-22T16:58:36Z</time></trkpt><trkpt lat="49.915291" lon="14.232691"><ele>208.74</ele><time>2011-05-22T16:58:38Z</time></trkpt><trkpt lat="49.915306" lon="14.232627"><ele>208.74</ele><time>2011-05-22T16:58:39Z</time></trkpt><trkpt lat="49.915321" lon="14.232571"><ele>208.26</ele><time>2011-05-22T16:58:40Z</time></trkpt><trkpt lat="49.915424" lon="14.232403"><ele>206.82</ele><time>2011-05-22T16:58:44Z</time></trkpt><trkpt lat="49.915581" lon="14.232424"><ele>207.78</ele><time>2011-05-22T16:58:52Z</time></trkpt><trkpt lat="49.915588" lon="14.232454"><ele>207.30</ele><time>2011-05-22T16:58:58Z</time></trkpt><trkpt lat="49.915588" lon="14.232487"><ele>206.34</ele><time>2011-05-22T16:58:59Z</time></trkpt><trkpt lat="49.915592" lon="14.232521"><ele>207.30</ele><time>2011-05-22T16:59:00Z</time></trkpt><trkpt lat="49.915600" lon="14.232556"><ele>205.86</ele><time>2011-05-22T16:59:01Z</time></trkpt><trkpt lat="49.915611" lon="14.232611"><ele>205.86</ele><time>2011-05-22T16:59:02Z</time></trkpt><trkpt lat="49.915634" lon="14.232683"><ele>205.86</ele><time>2011-05-22T16:59:03Z</time></trkpt><trkpt lat="49.915840" lon="14.233562"><ele>205.38</ele><time>2011-05-22T16:59:16Z</time></trkpt><trkpt lat="49.916008" lon="14.234046"><ele>204.42</ele><time>2011-05-22T16:59:22Z</time></trkpt><trkpt lat="49.916458" lon="14.235414"><ele>205.38</ele><time>2011-05-22T16:59:38Z</time></trkpt><trkpt lat="49.917103" lon="14.236914"><ele>205.38</ele><time>2011-05-22T16:59:57Z</time></trkpt><trkpt lat="49.917660" lon="14.238008"><ele>205.38</ele><time>2011-05-22T17:00:13Z</time></trkpt><trkpt lat="49.918301" lon="14.239202"><ele>205.86</ele><time>2011-05-22T17:00:30Z</time></trkpt><trkpt lat="49.918991" lon="14.240542"><ele>205.38</ele><time>2011-05-22T17:00:48Z</time></trkpt><trkpt lat="49.919399" lon="14.241922"><ele>205.38</ele><time>2011-05-22T17:01:04Z</time></trkpt><trkpt lat="49.919548" lon="14.243552"><ele>204.90</ele><time>2011-05-22T17:01:21Z</time></trkpt><trkpt lat="49.919388" lon="14.245146"><ele>204.90</ele><time>2011-05-22T17:01:38Z</time></trkpt><trkpt lat="49.918934" lon="14.246689"><ele>204.90</ele><time>2011-05-22T17:01:57Z</time></trkpt><trkpt lat="49.918602" lon="14.247360"><ele>207.78</ele><time>2011-05-22T17:02:10Z</time></trkpt><trkpt lat="49.918575" lon="14.247390"><ele>206.82</ele><time>2011-05-22T17:02:20Z</time></trkpt><trkpt lat="49.918579" lon="14.247392"><ele>207.78</ele><time>2011-05-22T17:02:27Z</time></trkpt><trkpt lat="49.918560" lon="14.247411"><ele>207.30</ele><time>2011-05-22T17:02:33Z</time></trkpt><trkpt lat="49.918568" lon="14.247547"><ele>207.78</ele><time>2011-05-22T17:02:38Z</time></trkpt><trkpt lat="49.918926" lon="14.248108"><ele>208.26</ele><time>2011-05-22T17:02:51Z</time></trkpt><trkpt lat="49.919197" lon="14.248487"><ele>208.74</ele><time>2011-05-22T17:03:01Z</time></trkpt><trkpt lat="49.919304" lon="14.248652"><ele>207.30</ele><time>2011-05-22T17:03:04Z</time></trkpt><trkpt lat="49.919708" lon="14.249339"><ele>207.78</ele><time>2011-05-22T17:03:19Z</time></trkpt><trkpt lat="49.919804" lon="14.249656"><ele>208.26</ele><time>2011-05-22T17:03:31Z</time></trkpt><trkpt lat="49.919785" lon="14.249623"><ele>207.78</ele><time>2011-05-22T17:03:41Z</time></trkpt><trkpt lat="49.919769" lon="14.249665"><ele>206.82</ele><time>2011-05-22T17:03:43Z</time></trkpt><trkpt lat="49.919754" lon="14.249694"><ele>207.30</ele><time>2011-05-22T17:03:44Z</time></trkpt><trkpt lat="49.919739" lon="14.249722"><ele>206.82</ele><time>2011-05-22T17:03:45Z</time></trkpt><trkpt lat="49.919720" lon="14.249751"><ele>206.82</ele><time>2011-05-22T17:03:46Z</time></trkpt><trkpt lat="49.919701" lon="14.249781"><ele>206.82</ele><time>2011-05-22T17:03:47Z</time></trkpt><trkpt lat="49.919586" lon="14.249949"><ele>206.34</ele><time>2011-05-22T17:03:51Z</time></trkpt><trkpt lat="49.919563" lon="14.250012"><ele>205.86</ele><time>2011-05-22T17:03:52Z</time></trkpt><trkpt lat="49.919441" lon="14.250361"><ele>206.82</ele><time>2011-05-22T17:03:57Z</time></trkpt><trkpt lat="49.919205" lon="14.250969"><ele>205.38</ele><time>2011-05-22T17:04:10Z</time></trkpt><trkpt lat="49.919350" lon="14.251643"><ele>204.90</ele><time>2011-05-22T17:04:22Z</time></trkpt><trkpt lat="49.919453" lon="14.252109"><ele>204.90</ele><time>2011-05-22T17:04:33Z</time></trkpt><trkpt lat="49.919552" lon="14.252828"><ele>204.42</ele><time>2011-05-22T17:04:47Z</time></trkpt><trkpt lat="49.919537" lon="14.252861"><ele>204.42</ele><time>2011-05-22T17:04:48Z</time></trkpt><trkpt lat="49.919506" lon="14.252879"><ele>204.42</ele><time>2011-05-22T17:04:49Z</time></trkpt><trkpt lat="49.919479" lon="14.252897"><ele>204.42</ele><time>2011-05-22T17:04:50Z</time></trkpt><trkpt lat="49.919445" lon="14.252907"><ele>204.42</ele><time>2011-05-22T17:04:51Z</time></trkpt><trkpt lat="49.919411" lon="14.252913"><ele>204.42</ele><time>2011-05-22T17:04:52Z</time></trkpt><trkpt lat="49.918766" lon="14.253143"><ele>202.01</ele><time>2011-05-22T17:05:08Z</time></trkpt><trkpt lat="49.918583" lon="14.253485"><ele>205.38</ele><time>2011-05-22T17:05:16Z</time></trkpt><trkpt lat="49.918629" lon="14.254302"><ele>205.38</ele><time>2011-05-22T17:05:28Z</time></trkpt><trkpt lat="49.918652" lon="14.254541"><ele>204.90</ele><time>2011-05-22T17:05:31Z</time></trkpt><trkpt lat="49.918926" lon="14.255856"><ele>204.90</ele><time>2011-05-22T17:05:46Z</time></trkpt><trkpt lat="49.919548" lon="14.257336"><ele>204.42</ele><time>2011-05-22T17:06:04Z</time></trkpt><trkpt lat="49.920403" lon="14.258780"><ele>203.46</ele><time>2011-05-22T17:06:25Z</time></trkpt><trkpt lat="49.920647" lon="14.259170"><ele>204.90</ele><time>2011-05-22T17:06:36Z</time></trkpt><trkpt lat="49.920670" lon="14.259125"><ele>204.90</ele><time>2011-05-22T17:06:47Z</time></trkpt><trkpt lat="49.920673" lon="14.259120"><ele>204.90</ele><time>2011-05-22T17:06:59Z</time></trkpt><trkpt lat="49.920681" lon="14.259109"><ele>205.38</ele><time>2011-05-22T17:07:13Z</time></trkpt><trkpt lat="49.920662" lon="14.259119"><ele>205.38</ele><time>2011-05-22T17:07:20Z</time></trkpt><trkpt lat="49.920639" lon="14.259037"><ele>204.90</ele><time>2011-05-22T17:07:31Z</time></trkpt><trkpt lat="49.920662" lon="14.259067"><ele>206.34</ele><time>2011-05-22T17:07:41Z</time></trkpt><trkpt lat="49.920662" lon="14.259067"><ele>206.34</ele><time>2011-05-22T17:08:07Z</time></trkpt><trkpt lat="49.920681" lon="14.259073"><ele>205.38</ele><time>2011-05-22T17:08:18Z</time></trkpt><trkpt lat="49.920681" lon="14.259069"><ele>205.38</ele><time>2011-05-22T17:08:32Z</time></trkpt><trkpt lat="49.920681" lon="14.259069"><ele>204.90</ele><time>2011-05-22T17:09:07Z</time></trkpt><trkpt lat="49.920681" lon="14.259069"><ele>207.78</ele><time>2011-05-22T17:09:16Z</time></trkpt><trkpt lat="49.920681" lon="14.259069"><ele>206.82</ele><time>2011-05-22T17:09:17Z</time></trkpt><trkpt lat="49.920681" lon="14.259078"><ele>205.38</ele><time>2011-05-22T17:09:24Z</time></trkpt><trkpt lat="49.920681" lon="14.259078"><ele>204.42</ele><time>2011-05-22T17:10:05Z</time></trkpt><trkpt lat="49.920681" lon="14.259075"><ele>204.90</ele><time>2011-05-22T17:10:43Z</time></trkpt><trkpt lat="49.920681" lon="14.259075"><ele>204.90</ele><time>2011-05-22T17:11:21Z</time></trkpt><trkpt lat="49.920685" lon="14.259078"><ele>201.05</ele><time>2011-05-22T17:11:36Z</time></trkpt><trkpt lat="49.920685" lon="14.259078"><ele>206.34</ele><time>2011-05-22T17:11:37Z</time></trkpt><trkpt lat="49.920685" lon="14.259078"><ele>205.38</ele><time>2011-05-22T17:11:45Z</time></trkpt></trkseg><trkseg><trkpt lat="49.920689" lon="14.259095"><ele>204.42</ele><time>2011-05-22T17:12:28Z</time></trkpt><trkpt lat="49.920677" lon="14.259079"><ele>205.86</ele><time>2011-05-22T17:12:51Z</time></trkpt><trkpt lat="49.920681" lon="14.259090"><ele>202.49</ele><time>2011-05-22T17:13:16Z</time></trkpt><trkpt lat="49.920681" lon="14.259090"><ele>205.38</ele><time>2011-05-22T17:13:17Z</time></trkpt><trkpt lat="49.920673" lon="14.259087"><ele>205.38</ele><time>2011-05-22T17:13:49Z</time></trkpt><trkpt lat="49.920692" lon="14.259104"><ele>204.90</ele><time>2011-05-22T17:14:12Z</time></trkpt><trkpt lat="49.920692" lon="14.259073"><ele>205.86</ele><time>2011-05-22T17:14:27Z</time></trkpt><trkpt lat="49.920692" lon="14.259084"><ele>206.82</ele><time>2011-05-22T17:14:43Z</time></trkpt><trkpt lat="49.920670" lon="14.259063"><ele>205.86</ele><time>2011-05-22T17:14:56Z</time></trkpt><trkpt lat="49.920650" lon="14.259051"><ele>206.34</ele><time>2011-05-22T17:15:00Z</time></trkpt><trkpt lat="49.920670" lon="14.259136"><ele>205.86</ele><time>2011-05-22T17:15:12Z</time></trkpt><trkpt lat="49.920670" lon="14.259136"><ele>205.86</ele><time>2011-05-22T17:15:33Z</time></trkpt><trkpt lat="49.920681" lon="14.259125"><ele>205.38</ele><time>2011-05-22T17:15:46Z</time></trkpt><trkpt lat="49.920689" lon="14.259161"><ele>205.38</ele><time>2011-05-22T17:15:58Z</time></trkpt><trkpt lat="49.920673" lon="14.259223"><ele>205.86</ele><time>2011-05-22T17:16:10Z</time></trkpt><trkpt lat="49.920845" lon="14.259570"><ele>205.86</ele><time>2011-05-22T17:16:23Z</time></trkpt><trkpt lat="49.921169" lon="14.260304"><ele>204.90</ele><time>2011-05-22T17:16:34Z</time></trkpt><trkpt lat="49.921867" lon="14.261689"><ele>205.38</ele><time>2011-05-22T17:16:52Z</time></trkpt><trkpt lat="49.922367" lon="14.263001"><ele>204.90</ele><time>2011-05-22T17:17:08Z</time></trkpt><trkpt lat="49.922665" lon="14.263962"><ele>204.90</ele><time>2011-05-22T17:17:20Z</time></trkpt><trkpt lat="49.923004" lon="14.265630"><ele>204.90</ele><time>2011-05-22T17:17:37Z</time></trkpt><trkpt lat="49.923260" lon="14.267323"><ele>204.90</ele><time>2011-05-22T17:17:54Z</time></trkpt><trkpt lat="49.923527" lon="14.268638"><ele>203.94</ele><time>2011-05-22T17:18:08Z</time></trkpt><trkpt lat="49.923660" lon="14.269218"><ele>205.38</ele><time>2011-05-22T17:18:14Z</time></trkpt><trkpt lat="49.923687" lon="14.269290"><ele>203.94</ele><time>2011-05-22T17:18:15Z</time></trkpt><trkpt lat="49.923733" lon="14.269341"><ele>203.94</ele><time>2011-05-22T17:18:16Z</time></trkpt><trkpt lat="49.923786" lon="14.269369"><ele>203.46</ele><time>2011-05-22T17:18:17Z</time></trkpt><trkpt lat="49.923843" lon="14.269376"><ele>202.98</ele><time>2011-05-22T17:18:18Z</time></trkpt><trkpt lat="49.923897" lon="14.269370"><ele>202.98</ele><time>2011-05-22T17:18:19Z</time></trkpt><trkpt lat="49.923958" lon="14.269328"><ele>202.98</ele><time>2011-05-22T17:18:20Z</time></trkpt><trkpt lat="49.924007" lon="14.269280"><ele>202.98</ele><time>2011-05-22T17:18:21Z</time></trkpt><trkpt lat="49.924099" lon="14.269215"><ele>203.94</ele><time>2011-05-22T17:18:23Z</time></trkpt><trkpt lat="49.924141" lon="14.269240"><ele>203.46</ele><time>2011-05-22T17:18:24Z</time></trkpt><trkpt lat="49.924168" lon="14.269299"><ele>203.46</ele><time>2011-05-22T17:18:25Z</time></trkpt><trkpt lat="49.924530" lon="14.270265"><ele>204.90</ele><time>2011-05-22T17:18:39Z</time></trkpt><trkpt lat="49.924614" lon="14.270543"><ele>205.38</ele><time>2011-05-22T17:18:49Z</time></trkpt><trkpt lat="49.924614" lon="14.270543"><ele>201.53</ele><time>2011-05-22T17:18:54Z</time></trkpt><trkpt lat="49.924614" lon="14.270543"><ele>205.86</ele><time>2011-05-22T17:18:55Z</time></trkpt><trkpt lat="49.924614" lon="14.270543"><ele>204.90</ele><time>2011-05-22T17:19:19Z</time></trkpt><trkpt lat="49.924618" lon="14.270565"><ele>204.90</ele><time>2011-05-22T17:19:20Z</time></trkpt><trkpt lat="49.924625" lon="14.270590"><ele>204.90</ele><time>2011-05-22T17:19:21Z</time></trkpt><trkpt lat="49.924637" lon="14.270619"><ele>205.38</ele><time>2011-05-22T17:19:22Z</time></trkpt><trkpt lat="49.924648" lon="14.270658"><ele>204.90</ele><time>2011-05-22T17:19:23Z</time></trkpt><trkpt lat="49.924656" lon="14.270700"><ele>205.38</ele><time>2011-05-22T17:19:24Z</time></trkpt><trkpt lat="49.924660" lon="14.270745"><ele>204.42</ele><time>2011-05-22T17:19:25Z</time></trkpt><trkpt lat="49.924675" lon="14.270793"><ele>204.42</ele><time>2011-05-22T17:19:26Z</time></trkpt><trkpt lat="49.924690" lon="14.270847"><ele>204.42</ele><time>2011-05-22T17:19:27Z</time></trkpt><trkpt lat="49.924709" lon="14.270908"><ele>203.94</ele><time>2011-05-22T17:19:28Z</time></trkpt><trkpt lat="49.924801" lon="14.271272"><ele>202.98</ele><time>2011-05-22T17:19:33Z</time></trkpt><trkpt lat="49.924828" lon="14.271349"><ele>202.98</ele><time>2011-05-22T17:19:34Z</time></trkpt><trkpt lat="49.924847" lon="14.271425"><ele>202.98</ele><time>2011-05-22T17:19:35Z</time></trkpt><trkpt lat="49.924873" lon="14.271503"><ele>202.98</ele><time>2011-05-22T17:19:36Z</time></trkpt><trkpt lat="49.924908" lon="14.271580"><ele>203.46</ele><time>2011-05-22T17:19:37Z</time></trkpt><trkpt lat="49.925156" lon="14.272105"><ele>202.98</ele><time>2011-05-22T17:19:44Z</time></trkpt><trkpt lat="49.925198" lon="14.272161"><ele>202.98</ele><time>2011-05-22T17:19:45Z</time></trkpt><trkpt lat="49.925247" lon="14.272213"><ele>203.46</ele><time>2011-05-22T17:19:46Z</time></trkpt><trkpt lat="49.925301" lon="14.272261"><ele>202.98</ele><time>2011-05-22T17:19:47Z</time></trkpt><trkpt lat="49.925362" lon="14.272306"><ele>203.46</ele><time>2011-05-22T17:19:48Z</time></trkpt><trkpt lat="49.925850" lon="14.272704"><ele>203.46</ele><time>2011-05-22T17:19:57Z</time></trkpt><trkpt lat="49.925900" lon="14.272714"><ele>203.94</ele><time>2011-05-22T17:19:58Z</time></trkpt><trkpt lat="49.926067" lon="14.272723"><ele>203.94</ele><time>2011-05-22T17:20:02Z</time></trkpt><trkpt lat="49.926090" lon="14.272750"><ele>203.94</ele><time>2011-05-22T17:20:03Z</time></trkpt><trkpt lat="49.926105" lon="14.272784"><ele>203.94</ele><time>2011-05-22T17:20:04Z</time></trkpt><trkpt lat="49.926113" lon="14.272809"><ele>203.94</ele><time>2011-05-22T17:20:05Z</time></trkpt><trkpt lat="49.926125" lon="14.272850"><ele>203.46</ele><time>2011-05-22T17:20:17Z</time></trkpt><trkpt lat="49.926132" lon="14.272873"><ele>202.98</ele><time>2011-05-22T17:20:18Z</time></trkpt><trkpt lat="49.926140" lon="14.272902"><ele>202.98</ele><time>2011-05-22T17:20:19Z</time></trkpt><trkpt lat="49.926155" lon="14.272929"><ele>202.98</ele><time>2011-05-22T17:20:20Z</time></trkpt><trkpt lat="49.926174" lon="14.272956"><ele>203.94</ele><time>2011-05-22T17:20:21Z</time></trkpt><trkpt lat="49.926228" lon="14.273047"><ele>198.17</ele><time>2011-05-22T17:20:24Z</time></trkpt><trkpt lat="49.926243" lon="14.273077"><ele>203.94</ele><time>2011-05-22T17:20:25Z</time></trkpt><trkpt lat="49.926472" lon="14.273503"><ele>203.46</ele><time>2011-05-22T17:20:39Z</time></trkpt><trkpt lat="49.926701" lon="14.274013"><ele>202.98</ele><time>2011-05-22T17:20:51Z</time></trkpt><trkpt lat="49.926979" lon="14.274588"><ele>202.98</ele><time>2011-05-22T17:21:05Z</time></trkpt><trkpt lat="49.927071" lon="14.274822"><ele>202.49</ele><time>2011-05-22T17:21:12Z</time></trkpt><trkpt lat="49.927063" lon="14.274858"><ele>202.49</ele><time>2011-05-22T17:21:15Z</time></trkpt><trkpt lat="49.927063" lon="14.274858"><ele>202.49</ele><time>2011-05-22T17:21:35Z</time></trkpt><trkpt lat="49.927052" lon="14.274873"><ele>202.49</ele><time>2011-05-22T17:21:42Z</time></trkpt><trkpt lat="49.927048" lon="14.274894"><ele>202.01</ele><time>2011-05-22T17:21:43Z</time></trkpt><trkpt lat="49.926998" lon="14.275051"><ele>202.49</ele><time>2011-05-22T17:21:51Z</time></trkpt><trkpt lat="49.926998" lon="14.275073"><ele>202.01</ele><time>2011-05-22T17:21:52Z</time></trkpt><trkpt lat="49.927223" lon="14.275735"><ele>201.53</ele><time>2011-05-22T17:22:04Z</time></trkpt><trkpt lat="49.927425" lon="14.276678"><ele>201.53</ele><time>2011-05-22T17:22:19Z</time></trkpt><trkpt lat="49.927662" lon="14.277781"><ele>201.05</ele><time>2011-05-22T17:22:35Z</time></trkpt><trkpt lat="49.928135" lon="14.278984"><ele>201.05</ele><time>2011-05-22T17:22:52Z</time></trkpt><trkpt lat="49.928509" lon="14.279937"><ele>203.94</ele><time>2011-05-22T17:23:06Z</time></trkpt><trkpt lat="49.928532" lon="14.280005"><ele>203.94</ele><time>2011-05-22T17:23:07Z</time></trkpt><trkpt lat="49.928555" lon="14.280068"><ele>203.94</ele><time>2011-05-22T17:23:08Z</time></trkpt><trkpt lat="49.928581" lon="14.280121"><ele>203.94</ele><time>2011-05-22T17:23:09Z</time></trkpt><trkpt lat="49.928604" lon="14.280164"><ele>203.46</ele><time>2011-05-22T17:23:10Z</time></trkpt><trkpt lat="49.928616" lon="14.280201"><ele>202.98</ele><time>2011-05-22T17:23:11Z</time></trkpt><trkpt lat="49.928627" lon="14.280232"><ele>202.01</ele><time>2011-05-22T17:23:12Z</time></trkpt><trkpt lat="49.928642" lon="14.280282"><ele>202.01</ele><time>2011-05-22T17:23:23Z</time></trkpt><trkpt lat="49.928791" lon="14.280701"><ele>202.49</ele><time>2011-05-22T17:23:33Z</time></trkpt><trkpt lat="49.929024" lon="14.281257"><ele>201.53</ele><time>2011-05-22T17:23:44Z</time></trkpt><trkpt lat="49.929123" lon="14.281476"><ele>201.53</ele><time>2011-05-22T17:23:49Z</time></trkpt><trkpt lat="49.929138" lon="14.281502"><ele>202.98</ele><time>2011-05-22T17:23:57Z</time></trkpt><trkpt lat="49.929150" lon="14.281509"><ele>202.01</ele><time>2011-05-22T17:24:03Z</time></trkpt><trkpt lat="49.929165" lon="14.281528"><ele>198.17</ele><time>2011-05-22T17:24:13Z</time></trkpt><trkpt lat="49.929165" lon="14.281528"><ele>203.46</ele><time>2011-05-22T17:24:14Z</time></trkpt><trkpt lat="49.929180" lon="14.281585"><ele>202.01</ele><time>2011-05-22T17:24:22Z</time></trkpt><trkpt lat="49.929188" lon="14.281615"><ele>202.01</ele><time>2011-05-22T17:24:23Z</time></trkpt><trkpt lat="49.929195" lon="14.281648"><ele>201.53</ele><time>2011-05-22T17:24:24Z</time></trkpt><trkpt lat="49.929211" lon="14.281680"><ele>202.49</ele><time>2011-05-22T17:24:25Z</time></trkpt><trkpt lat="49.929226" lon="14.281720"><ele>202.01</ele><time>2011-05-22T17:24:26Z</time></trkpt><trkpt lat="49.929241" lon="14.281762"><ele>202.01</ele><time>2011-05-22T17:24:27Z</time></trkpt><trkpt lat="49.929405" lon="14.282169"><ele>202.98</ele><time>2011-05-22T17:24:35Z</time></trkpt><trkpt lat="49.929428" lon="14.282220"><ele>198.65</ele><time>2011-05-22T17:24:36Z</time></trkpt><trkpt lat="49.929451" lon="14.282276"><ele>201.53</ele><time>2011-05-22T17:24:37Z</time></trkpt><trkpt lat="49.929474" lon="14.282334"><ele>201.53</ele><time>2011-05-22T17:24:38Z</time></trkpt><trkpt lat="49.929485" lon="14.282395"><ele>202.01</ele><time>2011-05-22T17:24:39Z</time></trkpt><trkpt lat="49.929832" lon="14.283282"><ele>201.53</ele><time>2011-05-22T17:24:53Z</time></trkpt><trkpt lat="49.930157" lon="14.283995"><ele>202.01</ele><time>2011-05-22T17:25:06Z</time></trkpt><trkpt lat="49.930195" lon="14.284032"><ele>202.49</ele><time>2011-05-22T17:25:07Z</time></trkpt><trkpt lat="49.930431" lon="14.284177"><ele>202.01</ele><time>2011-05-22T17:25:12Z</time></trkpt><trkpt lat="49.930531" lon="14.284238"><ele>201.53</ele><time>2011-05-22T17:25:14Z</time></trkpt><trkpt lat="49.930840" lon="14.284438"><ele>201.05</ele><time>2011-05-22T17:25:20Z</time></trkpt><trkpt lat="49.930885" lon="14.284501"><ele>201.53</ele><time>2011-05-22T17:25:21Z</time></trkpt><trkpt lat="49.930916" lon="14.284573"><ele>202.01</ele><time>2011-05-22T17:25:22Z</time></trkpt><trkpt lat="49.930984" lon="14.284781"><ele>202.49</ele><time>2011-05-22T17:25:25Z</time></trkpt><trkpt lat="49.931000" lon="14.284852"><ele>203.94</ele><time>2011-05-22T17:25:26Z</time></trkpt><trkpt lat="49.931282" lon="14.286165"><ele>202.01</ele><time>2011-05-22T17:25:41Z</time></trkpt><trkpt lat="49.931625" lon="14.287452"><ele>200.57</ele><time>2011-05-22T17:25:55Z</time></trkpt><trkpt lat="49.931969" lon="14.288874"><ele>200.09</ele><time>2011-05-22T17:26:10Z</time></trkpt><trkpt lat="49.931988" lon="14.289252"><ele>199.61</ele><time>2011-05-22T17:26:14Z</time></trkpt><trkpt lat="49.932186" lon="14.290607"><ele>199.13</ele><time>2011-05-22T17:26:28Z</time></trkpt><trkpt lat="49.932381" lon="14.291481"><ele>201.05</ele><time>2011-05-22T17:26:39Z</time></trkpt><trkpt lat="49.932388" lon="14.291465"><ele>197.21</ele><time>2011-05-22T17:26:45Z</time></trkpt><trkpt lat="49.932388" lon="14.291465"><ele>201.05</ele><time>2011-05-22T17:26:46Z</time></trkpt><trkpt lat="49.932396" lon="14.291478"><ele>200.09</ele><time>2011-05-22T17:26:51Z</time></trkpt><trkpt lat="49.932487" lon="14.291999"><ele>199.13</ele><time>2011-05-22T17:27:01Z</time></trkpt><trkpt lat="49.932686" lon="14.293122"><ele>199.61</ele><time>2011-05-22T17:27:16Z</time></trkpt><trkpt lat="49.932831" lon="14.293863"><ele>200.09</ele><time>2011-05-22T17:27:28Z</time></trkpt><trkpt lat="49.932987" lon="14.295380"><ele>199.61</ele><time>2011-05-22T17:27:46Z</time></trkpt><trkpt lat="49.933331" lon="14.296708"><ele>199.13</ele><time>2011-05-22T17:28:00Z</time></trkpt><trkpt lat="49.933769" lon="14.297802"><ele>198.65</ele><time>2011-05-22T17:28:13Z</time></trkpt><trkpt lat="49.934147" lon="14.299232"><ele>199.13</ele><time>2011-05-22T17:28:28Z</time></trkpt><trkpt lat="49.934555" lon="14.300740"><ele>199.13</ele><time>2011-05-22T17:28:44Z</time></trkpt><trkpt lat="49.934723" lon="14.301302"><ele>198.65</ele><time>2011-05-22T17:28:50Z</time></trkpt><trkpt lat="49.934753" lon="14.301719"><ele>197.69</ele><time>2011-05-22T17:28:54Z</time></trkpt><trkpt lat="49.934731" lon="14.301932"><ele>198.17</ele><time>2011-05-22T17:28:56Z</time></trkpt><trkpt lat="49.934757" lon="14.302614"><ele>198.65</ele><time>2011-05-22T17:29:03Z</time></trkpt><trkpt lat="49.934769" lon="14.302640"><ele>199.13</ele><time>2011-05-22T17:29:27Z</time></trkpt><trkpt lat="49.934795" lon="14.302895"><ele>198.17</ele><time>2011-05-22T17:29:35Z</time></trkpt><trkpt lat="49.934853" lon="14.303085"><ele>198.17</ele><time>2011-05-22T17:29:38Z</time></trkpt><trkpt lat="49.934883" lon="14.303148"><ele>198.17</ele><time>2011-05-22T17:29:39Z</time></trkpt><trkpt lat="49.934921" lon="14.303210"><ele>198.17</ele><time>2011-05-22T17:29:40Z</time></trkpt><trkpt lat="49.935005" lon="14.303335"><ele>198.17</ele><time>2011-05-22T17:29:42Z</time></trkpt><trkpt lat="49.935631" lon="14.304287"><ele>198.17</ele><time>2011-05-22T17:29:55Z</time></trkpt><trkpt lat="49.936348" lon="14.304940"><ele>197.21</ele><time>2011-05-22T17:30:07Z</time></trkpt><trkpt lat="49.937225" lon="14.305317"><ele>196.73</ele><time>2011-05-22T17:30:20Z</time></trkpt><trkpt lat="49.937283" lon="14.305370"><ele>196.25</ele><time>2011-05-22T17:30:21Z</time></trkpt><trkpt lat="49.937332" lon="14.305432"><ele>196.73</ele><time>2011-05-22T17:30:22Z</time></trkpt><trkpt lat="49.937378" lon="14.305502"><ele>196.25</ele><time>2011-05-22T17:30:23Z</time></trkpt><trkpt lat="49.937412" lon="14.305570"><ele>196.73</ele><time>2011-05-22T17:30:24Z</time></trkpt><trkpt lat="49.937557" lon="14.305810"><ele>197.21</ele><time>2011-05-22T17:30:28Z</time></trkpt><trkpt lat="49.937599" lon="14.305854"><ele>197.21</ele><time>2011-05-22T17:30:29Z</time></trkpt><trkpt lat="49.937641" lon="14.305881"><ele>197.69</ele><time>2011-05-22T17:30:30Z</time></trkpt><trkpt lat="49.937763" lon="14.305943"><ele>196.73</ele><time>2011-05-22T17:30:33Z</time></trkpt><trkpt lat="49.938160" lon="14.306223"><ele>196.73</ele><time>2011-05-22T17:30:45Z</time></trkpt><trkpt lat="49.938301" lon="14.306334"><ele>196.73</ele><time>2011-05-22T17:30:49Z</time></trkpt><trkpt lat="49.938335" lon="14.306376"><ele>196.73</ele><time>2011-05-22T17:30:50Z</time></trkpt><trkpt lat="49.938374" lon="14.306416"><ele>196.73</ele><time>2011-05-22T17:30:51Z</time></trkpt><trkpt lat="49.938492" lon="14.306527"><ele>196.73</ele><time>2011-05-22T17:30:54Z</time></trkpt><trkpt lat="49.938530" lon="14.306563"><ele>196.25</ele><time>2011-05-22T17:30:55Z</time></trkpt><trkpt lat="49.938625" lon="14.306623"><ele>196.73</ele><time>2011-05-22T17:30:57Z</time></trkpt><trkpt lat="49.938667" lon="14.306663"><ele>196.73</ele><time>2011-05-22T17:30:58Z</time></trkpt><trkpt lat="49.938709" lon="14.306713"><ele>196.73</ele><time>2011-05-22T17:30:59Z</time></trkpt><trkpt lat="49.938862" lon="14.306900"><ele>196.73</ele><time>2011-05-22T17:31:03Z</time></trkpt><trkpt lat="49.938892" lon="14.306955"><ele>196.73</ele><time>2011-05-22T17:31:04Z</time></trkpt><trkpt lat="49.938923" lon="14.307017"><ele>196.25</ele><time>2011-05-22T17:31:05Z</time></trkpt><trkpt lat="49.938980" lon="14.307137"><ele>196.25</ele><time>2011-05-22T17:31:07Z</time></trkpt><trkpt lat="49.939011" lon="14.307184"><ele>196.25</ele><time>2011-05-22T17:31:08Z</time></trkpt><trkpt lat="49.939236" lon="14.307466"><ele>192.40</ele><time>2011-05-22T17:31:16Z</time></trkpt><trkpt lat="49.939240" lon="14.307462"><ele>199.13</ele><time>2011-05-22T17:31:17Z</time></trkpt><trkpt lat="49.939228" lon="14.307423"><ele>195.77</ele><time>2011-05-22T17:31:19Z</time></trkpt><trkpt lat="49.939213" lon="14.307399"><ele>195.77</ele><time>2011-05-22T17:31:20Z</time></trkpt><trkpt lat="49.939190" lon="14.307366"><ele>195.77</ele><time>2011-05-22T17:31:21Z</time></trkpt><trkpt lat="49.939110" lon="14.307260"><ele>190.96</ele><time>2011-05-22T17:31:28Z</time></trkpt><trkpt lat="49.939110" lon="14.307260"><ele>196.73</ele><time>2011-05-22T17:31:29Z</time></trkpt><trkpt lat="49.939110" lon="14.307260"><ele>194.80</ele><time>2011-05-22T17:32:02Z</time></trkpt><trkpt lat="49.939110" lon="14.307260"><ele>190.00</ele><time>2011-05-22T17:32:03Z</time></trkpt><trkpt lat="49.939110" lon="14.307260"><ele>194.32</ele><time>2011-05-22T17:32:04Z</time></trkpt><trkpt lat="49.939102" lon="14.307292"><ele>193.84</ele><time>2011-05-22T17:32:13Z</time></trkpt><trkpt lat="49.939110" lon="14.307321"><ele>194.32</ele><time>2011-05-22T17:32:15Z</time></trkpt><trkpt lat="49.939125" lon="14.307340"><ele>194.80</ele><time>2011-05-22T17:32:16Z</time></trkpt><trkpt lat="49.939148" lon="14.307366"><ele>194.32</ele><time>2011-05-22T17:32:17Z</time></trkpt><trkpt lat="49.939171" lon="14.307401"><ele>195.28</ele><time>2011-05-22T17:32:18Z</time></trkpt><trkpt lat="49.939198" lon="14.307445"><ele>194.80</ele><time>2011-05-22T17:32:19Z</time></trkpt><trkpt lat="49.939457" lon="14.307851"><ele>194.32</ele><time>2011-05-22T17:32:27Z</time></trkpt><trkpt lat="49.939495" lon="14.307894"><ele>194.80</ele><time>2011-05-22T17:32:28Z</time></trkpt><trkpt lat="49.939533" lon="14.307935"><ele>194.80</ele><time>2011-05-22T17:32:29Z</time></trkpt><trkpt lat="49.939571" lon="14.307991"><ele>194.80</ele><time>2011-05-22T17:32:30Z</time></trkpt><trkpt lat="49.939602" lon="14.308065"><ele>194.80</ele><time>2011-05-22T17:32:31Z</time></trkpt><trkpt lat="49.939629" lon="14.308144"><ele>194.32</ele><time>2011-05-22T17:32:32Z</time></trkpt><trkpt lat="49.940090" lon="14.309214"><ele>194.32</ele><time>2011-05-22T17:32:46Z</time></trkpt><trkpt lat="49.940521" lon="14.310225"><ele>193.36</ele><time>2011-05-22T17:32:58Z</time></trkpt><trkpt lat="49.940678" lon="14.310759"><ele>193.84</ele><time>2011-05-22T17:33:04Z</time></trkpt><trkpt lat="49.940693" lon="14.310851"><ele>193.84</ele><time>2011-05-22T17:33:05Z</time></trkpt><trkpt lat="49.940880" lon="14.312241"><ele>192.88</ele><time>2011-05-22T17:33:19Z</time></trkpt><trkpt lat="49.940903" lon="14.313695"><ele>193.36</ele><time>2011-05-22T17:33:34Z</time></trkpt><trkpt lat="49.940842" lon="14.314248"><ele>193.84</ele><time>2011-05-22T17:33:41Z</time></trkpt><trkpt lat="49.940819" lon="14.314383"><ele>193.84</ele><time>2011-05-22T17:33:43Z</time></trkpt><trkpt lat="49.940800" lon="14.314765"><ele>193.84</ele><time>2011-05-22T17:33:48Z</time></trkpt><trkpt lat="49.940792" lon="14.315288"><ele>194.32</ele><time>2011-05-22T17:33:55Z</time></trkpt><trkpt lat="49.940784" lon="14.315307"><ele>190.48</ele><time>2011-05-22T17:33:59Z</time></trkpt><trkpt lat="49.940784" lon="14.315307"><ele>195.28</ele><time>2011-05-22T17:34:00Z</time></trkpt><trkpt lat="49.940784" lon="14.315307"><ele>188.08</ele><time>2011-05-22T17:34:11Z</time></trkpt><trkpt lat="49.940784" lon="14.315307"><ele>192.88</ele><time>2011-05-22T17:34:12Z</time></trkpt><trkpt lat="49.940796" lon="14.315310"><ele>193.84</ele><time>2011-05-22T17:34:14Z</time></trkpt><trkpt lat="49.940807" lon="14.315331"><ele>193.36</ele><time>2011-05-22T17:34:19Z</time></trkpt><trkpt lat="49.940811" lon="14.315350"><ele>192.40</ele><time>2011-05-22T17:34:20Z</time></trkpt><trkpt lat="49.940811" lon="14.315370"><ele>192.88</ele><time>2011-05-22T17:34:21Z</time></trkpt><trkpt lat="49.940823" lon="14.315482"><ele>193.84</ele><time>2011-05-22T17:34:26Z</time></trkpt><trkpt lat="49.940849" lon="14.315544"><ele>193.84</ele><time>2011-05-22T17:34:36Z</time></trkpt><trkpt lat="49.940861" lon="14.315561"><ele>193.36</ele><time>2011-05-22T17:34:37Z</time></trkpt><trkpt lat="49.940872" lon="14.315578"><ele>193.84</ele><time>2011-05-22T17:34:38Z</time></trkpt><trkpt lat="49.940926" lon="14.315644"><ele>194.80</ele><time>2011-05-22T17:34:41Z</time></trkpt><trkpt lat="49.940937" lon="14.315680"><ele>194.32</ele><time>2011-05-22T17:34:42Z</time></trkpt><trkpt lat="49.940941" lon="14.315722"><ele>194.80</ele><time>2011-05-22T17:34:43Z</time></trkpt><trkpt lat="49.940960" lon="14.316071"><ele>195.77</ele><time>2011-05-22T17:34:54Z</time></trkpt><trkpt lat="49.940960" lon="14.316071"><ele>190.96</ele><time>2011-05-22T17:34:55Z</time></trkpt><trkpt lat="49.940960" lon="14.316071"><ele>194.32</ele><time>2011-05-22T17:34:56Z</time></trkpt><trkpt lat="49.940960" lon="14.316071"><ele>195.28</ele><time>2011-05-22T17:34:58Z</time></trkpt><trkpt lat="49.940968" lon="14.316047"><ele>193.36</ele><time>2011-05-22T17:35:10Z</time></trkpt><trkpt lat="49.940968" lon="14.316047"><ele>196.73</ele><time>2011-05-22T17:35:11Z</time></trkpt><trkpt lat="49.940968" lon="14.316078"><ele>195.77</ele><time>2011-05-22T17:35:23Z</time></trkpt><trkpt lat="49.940968" lon="14.316104"><ele>195.77</ele><time>2011-05-22T17:35:24Z</time></trkpt><trkpt lat="49.940968" lon="14.316131"><ele>196.25</ele><time>2011-05-22T17:35:25Z</time></trkpt><trkpt lat="49.940964" lon="14.316165"><ele>195.77</ele><time>2011-05-22T17:35:26Z</time></trkpt><trkpt lat="49.940960" lon="14.316204"><ele>195.28</ele><time>2011-05-22T17:35:27Z</time></trkpt><trkpt lat="49.940960" lon="14.316249"><ele>195.28</ele><time>2011-05-22T17:35:28Z</time></trkpt><trkpt lat="49.940929" lon="14.317063"><ele>193.84</ele><time>2011-05-22T17:35:40Z</time></trkpt><trkpt lat="49.940834" lon="14.318023"><ele>193.84</ele><time>2011-05-22T17:35:51Z</time></trkpt><trkpt lat="49.940823" lon="14.318677"><ele>193.84</ele><time>2011-05-22T17:35:58Z</time></trkpt><trkpt lat="49.940781" lon="14.319361"><ele>195.28</ele><time>2011-05-22T17:36:06Z</time></trkpt><trkpt lat="49.940777" lon="14.319593"><ele>196.73</ele><time>2011-05-22T17:36:10Z</time></trkpt><trkpt lat="49.940819" lon="14.319753"><ele>196.73</ele><time>2011-05-22T17:36:20Z</time></trkpt><trkpt lat="49.940819" lon="14.319753"><ele>197.21</ele><time>2011-05-22T17:36:33Z</time></trkpt><trkpt lat="49.940823" lon="14.319807"><ele>197.21</ele><time>2011-05-22T17:36:36Z</time></trkpt><trkpt lat="49.940830" lon="14.319989"><ele>199.13</ele><time>2011-05-22T17:36:45Z</time></trkpt><trkpt lat="49.940834" lon="14.320013"><ele>198.65</ele><time>2011-05-22T17:36:46Z</time></trkpt><trkpt lat="49.940880" lon="14.320281"><ele>201.53</ele><time>2011-05-22T17:36:56Z</time></trkpt><trkpt lat="49.940903" lon="14.320428"><ele>204.42</ele><time>2011-05-22T17:37:03Z</time></trkpt><trkpt lat="49.940910" lon="14.320448"><ele>204.90</ele><time>2011-05-22T17:37:04Z</time></trkpt><trkpt lat="49.940918" lon="14.320468"><ele>204.42</ele><time>2011-05-22T17:37:05Z</time></trkpt><trkpt lat="49.940922" lon="14.320489"><ele>204.90</ele><time>2011-05-22T17:37:06Z</time></trkpt><trkpt lat="49.940929" lon="14.320509"><ele>205.38</ele><time>2011-05-22T17:37:07Z</time></trkpt><trkpt lat="49.940933" lon="14.320531"><ele>205.38</ele><time>2011-05-22T17:37:08Z</time></trkpt><trkpt lat="49.940937" lon="14.320555"><ele>205.38</ele><time>2011-05-22T17:37:09Z</time></trkpt><trkpt lat="49.940941" lon="14.320577"><ele>205.86</ele><time>2011-05-22T17:37:10Z</time></trkpt><trkpt lat="49.940945" lon="14.320601"><ele>206.34</ele><time>2011-05-22T17:37:11Z</time></trkpt><trkpt lat="49.941048" lon="14.320972"><ele>209.22</ele><time>2011-05-22T17:37:26Z</time></trkpt><trkpt lat="49.941036" lon="14.321057"><ele>209.70</ele><time>2011-05-22T17:37:31Z</time></trkpt><trkpt lat="49.941036" lon="14.321057"><ele>207.78</ele><time>2011-05-22T17:37:51Z</time></trkpt><trkpt lat="49.941029" lon="14.321060"><ele>211.15</ele><time>2011-05-22T17:38:02Z</time></trkpt><trkpt lat="49.941017" lon="14.321122"><ele>210.67</ele><time>2011-05-22T17:38:26Z</time></trkpt><trkpt lat="49.940964" lon="14.321339"><ele>212.59</ele><time>2011-05-22T17:38:41Z</time></trkpt><trkpt lat="49.940964" lon="14.321387"><ele>213.07</ele><time>2011-05-22T17:38:45Z</time></trkpt><trkpt lat="49.940964" lon="14.321507"><ele>214.03</ele><time>2011-05-22T17:38:59Z</time></trkpt><trkpt lat="49.940960" lon="14.321587"><ele>214.99</ele><time>2011-05-22T17:39:06Z</time></trkpt><trkpt lat="49.940964" lon="14.321637"><ele>215.47</ele><time>2011-05-22T17:39:09Z</time></trkpt><trkpt lat="49.940983" lon="14.321912"><ele>218.36</ele><time>2011-05-22T17:39:26Z</time></trkpt><trkpt lat="49.940983" lon="14.322093"><ele>220.76</ele><time>2011-05-22T17:39:39Z</time></trkpt><trkpt lat="49.940956" lon="14.322355"><ele>225.09</ele><time>2011-05-22T17:39:57Z</time></trkpt><trkpt lat="49.940952" lon="14.322368"><ele>219.32</ele><time>2011-05-22T17:39:58Z</time></trkpt><trkpt lat="49.940952" lon="14.322380"><ele>222.68</ele><time>2011-05-22T17:39:59Z</time></trkpt><trkpt lat="49.940948" lon="14.322439"><ele>221.72</ele><time>2011-05-22T17:40:03Z</time></trkpt><trkpt lat="49.940918" lon="14.322681"><ele>222.20</ele><time>2011-05-22T17:40:19Z</time></trkpt><trkpt lat="49.940971" lon="14.322987"><ele>219.80</ele><time>2011-05-22T17:40:30Z</time></trkpt><trkpt lat="49.941353" lon="14.323537"><ele>220.28</ele><time>2011-05-22T17:40:44Z</time></trkpt><trkpt lat="49.941437" lon="14.323955"><ele>219.32</ele><time>2011-05-22T17:40:56Z</time></trkpt><trkpt lat="49.941429" lon="14.324093"><ele>217.40</ele><time>2011-05-22T17:40:58Z</time></trkpt><trkpt lat="49.941376" lon="14.324746"><ele>214.99</ele><time>2011-05-22T17:41:05Z</time></trkpt><trkpt lat="49.941345" lon="14.325001"><ele>214.03</ele><time>2011-05-22T17:41:08Z</time></trkpt><trkpt lat="49.941322" lon="14.325082"><ele>213.07</ele><time>2011-05-22T17:41:09Z</time></trkpt><trkpt lat="49.941120" lon="14.325646"><ele>209.70</ele><time>2011-05-22T17:41:16Z</time></trkpt><trkpt lat="49.940971" lon="14.325950"><ele>207.78</ele><time>2011-05-22T17:41:20Z</time></trkpt><trkpt lat="49.940868" lon="14.326095"><ele>206.34</ele><time>2011-05-22T17:41:22Z</time></trkpt><trkpt lat="49.940594" lon="14.326368"><ele>203.94</ele><time>2011-05-22T17:41:27Z</time></trkpt><trkpt lat="49.940430" lon="14.326526"><ele>202.01</ele><time>2011-05-22T17:41:30Z</time></trkpt><trkpt lat="49.940392" lon="14.326591"><ele>201.53</ele><time>2011-05-22T17:41:31Z</time></trkpt><trkpt lat="49.940357" lon="14.326670"><ele>201.05</ele><time>2011-05-22T17:41:32Z</time></trkpt><trkpt lat="49.940342" lon="14.326761"><ele>200.57</ele><time>2011-05-22T17:41:33Z</time></trkpt><trkpt lat="49.940342" lon="14.326865"><ele>200.09</ele><time>2011-05-22T17:41:34Z</time></trkpt><trkpt lat="49.940357" lon="14.326978"><ele>199.61</ele><time>2011-05-22T17:41:35Z</time></trkpt><trkpt lat="49.940498" lon="14.327524"><ele>199.13</ele><time>2011-05-22T17:41:43Z</time></trkpt><trkpt lat="49.940525" lon="14.327625"><ele>198.17</ele><time>2011-05-22T17:41:46Z</time></trkpt><trkpt lat="49.940521" lon="14.327656"><ele>198.17</ele><time>2011-05-22T17:41:47Z</time></trkpt><trkpt lat="49.940521" lon="14.327684"><ele>198.17</ele><time>2011-05-22T17:41:48Z</time></trkpt><trkpt lat="49.940525" lon="14.327710"><ele>198.65</ele><time>2011-05-22T17:41:49Z</time></trkpt><trkpt lat="49.940536" lon="14.327726"><ele>198.65</ele><time>2011-05-22T17:41:50Z</time></trkpt><trkpt lat="49.940548" lon="14.327731"><ele>198.17</ele><time>2011-05-22T17:41:51Z</time></trkpt><trkpt lat="49.940559" lon="14.327730"><ele>198.17</ele><time>2011-05-22T17:41:52Z</time></trkpt><trkpt lat="49.940586" lon="14.327725"><ele>198.17</ele><time>2011-05-22T17:42:05Z</time></trkpt><trkpt lat="49.940594" lon="14.327756"><ele>198.17</ele><time>2011-05-22T17:42:07Z</time></trkpt><trkpt lat="49.940601" lon="14.327785"><ele>198.17</ele><time>2011-05-22T17:42:08Z</time></trkpt><trkpt lat="49.940609" lon="14.327822"><ele>198.65</ele><time>2011-05-22T17:42:09Z</time></trkpt><trkpt lat="49.940613" lon="14.327866"><ele>197.69</ele><time>2011-05-22T17:42:10Z</time></trkpt><trkpt lat="49.940624" lon="14.327915"><ele>198.17</ele><time>2011-05-22T17:42:11Z</time></trkpt><trkpt lat="49.940639" lon="14.327967"><ele>198.65</ele><time>2011-05-22T17:42:12Z</time></trkpt><trkpt lat="49.940796" lon="14.328501"><ele>197.21</ele><time>2011-05-22T17:42:22Z</time></trkpt><trkpt lat="49.941048" lon="14.329492"><ele>195.77</ele><time>2011-05-22T17:42:39Z</time></trkpt><trkpt lat="49.941353" lon="14.329541"><ele>196.73</ele><time>2011-05-22T17:42:48Z</time></trkpt><trkpt lat="49.941837" lon="14.329028"><ele>197.21</ele><time>2011-05-22T17:43:03Z</time></trkpt><trkpt lat="49.942348" lon="14.328906"><ele>197.69</ele><time>2011-05-22T17:43:16Z</time></trkpt><trkpt lat="49.942688" lon="14.328953"><ele>199.61</ele><time>2011-05-22T17:43:25Z</time></trkpt><trkpt lat="49.943180" lon="14.329147"><ele>200.57</ele><time>2011-05-22T17:43:40Z</time></trkpt><trkpt lat="49.943634" lon="14.329319"><ele>201.05</ele><time>2011-05-22T17:43:53Z</time></trkpt><trkpt lat="49.944004" lon="14.329329"><ele>201.53</ele><time>2011-05-22T17:44:02Z</time></trkpt><trkpt lat="49.944046" lon="14.329341"><ele>202.01</ele><time>2011-05-22T17:44:03Z</time></trkpt><trkpt lat="49.944088" lon="14.329363"><ele>202.01</ele><time>2011-05-22T17:44:04Z</time></trkpt><trkpt lat="49.944202" lon="14.329449"><ele>202.01</ele><time>2011-05-22T17:44:07Z</time></trkpt><trkpt lat="49.944241" lon="14.329482"><ele>200.57</ele><time>2011-05-22T17:44:08Z</time></trkpt><trkpt lat="49.944279" lon="14.329511"><ele>202.01</ele><time>2011-05-22T17:44:09Z</time></trkpt><trkpt lat="49.944355" lon="14.329565"><ele>201.53</ele><time>2011-05-22T17:44:11Z</time></trkpt><trkpt lat="49.945072" lon="14.330125"><ele>201.53</ele><time>2011-05-22T17:44:27Z</time></trkpt><trkpt lat="49.945244" lon="14.330263"><ele>201.53</ele><time>2011-05-22T17:44:31Z</time></trkpt><trkpt lat="49.945290" lon="14.330300"><ele>201.05</ele><time>2011-05-22T17:44:32Z</time></trkpt><trkpt lat="49.945957" lon="14.330784"><ele>201.53</ele><time>2011-05-22T17:44:46Z</time></trkpt><trkpt lat="49.946087" lon="14.330851"><ele>202.49</ele><time>2011-05-22T17:44:49Z</time></trkpt><trkpt lat="49.946480" lon="14.331022"><ele>201.53</ele><time>2011-05-22T17:45:00Z</time></trkpt><trkpt lat="49.946835" lon="14.331069"><ele>201.05</ele><time>2011-05-22T17:45:12Z</time></trkpt><trkpt lat="49.946846" lon="14.331067"><ele>201.53</ele><time>2011-05-22T17:45:13Z</time></trkpt><trkpt lat="49.946926" lon="14.331093"><ele>200.57</ele><time>2011-05-22T17:45:22Z</time></trkpt><trkpt lat="49.947369" lon="14.331100"><ele>200.57</ele><time>2011-05-22T17:45:33Z</time></trkpt><trkpt lat="49.947483" lon="14.331093"><ele>200.57</ele><time>2011-05-22T17:45:35Z</time></trkpt><trkpt lat="49.947861" lon="14.331082"><ele>201.05</ele><time>2011-05-22T17:45:42Z</time></trkpt><trkpt lat="49.947941" lon="14.331079"><ele>200.09</ele><time>2011-05-22T17:45:44Z</time></trkpt><trkpt lat="49.947990" lon="14.331079"><ele>201.53</ele><time>2011-05-22T17:45:45Z</time></trkpt><trkpt lat="49.948315" lon="14.331045"><ele>200.09</ele><time>2011-05-22T17:45:51Z</time></trkpt><trkpt lat="49.949215" lon="14.330776"><ele>198.65</ele><time>2011-05-22T17:46:07Z</time></trkpt><trkpt lat="49.950165" lon="14.330168"><ele>200.57</ele><time>2011-05-22T17:46:25Z</time></trkpt><trkpt lat="49.950211" lon="14.330131"><ele>200.57</ele><time>2011-05-22T17:46:26Z</time></trkpt><trkpt lat="49.950359" lon="14.330020"><ele>201.53</ele><time>2011-05-22T17:46:29Z</time></trkpt><trkpt lat="49.951050" lon="14.329611"><ele>200.09</ele><time>2011-05-22T17:46:43Z</time></trkpt><trkpt lat="49.951202" lon="14.329535"><ele>200.09</ele><time>2011-05-22T17:46:46Z</time></trkpt><trkpt lat="49.951256" lon="14.329523"><ele>201.05</ele><time>2011-05-22T17:46:47Z</time></trkpt><trkpt lat="49.951309" lon="14.329523"><ele>201.05</ele><time>2011-05-22T17:46:48Z</time></trkpt><trkpt lat="49.951363" lon="14.329533"><ele>201.53</ele><time>2011-05-22T17:46:49Z</time></trkpt><trkpt lat="49.951416" lon="14.329542"><ele>201.05</ele><time>2011-05-22T17:46:50Z</time></trkpt><trkpt lat="49.951469" lon="14.329541"><ele>201.05</ele><time>2011-05-22T17:46:51Z</time></trkpt><trkpt lat="49.951519" lon="14.329528"><ele>200.57</ele><time>2011-05-22T17:46:52Z</time></trkpt><trkpt lat="49.951572" lon="14.329503"><ele>200.57</ele><time>2011-05-22T17:46:53Z</time></trkpt><trkpt lat="49.951618" lon="14.329468"><ele>200.09</ele><time>2011-05-22T17:46:54Z</time></trkpt><trkpt lat="49.951656" lon="14.329419"><ele>200.09</ele><time>2011-05-22T17:46:55Z</time></trkpt><trkpt lat="49.951687" lon="14.329359"><ele>200.57</ele><time>2011-05-22T17:46:56Z</time></trkpt><trkpt lat="49.951710" lon="14.329286"><ele>200.57</ele><time>2011-05-22T17:46:57Z</time></trkpt><trkpt lat="49.951740" lon="14.329221"><ele>200.57</ele><time>2011-05-22T17:46:58Z</time></trkpt><trkpt lat="49.951778" lon="14.329170"><ele>201.05</ele><time>2011-05-22T17:46:59Z</time></trkpt><trkpt lat="49.952393" lon="14.328662"><ele>201.05</ele><time>2011-05-22T17:47:13Z</time></trkpt><trkpt lat="49.952785" lon="14.328299"><ele>201.53</ele><time>2011-05-22T17:47:27Z</time></trkpt><trkpt lat="49.952801" lon="14.328294"><ele>201.05</ele><time>2011-05-22T17:47:36Z</time></trkpt><trkpt lat="49.952816" lon="14.328285"><ele>200.57</ele><time>2011-05-22T17:47:37Z</time></trkpt><trkpt lat="49.952839" lon="14.328279"><ele>201.05</ele><time>2011-05-22T17:47:38Z</time></trkpt><trkpt lat="49.952866" lon="14.328264"><ele>200.57</ele><time>2011-05-22T17:47:39Z</time></trkpt><trkpt lat="49.952892" lon="14.328241"><ele>200.57</ele><time>2011-05-22T17:47:40Z</time></trkpt><trkpt lat="49.953114" lon="14.328055"><ele>199.61</ele><time>2011-05-22T17:47:46Z</time></trkpt><trkpt lat="49.953156" lon="14.328012"><ele>199.13</ele><time>2011-05-22T17:47:47Z</time></trkpt><trkpt lat="49.953564" lon="14.327622"><ele>199.13</ele><time>2011-05-22T17:47:57Z</time></trkpt><trkpt lat="49.954147" lon="14.327024"><ele>199.13</ele><time>2011-05-22T17:48:12Z</time></trkpt><trkpt lat="49.954723" lon="14.326358"><ele>198.17</ele><time>2011-05-22T17:48:27Z</time></trkpt><trkpt lat="49.954758" lon="14.326313"><ele>198.17</ele><time>2011-05-22T17:48:28Z</time></trkpt><trkpt lat="49.954933" lon="14.326118"><ele>198.65</ele><time>2011-05-22T17:48:33Z</time></trkpt><trkpt lat="49.954967" lon="14.326077"><ele>198.65</ele><time>2011-05-22T17:48:34Z</time></trkpt><trkpt lat="49.955006" lon="14.326036"><ele>198.65</ele><time>2011-05-22T17:48:35Z</time></trkpt><trkpt lat="49.955635" lon="14.325320"><ele>198.17</ele><time>2011-05-22T17:48:52Z</time></trkpt><trkpt lat="49.955936" lon="14.324983"><ele>198.17</ele><time>2011-05-22T17:49:01Z</time></trkpt><trkpt lat="49.956333" lon="14.324646"><ele>198.17</ele><time>2011-05-22T17:49:11Z</time></trkpt><trkpt lat="49.957054" lon="14.324166"><ele>197.69</ele><time>2011-05-22T17:49:28Z</time></trkpt><trkpt lat="49.957745" lon="14.323836"><ele>199.13</ele><time>2011-05-22T17:49:44Z</time></trkpt><trkpt lat="49.958313" lon="14.323622"><ele>200.09</ele><time>2011-05-22T17:49:58Z</time></trkpt><trkpt lat="49.958778" lon="14.323572"><ele>200.57</ele><time>2011-05-22T17:50:10Z</time></trkpt><trkpt lat="49.959267" lon="14.323535"><ele>200.57</ele><time>2011-05-22T17:50:25Z</time></trkpt><trkpt lat="49.959564" lon="14.323802"><ele>197.21</ele><time>2011-05-22T17:50:34Z</time></trkpt><trkpt lat="49.959583" lon="14.323884"><ele>197.21</ele><time>2011-05-22T17:50:35Z</time></trkpt><trkpt lat="49.959610" lon="14.323961"><ele>196.73</ele><time>2011-05-22T17:50:36Z</time></trkpt><trkpt lat="49.959629" lon="14.324041"><ele>196.25</ele><time>2011-05-22T17:50:37Z</time></trkpt><trkpt lat="49.959671" lon="14.324179"><ele>195.77</ele><time>2011-05-22T17:50:39Z</time></trkpt><trkpt lat="49.959690" lon="14.324387"><ele>195.28</ele><time>2011-05-22T17:50:42Z</time></trkpt><trkpt lat="49.959686" lon="14.324455"><ele>193.84</ele><time>2011-05-22T17:50:43Z</time></trkpt><trkpt lat="49.959652" lon="14.325075"><ele>194.32</ele><time>2011-05-22T17:50:54Z</time></trkpt><trkpt lat="49.959949" lon="14.325282"><ele>194.32</ele><time>2011-05-22T17:51:05Z</time></trkpt><trkpt lat="49.959938" lon="14.325274"><ele>195.77</ele><time>2011-05-22T17:51:22Z</time></trkpt><trkpt lat="49.959930" lon="14.325260"><ele>194.32</ele><time>2011-05-22T17:51:38Z</time></trkpt><trkpt lat="49.959915" lon="14.325239"><ele>194.80</ele><time>2011-05-22T17:51:52Z</time></trkpt><trkpt lat="49.959908" lon="14.325224"><ele>194.32</ele><time>2011-05-22T17:51:53Z</time></trkpt><trkpt lat="49.959892" lon="14.325209"><ele>194.32</ele><time>2011-05-22T17:51:54Z</time></trkpt><trkpt lat="49.959873" lon="14.325196"><ele>194.32</ele><time>2011-05-22T17:51:55Z</time></trkpt><trkpt lat="49.959850" lon="14.325184"><ele>194.80</ele><time>2011-05-22T17:51:56Z</time></trkpt><trkpt lat="49.959824" lon="14.325168"><ele>194.32</ele><time>2011-05-22T17:51:57Z</time></trkpt><trkpt lat="49.959801" lon="14.325150"><ele>194.32</ele><time>2011-05-22T17:51:58Z</time></trkpt><trkpt lat="49.959518" lon="14.324854"><ele>193.84</ele><time>2011-05-22T17:52:11Z</time></trkpt><trkpt lat="49.959332" lon="14.325010"><ele>195.28</ele><time>2011-05-22T17:52:24Z</time></trkpt><trkpt lat="49.959324" lon="14.325039"><ele>195.28</ele><time>2011-05-22T17:52:25Z</time></trkpt><trkpt lat="49.959152" lon="14.325561"><ele>194.32</ele><time>2011-05-22T17:52:40Z</time></trkpt><trkpt lat="49.959019" lon="14.326099"><ele>194.32</ele><time>2011-05-22T17:52:54Z</time></trkpt><trkpt lat="49.959270" lon="14.326390"><ele>194.32</ele><time>2011-05-22T17:53:06Z</time></trkpt><trkpt lat="49.959648" lon="14.326822"><ele>193.36</ele><time>2011-05-22T17:53:19Z</time></trkpt><trkpt lat="49.959755" lon="14.327090"><ele>193.36</ele><time>2011-05-22T17:53:26Z</time></trkpt><trkpt lat="49.959755" lon="14.327126"><ele>192.88</ele><time>2011-05-22T17:53:27Z</time></trkpt><trkpt lat="49.959759" lon="14.327168"><ele>193.36</ele><time>2011-05-22T17:53:28Z</time></trkpt><trkpt lat="49.959740" lon="14.327776"><ele>193.36</ele><time>2011-05-22T17:53:40Z</time></trkpt><trkpt lat="49.959564" lon="14.328406"><ele>193.36</ele><time>2011-05-22T17:53:52Z</time></trkpt><trkpt lat="49.959457" lon="14.329036"><ele>192.40</ele><time>2011-05-22T17:54:02Z</time></trkpt><trkpt lat="49.959332" lon="14.329927"><ele>194.32</ele><time>2011-05-22T17:54:17Z</time></trkpt><trkpt lat="49.959324" lon="14.329989"><ele>193.36</ele><time>2011-05-22T17:54:18Z</time></trkpt><trkpt lat="49.959312" lon="14.330051"><ele>189.04</ele><time>2011-05-22T17:54:19Z</time></trkpt><trkpt lat="49.959301" lon="14.330115"><ele>194.32</ele><time>2011-05-22T17:54:20Z</time></trkpt><trkpt lat="49.959248" lon="14.330575"><ele>192.88</ele><time>2011-05-22T17:54:27Z</time></trkpt><trkpt lat="49.959255" lon="14.330999"><ele>193.84</ele><time>2011-05-22T17:54:33Z</time></trkpt><trkpt lat="49.959377" lon="14.332050"><ele>191.92</ele><time>2011-05-22T17:54:47Z</time></trkpt><trkpt lat="49.959476" lon="14.332863"><ele>192.40</ele><time>2011-05-22T17:54:58Z</time></trkpt><trkpt lat="49.959484" lon="14.332936"><ele>192.40</ele><time>2011-05-22T17:54:59Z</time></trkpt><trkpt lat="49.959488" lon="14.333010"><ele>192.40</ele><time>2011-05-22T17:55:00Z</time></trkpt><trkpt lat="49.959499" lon="14.333235"><ele>192.40</ele><time>2011-05-22T17:55:03Z</time></trkpt><trkpt lat="49.959515" lon="14.333308"><ele>192.88</ele><time>2011-05-22T17:55:04Z</time></trkpt><trkpt lat="49.959545" lon="14.333447"><ele>192.88</ele><time>2011-05-22T17:55:06Z</time></trkpt><trkpt lat="49.959663" lon="14.333968"><ele>192.88</ele><time>2011-05-22T17:55:14Z</time></trkpt><trkpt lat="49.959686" lon="14.334025"><ele>192.88</ele><time>2011-05-22T17:55:15Z</time></trkpt><trkpt lat="49.959709" lon="14.334083"><ele>192.88</ele><time>2011-05-22T17:55:16Z</time></trkpt><trkpt lat="49.959724" lon="14.334141"><ele>192.88</ele><time>2011-05-22T17:55:17Z</time></trkpt><trkpt lat="49.959743" lon="14.334195"><ele>193.36</ele><time>2011-05-22T17:55:18Z</time></trkpt><trkpt lat="49.959763" lon="14.334248"><ele>193.36</ele><time>2011-05-22T17:55:19Z</time></trkpt><trkpt lat="49.959980" lon="14.334885"><ele>193.36</ele><time>2011-05-22T17:55:31Z</time></trkpt><trkpt lat="49.960358" lon="14.335728"><ele>192.40</ele><time>2011-05-22T17:55:45Z</time></trkpt><trkpt lat="49.960865" lon="14.336627"><ele>192.40</ele><time>2011-05-22T17:56:01Z</time></trkpt><trkpt lat="49.960968" lon="14.336844"><ele>192.40</ele><time>2011-05-22T17:56:05Z</time></trkpt><trkpt lat="49.960987" lon="14.336904"><ele>192.40</ele><time>2011-05-22T17:56:06Z</time></trkpt><trkpt lat="49.961006" lon="14.336969"><ele>191.92</ele><time>2011-05-22T17:56:07Z</time></trkpt><trkpt lat="49.961102" lon="14.337312"><ele>191.92</ele><time>2011-05-22T17:56:12Z</time></trkpt><trkpt lat="49.961124" lon="14.337450"><ele>191.92</ele><time>2011-05-22T17:56:14Z</time></trkpt><trkpt lat="49.961140" lon="14.337595"><ele>191.92</ele><time>2011-05-22T17:56:16Z</time></trkpt><trkpt lat="49.961143" lon="14.337671"><ele>191.92</ele><time>2011-05-22T17:56:17Z</time></trkpt><trkpt lat="49.961140" lon="14.338057"><ele>191.92</ele><time>2011-05-22T17:56:22Z</time></trkpt><trkpt lat="49.961105" lon="14.338424"><ele>192.40</ele><time>2011-05-22T17:56:27Z</time></trkpt><trkpt lat="49.961098" lon="14.338492"><ele>191.92</ele><time>2011-05-22T17:56:28Z</time></trkpt><trkpt lat="49.960976" lon="14.339541"><ele>192.88</ele><time>2011-05-22T17:56:43Z</time></trkpt><trkpt lat="49.960968" lon="14.339610"><ele>192.88</ele><time>2011-05-22T17:56:44Z</time></trkpt><trkpt lat="49.960854" lon="14.340870"><ele>193.36</ele><time>2011-05-22T17:57:02Z</time></trkpt><trkpt lat="49.960743" lon="14.342140"><ele>193.36</ele><time>2011-05-22T17:57:19Z</time></trkpt><trkpt lat="49.960667" lon="14.343400"><ele>192.88</ele><time>2011-05-22T17:57:35Z</time></trkpt><trkpt lat="49.960659" lon="14.344624"><ele>193.84</ele><time>2011-05-22T17:57:51Z</time></trkpt><trkpt lat="49.960705" lon="14.345827"><ele>193.36</ele><time>2011-05-22T17:58:09Z</time></trkpt><trkpt lat="49.960644" lon="14.347210"><ele>192.88</ele><time>2011-05-22T17:58:26Z</time></trkpt><trkpt lat="49.960667" lon="14.347970"><ele>192.40</ele><time>2011-05-22T17:58:35Z</time></trkpt><trkpt lat="49.960911" lon="14.349171"><ele>192.88</ele><time>2011-05-22T17:58:50Z</time></trkpt><trkpt lat="49.961040" lon="14.350601"><ele>193.36</ele><time>2011-05-22T17:59:08Z</time></trkpt><trkpt lat="49.961025" lon="14.350673"><ele>193.84</ele><time>2011-05-22T17:59:09Z</time></trkpt><trkpt lat="49.961006" lon="14.350739"><ele>193.84</ele><time>2011-05-22T17:59:10Z</time></trkpt><trkpt lat="49.960979" lon="14.350801"><ele>193.84</ele><time>2011-05-22T17:59:11Z</time></trkpt><trkpt lat="49.960957" lon="14.350853"><ele>194.32</ele><time>2011-05-22T17:59:12Z</time></trkpt><trkpt lat="49.960930" lon="14.350900"><ele>194.32</ele><time>2011-05-22T17:59:13Z</time></trkpt><trkpt lat="49.960552" lon="14.351300"><ele>197.21</ele><time>2011-05-22T17:59:26Z</time></trkpt><trkpt lat="49.960297" lon="14.351713"><ele>200.57</ele><time>2011-05-22T17:59:39Z</time></trkpt><trkpt lat="49.960270" lon="14.351825"><ele>201.05</ele><time>2011-05-22T17:59:49Z</time></trkpt><trkpt lat="49.960270" lon="14.351825"><ele>201.05</ele><time>2011-05-22T17:59:57Z</time></trkpt><trkpt lat="49.960270" lon="14.351825"><ele>200.09</ele><time>2011-05-22T18:00:21Z</time></trkpt><trkpt lat="49.960274" lon="14.351857"><ele>201.05</ele><time>2011-05-22T18:00:46Z</time></trkpt><trkpt lat="49.960217" lon="14.352316"><ele>201.05</ele><time>2011-05-22T18:00:58Z</time></trkpt><trkpt lat="49.960171" lon="14.352533"><ele>201.05</ele><time>2011-05-22T18:01:06Z</time></trkpt><trkpt lat="49.960159" lon="14.352554"><ele>200.57</ele><time>2011-05-22T18:01:07Z</time></trkpt><trkpt lat="49.960152" lon="14.352577"><ele>201.05</ele><time>2011-05-22T18:01:08Z</time></trkpt><trkpt lat="49.959854" lon="14.352980"><ele>200.57</ele><time>2011-05-22T18:01:23Z</time></trkpt><trkpt lat="49.959717" lon="14.353440"><ele>200.09</ele><time>2011-05-22T18:01:33Z</time></trkpt><trkpt lat="49.959724" lon="14.353505"><ele>200.09</ele><time>2011-05-22T18:01:34Z</time></trkpt><trkpt lat="49.959843" lon="14.354000"><ele>199.13</ele><time>2011-05-22T18:01:42Z</time></trkpt><trkpt lat="49.959862" lon="14.354065"><ele>199.13</ele><time>2011-05-22T18:01:43Z</time></trkpt><trkpt lat="49.960159" lon="14.354709"><ele>197.69</ele><time>2011-05-22T18:01:53Z</time></trkpt><trkpt lat="49.960186" lon="14.354775"><ele>197.21</ele><time>2011-05-22T18:01:54Z</time></trkpt><trkpt lat="49.960220" lon="14.354844"><ele>197.21</ele><time>2011-05-22T18:01:55Z</time></trkpt><trkpt lat="49.960258" lon="14.354912"><ele>196.73</ele><time>2011-05-22T18:01:56Z</time></trkpt><trkpt lat="49.960297" lon="14.354980"><ele>196.73</ele><time>2011-05-22T18:01:57Z</time></trkpt><trkpt lat="49.960461" lon="14.355270"><ele>195.77</ele><time>2011-05-22T18:02:01Z</time></trkpt><trkpt lat="49.960571" lon="14.355523"><ele>195.28</ele><time>2011-05-22T18:02:04Z</time></trkpt><trkpt lat="49.960598" lon="14.355609"><ele>194.80</ele><time>2011-05-22T18:02:05Z</time></trkpt><trkpt lat="49.960648" lon="14.355782"><ele>194.32</ele><time>2011-05-22T18:02:07Z</time></trkpt><trkpt lat="49.960709" lon="14.356115"><ele>195.77</ele><time>2011-05-22T18:02:11Z</time></trkpt><trkpt lat="49.960712" lon="14.356180"><ele>195.77</ele><time>2011-05-22T18:02:12Z</time></trkpt><trkpt lat="49.960735" lon="14.356338"><ele>194.80</ele><time>2011-05-22T18:02:17Z</time></trkpt><trkpt lat="49.960735" lon="14.356316"><ele>195.28</ele><time>2011-05-22T18:02:19Z</time></trkpt><trkpt lat="49.960751" lon="14.356068"><ele>195.28</ele><time>2011-05-22T18:02:25Z</time></trkpt><trkpt lat="49.960773" lon="14.356049"><ele>194.80</ele><time>2011-05-22T18:02:26Z</time></trkpt><trkpt lat="49.960796" lon="14.356041"><ele>194.80</ele><time>2011-05-22T18:02:27Z</time></trkpt><trkpt lat="49.960819" lon="14.356038"><ele>195.28</ele><time>2011-05-22T18:02:28Z</time></trkpt><trkpt lat="49.960846" lon="14.356033"><ele>195.28</ele><time>2011-05-22T18:02:29Z</time></trkpt><trkpt lat="49.960873" lon="14.356025"><ele>195.77</ele><time>2011-05-22T18:02:30Z</time></trkpt><trkpt lat="49.960896" lon="14.356018"><ele>195.28</ele><time>2011-05-22T18:02:31Z</time></trkpt><trkpt lat="49.960922" lon="14.356015"><ele>195.28</ele><time>2011-05-22T18:02:32Z</time></trkpt><trkpt lat="49.960945" lon="14.356014"><ele>196.73</ele><time>2011-05-22T18:02:33Z</time></trkpt><trkpt lat="49.961388" lon="14.356037"><ele>194.80</ele><time>2011-05-22T18:02:45Z</time></trkpt><trkpt lat="49.961803" lon="14.356038"><ele>194.32</ele><time>2011-05-22T18:02:56Z</time></trkpt><trkpt lat="49.961842" lon="14.356030"><ele>193.84</ele><time>2011-05-22T18:02:57Z</time></trkpt><trkpt lat="49.961967" lon="14.355989"><ele>194.32</ele><time>2011-05-22T18:03:00Z</time></trkpt><trkpt lat="49.962139" lon="14.355947"><ele>194.80</ele><time>2011-05-22T18:03:04Z</time></trkpt><trkpt lat="49.962223" lon="14.355909"><ele>194.32</ele><time>2011-05-22T18:03:06Z</time></trkpt><trkpt lat="49.962261" lon="14.355884"><ele>193.84</ele><time>2011-05-22T18:03:07Z</time></trkpt><trkpt lat="49.962296" lon="14.355852"><ele>193.84</ele><time>2011-05-22T18:03:08Z</time></trkpt><trkpt lat="49.962322" lon="14.355821"><ele>193.84</ele><time>2011-05-22T18:03:09Z</time></trkpt><trkpt lat="49.962345" lon="14.355794"><ele>193.84</ele><time>2011-05-22T18:03:10Z</time></trkpt><trkpt lat="49.962376" lon="14.355766"><ele>193.36</ele><time>2011-05-22T18:03:11Z</time></trkpt><trkpt lat="49.962730" lon="14.355419"><ele>192.40</ele><time>2011-05-22T18:03:24Z</time></trkpt><trkpt lat="49.962929" lon="14.355256"><ele>192.88</ele><time>2011-05-22T18:03:33Z</time></trkpt><trkpt lat="49.962971" lon="14.355227"><ele>193.36</ele><time>2011-05-22T18:03:34Z</time></trkpt><trkpt lat="49.963009" lon="14.355197"><ele>192.40</ele><time>2011-05-22T18:03:35Z</time></trkpt><trkpt lat="49.963684" lon="14.354614"><ele>191.92</ele><time>2011-05-22T18:03:51Z</time></trkpt><trkpt lat="49.964336" lon="14.353983"><ele>192.88</ele><time>2011-05-22T18:04:07Z</time></trkpt><trkpt lat="49.964546" lon="14.354135"><ele>192.88</ele><time>2011-05-22T18:04:15Z</time></trkpt><trkpt lat="49.964725" lon="14.354632"><ele>193.36</ele><time>2011-05-22T18:04:25Z</time></trkpt><trkpt lat="49.964920" lon="14.355194"><ele>192.88</ele><time>2011-05-22T18:04:37Z</time></trkpt><trkpt lat="49.965054" lon="14.355539"><ele>192.40</ele><time>2011-05-22T18:04:43Z</time></trkpt><trkpt lat="49.965096" lon="14.355655"><ele>191.92</ele><time>2011-05-22T18:04:45Z</time></trkpt><trkpt lat="49.965122" lon="14.355710"><ele>192.40</ele><time>2011-05-22T18:04:46Z</time></trkpt><trkpt lat="49.965145" lon="14.355767"><ele>192.40</ele><time>2011-05-22T18:04:47Z</time></trkpt><trkpt lat="49.965168" lon="14.355827"><ele>192.40</ele><time>2011-05-22T18:04:48Z</time></trkpt><trkpt lat="49.965187" lon="14.355890"><ele>192.40</ele><time>2011-05-22T18:04:49Z</time></trkpt><trkpt lat="49.965580" lon="14.356933"><ele>191.44</ele><time>2011-05-22T18:05:06Z</time></trkpt><trkpt lat="49.965824" lon="14.357659"><ele>192.40</ele><time>2011-05-22T18:05:17Z</time></trkpt><trkpt lat="49.965958" lon="14.358226"><ele>191.92</ele><time>2011-05-22T18:05:29Z</time></trkpt><trkpt lat="49.966133" lon="14.358628"><ele>191.44</ele><time>2011-05-22T18:05:36Z</time></trkpt><trkpt lat="49.966312" lon="14.359236"><ele>192.40</ele><time>2011-05-22T18:05:48Z</time></trkpt><trkpt lat="49.966496" lon="14.359352"><ele>193.36</ele><time>2011-05-22T18:06:01Z</time></trkpt><trkpt lat="49.966496" lon="14.359352"><ele>193.36</ele><time>2011-05-22T18:06:25Z</time></trkpt><trkpt lat="49.966496" lon="14.359352"><ele>192.88</ele><time>2011-05-22T18:06:29Z</time></trkpt><trkpt lat="49.966496" lon="14.359362"><ele>192.88</ele><time>2011-05-22T18:06:32Z</time></trkpt><trkpt lat="49.966499" lon="14.359382"><ele>192.40</ele><time>2011-05-22T18:06:33Z</time></trkpt><trkpt lat="49.966503" lon="14.359402"><ele>192.40</ele><time>2011-05-22T18:06:34Z</time></trkpt><trkpt lat="49.966507" lon="14.359426"><ele>193.36</ele><time>2011-05-22T18:06:35Z</time></trkpt><trkpt lat="49.966518" lon="14.359452"><ele>192.88</ele><time>2011-05-22T18:06:36Z</time></trkpt><trkpt lat="49.966530" lon="14.359486"><ele>192.40</ele><time>2011-05-22T18:06:37Z</time></trkpt><trkpt lat="49.966541" lon="14.359528"><ele>192.40</ele><time>2011-05-22T18:06:38Z</time></trkpt><trkpt lat="49.966816" lon="14.360303"><ele>192.88</ele><time>2011-05-22T18:06:53Z</time></trkpt><trkpt lat="49.967010" lon="14.360841"><ele>192.40</ele><time>2011-05-22T18:07:04Z</time></trkpt><trkpt lat="49.967049" lon="14.360949"><ele>192.40</ele><time>2011-05-22T18:07:06Z</time></trkpt><trkpt lat="49.967106" lon="14.361125"><ele>191.92</ele><time>2011-05-22T18:07:09Z</time></trkpt><trkpt lat="49.967247" lon="14.361571"><ele>192.40</ele><time>2011-05-22T18:07:16Z</time></trkpt><trkpt lat="49.967262" lon="14.361641"><ele>192.40</ele><time>2011-05-22T18:07:17Z</time></trkpt><trkpt lat="49.967285" lon="14.361712"><ele>191.92</ele><time>2011-05-22T18:07:18Z</time></trkpt><trkpt lat="49.967308" lon="14.361773"><ele>191.44</ele><time>2011-05-22T18:07:19Z</time></trkpt><trkpt lat="49.967342" lon="14.361833"><ele>191.44</ele><time>2011-05-22T18:07:20Z</time></trkpt><trkpt lat="49.967640" lon="14.362632"><ele>191.92</ele><time>2011-05-22T18:07:33Z</time></trkpt><trkpt lat="49.967663" lon="14.362700"><ele>191.44</ele><time>2011-05-22T18:07:34Z</time></trkpt><trkpt lat="49.967873" lon="14.363252"><ele>191.92</ele><time>2011-05-22T18:07:43Z</time></trkpt><trkpt lat="49.968014" lon="14.363544"><ele>191.92</ele><time>2011-05-22T18:07:49Z</time></trkpt><trkpt lat="49.968201" lon="14.363702"><ele>192.88</ele><time>2011-05-22T18:07:56Z</time></trkpt><trkpt lat="49.968220" lon="14.363766"><ele>191.92</ele><time>2011-05-22T18:07:57Z</time></trkpt><trkpt lat="49.968231" lon="14.363835"><ele>191.92</ele><time>2011-05-22T18:07:58Z</time></trkpt><trkpt lat="49.968246" lon="14.363904"><ele>191.44</ele><time>2011-05-22T18:07:59Z</time></trkpt><trkpt lat="49.968269" lon="14.363972"><ele>191.92</ele><time>2011-05-22T18:08:00Z</time></trkpt><trkpt lat="49.968666" lon="14.364899"><ele>191.92</ele><time>2011-05-22T18:08:14Z</time></trkpt><trkpt lat="49.968697" lon="14.364959"><ele>191.92</ele><time>2011-05-22T18:08:15Z</time></trkpt><trkpt lat="49.968735" lon="14.365016"><ele>191.92</ele><time>2011-05-22T18:08:16Z</time></trkpt><trkpt lat="49.968769" lon="14.365078"><ele>191.44</ele><time>2011-05-22T18:08:17Z</time></trkpt><trkpt lat="49.968807" lon="14.365151"><ele>191.44</ele><time>2011-05-22T18:08:18Z</time></trkpt><trkpt lat="49.968830" lon="14.365237"><ele>191.44</ele><time>2011-05-22T18:08:19Z</time></trkpt><trkpt lat="49.968842" lon="14.365330"><ele>190.48</ele><time>2011-05-22T18:08:20Z</time></trkpt><trkpt lat="49.968849" lon="14.365423"><ele>190.96</ele><time>2011-05-22T18:08:21Z</time></trkpt><trkpt lat="49.968887" lon="14.365603"><ele>191.44</ele><time>2011-05-22T18:08:23Z</time></trkpt><trkpt lat="49.968925" lon="14.365664"><ele>191.44</ele><time>2011-05-22T18:08:24Z</time></trkpt><trkpt lat="49.968971" lon="14.365682"><ele>191.44</ele><time>2011-05-22T18:08:25Z</time></trkpt><trkpt lat="49.969074" lon="14.365685"><ele>191.44</ele><time>2011-05-22T18:08:27Z</time></trkpt><trkpt lat="49.969120" lon="14.365726"><ele>191.92</ele><time>2011-05-22T18:08:28Z</time></trkpt><trkpt lat="49.969158" lon="14.365790"><ele>191.92</ele><time>2011-05-22T18:08:29Z</time></trkpt><trkpt lat="49.969288" lon="14.366079"><ele>191.44</ele><time>2011-05-22T18:08:33Z</time></trkpt><trkpt lat="49.969299" lon="14.366163"><ele>191.44</ele><time>2011-05-22T18:08:34Z</time></trkpt><trkpt lat="49.969303" lon="14.366246"><ele>191.44</ele><time>2011-05-22T18:08:35Z</time></trkpt><trkpt lat="49.969280" lon="14.366620"><ele>191.44</ele><time>2011-05-22T18:08:40Z</time></trkpt><trkpt lat="49.969276" lon="14.366689"><ele>191.44</ele><time>2011-05-22T18:08:41Z</time></trkpt><trkpt lat="49.969265" lon="14.366752"><ele>191.44</ele><time>2011-05-22T18:08:42Z</time></trkpt><trkpt lat="49.969254" lon="14.366804"><ele>191.92</ele><time>2011-05-22T18:08:43Z</time></trkpt><trkpt lat="49.969246" lon="14.366850"><ele>191.92</ele><time>2011-05-22T18:08:44Z</time></trkpt><trkpt lat="49.969246" lon="14.366893"><ele>191.92</ele><time>2011-05-22T18:08:45Z</time></trkpt><trkpt lat="49.969257" lon="14.366935"><ele>191.44</ele><time>2011-05-22T18:08:46Z</time></trkpt><trkpt lat="49.969276" lon="14.366974"><ele>192.40</ele><time>2011-05-22T18:08:47Z</time></trkpt><trkpt lat="49.969292" lon="14.367004"><ele>191.92</ele><time>2011-05-22T18:08:48Z</time></trkpt><trkpt lat="49.969307" lon="14.367033"><ele>190.48</ele><time>2011-05-22T18:08:49Z</time></trkpt><trkpt lat="49.969322" lon="14.367063"><ele>192.40</ele><time>2011-05-22T18:08:50Z</time></trkpt><trkpt lat="49.969334" lon="14.367097"><ele>191.44</ele><time>2011-05-22T18:08:51Z</time></trkpt><trkpt lat="49.969345" lon="14.367134"><ele>191.92</ele><time>2011-05-22T18:08:52Z</time></trkpt><trkpt lat="49.969360" lon="14.367173"><ele>191.92</ele><time>2011-05-22T18:08:53Z</time></trkpt><trkpt lat="49.969574" lon="14.367773"><ele>191.92</ele><time>2011-05-22T18:09:07Z</time></trkpt><trkpt lat="49.969604" lon="14.367822"><ele>192.40</ele><time>2011-05-22T18:09:08Z</time></trkpt><trkpt lat="49.969631" lon="14.367871"><ele>191.44</ele><time>2011-05-22T18:09:09Z</time></trkpt><trkpt lat="49.969719" lon="14.368029"><ele>191.44</ele><time>2011-05-22T18:09:12Z</time></trkpt><trkpt lat="49.969757" lon="14.368084"><ele>190.96</ele><time>2011-05-22T18:09:13Z</time></trkpt><trkpt lat="49.969791" lon="14.368143"><ele>191.44</ele><time>2011-05-22T18:09:14Z</time></trkpt><trkpt lat="49.969936" lon="14.368503"><ele>190.96</ele><time>2011-05-22T18:09:19Z</time></trkpt><trkpt lat="49.969955" lon="14.368582"><ele>190.00</ele><time>2011-05-22T18:09:20Z</time></trkpt><trkpt lat="49.969997" lon="14.368743"><ele>191.92</ele><time>2011-05-22T18:09:22Z</time></trkpt><trkpt lat="49.970013" lon="14.368828"><ele>190.96</ele><time>2011-05-22T18:09:23Z</time></trkpt><trkpt lat="49.970028" lon="14.368911"><ele>190.96</ele><time>2011-05-22T18:09:24Z</time></trkpt><trkpt lat="49.970051" lon="14.368987"><ele>191.44</ele><time>2011-05-22T18:09:25Z</time></trkpt><trkpt lat="49.970074" lon="14.369061"><ele>191.44</ele><time>2011-05-22T18:09:26Z</time></trkpt><trkpt lat="49.970306" lon="14.369692"><ele>191.92</ele><time>2011-05-22T18:09:36Z</time></trkpt><trkpt lat="49.970325" lon="14.369756"><ele>191.44</ele><time>2011-05-22T18:09:37Z</time></trkpt><trkpt lat="49.970650" lon="14.370776"><ele>190.96</ele><time>2011-05-22T18:09:51Z</time></trkpt><trkpt lat="49.970810" lon="14.371186"><ele>190.00</ele><time>2011-05-22T18:09:57Z</time></trkpt><trkpt lat="49.970844" lon="14.371237"><ele>190.00</ele><time>2011-05-22T18:09:58Z</time></trkpt><trkpt lat="49.970875" lon="14.371280"><ele>190.96</ele><time>2011-05-22T18:09:59Z</time></trkpt><trkpt lat="49.970974" lon="14.371407"><ele>191.44</ele><time>2011-05-22T18:10:02Z</time></trkpt><trkpt lat="49.971085" lon="14.371494"><ele>190.96</ele><time>2011-05-22T18:10:10Z</time></trkpt><trkpt lat="49.971077" lon="14.371503"><ele>190.48</ele><time>2011-05-22T18:10:21Z</time></trkpt><trkpt lat="49.971119" lon="14.371582"><ele>190.96</ele><time>2011-05-22T18:10:26Z</time></trkpt><trkpt lat="49.971317" lon="14.371935"><ele>190.96</ele><time>2011-05-22T18:10:37Z</time></trkpt><trkpt lat="49.971355" lon="14.372547"><ele>191.44</ele><time>2011-05-22T18:10:48Z</time></trkpt><trkpt lat="49.971363" lon="14.373091"><ele>190.96</ele><time>2011-05-22T18:10:57Z</time></trkpt><trkpt lat="49.971355" lon="14.373417"><ele>192.40</ele><time>2011-05-22T18:11:02Z</time></trkpt><trkpt lat="49.971359" lon="14.373484"><ele>191.44</ele><time>2011-05-22T18:11:03Z</time></trkpt><trkpt lat="49.971245" lon="14.374250"><ele>191.92</ele><time>2011-05-22T18:11:16Z</time></trkpt><trkpt lat="49.970909" lon="14.374728"><ele>191.92</ele><time>2011-05-22T18:11:29Z</time></trkpt><trkpt lat="49.970497" lon="14.375001"><ele>194.32</ele><time>2011-05-22T18:11:44Z</time></trkpt><trkpt lat="49.970314" lon="14.375258"><ele>196.25</ele><time>2011-05-22T18:11:56Z</time></trkpt><trkpt lat="49.970280" lon="14.375319"><ele>196.73</ele><time>2011-05-22T18:12:09Z</time></trkpt><trkpt lat="49.970268" lon="14.375316"><ele>196.73</ele><time>2011-05-22T18:12:22Z</time></trkpt><trkpt lat="49.970253" lon="14.375315"><ele>196.25</ele><time>2011-05-22T18:12:23Z</time></trkpt><trkpt lat="49.970234" lon="14.375318"><ele>196.25</ele><time>2011-05-22T18:12:24Z</time></trkpt><trkpt lat="49.969906" lon="14.375341"><ele>198.17</ele><time>2011-05-22T18:12:35Z</time></trkpt><trkpt lat="49.969467" lon="14.375496"><ele>200.09</ele><time>2011-05-22T18:12:49Z</time></trkpt><trkpt lat="49.969162" lon="14.375748"><ele>202.01</ele><time>2011-05-22T18:13:02Z</time></trkpt><trkpt lat="49.968960" lon="14.376048"><ele>204.42</ele><time>2011-05-22T18:13:15Z</time></trkpt><trkpt lat="49.968945" lon="14.376626"><ele>207.78</ele><time>2011-05-22T18:13:31Z</time></trkpt><trkpt lat="49.969051" lon="14.377002"><ele>210.19</ele><time>2011-05-22T18:13:44Z</time></trkpt><trkpt lat="49.969292" lon="14.377367"><ele>212.59</ele><time>2011-05-22T18:14:00Z</time></trkpt><trkpt lat="49.969555" lon="14.377731"><ele>214.99</ele><time>2011-05-22T18:14:16Z</time></trkpt><trkpt lat="49.969723" lon="14.378175"><ele>217.88</ele><time>2011-05-22T18:14:31Z</time></trkpt><trkpt lat="49.969856" lon="14.378690"><ele>221.24</ele><time>2011-05-22T18:14:48Z</time></trkpt><trkpt lat="49.969921" lon="14.379219"><ele>224.61</ele><time>2011-05-22T18:15:05Z</time></trkpt><trkpt lat="49.969921" lon="14.379576"><ele>225.09</ele><time>2011-05-22T18:15:19Z</time></trkpt><trkpt lat="49.969955" lon="14.379581"><ele>225.57</ele><time>2011-05-22T18:15:23Z</time></trkpt><trkpt lat="49.969967" lon="14.379574"><ele>225.57</ele><time>2011-05-22T18:15:24Z</time></trkpt><trkpt lat="49.969990" lon="14.379555"><ele>225.57</ele><time>2011-05-22T18:15:25Z</time></trkpt><trkpt lat="49.970013" lon="14.379529"><ele>226.05</ele><time>2011-05-22T18:15:26Z</time></trkpt><trkpt lat="49.970032" lon="14.379504"><ele>225.57</ele><time>2011-05-22T18:15:27Z</time></trkpt><trkpt lat="49.970047" lon="14.379478"><ele>226.05</ele><time>2011-05-22T18:15:28Z</time></trkpt><trkpt lat="49.970058" lon="14.379449"><ele>225.57</ele><time>2011-05-22T18:15:29Z</time></trkpt><trkpt lat="49.970066" lon="14.379422"><ele>225.57</ele><time>2011-05-22T18:15:30Z</time></trkpt><trkpt lat="49.970066" lon="14.379395"><ele>225.57</ele><time>2011-05-22T18:15:31Z</time></trkpt><trkpt lat="49.970062" lon="14.379371"><ele>225.09</ele><time>2011-05-22T18:15:32Z</time></trkpt><trkpt lat="49.970039" lon="14.379360"><ele>225.09</ele><time>2011-05-22T18:15:33Z</time></trkpt><trkpt lat="49.970020" lon="14.379353"><ele>225.09</ele><time>2011-05-22T18:15:34Z</time></trkpt><trkpt lat="49.970009" lon="14.379340"><ele>225.09</ele><time>2011-05-22T18:15:48Z</time></trkpt><trkpt lat="49.970009" lon="14.379340"><ele>225.09</ele><time>2011-05-22T18:16:14Z</time></trkpt><trkpt lat="49.969963" lon="14.379344"><ele>224.61</ele><time>2011-05-22T18:16:32Z</time></trkpt><trkpt lat="49.969891" lon="14.379382"><ele>225.09</ele><time>2011-05-22T18:16:37Z</time></trkpt><trkpt lat="49.969879" lon="14.379405"><ele>225.09</ele><time>2011-05-22T18:16:38Z</time></trkpt><trkpt lat="49.969872" lon="14.379434"><ele>225.57</ele><time>2011-05-22T18:16:39Z</time></trkpt><trkpt lat="49.969860" lon="14.379461"><ele>225.09</ele><time>2011-05-22T18:16:40Z</time></trkpt><trkpt lat="49.969841" lon="14.379484"><ele>225.57</ele><time>2011-05-22T18:16:41Z</time></trkpt><trkpt lat="49.969826" lon="14.379508"><ele>225.09</ele><time>2011-05-22T18:16:42Z</time></trkpt><trkpt lat="49.969501" lon="14.379760"><ele>228.93</ele><time>2011-05-22T18:16:58Z</time></trkpt><trkpt lat="49.969280" lon="14.380078"><ele>230.85</ele><time>2011-05-22T18:17:12Z</time></trkpt><trkpt lat="49.969189" lon="14.380670"><ele>233.74</ele><time>2011-05-22T18:17:30Z</time></trkpt><trkpt lat="49.969185" lon="14.381212"><ele>236.14</ele><time>2011-05-22T18:17:47Z</time></trkpt><trkpt lat="49.969280" lon="14.381663"><ele>236.62</ele><time>2011-05-22T18:18:02Z</time></trkpt><trkpt lat="49.969440" lon="14.382289"><ele>236.14</ele><time>2011-05-22T18:18:19Z</time></trkpt><trkpt lat="49.969555" lon="14.382798"><ele>236.62</ele><time>2011-05-22T18:18:35Z</time></trkpt><trkpt lat="49.969608" lon="14.382915"><ele>237.10</ele><time>2011-05-22T18:18:48Z</time></trkpt><trkpt lat="49.969608" lon="14.382913"><ele>237.10</ele><time>2011-05-22T18:19:11Z</time></trkpt><trkpt lat="49.969624" lon="14.382944"><ele>237.58</ele><time>2011-05-22T18:19:31Z</time></trkpt><trkpt lat="49.969761" lon="14.383477"><ele>236.14</ele><time>2011-05-22T18:19:42Z</time></trkpt><trkpt lat="49.969967" lon="14.384342"><ele>235.66</ele><time>2011-05-22T18:19:57Z</time></trkpt><trkpt lat="49.970276" lon="14.385564"><ele>236.14</ele><time>2011-05-22T18:20:15Z</time></trkpt><trkpt lat="49.970341" lon="14.385857"><ele>235.66</ele><time>2011-05-22T18:20:19Z</time></trkpt><trkpt lat="49.970444" lon="14.386301"><ele>235.66</ele><time>2011-05-22T18:20:26Z</time></trkpt><trkpt lat="49.970493" lon="14.386493"><ele>235.66</ele><time>2011-05-22T18:20:29Z</time></trkpt><trkpt lat="49.970863" lon="14.387326"><ele>234.22</ele><time>2011-05-22T18:20:43Z</time></trkpt><trkpt lat="49.970932" lon="14.387431"><ele>234.70</ele><time>2011-05-22T18:20:45Z</time></trkpt><trkpt lat="49.970997" lon="14.387532"><ele>234.70</ele><time>2011-05-22T18:20:47Z</time></trkpt><trkpt lat="49.971027" lon="14.387578"><ele>234.22</ele><time>2011-05-22T18:20:48Z</time></trkpt><trkpt lat="49.971046" lon="14.387624"><ele>233.74</ele><time>2011-05-22T18:20:49Z</time></trkpt><trkpt lat="49.971050" lon="14.387660"><ele>234.22</ele><time>2011-05-22T18:20:50Z</time></trkpt><trkpt lat="49.971054" lon="14.387683"><ele>233.74</ele><time>2011-05-22T18:20:51Z</time></trkpt><trkpt lat="49.971058" lon="14.387705"><ele>234.22</ele><time>2011-05-22T18:20:52Z</time></trkpt><trkpt lat="49.971062" lon="14.387730"><ele>234.22</ele><time>2011-05-22T18:21:04Z</time></trkpt><trkpt lat="49.971149" lon="14.387962"><ele>232.30</ele><time>2011-05-22T18:21:12Z</time></trkpt><trkpt lat="49.971306" lon="14.388848"><ele>228.93</ele><time>2011-05-22T18:21:23Z</time></trkpt><trkpt lat="49.971478" lon="14.389531"><ele>224.61</ele><time>2011-05-22T18:21:34Z</time></trkpt><trkpt lat="49.971451" lon="14.389965"><ele>224.61</ele><time>2011-05-22T18:21:43Z</time></trkpt><trkpt lat="49.971451" lon="14.389968"><ele>224.12</ele><time>2011-05-22T18:21:56Z</time></trkpt><trkpt lat="49.971443" lon="14.389991"><ele>224.12</ele><time>2011-05-22T18:21:57Z</time></trkpt><trkpt lat="49.971443" lon="14.390021"><ele>223.16</ele><time>2011-05-22T18:21:58Z</time></trkpt><trkpt lat="49.971447" lon="14.390061"><ele>222.20</ele><time>2011-05-22T18:21:59Z</time></trkpt><trkpt lat="49.971455" lon="14.390117"><ele>222.68</ele><time>2011-05-22T18:22:00Z</time></trkpt><trkpt lat="49.971466" lon="14.390178"><ele>219.80</ele><time>2011-05-22T18:22:01Z</time></trkpt><trkpt lat="49.971485" lon="14.390238"><ele>221.72</ele><time>2011-05-22T18:22:02Z</time></trkpt><trkpt lat="49.971622" lon="14.390615"><ele>219.80</ele><time>2011-05-22T18:22:09Z</time></trkpt><trkpt lat="49.971642" lon="14.390642"><ele>221.72</ele><time>2011-05-22T18:22:10Z</time></trkpt><trkpt lat="49.971657" lon="14.390667"><ele>219.80</ele><time>2011-05-22T18:22:11Z</time></trkpt><trkpt lat="49.971664" lon="14.390689"><ele>219.80</ele><time>2011-05-22T18:22:12Z</time></trkpt><trkpt lat="49.971668" lon="14.390709"><ele>219.32</ele><time>2011-05-22T18:22:13Z</time></trkpt><trkpt lat="49.971684" lon="14.390724"><ele>219.32</ele><time>2011-05-22T18:22:23Z</time></trkpt><trkpt lat="49.971687" lon="14.390720"><ele>219.80</ele><time>2011-05-22T18:22:25Z</time></trkpt><trkpt lat="49.971684" lon="14.390703"><ele>219.80</ele><time>2011-05-22T18:22:26Z</time></trkpt><trkpt lat="49.971676" lon="14.390685"><ele>219.80</ele><time>2011-05-22T18:22:27Z</time></trkpt><trkpt lat="49.971500" lon="14.390185"><ele>221.24</ele><time>2011-05-22T18:22:41Z</time></trkpt><trkpt lat="49.971474" lon="14.390109"><ele>222.68</ele><time>2011-05-22T18:22:43Z</time></trkpt><trkpt lat="49.971390" lon="14.389886"><ele>226.05</ele><time>2011-05-22T18:22:53Z</time></trkpt><trkpt lat="49.971390" lon="14.389886"><ele>224.12</ele><time>2011-05-22T18:23:05Z</time></trkpt><trkpt lat="49.971382" lon="14.389912"><ele>224.61</ele><time>2011-05-22T18:23:06Z</time></trkpt><trkpt lat="49.971375" lon="14.389929"><ele>222.68</ele><time>2011-05-22T18:23:07Z</time></trkpt><trkpt lat="49.971371" lon="14.389948"><ele>223.16</ele><time>2011-05-22T18:23:08Z</time></trkpt><trkpt lat="49.971367" lon="14.389965"><ele>223.64</ele><time>2011-05-22T18:23:09Z</time></trkpt><trkpt lat="49.971355" lon="14.390094"><ele>223.16</ele><time>2011-05-22T18:23:22Z</time></trkpt><trkpt lat="49.971359" lon="14.390100"><ele>221.72</ele><time>2011-05-22T18:23:28Z</time></trkpt><trkpt lat="49.971401" lon="14.390320"><ele>221.72</ele><time>2011-05-22T18:23:44Z</time></trkpt><trkpt lat="49.971413" lon="14.390423"><ele>220.76</ele><time>2011-05-22T18:23:50Z</time></trkpt><trkpt lat="49.971416" lon="14.390450"><ele>220.76</ele><time>2011-05-22T18:23:51Z</time></trkpt><trkpt lat="49.971443" lon="14.390615"><ele>218.84</ele><time>2011-05-22T18:23:55Z</time></trkpt><trkpt lat="49.971493" lon="14.391067"><ele>215.47</ele><time>2011-05-22T18:24:03Z</time></trkpt><trkpt lat="49.971489" lon="14.391440"><ele>212.11</ele><time>2011-05-22T18:24:13Z</time></trkpt><trkpt lat="49.971596" lon="14.391672"><ele>210.19</ele><time>2011-05-22T18:24:18Z</time></trkpt><trkpt lat="49.971783" lon="14.392076"><ele>208.26</ele><time>2011-05-22T18:24:25Z</time></trkpt><trkpt lat="49.971844" lon="14.392229"><ele>207.30</ele><time>2011-05-22T18:24:29Z</time></trkpt><trkpt lat="49.971844" lon="14.392274"><ele>207.78</ele><time>2011-05-22T18:24:30Z</time></trkpt><trkpt lat="49.971840" lon="14.392313"><ele>206.82</ele><time>2011-05-22T18:24:31Z</time></trkpt><trkpt lat="49.971836" lon="14.392349"><ele>206.34</ele><time>2011-05-22T18:24:32Z</time></trkpt><trkpt lat="49.971828" lon="14.392384"><ele>206.34</ele><time>2011-05-22T18:24:33Z</time></trkpt><trkpt lat="49.971817" lon="14.392414"><ele>205.86</ele><time>2011-05-22T18:24:34Z</time></trkpt><trkpt lat="49.971806" lon="14.392443"><ele>206.34</ele><time>2011-05-22T18:24:35Z</time></trkpt><trkpt lat="49.971798" lon="14.392474"><ele>206.34</ele><time>2011-05-22T18:24:36Z</time></trkpt><trkpt lat="49.971786" lon="14.392503"><ele>205.86</ele><time>2011-05-22T18:24:37Z</time></trkpt><trkpt lat="49.971775" lon="14.392529"><ele>205.38</ele><time>2011-05-22T18:24:38Z</time></trkpt><trkpt lat="49.971760" lon="14.392557"><ele>205.86</ele><time>2011-05-22T18:24:39Z</time></trkpt><trkpt lat="49.971741" lon="14.392583"><ele>203.94</ele><time>2011-05-22T18:24:40Z</time></trkpt><trkpt lat="49.971714" lon="14.392614"><ele>203.94</ele><time>2011-05-22T18:24:41Z</time></trkpt><trkpt lat="49.971684" lon="14.392662"><ele>204.90</ele><time>2011-05-22T18:24:42Z</time></trkpt><trkpt lat="49.971649" lon="14.392718"><ele>203.46</ele><time>2011-05-22T18:24:43Z</time></trkpt><trkpt lat="49.971355" lon="14.393109"><ele>200.09</ele><time>2011-05-22T18:24:50Z</time></trkpt><trkpt lat="49.971279" lon="14.393194"><ele>199.13</ele><time>2011-05-22T18:24:52Z</time></trkpt><trkpt lat="49.971054" lon="14.393516"><ele>197.69</ele><time>2011-05-22T18:25:00Z</time></trkpt><trkpt lat="49.971027" lon="14.393572"><ele>197.69</ele><time>2011-05-22T18:25:01Z</time></trkpt><trkpt lat="49.971004" lon="14.393631"><ele>197.69</ele><time>2011-05-22T18:25:02Z</time></trkpt><trkpt lat="49.970737" lon="14.394270"><ele>195.77</ele><time>2011-05-22T18:25:14Z</time></trkpt><trkpt lat="49.970711" lon="14.394330"><ele>196.73</ele><time>2011-05-22T18:25:19Z</time></trkpt><trkpt lat="49.970722" lon="14.394374"><ele>195.77</ele><time>2011-05-22T18:25:26Z</time></trkpt><trkpt lat="49.970730" lon="14.394400"><ele>195.77</ele><time>2011-05-22T18:25:27Z</time></trkpt><trkpt lat="49.970749" lon="14.394430"><ele>195.77</ele><time>2011-05-22T18:25:28Z</time></trkpt><trkpt lat="49.970776" lon="14.394461"><ele>195.77</ele><time>2011-05-22T18:25:29Z</time></trkpt><trkpt lat="49.970806" lon="14.394487"><ele>196.73</ele><time>2011-05-22T18:25:30Z</time></trkpt><trkpt lat="49.970840" lon="14.394512"><ele>194.80</ele><time>2011-05-22T18:25:31Z</time></trkpt><trkpt lat="49.970879" lon="14.394536"><ele>196.73</ele><time>2011-05-22T18:25:32Z</time></trkpt><trkpt lat="49.971077" lon="14.394668"><ele>195.77</ele><time>2011-05-22T18:25:37Z</time></trkpt><trkpt lat="49.971855" lon="14.394942"><ele>194.80</ele><time>2011-05-22T18:25:55Z</time></trkpt><trkpt lat="49.972008" lon="14.394948"><ele>194.80</ele><time>2011-05-22T18:25:58Z</time></trkpt><trkpt lat="49.972191" lon="14.395758"><ele>196.73</ele><time>2011-05-22T18:26:12Z</time></trkpt><trkpt lat="49.972107" lon="14.396382"><ele>198.65</ele><time>2011-05-22T18:26:23Z</time></trkpt><trkpt lat="49.972054" lon="14.397336"><ele>202.01</ele><time>2011-05-22T18:26:41Z</time></trkpt><trkpt lat="49.972004" lon="14.398434"><ele>203.46</ele><time>2011-05-22T18:27:02Z</time></trkpt><trkpt lat="49.971954" lon="14.399405"><ele>203.46</ele><time>2011-05-22T18:27:19Z</time></trkpt><trkpt lat="49.971912" lon="14.399812"><ele>202.98</ele><time>2011-05-22T18:27:33Z</time></trkpt><trkpt lat="49.971916" lon="14.399789"><ele>198.17</ele><time>2011-05-22T18:27:45Z</time></trkpt><trkpt lat="49.971916" lon="14.399789"><ele>204.42</ele><time>2011-05-22T18:27:46Z</time></trkpt><trkpt lat="49.971939" lon="14.399767"><ele>203.46</ele><time>2011-05-22T18:27:49Z</time></trkpt><trkpt lat="49.971939" lon="14.399729"><ele>203.94</ele><time>2011-05-22T18:27:51Z</time></trkpt><trkpt lat="49.971935" lon="14.399706"><ele>203.94</ele><time>2011-05-22T18:27:52Z</time></trkpt><trkpt lat="49.971924" lon="14.399685"><ele>202.98</ele><time>2011-05-22T18:27:53Z</time></trkpt><trkpt lat="49.971905" lon="14.399663"><ele>202.98</ele><time>2011-05-22T18:27:54Z</time></trkpt><trkpt lat="49.971870" lon="14.399646"><ele>202.98</ele><time>2011-05-22T18:27:55Z</time></trkpt><trkpt lat="49.971836" lon="14.399627"><ele>202.98</ele><time>2011-05-22T18:27:56Z</time></trkpt><trkpt lat="49.971691" lon="14.399487"><ele>200.09</ele><time>2011-05-22T18:28:01Z</time></trkpt><trkpt lat="49.971462" lon="14.399344"><ele>196.73</ele><time>2011-05-22T18:28:06Z</time></trkpt><trkpt lat="49.971252" lon="14.399296"><ele>196.25</ele><time>2011-05-22T18:28:08Z</time></trkpt><trkpt lat="49.970787" lon="14.399252"><ele>196.25</ele><time>2011-05-22T18:28:21Z</time></trkpt><trkpt lat="49.970890" lon="14.399365"><ele>195.28</ele><time>2011-05-22T18:28:29Z</time></trkpt><trkpt lat="49.970924" lon="14.399389"><ele>196.25</ele><time>2011-05-22T18:28:30Z</time></trkpt><trkpt lat="49.970955" lon="14.399404"><ele>196.73</ele><time>2011-05-22T18:28:31Z</time></trkpt><trkpt lat="49.971142" lon="14.399422"><ele>196.73</ele><time>2011-05-22T18:28:36Z</time></trkpt><trkpt lat="49.971184" lon="14.399421"><ele>196.25</ele><time>2011-05-22T18:28:37Z</time></trkpt><trkpt lat="49.971634" lon="14.399307"><ele>196.25</ele><time>2011-05-22T18:28:50Z</time></trkpt><trkpt lat="49.971668" lon="14.399301"><ele>195.77</ele><time>2011-05-22T18:28:58Z</time></trkpt><trkpt lat="49.971687" lon="14.399296"><ele>195.77</ele><time>2011-05-22T18:28:59Z</time></trkpt><trkpt lat="49.971714" lon="14.399282"><ele>195.28</ele><time>2011-05-22T18:29:00Z</time></trkpt><trkpt lat="49.971748" lon="14.399266"><ele>194.80</ele><time>2011-05-22T18:29:01Z</time></trkpt><trkpt lat="49.971771" lon="14.399258"><ele>194.80</ele><time>2011-05-22T18:29:02Z</time></trkpt><trkpt lat="49.971798" lon="14.399253"><ele>193.84</ele><time>2011-05-22T18:29:03Z</time></trkpt><trkpt lat="49.972519" lon="14.399321"><ele>192.40</ele><time>2011-05-22T18:29:16Z</time></trkpt><trkpt lat="49.973206" lon="14.399190"><ele>191.92</ele><time>2011-05-22T18:29:29Z</time></trkpt><trkpt lat="49.973579" lon="14.399291"><ele>192.40</ele><time>2011-05-22T18:29:36Z</time></trkpt><trkpt lat="49.973633" lon="14.399283"><ele>192.40</ele><time>2011-05-22T18:29:37Z</time></trkpt><trkpt lat="49.973679" lon="14.399257"><ele>191.92</ele><time>2011-05-22T18:29:38Z</time></trkpt><trkpt lat="49.973717" lon="14.399213"><ele>191.44</ele><time>2011-05-22T18:29:39Z</time></trkpt><trkpt lat="49.973751" lon="14.399155"><ele>191.92</ele><time>2011-05-22T18:29:40Z</time></trkpt><trkpt lat="49.973778" lon="14.399095"><ele>191.44</ele><time>2011-05-22T18:29:41Z</time></trkpt><trkpt lat="49.974049" lon="14.398878"><ele>190.96</ele><time>2011-05-22T18:29:51Z</time></trkpt><trkpt lat="49.974339" lon="14.399046"><ele>194.32</ele><time>2011-05-22T18:30:03Z</time></trkpt><trkpt lat="49.974438" lon="14.399075"><ele>191.44</ele><time>2011-05-22T18:30:06Z</time></trkpt><trkpt lat="49.974846" lon="14.399008"><ele>191.92</ele><time>2011-05-22T18:30:20Z</time></trkpt><trkpt lat="49.975033" lon="14.398975"><ele>192.88</ele><time>2011-05-22T18:30:26Z</time></trkpt><trkpt lat="49.975048" lon="14.398993"><ele>193.36</ele><time>2011-05-22T18:30:27Z</time></trkpt><trkpt lat="49.974953" lon="14.399126"><ele>193.36</ele><time>2011-05-22T18:30:35Z</time></trkpt><trkpt lat="49.974911" lon="14.399152"><ele>193.36</ele><time>2011-05-22T18:30:47Z</time></trkpt><trkpt lat="49.974930" lon="14.399161"><ele>193.84</ele><time>2011-05-22T18:31:02Z</time></trkpt><trkpt lat="49.974937" lon="14.399157"><ele>193.36</ele><time>2011-05-22T18:31:06Z</time></trkpt><trkpt lat="49.974957" lon="14.399119"><ele>193.36</ele><time>2011-05-22T18:31:09Z</time></trkpt><trkpt lat="49.975029" lon="14.399120"><ele>193.84</ele><time>2011-05-22T18:31:24Z</time></trkpt><trkpt lat="49.975029" lon="14.399120"><ele>193.36</ele><time>2011-05-22T18:31:48Z</time></trkpt><trkpt lat="49.975025" lon="14.399111"><ele>193.36</ele><time>2011-05-22T18:32:17Z</time></trkpt><trkpt lat="49.974972" lon="14.399095"><ele>193.84</ele><time>2011-05-22T18:32:34Z</time></trkpt><trkpt lat="49.974964" lon="14.399077"><ele>193.84</ele><time>2011-05-22T18:32:45Z</time></trkpt><trkpt lat="49.974934" lon="14.399159"><ele>193.84</ele><time>2011-05-22T18:32:59Z</time></trkpt><trkpt lat="49.974926" lon="14.399163"><ele>193.36</ele><time>2011-05-22T18:33:13Z</time></trkpt><trkpt lat="49.974926" lon="14.399160"><ele>193.84</ele><time>2011-05-22T18:33:41Z</time></trkpt><trkpt lat="49.974934" lon="14.399146"><ele>193.36</ele><time>2011-05-22T18:33:54Z</time></trkpt><trkpt lat="49.974949" lon="14.399137"><ele>193.36</ele><time>2011-05-22T18:34:11Z</time></trkpt><trkpt lat="49.974979" lon="14.399098"><ele>193.36</ele><time>2011-05-22T18:34:26Z</time></trkpt><trkpt lat="49.974979" lon="14.399098"><ele>192.88</ele><time>2011-05-22T18:34:57Z</time></trkpt><trkpt lat="49.974957" lon="14.399052"><ele>193.36</ele><time>2011-05-22T18:35:13Z</time></trkpt><trkpt lat="49.974964" lon="14.399082"><ele>193.36</ele><time>2011-05-22T18:35:26Z</time></trkpt><trkpt lat="49.974957" lon="14.399104"><ele>193.36</ele><time>2011-05-22T18:35:33Z</time></trkpt><trkpt lat="49.974926" lon="14.399125"><ele>193.84</ele><time>2011-05-22T18:35:37Z</time></trkpt><trkpt lat="49.974926" lon="14.399119"><ele>193.84</ele><time>2011-05-22T18:35:45Z</time></trkpt><trkpt lat="49.974949" lon="14.399081"><ele>193.36</ele><time>2011-05-22T18:36:00Z</time></trkpt><trkpt lat="49.974953" lon="14.399044"><ele>192.88</ele><time>2011-05-22T18:36:15Z</time></trkpt><trkpt lat="49.974945" lon="14.399041"><ele>192.88</ele><time>2011-05-22T18:36:32Z</time></trkpt><trkpt lat="49.974945" lon="14.399041"><ele>193.36</ele><time>2011-05-22T18:37:01Z</time></trkpt><trkpt lat="49.974945" lon="14.399040"><ele>193.36</ele><time>2011-05-22T18:37:36Z</time></trkpt><trkpt lat="49.974941" lon="14.399041"><ele>193.84</ele><time>2011-05-22T18:38:09Z</time></trkpt><trkpt lat="49.974941" lon="14.399041"><ele>190.00</ele><time>2011-05-22T18:38:15Z</time></trkpt><trkpt lat="49.974941" lon="14.399041"><ele>192.40</ele><time>2011-05-22T18:38:16Z</time></trkpt><trkpt lat="49.974941" lon="14.399041"><ele>193.36</ele><time>2011-05-22T18:38:18Z</time></trkpt><trkpt lat="49.974941" lon="14.399041"><ele>193.36</ele><time>2011-05-22T18:38:52Z</time></trkpt><trkpt lat="49.974941" lon="14.399041"><ele>193.36</ele><time>2011-05-22T18:39:28Z</time></trkpt><trkpt lat="49.974941" lon="14.399042"><ele>193.36</ele><time>2011-05-22T18:39:57Z</time></trkpt><trkpt lat="49.974941" lon="14.399042"><ele>192.88</ele><time>2011-05-22T18:40:35Z</time></trkpt><trkpt lat="49.974941" lon="14.399042"><ele>193.36</ele><time>2011-05-22T18:41:12Z</time></trkpt><trkpt lat="49.974941" lon="14.399042"><ele>192.88</ele><time>2011-05-22T18:41:43Z</time></trkpt><trkpt lat="49.974941" lon="14.399043"><ele>192.88</ele><time>2011-05-22T18:42:16Z</time></trkpt><trkpt lat="49.974941" lon="14.399043"><ele>192.88</ele><time>2011-05-22T18:42:48Z</time></trkpt><trkpt lat="49.974941" lon="14.399044"><ele>193.36</ele><time>2011-05-22T18:43:18Z</time></trkpt><trkpt lat="49.974941" lon="14.399045"><ele>192.88</ele><time>2011-05-22T18:43:52Z</time></trkpt><trkpt lat="49.974941" lon="14.399044"><ele>192.88</ele><time>2011-05-22T18:44:29Z</time></trkpt><trkpt lat="49.974941" lon="14.399044"><ele>192.40</ele><time>2011-05-22T18:45:10Z</time></trkpt><trkpt lat="49.974941" lon="14.399044"><ele>192.88</ele><time>2011-05-22T18:45:42Z</time></trkpt><trkpt lat="49.974945" lon="14.399046"><ele>192.88</ele><time>2011-05-22T18:46:10Z</time></trkpt><trkpt lat="49.974945" lon="14.399046"><ele>193.36</ele><time>2011-05-22T18:46:43Z</time></trkpt><trkpt lat="49.974945" lon="14.399046"><ele>193.84</ele><time>2011-05-22T18:47:17Z</time></trkpt><trkpt lat="49.974949" lon="14.399046"><ele>193.36</ele><time>2011-05-22T18:47:48Z</time></trkpt><trkpt lat="49.974949" lon="14.399046"><ele>193.84</ele><time>2011-05-22T18:48:16Z</time></trkpt><trkpt lat="49.974945" lon="14.399041"><ele>193.84</ele><time>2011-05-22T18:48:50Z</time></trkpt><trkpt lat="49.974945" lon="14.399044"><ele>194.32</ele><time>2011-05-22T18:49:27Z</time></trkpt><trkpt lat="49.974949" lon="14.399045"><ele>193.36</ele><time>2011-05-22T18:50:02Z</time></trkpt><trkpt lat="49.974953" lon="14.399046"><ele>193.36</ele><time>2011-05-22T18:50:35Z</time></trkpt><trkpt lat="49.974953" lon="14.399044"><ele>193.36</ele><time>2011-05-22T18:51:17Z</time></trkpt><trkpt lat="49.974953" lon="14.399035"><ele>193.36</ele><time>2011-05-22T18:51:54Z</time></trkpt><trkpt lat="49.974953" lon="14.399036"><ele>193.36</ele><time>2011-05-22T18:52:30Z</time></trkpt><trkpt lat="49.974953" lon="14.399036"><ele>193.84</ele><time>2011-05-22T18:53:05Z</time></trkpt><trkpt lat="49.974953" lon="14.399045"><ele>193.36</ele><time>2011-05-22T18:53:40Z</time></trkpt><trkpt lat="49.974953" lon="14.399039"><ele>193.36</ele><time>2011-05-22T18:54:10Z</time></trkpt><trkpt lat="49.974953" lon="14.399045"><ele>193.36</ele><time>2011-05-22T18:54:41Z</time></trkpt><trkpt lat="49.974957" lon="14.399047"><ele>192.88</ele><time>2011-05-22T18:55:14Z</time></trkpt><trkpt lat="49.974957" lon="14.399047"><ele>193.36</ele><time>2011-05-22T18:55:41Z</time></trkpt><trkpt lat="49.974953" lon="14.399048"><ele>193.36</ele><time>2011-05-22T18:56:11Z</time></trkpt><trkpt lat="49.974953" lon="14.399048"><ele>192.88</ele><time>2011-05-22T18:56:42Z</time></trkpt><trkpt lat="49.974953" lon="14.399050"><ele>192.88</ele><time>2011-05-22T18:57:08Z</time></trkpt><trkpt lat="49.974953" lon="14.399050"><ele>192.88</ele><time>2011-05-22T18:57:40Z</time></trkpt><trkpt lat="49.974953" lon="14.399049"><ele>192.88</ele><time>2011-05-22T18:58:09Z</time></trkpt><trkpt lat="49.974957" lon="14.399047"><ele>192.40</ele><time>2011-05-22T18:58:36Z</time></trkpt><trkpt lat="49.974957" lon="14.399047"><ele>192.88</ele><time>2011-05-22T18:59:04Z</time></trkpt><trkpt lat="49.974957" lon="14.399048"><ele>192.40</ele><time>2011-05-22T18:59:35Z</time></trkpt><trkpt lat="49.974957" lon="14.399045"><ele>192.88</ele><time>2011-05-22T19:00:06Z</time></trkpt><trkpt lat="49.974957" lon="14.399048"><ele>192.88</ele><time>2011-05-22T19:00:34Z</time></trkpt><trkpt lat="49.974957" lon="14.399048"><ele>192.88</ele><time>2011-05-22T19:01:02Z</time></trkpt><trkpt lat="49.974957" lon="14.399047"><ele>192.88</ele><time>2011-05-22T19:01:34Z</time></trkpt><trkpt lat="49.974960" lon="14.399048"><ele>192.88</ele><time>2011-05-22T19:02:05Z</time></trkpt><trkpt lat="49.974960" lon="14.399055"><ele>192.88</ele><time>2011-05-22T19:02:31Z</time></trkpt><trkpt lat="49.974960" lon="14.399055"><ele>193.36</ele><time>2011-05-22T19:03:05Z</time></trkpt><trkpt lat="49.974960" lon="14.399055"><ele>192.88</ele><time>2011-05-22T19:03:36Z</time></trkpt><trkpt lat="49.974964" lon="14.399059"><ele>192.40</ele><time>2011-05-22T19:04:06Z</time></trkpt><trkpt lat="49.974964" lon="14.399059"><ele>192.88</ele><time>2011-05-22T19:04:43Z</time></trkpt><trkpt lat="49.974964" lon="14.399058"><ele>192.88</ele><time>2011-05-22T19:05:18Z</time></trkpt><trkpt lat="49.974983" lon="14.399048"><ele>192.40</ele><time>2011-05-22T19:05:50Z</time></trkpt><trkpt lat="49.974979" lon="14.399047"><ele>192.40</ele><time>2011-05-22T19:06:23Z</time></trkpt><trkpt lat="49.974979" lon="14.399045"><ele>192.40</ele><time>2011-05-22T19:06:59Z</time></trkpt><trkpt lat="49.974979" lon="14.399045"><ele>191.92</ele><time>2011-05-22T19:07:30Z</time></trkpt><trkpt lat="49.974976" lon="14.399044"><ele>192.40</ele><time>2011-05-22T19:08:01Z</time></trkpt><trkpt lat="49.974976" lon="14.399043"><ele>192.40</ele><time>2011-05-22T19:08:31Z</time></trkpt><trkpt lat="49.974976" lon="14.399043"><ele>192.88</ele><time>2011-05-22T19:08:54Z</time></trkpt><trkpt lat="49.974979" lon="14.399038"><ele>192.40</ele><time>2011-05-22T19:09:18Z</time></trkpt><trkpt lat="49.974972" lon="14.399033"><ele>192.40</ele><time>2011-05-22T19:09:44Z</time></trkpt><trkpt lat="49.974976" lon="14.399036"><ele>192.40</ele><time>2011-05-22T19:10:19Z</time></trkpt><trkpt lat="49.974972" lon="14.399045"><ele>191.92</ele><time>2011-05-22T19:10:56Z</time></trkpt><trkpt lat="49.974972" lon="14.399045"><ele>192.40</ele><time>2011-05-22T19:11:29Z</time></trkpt><trkpt lat="49.974968" lon="14.399049"><ele>192.40</ele><time>2011-05-22T19:11:57Z</time></trkpt><trkpt lat="49.974968" lon="14.399046"><ele>192.40</ele><time>2011-05-22T19:12:32Z</time></trkpt><trkpt lat="49.974964" lon="14.399037"><ele>192.40</ele><time>2011-05-22T19:13:07Z</time></trkpt><trkpt lat="49.974960" lon="14.399042"><ele>192.88</ele><time>2011-05-22T19:13:42Z</time></trkpt><trkpt lat="49.974960" lon="14.399042"><ele>192.88</ele><time>2011-05-22T19:14:07Z</time></trkpt><trkpt lat="49.974957" lon="14.399034"><ele>192.40</ele><time>2011-05-22T19:14:45Z</time></trkpt><trkpt lat="49.974953" lon="14.399033"><ele>192.40</ele><time>2011-05-22T19:15:11Z</time></trkpt><trkpt lat="49.974945" lon="14.399038"><ele>195.77</ele><time>2011-05-22T19:15:21Z</time></trkpt><trkpt lat="49.974945" lon="14.399041"><ele>189.52</ele><time>2011-05-22T19:15:22Z</time></trkpt><trkpt lat="49.974945" lon="14.399041"><ele>193.36</ele><time>2011-05-22T19:15:23Z</time></trkpt><trkpt lat="49.974960" lon="14.399046"><ele>192.88</ele><time>2011-05-22T19:15:40Z</time></trkpt><trkpt lat="49.974972" lon="14.398978"><ele>193.36</ele><time>2011-05-22T19:15:53Z</time></trkpt><trkpt lat="49.974979" lon="14.398970"><ele>193.36</ele><time>2011-05-22T19:16:04Z</time></trkpt><trkpt lat="49.975456" lon="14.398917"><ele>191.44</ele><time>2011-05-22T19:16:17Z</time></trkpt><trkpt lat="49.976284" lon="14.398538"><ele>191.92</ele><time>2011-05-22T19:16:30Z</time></trkpt><trkpt lat="49.976341" lon="14.398521"><ele>192.40</ele><time>2011-05-22T19:16:31Z</time></trkpt><trkpt lat="49.976685" lon="14.398619"><ele>191.44</ele><time>2011-05-22T19:16:37Z</time></trkpt><trkpt lat="49.976795" lon="14.398646"><ele>192.40</ele><time>2011-05-22T19:16:39Z</time></trkpt><trkpt lat="49.977661" lon="14.398414"><ele>192.40</ele><time>2011-05-22T19:16:54Z</time></trkpt><trkpt lat="49.978100" lon="14.398454"><ele>194.32</ele><time>2011-05-22T19:17:03Z</time></trkpt><trkpt lat="49.978905" lon="14.398310"><ele>195.77</ele><time>2011-05-22T19:17:19Z</time></trkpt><trkpt lat="49.979061" lon="14.398289"><ele>194.80</ele><time>2011-05-22T19:17:22Z</time></trkpt><trkpt lat="49.979916" lon="14.398263"><ele>195.77</ele><time>2011-05-22T19:17:38Z</time></trkpt><trkpt lat="49.980797" lon="14.398485"><ele>195.77</ele><time>2011-05-22T19:17:54Z</time></trkpt><trkpt lat="49.981674" lon="14.398954"><ele>195.77</ele><time>2011-05-22T19:18:10Z</time></trkpt><trkpt lat="49.982014" lon="14.399096"><ele>195.28</ele><time>2011-05-22T19:18:16Z</time></trkpt><trkpt lat="49.982906" lon="14.399536"><ele>195.77</ele><time>2011-05-22T19:18:32Z</time></trkpt><trkpt lat="49.983852" lon="14.400024"><ele>195.28</ele><time>2011-05-22T19:18:49Z</time></trkpt><trkpt lat="49.984444" lon="14.400338"><ele>192.88</ele><time>2011-05-22T19:19:02Z</time></trkpt><trkpt lat="49.984489" lon="14.400367"><ele>192.40</ele><time>2011-05-22T19:19:03Z</time></trkpt><trkpt lat="49.985329" lon="14.400737"><ele>191.92</ele><time>2011-05-22T19:19:19Z</time></trkpt><trkpt lat="49.985641" lon="14.400906"><ele>192.40</ele><time>2011-05-22T19:19:25Z</time></trkpt><trkpt lat="49.986469" lon="14.401306"><ele>193.36</ele><time>2011-05-22T19:19:42Z</time></trkpt><trkpt lat="49.987293" lon="14.401713"><ele>192.88</ele><time>2011-05-22T19:19:59Z</time></trkpt><trkpt lat="49.987801" lon="14.401892"><ele>193.36</ele><time>2011-05-22T19:20:12Z</time></trkpt><trkpt lat="49.987843" lon="14.401902"><ele>193.36</ele><time>2011-05-22T19:20:13Z</time></trkpt><trkpt lat="49.988537" lon="14.402039"><ele>192.88</ele><time>2011-05-22T19:20:28Z</time></trkpt><trkpt lat="49.988941" lon="14.402137"><ele>193.36</ele><time>2011-05-22T19:20:36Z</time></trkpt><trkpt lat="49.989380" lon="14.402352"><ele>192.88</ele><time>2011-05-22T19:20:45Z</time></trkpt><trkpt lat="49.989429" lon="14.402368"><ele>192.88</ele><time>2011-05-22T19:20:46Z</time></trkpt><trkpt lat="49.990120" lon="14.402591"><ele>192.88</ele><time>2011-05-22T19:21:00Z</time></trkpt><trkpt lat="49.990498" lon="14.402770"><ele>192.88</ele><time>2011-05-22T19:21:08Z</time></trkpt><trkpt lat="49.990540" lon="14.402806"><ele>192.88</ele><time>2011-05-22T19:21:09Z</time></trkpt><trkpt lat="49.990582" lon="14.402853"><ele>193.36</ele><time>2011-05-22T19:21:10Z</time></trkpt><trkpt lat="49.991161" lon="14.403500"><ele>193.84</ele><time>2011-05-22T19:21:24Z</time></trkpt><trkpt lat="49.991196" lon="14.403549"><ele>193.84</ele><time>2011-05-22T19:21:25Z</time></trkpt><trkpt lat="49.991234" lon="14.403594"><ele>193.36</ele><time>2011-05-22T19:21:26Z</time></trkpt><trkpt lat="49.991543" lon="14.403647"><ele>193.36</ele><time>2011-05-22T19:21:35Z</time></trkpt><trkpt lat="49.991940" lon="14.403601"><ele>193.84</ele><time>2011-05-22T19:21:44Z</time></trkpt><trkpt lat="49.992290" lon="14.403596"><ele>193.84</ele><time>2011-05-22T19:21:52Z</time></trkpt><trkpt lat="49.992374" lon="14.403633"><ele>193.84</ele><time>2011-05-22T19:21:54Z</time></trkpt><trkpt lat="49.992416" lon="14.403671"><ele>194.32</ele><time>2011-05-22T19:21:55Z</time></trkpt><trkpt lat="49.992455" lon="14.403716"><ele>194.32</ele><time>2011-05-22T19:21:56Z</time></trkpt><trkpt lat="49.992485" lon="14.403767"><ele>193.36</ele><time>2011-05-22T19:21:57Z</time></trkpt><trkpt lat="49.992512" lon="14.403827"><ele>193.84</ele><time>2011-05-22T19:21:58Z</time></trkpt><trkpt lat="49.992535" lon="14.403892"><ele>193.84</ele><time>2011-05-22T19:21:59Z</time></trkpt><trkpt lat="49.992554" lon="14.403957"><ele>193.84</ele><time>2011-05-22T19:22:00Z</time></trkpt><trkpt lat="49.992573" lon="14.404023"><ele>193.36</ele><time>2011-05-22T19:22:01Z</time></trkpt><trkpt lat="49.992626" lon="14.404213"><ele>194.32</ele><time>2011-05-22T19:22:04Z</time></trkpt><trkpt lat="49.992641" lon="14.404278"><ele>193.84</ele><time>2011-05-22T19:22:05Z</time></trkpt><trkpt lat="49.992664" lon="14.404335"><ele>194.32</ele><time>2011-05-22T19:22:06Z</time></trkpt><trkpt lat="49.992695" lon="14.404385"><ele>193.84</ele><time>2011-05-22T19:22:07Z</time></trkpt><trkpt lat="49.992733" lon="14.404428"><ele>193.84</ele><time>2011-05-22T19:22:08Z</time></trkpt><trkpt lat="49.993061" lon="14.404654"><ele>194.32</ele><time>2011-05-22T19:22:17Z</time></trkpt><trkpt lat="49.993111" lon="14.404654"><ele>194.32</ele><time>2011-05-22T19:22:18Z</time></trkpt><trkpt lat="49.993324" lon="14.404638"><ele>194.80</ele><time>2011-05-22T19:22:22Z</time></trkpt><trkpt lat="49.993641" lon="14.404631"><ele>194.80</ele><time>2011-05-22T19:22:29Z</time></trkpt><trkpt lat="49.994251" lon="14.404539"><ele>196.73</ele><time>2011-05-22T19:22:46Z</time></trkpt><trkpt lat="49.994911" lon="14.404413"><ele>195.77</ele><time>2011-05-22T19:23:02Z</time></trkpt><trkpt lat="49.995003" lon="14.404381"><ele>194.80</ele><time>2011-05-22T19:23:04Z</time></trkpt><trkpt lat="49.995743" lon="14.404171"><ele>194.80</ele><time>2011-05-22T19:23:21Z</time></trkpt><trkpt lat="49.996140" lon="14.404119"><ele>195.77</ele><time>2011-05-22T19:23:36Z</time></trkpt><trkpt lat="49.996414" lon="14.404077"><ele>195.77</ele><time>2011-05-22T19:23:52Z</time></trkpt><trkpt lat="49.996826" lon="14.404020"><ele>195.77</ele><time>2011-05-22T19:24:09Z</time></trkpt><trkpt lat="49.997375" lon="14.403915"><ele>195.28</ele><time>2011-05-22T19:24:25Z</time></trkpt><trkpt lat="49.997921" lon="14.403810"><ele>194.80</ele><time>2011-05-22T19:24:39Z</time></trkpt><trkpt lat="49.998722" lon="14.403700"><ele>195.28</ele><time>2011-05-22T19:24:56Z</time></trkpt><trkpt lat="49.999550" lon="14.403610"><ele>194.32</ele><time>2011-05-22T19:25:13Z</time></trkpt><trkpt lat="49.999752" lon="14.403558"><ele>193.84</ele><time>2011-05-22T19:25:17Z</time></trkpt><trkpt lat="50.000793" lon="14.403200"><ele>192.88</ele><time>2011-05-22T19:25:34Z</time></trkpt><trkpt lat="50.002068" lon="14.403058"><ele>192.40</ele><time>2011-05-22T19:25:55Z</time></trkpt><trkpt lat="50.002460" lon="14.403000"><ele>192.40</ele><time>2011-05-22T19:26:02Z</time></trkpt><trkpt lat="50.002586" lon="14.402920"><ele>191.92</ele><time>2011-05-22T19:26:10Z</time></trkpt><trkpt lat="50.002586" lon="14.402920"><ele>190.00</ele><time>2011-05-22T19:26:15Z</time></trkpt><trkpt lat="50.002586" lon="14.402920"><ele>191.92</ele><time>2011-05-22T19:26:17Z</time></trkpt><trkpt lat="50.002586" lon="14.402920"><ele>191.92</ele><time>2011-05-22T19:26:39Z</time></trkpt><trkpt lat="50.002575" lon="14.402926"><ele>191.92</ele><time>2011-05-22T19:27:19Z</time></trkpt><trkpt lat="50.002575" lon="14.402925"><ele>187.59</ele><time>2011-05-22T19:27:48Z</time></trkpt><trkpt lat="50.002575" lon="14.402925"><ele>194.32</ele><time>2011-05-22T19:27:49Z</time></trkpt><trkpt lat="50.002583" lon="14.402946"><ele>193.36</ele><time>2011-05-22T19:28:06Z</time></trkpt><trkpt lat="50.002586" lon="14.402938"><ele>193.36</ele><time>2011-05-22T19:28:12Z</time></trkpt><trkpt lat="50.002670" lon="14.402939"><ele>193.36</ele><time>2011-05-22T19:28:17Z</time></trkpt><trkpt lat="50.002956" lon="14.402898"><ele>193.36</ele><time>2011-05-22T19:28:25Z</time></trkpt><trkpt lat="50.003792" lon="14.402698"><ele>191.44</ele><time>2011-05-22T19:28:40Z</time></trkpt><trkpt lat="50.003990" lon="14.402627"><ele>192.88</ele><time>2011-05-22T19:28:43Z</time></trkpt><trkpt lat="50.005245" lon="14.402241"><ele>192.88</ele><time>2011-05-22T19:29:00Z</time></trkpt><trkpt lat="50.006157" lon="14.401661"><ele>193.36</ele><time>2011-05-22T19:29:13Z</time></trkpt><trkpt lat="50.006229" lon="14.401644"><ele>193.36</ele><time>2011-05-22T19:29:14Z</time></trkpt><trkpt lat="50.006298" lon="14.401641"><ele>193.36</ele><time>2011-05-22T19:29:15Z</time></trkpt><trkpt lat="50.006439" lon="14.401638"><ele>193.36</ele><time>2011-05-22T19:29:17Z</time></trkpt><trkpt lat="50.006504" lon="14.401621"><ele>193.84</ele><time>2011-05-22T19:29:18Z</time></trkpt><trkpt lat="50.007500" lon="14.401044"><ele>193.84</ele><time>2011-05-22T19:29:33Z</time></trkpt><trkpt lat="50.008701" lon="14.400284"><ele>193.36</ele><time>2011-05-22T19:29:51Z</time></trkpt><trkpt lat="50.009823" lon="14.399603"><ele>191.92</ele><time>2011-05-22T19:30:07Z</time></trkpt><trkpt lat="50.010132" lon="14.399464"><ele>192.40</ele><time>2011-05-22T19:30:12Z</time></trkpt><trkpt lat="50.010189" lon="14.399457"><ele>192.40</ele><time>2011-05-22T19:30:13Z</time></trkpt><trkpt lat="50.010338" lon="14.399459"><ele>193.36</ele><time>2011-05-22T19:30:16Z</time></trkpt><trkpt lat="50.010635" lon="14.399362"><ele>194.32</ele><time>2011-05-22T19:30:28Z</time></trkpt><trkpt lat="50.010887" lon="14.399284"><ele>194.80</ele><time>2011-05-22T19:30:42Z</time></trkpt><trkpt lat="50.011017" lon="14.399197"><ele>195.28</ele><time>2011-05-22T19:30:54Z</time></trkpt><trkpt lat="50.011017" lon="14.399197"><ele>193.84</ele><time>2011-05-22T19:31:06Z</time></trkpt><trkpt lat="50.011021" lon="14.399197"><ele>194.80</ele><time>2011-05-22T19:31:08Z</time></trkpt><trkpt lat="50.011032" lon="14.399194"><ele>194.32</ele><time>2011-05-22T19:31:21Z</time></trkpt><trkpt lat="50.011051" lon="14.399192"><ele>193.84</ele><time>2011-05-22T19:31:22Z</time></trkpt><trkpt lat="50.011074" lon="14.399190"><ele>194.32</ele><time>2011-05-22T19:31:23Z</time></trkpt><trkpt lat="50.011101" lon="14.399183"><ele>194.80</ele><time>2011-05-22T19:31:24Z</time></trkpt><trkpt lat="50.011139" lon="14.399174"><ele>194.32</ele><time>2011-05-22T19:31:25Z</time></trkpt><trkpt lat="50.011806" lon="14.399014"><ele>192.40</ele><time>2011-05-22T19:31:37Z</time></trkpt><trkpt lat="50.012932" lon="14.398785"><ele>192.88</ele><time>2011-05-22T19:31:56Z</time></trkpt><trkpt lat="50.013138" lon="14.398728"><ele>191.92</ele><time>2011-05-22T19:32:00Z</time></trkpt><trkpt lat="50.013988" lon="14.398717"><ele>193.36</ele><time>2011-05-22T19:32:16Z</time></trkpt><trkpt lat="50.014835" lon="14.398718"><ele>195.28</ele><time>2011-05-22T19:32:34Z</time></trkpt><trkpt lat="50.015789" lon="14.398910"><ele>194.32</ele><time>2011-05-22T19:32:53Z</time></trkpt><trkpt lat="50.016556" lon="14.399103"><ele>192.88</ele><time>2011-05-22T19:33:08Z</time></trkpt><trkpt lat="50.017475" lon="14.399539"><ele>193.84</ele><time>2011-05-22T19:33:24Z</time></trkpt><trkpt lat="50.018433" lon="14.399882"><ele>193.36</ele><time>2011-05-22T19:33:42Z</time></trkpt><trkpt lat="50.019112" lon="14.400032"><ele>191.44</ele><time>2011-05-22T19:33:54Z</time></trkpt><trkpt lat="50.019966" lon="14.400322"><ele>191.92</ele><time>2011-05-22T19:34:11Z</time></trkpt><trkpt lat="50.020390" lon="14.400467"><ele>191.92</ele><time>2011-05-22T19:34:22Z</time></trkpt><trkpt lat="50.020435" lon="14.400480"><ele>192.40</ele><time>2011-05-22T19:34:23Z</time></trkpt><trkpt lat="50.020470" lon="14.400504"><ele>193.36</ele><time>2011-05-22T19:34:24Z</time></trkpt><trkpt lat="50.020512" lon="14.400524"><ele>192.88</ele><time>2011-05-22T19:34:25Z</time></trkpt><trkpt lat="50.020550" lon="14.400539"><ele>192.40</ele><time>2011-05-22T19:34:26Z</time></trkpt><trkpt lat="50.020592" lon="14.400554"><ele>192.88</ele><time>2011-05-22T19:34:27Z</time></trkpt><trkpt lat="50.020630" lon="14.400565"><ele>192.88</ele><time>2011-05-22T19:34:28Z</time></trkpt><trkpt lat="50.020893" lon="14.400661"><ele>192.40</ele><time>2011-05-22T19:34:37Z</time></trkpt><trkpt lat="50.021111" lon="14.400778"><ele>193.84</ele><time>2011-05-22T19:34:48Z</time></trkpt><trkpt lat="50.021336" lon="14.400862"><ele>193.36</ele><time>2011-05-22T19:35:02Z</time></trkpt><trkpt lat="50.021381" lon="14.400874"><ele>194.32</ele><time>2011-05-22T19:35:09Z</time></trkpt><trkpt lat="50.021400" lon="14.400882"><ele>193.84</ele><time>2011-05-22T19:35:10Z</time></trkpt><trkpt lat="50.021423" lon="14.400890"><ele>193.84</ele><time>2011-05-22T19:35:11Z</time></trkpt><trkpt lat="50.021450" lon="14.400898"><ele>193.84</ele><time>2011-05-22T19:35:12Z</time></trkpt><trkpt lat="50.021488" lon="14.400908"><ele>193.36</ele><time>2011-05-22T19:35:13Z</time></trkpt><trkpt lat="50.022118" lon="14.401120"><ele>194.32</ele><time>2011-05-22T19:35:27Z</time></trkpt><trkpt lat="50.022881" lon="14.401397"><ele>194.80</ele><time>2011-05-22T19:35:43Z</time></trkpt><trkpt lat="50.023441" lon="14.401517"><ele>191.44</ele><time>2011-05-22T19:35:58Z</time></trkpt><trkpt lat="50.023529" lon="14.400473"><ele>192.88</ele><time>2011-05-22T19:36:12Z</time></trkpt><trkpt lat="50.023529" lon="14.399444"><ele>192.88</ele><time>2011-05-22T19:36:24Z</time></trkpt><trkpt lat="50.023602" lon="14.398581"><ele>193.84</ele><time>2011-05-22T19:36:39Z</time></trkpt><trkpt lat="50.023705" lon="14.398082"><ele>190.48</ele><time>2011-05-22T19:36:50Z</time></trkpt><trkpt lat="50.023811" lon="14.398019"><ele>190.96</ele><time>2011-05-22T19:37:04Z</time></trkpt><trkpt lat="50.023811" lon="14.398144"><ele>191.44</ele><time>2011-05-22T19:37:10Z</time></trkpt><trkpt lat="50.023823" lon="14.398221"><ele>190.96</ele><time>2011-05-22T19:37:27Z</time></trkpt><trkpt lat="50.023827" lon="14.398221"><ele>190.96</ele><time>2011-05-22T19:37:45Z</time></trkpt><trkpt lat="50.023838" lon="14.398237"><ele>190.96</ele><time>2011-05-22T19:38:02Z</time></trkpt><trkpt lat="50.023838" lon="14.398237"><ele>191.44</ele><time>2011-05-22T19:38:23Z</time></trkpt><trkpt lat="50.023830" lon="14.398237"><ele>189.04</ele><time>2011-05-22T19:38:43Z</time></trkpt><trkpt lat="50.023830" lon="14.398238"><ele>190.96</ele><time>2011-05-22T19:38:51Z</time></trkpt></trkseg><trkseg><trkpt lat="50.023991" lon="14.398742"><ele>196.73</ele><time>2011-05-22T20:34:57Z</time></trkpt><trkpt lat="50.023979" lon="14.398731"><ele>196.73</ele><time>2011-05-22T20:34:58Z</time></trkpt><trkpt lat="50.023956" lon="14.398609"><ele>196.25</ele><time>2011-05-22T20:35:17Z</time></trkpt><trkpt lat="50.023975" lon="14.398589"><ele>192.88</ele><time>2011-05-22T20:35:22Z</time></trkpt><trkpt lat="50.023983" lon="14.398592"><ele>195.28</ele><time>2011-05-22T20:35:24Z</time></trkpt></trkseg></trk></gpx>